<?xml version="1.0" encoding="utf-8"?>
<gpx xsi:schemaLocation="http://www.topografix.com/GPX/1/1 http://www.topografix.com/GPX/1/1/gpx.xsd http://www.garmin.com/xmlschemas/GpxExtensions/v3 http://www.garmin.com/xmlschemas/GpxExtensionsv3.xsd http://www.garmin.com/xmlschemas/TrackPointExtension/v1 http://www.garmin.com/xmlschemas/TrackPointExtensionv1.xsd" version="1.1" creator="Sports Tracker" xmlns="http://www.topografix.com/GPX/1/1" xmlns:xsi="http://www.w3.org/2001/XMLSchema-instance" xmlns:gpxtpx="http://www.garmin.com/xmlschemas/TrackPointExtension/v1" xmlns:gpxx="http://www.garmin.com/xmlschemas/GpxExtensions/v3">
  <metadata>
    <name>Mountain biking 12/02/2013/20:33:50.66</name>
    <desc></desc>
    <author>
      <name>Gabriel Kovach</name>
    </author>
    <link href="www.sports-tracker.com">
      <text>Sports Tracker</text>
    </link>
  </metadata>
  <trk>
    <trkseg>
      <trkpt lat="33.080105" lon="35.164006666666666">
        <ele>182.9</ele>
        <time>2013-02-12T20:33:50.66</time>
      </trkpt>
      <trkpt lat="33.080105" lon="35.164006666666666">
        <ele>182.9</ele>
        <time>2013-02-12T20:33:54.17</time>
      </trkpt>
      <trkpt lat="33.080101666666664" lon="35.164">
        <ele>183.1</ele>
        <time>2013-02-12T20:33:55.19</time>
      </trkpt>
      <trkpt lat="33.0801" lon="35.16399166666667">
        <ele>183.5</ele>
        <time>2013-02-12T20:33:56.19</time>
      </trkpt>
      <trkpt lat="33.08009666666667" lon="35.163985">
        <ele>183.8</ele>
        <time>2013-02-12T20:33:57.21</time>
      </trkpt>
      <trkpt lat="33.08009833333333" lon="35.16402">
        <ele>183.2</ele>
        <time>2013-02-12T20:34:04.20</time>
      </trkpt>
      <trkpt lat="33.08009166666667" lon="35.16402166666666">
        <ele>183.6</ele>
        <time>2013-02-12T20:34:05.17</time>
      </trkpt>
      <trkpt lat="33.080086666666666" lon="35.16401666666667">
        <ele>182.9</ele>
        <time>2013-02-12T20:34:12.21</time>
      </trkpt>
      <trkpt lat="33.080083333333334" lon="35.164008333333335">
        <ele>182.8</ele>
        <time>2013-02-12T20:34:13.18</time>
      </trkpt>
      <trkpt lat="33.08005" lon="35.16396666666667">
        <ele>183.60000000000002</ele>
        <time>2013-02-12T20:34:14.18</time>
      </trkpt>
      <trkpt lat="33.08002833333333" lon="35.16393">
        <ele>183.8</ele>
        <time>2013-02-12T20:34:15.20</time>
      </trkpt>
      <trkpt lat="33.079996666666666" lon="35.16393">
        <ele>183.70000000000002</ele>
        <time>2013-02-12T20:34:16.21</time>
      </trkpt>
      <trkpt lat="33.079975" lon="35.163873333333335">
        <ele>184.10000000000002</ele>
        <time>2013-02-12T20:34:17.21</time>
      </trkpt>
      <trkpt lat="33.07995" lon="35.163828333333335">
        <ele>184.50000000000003</ele>
        <time>2013-02-12T20:34:18.18</time>
      </trkpt>
      <trkpt lat="33.079935" lon="35.163801666666664">
        <ele>184.60000000000002</ele>
        <time>2013-02-12T20:34:19.19</time>
      </trkpt>
      <trkpt lat="33.079908333333336" lon="35.16377833333333">
        <ele>185.00000000000003</ele>
        <time>2013-02-12T20:34:20.18</time>
      </trkpt>
      <trkpt lat="33.079906666666666" lon="35.163715">
        <ele>185.10000000000002</ele>
        <time>2013-02-12T20:34:21.17</time>
      </trkpt>
      <trkpt lat="33.079908333333336" lon="35.16368333333333">
        <ele>185.10000000000002</ele>
        <time>2013-02-12T20:34:22.17</time>
      </trkpt>
      <trkpt lat="33.07991166666667" lon="35.16363333333334">
        <ele>185.00000000000003</ele>
        <time>2013-02-12T20:34:23.16</time>
      </trkpt>
      <trkpt lat="33.079908333333336" lon="35.16357333333333">
        <ele>184.90000000000003</ele>
        <time>2013-02-12T20:34:24.17</time>
      </trkpt>
      <trkpt lat="33.079905" lon="35.16354">
        <ele>184.50000000000003</ele>
        <time>2013-02-12T20:34:25.19</time>
      </trkpt>
      <trkpt lat="33.079885" lon="35.16347666666667">
        <ele>183.60000000000002</ele>
        <time>2013-02-12T20:34:26.18</time>
      </trkpt>
      <trkpt lat="33.079855" lon="35.163395">
        <ele>181.8</ele>
        <time>2013-02-12T20:34:27.19</time>
      </trkpt>
      <trkpt lat="33.07982333333333" lon="35.163351666666664">
        <ele>181.60000000000002</ele>
        <time>2013-02-12T20:34:28.22</time>
      </trkpt>
      <trkpt lat="33.079795" lon="35.163291666666666">
        <ele>181.00000000000003</ele>
        <time>2013-02-12T20:34:29.20</time>
      </trkpt>
      <trkpt lat="33.07978333333333" lon="35.163228333333336">
        <ele>180.50000000000003</ele>
        <time>2013-02-12T20:34:30.21</time>
      </trkpt>
      <trkpt lat="33.079785" lon="35.16317">
        <ele>179.90000000000003</ele>
        <time>2013-02-12T20:34:31.19</time>
      </trkpt>
      <trkpt lat="33.07977" lon="35.16312">
        <ele>178.90000000000003</ele>
        <time>2013-02-12T20:34:32.20</time>
      </trkpt>
      <trkpt lat="33.07975666666667" lon="35.16307333333334">
        <ele>178.50000000000003</ele>
        <time>2013-02-12T20:34:33.19</time>
      </trkpt>
      <trkpt lat="33.07974" lon="35.16301333333333">
        <ele>178.60000000000002</ele>
        <time>2013-02-12T20:34:34.20</time>
      </trkpt>
      <trkpt lat="33.079725" lon="35.162933333333335">
        <ele>178.10000000000002</ele>
        <time>2013-02-12T20:34:35.19</time>
      </trkpt>
      <trkpt lat="33.07970666666667" lon="35.16287833333333">
        <ele>177.40000000000003</ele>
        <time>2013-02-12T20:34:36.20</time>
      </trkpt>
      <trkpt lat="33.07969166666667" lon="35.16282">
        <ele>177.20000000000005</ele>
        <time>2013-02-12T20:34:37.19</time>
      </trkpt>
      <trkpt lat="33.079678333333334" lon="35.16278333333333">
        <ele>177.00000000000006</ele>
        <time>2013-02-12T20:34:38.19</time>
      </trkpt>
      <trkpt lat="33.07965166666666" lon="35.162735">
        <ele>176.90000000000006</ele>
        <time>2013-02-12T20:34:39.20</time>
      </trkpt>
      <trkpt lat="33.079636666666666" lon="35.16269">
        <ele>177.20000000000007</ele>
        <time>2013-02-12T20:34:40.23</time>
      </trkpt>
      <trkpt lat="33.079613333333334" lon="35.16262666666667">
        <ele>176.60000000000008</ele>
        <time>2013-02-12T20:34:41.21</time>
      </trkpt>
      <trkpt lat="33.079618333333336" lon="35.16258166666667">
        <ele>175.9000000000001</ele>
        <time>2013-02-12T20:34:42.19</time>
      </trkpt>
      <trkpt lat="33.07962666666667" lon="35.16254333333333">
        <ele>175.50000000000009</ele>
        <time>2013-02-12T20:34:43.19</time>
      </trkpt>
      <trkpt lat="33.07962" lon="35.16247666666667">
        <ele>174.50000000000009</ele>
        <time>2013-02-12T20:34:44.20</time>
      </trkpt>
      <trkpt lat="33.07960333333333" lon="35.16242666666667">
        <ele>173.9000000000001</ele>
        <time>2013-02-12T20:34:45.18</time>
      </trkpt>
      <trkpt lat="33.07958166666667" lon="35.162371666666665">
        <ele>173.00000000000009</ele>
        <time>2013-02-12T20:34:46.20</time>
      </trkpt>
      <trkpt lat="33.07958166666667" lon="35.16233833333333">
        <ele>171.9000000000001</ele>
        <time>2013-02-12T20:34:47.20</time>
      </trkpt>
      <trkpt lat="33.07960333333333" lon="35.162308333333335">
        <ele>171.50000000000009</ele>
        <time>2013-02-12T20:34:48.21</time>
      </trkpt>
      <trkpt lat="33.079586666666664" lon="35.16225333333333">
        <ele>171.50000000000009</ele>
        <time>2013-02-12T20:34:49.19</time>
      </trkpt>
      <trkpt lat="33.079548333333335" lon="35.16219">
        <ele>170.9000000000001</ele>
        <time>2013-02-12T20:34:50.21</time>
      </trkpt>
      <trkpt lat="33.07952" lon="35.1621">
        <ele>166.60000000000008</ele>
        <time>2013-02-12T20:34:51.19</time>
      </trkpt>
      <trkpt lat="33.079495" lon="35.16204666666667">
        <ele>164.4000000000001</ele>
        <time>2013-02-12T20:34:52.20</time>
      </trkpt>
      <trkpt lat="33.07947333333333" lon="35.16202">
        <ele>164.2000000000001</ele>
        <time>2013-02-12T20:34:53.20</time>
      </trkpt>
      <trkpt lat="33.07944833333333" lon="35.162">
        <ele>163.0000000000001</ele>
        <time>2013-02-12T20:34:54.19</time>
      </trkpt>
      <trkpt lat="33.07941833333334" lon="35.16198833333333">
        <ele>162.30000000000013</ele>
        <time>2013-02-12T20:34:55.20</time>
      </trkpt>
      <trkpt lat="33.07938333333333" lon="35.161968333333334">
        <ele>161.40000000000012</ele>
        <time>2013-02-12T20:34:56.19</time>
      </trkpt>
      <trkpt lat="33.079341666666664" lon="35.16195833333333">
        <ele>161.0000000000001</ele>
        <time>2013-02-12T20:34:57.21</time>
      </trkpt>
      <trkpt lat="33.07931" lon="35.16194">
        <ele>160.2000000000001</ele>
        <time>2013-02-12T20:34:58.19</time>
      </trkpt>
      <trkpt lat="33.079275" lon="35.161923333333334">
        <ele>159.2000000000001</ele>
        <time>2013-02-12T20:34:59.20</time>
      </trkpt>
      <trkpt lat="33.07925" lon="35.161915">
        <ele>157.1000000000001</ele>
        <time>2013-02-12T20:35:00.36</time>
      </trkpt>
      <trkpt lat="33.07921833333333" lon="35.161925">
        <ele>156.6000000000001</ele>
        <time>2013-02-12T20:35:01.19</time>
      </trkpt>
      <trkpt lat="33.079195" lon="35.161921666666665">
        <ele>156.6000000000001</ele>
        <time>2013-02-12T20:35:02.21</time>
      </trkpt>
      <trkpt lat="33.079175" lon="35.16191">
        <ele>156.1000000000001</ele>
        <time>2013-02-12T20:35:03.20</time>
      </trkpt>
      <trkpt lat="33.079168333333335" lon="35.16191">
        <ele>155.90000000000012</ele>
        <time>2013-02-12T20:35:04.19</time>
      </trkpt>
      <trkpt lat="33.079143333333334" lon="35.1619">
        <ele>155.90000000000012</ele>
        <time>2013-02-12T20:35:05.19</time>
      </trkpt>
      <trkpt lat="33.07911333333333" lon="35.161903333333335">
        <ele>156.0000000000001</ele>
        <time>2013-02-12T20:35:06.16</time>
      </trkpt>
      <trkpt lat="33.07909166666666" lon="35.16189">
        <ele>155.90000000000012</ele>
        <time>2013-02-12T20:35:07.18</time>
      </trkpt>
      <trkpt lat="33.07905" lon="35.16189333333333">
        <ele>156.30000000000013</ele>
        <time>2013-02-12T20:35:08.17</time>
      </trkpt>
      <trkpt lat="33.07902833333333" lon="35.161896666666664">
        <ele>156.30000000000013</ele>
        <time>2013-02-12T20:35:09.15</time>
      </trkpt>
      <trkpt lat="33.079006666666665" lon="35.161901666666665">
        <ele>155.60000000000014</ele>
        <time>2013-02-12T20:35:10.17</time>
      </trkpt>
      <trkpt lat="33.07898333333333" lon="35.161903333333335">
        <ele>154.60000000000014</ele>
        <time>2013-02-12T20:35:11.18</time>
      </trkpt>
      <trkpt lat="33.07897166666667" lon="35.16193">
        <ele>153.40000000000015</ele>
        <time>2013-02-12T20:35:12.17</time>
      </trkpt>
      <trkpt lat="33.078941666666665" lon="35.161925">
        <ele>153.00000000000014</ele>
        <time>2013-02-12T20:35:13.16</time>
      </trkpt>
      <trkpt lat="33.078921666666666" lon="35.161915">
        <ele>152.40000000000015</ele>
        <time>2013-02-12T20:35:14.17</time>
      </trkpt>
      <trkpt lat="33.07888666666667" lon="35.16191166666667">
        <ele>151.10000000000014</ele>
        <time>2013-02-12T20:35:15.18</time>
      </trkpt>
      <trkpt lat="33.078855" lon="35.16193333333333">
        <ele>152.30000000000013</ele>
        <time>2013-02-12T20:35:16.18</time>
      </trkpt>
      <trkpt lat="33.07881833333333" lon="35.16195333333334">
        <ele>151.80000000000013</ele>
        <time>2013-02-12T20:35:17.16</time>
      </trkpt>
      <trkpt lat="33.078785" lon="35.16195666666667">
        <ele>151.5000000000001</ele>
        <time>2013-02-12T20:35:18.18</time>
      </trkpt>
      <trkpt lat="33.07877" lon="35.161965">
        <ele>151.80000000000013</ele>
        <time>2013-02-12T20:35:19.19</time>
      </trkpt>
      <trkpt lat="33.07875166666667" lon="35.161985">
        <ele>151.80000000000013</ele>
        <time>2013-02-12T20:35:20.17</time>
      </trkpt>
      <trkpt lat="33.078735" lon="35.161995">
        <ele>151.40000000000012</ele>
        <time>2013-02-12T20:35:21.21</time>
      </trkpt>
      <trkpt lat="33.07872166666667" lon="35.162018333333336">
        <ele>151.30000000000013</ele>
        <time>2013-02-12T20:35:22.20</time>
      </trkpt>
      <trkpt lat="33.078705" lon="35.162036666666665">
        <ele>151.0000000000001</ele>
        <time>2013-02-12T20:35:23.19</time>
      </trkpt>
      <trkpt lat="33.07868833333333" lon="35.162055">
        <ele>150.90000000000012</ele>
        <time>2013-02-12T20:35:24.19</time>
      </trkpt>
      <trkpt lat="33.07868333333333" lon="35.162055">
        <ele>151.20000000000013</ele>
        <time>2013-02-12T20:35:25.17</time>
      </trkpt>
      <trkpt lat="33.078691666666664" lon="35.16206">
        <ele>151.40000000000012</ele>
        <time>2013-02-12T20:35:26.18</time>
      </trkpt>
      <trkpt lat="33.07868666666667" lon="35.16209166666667">
        <ele>151.80000000000013</ele>
        <time>2013-02-12T20:35:27.18</time>
      </trkpt>
      <trkpt lat="33.078678333333336" lon="35.162105">
        <ele>151.5000000000001</ele>
        <time>2013-02-12T20:35:28.17</time>
      </trkpt>
      <trkpt lat="33.07866166666667" lon="35.16214166666666">
        <ele>151.5000000000001</ele>
        <time>2013-02-12T20:35:29.17</time>
      </trkpt>
      <trkpt lat="33.07863833333333" lon="35.16216">
        <ele>151.5000000000001</ele>
        <time>2013-02-12T20:35:30.15</time>
      </trkpt>
      <trkpt lat="33.07861333333334" lon="35.16218333333333">
        <ele>152.0000000000001</ele>
        <time>2013-02-12T20:35:31.15</time>
      </trkpt>
      <trkpt lat="33.07859333333333" lon="35.16222333333333">
        <ele>152.40000000000012</ele>
        <time>2013-02-12T20:35:32.16</time>
      </trkpt>
      <trkpt lat="33.07855833333333" lon="35.162258333333334">
        <ele>152.20000000000013</ele>
        <time>2013-02-12T20:35:33.15</time>
      </trkpt>
      <trkpt lat="33.07854" lon="35.162265">
        <ele>152.50000000000014</ele>
        <time>2013-02-12T20:35:34.18</time>
      </trkpt>
      <trkpt lat="33.07851333333333" lon="35.162275">
        <ele>152.40000000000015</ele>
        <time>2013-02-12T20:35:35.15</time>
      </trkpt>
      <trkpt lat="33.078495" lon="35.16231">
        <ele>152.60000000000014</ele>
        <time>2013-02-12T20:35:36.16</time>
      </trkpt>
      <trkpt lat="33.078471666666665" lon="35.16234">
        <ele>152.80000000000013</ele>
        <time>2013-02-12T20:35:37.14</time>
      </trkpt>
      <trkpt lat="33.07846166666667" lon="35.162366666666664">
        <ele>152.90000000000012</ele>
        <time>2013-02-12T20:35:38.15</time>
      </trkpt>
      <trkpt lat="33.078465" lon="35.16240666666667">
        <ele>153.90000000000012</ele>
        <time>2013-02-12T20:35:39.17</time>
      </trkpt>
      <trkpt lat="33.078446666666665" lon="35.162445">
        <ele>153.70000000000013</ele>
        <time>2013-02-12T20:35:40.18</time>
      </trkpt>
      <trkpt lat="33.07843166666667" lon="35.162485">
        <ele>153.70000000000013</ele>
        <time>2013-02-12T20:35:41.14</time>
      </trkpt>
      <trkpt lat="33.07841166666667" lon="35.162515">
        <ele>153.60000000000014</ele>
        <time>2013-02-12T20:35:42.14</time>
      </trkpt>
      <trkpt lat="33.07839333333333" lon="35.16251333333334">
        <ele>153.90000000000015</ele>
        <time>2013-02-12T20:35:43.14</time>
      </trkpt>
      <trkpt lat="33.07837833333333" lon="35.162531666666666">
        <ele>153.90000000000015</ele>
        <time>2013-02-12T20:35:44.16</time>
      </trkpt>
      <trkpt lat="33.07836666666667" lon="35.162553333333335">
        <ele>153.90000000000015</ele>
        <time>2013-02-12T20:35:45.15</time>
      </trkpt>
      <trkpt lat="33.07835166666667" lon="35.16256833333333">
        <ele>153.80000000000015</ele>
        <time>2013-02-12T20:35:46.14</time>
      </trkpt>
      <trkpt lat="33.07834833333333" lon="35.16258">
        <ele>153.90000000000015</ele>
        <time>2013-02-12T20:35:47.15</time>
      </trkpt>
      <trkpt lat="33.07832" lon="35.16261">
        <ele>154.20000000000016</ele>
        <time>2013-02-12T20:35:48.17</time>
      </trkpt>
      <trkpt lat="33.078313333333334" lon="35.162661666666665">
        <ele>153.70000000000016</ele>
        <time>2013-02-12T20:35:49.17</time>
      </trkpt>
      <trkpt lat="33.078298333333336" lon="35.16271166666667">
        <ele>153.30000000000015</ele>
        <time>2013-02-12T20:35:50.16</time>
      </trkpt>
      <trkpt lat="33.078285" lon="35.162726666666664">
        <ele>153.60000000000016</ele>
        <time>2013-02-12T20:35:51.17</time>
      </trkpt>
      <trkpt lat="33.078265" lon="35.16273">
        <ele>153.60000000000016</ele>
        <time>2013-02-12T20:35:52.15</time>
      </trkpt>
      <trkpt lat="33.07823833333333" lon="35.16276333333333">
        <ele>153.20000000000016</ele>
        <time>2013-02-12T20:35:53.17</time>
      </trkpt>
      <trkpt lat="33.07823" lon="35.16278166666667">
        <ele>152.60000000000016</ele>
        <time>2013-02-12T20:35:55.22</time>
      </trkpt>
      <trkpt lat="33.078226666666666" lon="35.162796666666665">
        <ele>152.50000000000017</ele>
        <time>2013-02-12T20:35:56.19</time>
      </trkpt>
      <trkpt lat="33.078208333333336" lon="35.162825">
        <ele>152.60000000000016</ele>
        <time>2013-02-12T20:35:57.22</time>
      </trkpt>
      <trkpt lat="33.07818833333334" lon="35.16284">
        <ele>153.00000000000017</ele>
        <time>2013-02-12T20:35:58.18</time>
      </trkpt>
      <trkpt lat="33.078158333333334" lon="35.16287166666667">
        <ele>152.80000000000018</ele>
        <time>2013-02-12T20:35:59.19</time>
      </trkpt>
      <trkpt lat="33.07814333333334" lon="35.162895">
        <ele>153.30000000000018</ele>
        <time>2013-02-12T20:36:00.17</time>
      </trkpt>
      <trkpt lat="33.078113333333334" lon="35.16293666666667">
        <ele>152.90000000000018</ele>
        <time>2013-02-12T20:36:01.21</time>
      </trkpt>
      <trkpt lat="33.07808" lon="35.16298166666667">
        <ele>152.90000000000018</ele>
        <time>2013-02-12T20:36:02.18</time>
      </trkpt>
      <trkpt lat="33.078065" lon="35.16301166666667">
        <ele>153.2000000000002</ele>
        <time>2013-02-12T20:36:03.23</time>
      </trkpt>
      <trkpt lat="33.078041666666664" lon="35.16303333333333">
        <ele>154.1000000000002</ele>
        <time>2013-02-12T20:36:04.19</time>
      </trkpt>
      <trkpt lat="33.078026666666666" lon="35.16304">
        <ele>154.2000000000002</ele>
        <time>2013-02-12T20:36:05.18</time>
      </trkpt>
      <trkpt lat="33.078028333333336" lon="35.163046666666666">
        <ele>153.80000000000018</ele>
        <time>2013-02-12T20:36:06.21</time>
      </trkpt>
      <trkpt lat="33.07803333333333" lon="35.163065">
        <ele>153.00000000000017</ele>
        <time>2013-02-12T20:36:07.19</time>
      </trkpt>
      <trkpt lat="33.07802" lon="35.163091666666666">
        <ele>151.70000000000016</ele>
        <time>2013-02-12T20:36:08.21</time>
      </trkpt>
      <trkpt lat="33.077981666666666" lon="35.16311666666667">
        <ele>153.40000000000015</ele>
        <time>2013-02-12T20:36:09.26</time>
      </trkpt>
      <trkpt lat="33.077951666666664" lon="35.16313">
        <ele>153.20000000000016</ele>
        <time>2013-02-12T20:36:10.21</time>
      </trkpt>
      <trkpt lat="33.07792666666667" lon="35.16314666666667">
        <ele>153.30000000000015</ele>
        <time>2013-02-12T20:36:11.20</time>
      </trkpt>
      <trkpt lat="33.077905" lon="35.16316166666667">
        <ele>153.30000000000015</ele>
        <time>2013-02-12T20:36:12.19</time>
      </trkpt>
      <trkpt lat="33.07788166666667" lon="35.16317166666666">
        <ele>152.90000000000015</ele>
        <time>2013-02-12T20:36:13.20</time>
      </trkpt>
      <trkpt lat="33.07785" lon="35.16317166666666">
        <ele>152.40000000000015</ele>
        <time>2013-02-12T20:36:14.19</time>
      </trkpt>
      <trkpt lat="33.077841666666664" lon="35.163198333333334">
        <ele>152.60000000000014</ele>
        <time>2013-02-12T20:36:15.20</time>
      </trkpt>
      <trkpt lat="33.077828333333336" lon="35.16321">
        <ele>152.50000000000014</ele>
        <time>2013-02-12T20:36:16.19</time>
      </trkpt>
      <trkpt lat="33.077805" lon="35.16321166666667">
        <ele>152.80000000000015</ele>
        <time>2013-02-12T20:36:17.20</time>
      </trkpt>
      <trkpt lat="33.07779333333333" lon="35.16323">
        <ele>152.40000000000015</ele>
        <time>2013-02-12T20:36:18.17</time>
      </trkpt>
      <trkpt lat="33.07778666666667" lon="35.16325">
        <ele>151.90000000000015</ele>
        <time>2013-02-12T20:36:19.18</time>
      </trkpt>
      <trkpt lat="33.07776833333333" lon="35.163275">
        <ele>151.90000000000015</ele>
        <time>2013-02-12T20:36:20.18</time>
      </trkpt>
      <trkpt lat="33.07774333333333" lon="35.16330833333333">
        <ele>150.30000000000015</ele>
        <time>2013-02-12T20:36:21.17</time>
      </trkpt>
      <trkpt lat="33.07776333333333" lon="35.16334">
        <ele>149.50000000000014</ele>
        <time>2013-02-12T20:36:22.16</time>
      </trkpt>
      <trkpt lat="33.077765" lon="35.163376666666665">
        <ele>148.10000000000014</ele>
        <time>2013-02-12T20:36:23.17</time>
      </trkpt>
      <trkpt lat="33.07774333333333" lon="35.16339333333333">
        <ele>147.90000000000015</ele>
        <time>2013-02-12T20:36:24.16</time>
      </trkpt>
      <trkpt lat="33.07772166666667" lon="35.163425">
        <ele>147.30000000000015</ele>
        <time>2013-02-12T20:36:25.17</time>
      </trkpt>
      <trkpt lat="33.07770166666667" lon="35.163423333333334">
        <ele>147.70000000000016</ele>
        <time>2013-02-12T20:36:26.18</time>
      </trkpt>
      <trkpt lat="33.07768333333333" lon="35.163425">
        <ele>148.30000000000015</ele>
        <time>2013-02-12T20:36:27.23</time>
      </trkpt>
      <trkpt lat="33.07770333333333" lon="35.16345333333334">
        <ele>148.70000000000016</ele>
        <time>2013-02-12T20:36:28.18</time>
      </trkpt>
      <trkpt lat="33.07770333333333" lon="35.163465">
        <ele>149.00000000000017</ele>
        <time>2013-02-12T20:36:29.19</time>
      </trkpt>
      <trkpt lat="33.07768333333333" lon="35.163486666666664">
        <ele>149.40000000000018</ele>
        <time>2013-02-12T20:36:30.21</time>
      </trkpt>
      <trkpt lat="33.07768" lon="35.16349666666667">
        <ele>150.60000000000016</ele>
        <time>2013-02-12T20:36:32.20</time>
      </trkpt>
      <trkpt lat="33.07768" lon="35.163505">
        <ele>151.70000000000016</ele>
        <time>2013-02-12T20:36:33.25</time>
      </trkpt>
      <trkpt lat="33.07767666666667" lon="35.163513333333334">
        <ele>150.80000000000015</ele>
        <time>2013-02-12T20:36:34.19</time>
      </trkpt>
      <trkpt lat="33.07770166666667" lon="35.163513333333334">
        <ele>150.30000000000015</ele>
        <time>2013-02-12T20:36:35.19</time>
      </trkpt>
      <trkpt lat="33.07769166666667" lon="35.16354166666667">
        <ele>150.90000000000015</ele>
        <time>2013-02-12T20:36:37.20</time>
      </trkpt>
      <trkpt lat="33.07770333333333" lon="35.163531666666664">
        <ele>150.70000000000016</ele>
        <time>2013-02-12T20:36:38.18</time>
      </trkpt>
      <trkpt lat="33.0777" lon="35.163525">
        <ele>148.80000000000015</ele>
        <time>2013-02-12T20:36:39.19</time>
      </trkpt>
      <trkpt lat="33.077711666666666" lon="35.16354">
        <ele>147.60000000000016</ele>
        <time>2013-02-12T20:36:40.20</time>
      </trkpt>
      <trkpt lat="33.07771833333334" lon="35.163563333333336">
        <ele>147.20000000000016</ele>
        <time>2013-02-12T20:36:41.16</time>
      </trkpt>
      <trkpt lat="33.0777" lon="35.163545">
        <ele>146.90000000000015</ele>
        <time>2013-02-12T20:36:42.17</time>
      </trkpt>
      <trkpt lat="33.077685" lon="35.163531666666664">
        <ele>146.30000000000015</ele>
        <time>2013-02-12T20:36:43.17</time>
      </trkpt>
      <trkpt lat="33.07767166666667" lon="35.16350166666667">
        <ele>146.40000000000015</ele>
        <time>2013-02-12T20:36:44.16</time>
      </trkpt>
      <trkpt lat="33.07766" lon="35.163493333333335">
        <ele>146.40000000000015</ele>
        <time>2013-02-12T20:36:45.16</time>
      </trkpt>
      <trkpt lat="33.07763833333333" lon="35.16352666666667">
        <ele>145.40000000000015</ele>
        <time>2013-02-12T20:36:46.17</time>
      </trkpt>
      <trkpt lat="33.07763333333333" lon="35.163538333333335">
        <ele>144.50000000000014</ele>
        <time>2013-02-12T20:36:47.17</time>
      </trkpt>
      <trkpt lat="33.077648333333336" lon="35.163545">
        <ele>144.10000000000014</ele>
        <time>2013-02-12T20:36:48.17</time>
      </trkpt>
      <trkpt lat="33.07762666666667" lon="35.16356">
        <ele>142.20000000000013</ele>
        <time>2013-02-12T20:36:49.19</time>
      </trkpt>
      <trkpt lat="33.077635" lon="35.16357">
        <ele>142.10000000000014</ele>
        <time>2013-02-12T20:36:51.26</time>
      </trkpt>
      <trkpt lat="33.07764" lon="35.163563333333336">
        <ele>142.00000000000014</ele>
        <time>2013-02-12T20:36:52.17</time>
      </trkpt>
      <trkpt lat="33.077645" lon="35.16356833333333">
        <ele>141.80000000000015</ele>
        <time>2013-02-12T20:36:53.16</time>
      </trkpt>
      <trkpt lat="33.07765333333333" lon="35.16358833333334">
        <ele>144.4</ele>
        <time>2013-02-12T20:37:00.17</time>
      </trkpt>
      <trkpt lat="33.07765833333333" lon="35.16359333333333">
        <ele>145.70000000000002</ele>
        <time>2013-02-12T20:37:01.17</time>
      </trkpt>
      <trkpt lat="33.07767" lon="35.163628333333335">
        <ele>146.7</ele>
        <time>2013-02-12T20:37:05.16</time>
      </trkpt>
      <trkpt lat="33.07767" lon="35.163655">
        <ele>147.29999999999998</ele>
        <time>2013-02-12T20:37:06.17</time>
      </trkpt>
      <trkpt lat="33.077663333333334" lon="35.163655">
        <ele>147.49999999999997</ele>
        <time>2013-02-12T20:37:07.17</time>
      </trkpt>
      <trkpt lat="33.07765833333333" lon="35.16366166666667">
        <ele>147.69999999999996</ele>
        <time>2013-02-12T20:37:08.17</time>
      </trkpt>
      <trkpt lat="33.077665" lon="35.163666666666664">
        <ele>147.29999999999995</ele>
        <time>2013-02-12T20:37:09.16</time>
      </trkpt>
      <trkpt lat="33.077675" lon="35.16367833333333">
        <ele>147.29999999999995</ele>
        <time>2013-02-12T20:37:10.16</time>
      </trkpt>
      <trkpt lat="33.077686666666665" lon="35.16368">
        <ele>147.29999999999995</ele>
        <time>2013-02-12T20:37:11.17</time>
      </trkpt>
      <trkpt lat="33.07768166666666" lon="35.16370166666667">
        <ele>147.19999999999996</ele>
        <time>2013-02-12T20:37:12.18</time>
      </trkpt>
      <trkpt lat="33.07768166666666" lon="35.16371">
        <ele>147.39999999999995</ele>
        <time>2013-02-12T20:37:13.17</time>
      </trkpt>
      <trkpt lat="33.0777" lon="35.16370166666667">
        <ele>147.29999999999995</ele>
        <time>2013-02-12T20:37:14.17</time>
      </trkpt>
      <trkpt lat="33.07772" lon="35.163711666666664">
        <ele>147.29999999999995</ele>
        <time>2013-02-12T20:37:15.16</time>
      </trkpt>
      <trkpt lat="33.07772333333333" lon="35.163716666666666">
        <ele>147.19999999999996</ele>
        <time>2013-02-12T20:37:16.19</time>
      </trkpt>
      <trkpt lat="33.077745" lon="35.16373166666666">
        <ele>146.89999999999995</ele>
        <time>2013-02-12T20:37:18.17</time>
      </trkpt>
      <trkpt lat="33.077751666666664" lon="35.16375">
        <ele>146.89999999999995</ele>
        <time>2013-02-12T20:37:19.16</time>
      </trkpt>
      <trkpt lat="33.07776" lon="35.16376">
        <ele>146.49999999999994</ele>
        <time>2013-02-12T20:37:20.16</time>
      </trkpt>
      <trkpt lat="33.077776666666665" lon="35.16377333333333">
        <ele>148.09999999999994</ele>
        <time>2013-02-12T20:37:21.16</time>
      </trkpt>
      <trkpt lat="33.07778166666667" lon="35.163763333333335">
        <ele>149.09999999999994</ele>
        <time>2013-02-12T20:37:22.18</time>
      </trkpt>
      <trkpt lat="33.077796666666664" lon="35.16374833333333">
        <ele>150.19999999999993</ele>
        <time>2013-02-12T20:37:23.16</time>
      </trkpt>
      <trkpt lat="33.07780666666667" lon="35.163758333333334">
        <ele>149.19999999999993</ele>
        <time>2013-02-12T20:37:24.16</time>
      </trkpt>
      <trkpt lat="33.077815" lon="35.16378666666667">
        <ele>148.19999999999993</ele>
        <time>2013-02-12T20:37:25.16</time>
      </trkpt>
      <trkpt lat="33.077821666666665" lon="35.16381">
        <ele>147.79999999999993</ele>
        <time>2013-02-12T20:37:26.17</time>
      </trkpt>
      <trkpt lat="33.077828333333336" lon="35.16379666666667">
        <ele>148.39999999999992</ele>
        <time>2013-02-12T20:37:27.18</time>
      </trkpt>
      <trkpt lat="33.07783833333333" lon="35.16379833333333">
        <ele>150.89999999999992</ele>
        <time>2013-02-12T20:37:28.20</time>
      </trkpt>
      <trkpt lat="33.07783166666667" lon="35.163803333333334">
        <ele>151.5999999999999</ele>
        <time>2013-02-12T20:37:29.20</time>
      </trkpt>
      <trkpt lat="33.07782666666667" lon="35.163801666666664">
        <ele>151.89999999999992</ele>
        <time>2013-02-12T20:37:30.21</time>
      </trkpt>
      <trkpt lat="33.07783" lon="35.163803333333334">
        <ele>153.3</ele>
        <time>2013-02-12T20:37:37.20</time>
      </trkpt>
      <trkpt lat="33.07783" lon="35.16381">
        <ele>153.6</ele>
        <time>2013-02-12T20:37:41.18</time>
      </trkpt>
      <trkpt lat="33.077828333333336" lon="35.16381">
        <ele>153.8</ele>
        <time>2013-02-12T20:37:48.20</time>
      </trkpt>
      <trkpt lat="33.07783166666667" lon="35.16381833333333">
        <ele>153.7</ele>
        <time>2013-02-12T20:37:52.20</time>
      </trkpt>
      <trkpt lat="33.077825" lon="35.163833333333336">
        <ele>153.2</ele>
        <time>2013-02-12T20:37:53.20</time>
      </trkpt>
      <trkpt lat="33.07781833333333" lon="35.163835">
        <ele>154.6</ele>
        <time>2013-02-12T20:37:54.17</time>
      </trkpt>
      <trkpt lat="33.077825" lon="35.163825">
        <ele>154</ele>
        <time>2013-02-12T20:37:55.19</time>
      </trkpt>
      <trkpt lat="33.07781166666667" lon="35.163848333333334">
        <ele>153.4</ele>
        <time>2013-02-12T20:37:57.21</time>
      </trkpt>
      <trkpt lat="33.07781333333333" lon="35.16386333333333">
        <ele>153.5</ele>
        <time>2013-02-12T20:37:58.20</time>
      </trkpt>
      <trkpt lat="33.07780666666667" lon="35.163851666666666">
        <ele>154.1</ele>
        <time>2013-02-12T20:37:59.20</time>
      </trkpt>
      <trkpt lat="33.07778" lon="35.163875">
        <ele>153.2</ele>
        <time>2013-02-12T20:38:06.19</time>
      </trkpt>
      <trkpt lat="33.07776333333333" lon="35.163891666666665">
        <ele>153.1</ele>
        <time>2013-02-12T20:38:07.19</time>
      </trkpt>
      <trkpt lat="33.07776166666667" lon="35.16390166666667">
        <ele>153.6</ele>
        <time>2013-02-12T20:38:08.19</time>
      </trkpt>
      <trkpt lat="33.07774833333333" lon="35.16392">
        <ele>153.5</ele>
        <time>2013-02-12T20:38:09.27</time>
      </trkpt>
      <trkpt lat="33.077733333333335" lon="35.163941666666666">
        <ele>153.6</ele>
        <time>2013-02-12T20:38:10.18</time>
      </trkpt>
      <trkpt lat="33.07773" lon="35.163963333333335">
        <ele>153.7</ele>
        <time>2013-02-12T20:38:11.18</time>
      </trkpt>
      <trkpt lat="33.07772833333333" lon="35.163975">
        <ele>154.39999999999998</ele>
        <time>2013-02-12T20:38:12.17</time>
      </trkpt>
      <trkpt lat="33.077711666666666" lon="35.164">
        <ele>154.49999999999997</ele>
        <time>2013-02-12T20:38:13.20</time>
      </trkpt>
      <trkpt lat="33.077705" lon="35.16401">
        <ele>154.29999999999998</ele>
        <time>2013-02-12T20:38:14.21</time>
      </trkpt>
      <trkpt lat="33.0777" lon="35.16402333333333">
        <ele>154.49999999999997</ele>
        <time>2013-02-12T20:38:15.24</time>
      </trkpt>
      <trkpt lat="33.077693333333336" lon="35.16405666666667">
        <ele>153.99999999999997</ele>
        <time>2013-02-12T20:38:16.21</time>
      </trkpt>
      <trkpt lat="33.077686666666665" lon="35.164065">
        <ele>154.59999999999997</ele>
        <time>2013-02-12T20:38:17.19</time>
      </trkpt>
      <trkpt lat="33.077675" lon="35.16407">
        <ele>154.49999999999997</ele>
        <time>2013-02-12T20:38:18.20</time>
      </trkpt>
      <trkpt lat="33.07767" lon="35.164078333333336">
        <ele>154.39999999999998</ele>
        <time>2013-02-12T20:38:19.19</time>
      </trkpt>
      <trkpt lat="33.07765833333333" lon="35.16408166666667">
        <ele>154.7</ele>
        <time>2013-02-12T20:38:20.19</time>
      </trkpt>
      <trkpt lat="33.07765333333333" lon="35.164093333333334">
        <ele>154.6</ele>
        <time>2013-02-12T20:38:21.18</time>
      </trkpt>
      <trkpt lat="33.077646666666666" lon="35.164096666666666">
        <ele>155.4</ele>
        <time>2013-02-12T20:38:22.19</time>
      </trkpt>
      <trkpt lat="33.07762833333334" lon="35.16412166666667">
        <ele>156.5</ele>
        <time>2013-02-12T20:38:23.22</time>
      </trkpt>
      <trkpt lat="33.07761" lon="35.16413166666667">
        <ele>156.8</ele>
        <time>2013-02-12T20:38:24.21</time>
      </trkpt>
      <trkpt lat="33.0776" lon="35.16413">
        <ele>158.10000000000002</ele>
        <time>2013-02-12T20:38:25.21</time>
      </trkpt>
      <trkpt lat="33.07758" lon="35.16414666666667">
        <ele>158.10000000000002</ele>
        <time>2013-02-12T20:38:27.18</time>
      </trkpt>
      <trkpt lat="33.07754833333333" lon="35.16414833333333">
        <ele>158.90000000000003</ele>
        <time>2013-02-12T20:38:28.18</time>
      </trkpt>
      <trkpt lat="33.07752833333333" lon="35.164155">
        <ele>158.60000000000002</ele>
        <time>2013-02-12T20:38:29.20</time>
      </trkpt>
      <trkpt lat="33.07752166666667" lon="35.16417666666667">
        <ele>158.70000000000002</ele>
        <time>2013-02-12T20:38:30.21</time>
      </trkpt>
      <trkpt lat="33.07751" lon="35.164183333333334">
        <ele>158.50000000000003</ele>
        <time>2013-02-12T20:38:31.22</time>
      </trkpt>
      <trkpt lat="33.077515" lon="35.164188333333335">
        <ele>158.50000000000003</ele>
        <time>2013-02-12T20:38:32.20</time>
      </trkpt>
      <trkpt lat="33.0775" lon="35.164183333333334">
        <ele>159.20000000000002</ele>
        <time>2013-02-12T20:38:33.17</time>
      </trkpt>
      <trkpt lat="33.077481666666664" lon="35.16419166666667">
        <ele>158.9</ele>
        <time>2013-02-12T20:38:34.18</time>
      </trkpt>
      <trkpt lat="33.077465" lon="35.164195">
        <ele>159.20000000000002</ele>
        <time>2013-02-12T20:38:35.14</time>
      </trkpt>
      <trkpt lat="33.07744" lon="35.16421833333333">
        <ele>158.8</ele>
        <time>2013-02-12T20:38:36.15</time>
      </trkpt>
      <trkpt lat="33.077418333333334" lon="35.16426166666667">
        <ele>157.8</ele>
        <time>2013-02-12T20:38:37.15</time>
      </trkpt>
      <trkpt lat="33.07738666666667" lon="35.164296666666665">
        <ele>157.8</ele>
        <time>2013-02-12T20:38:38.16</time>
      </trkpt>
      <trkpt lat="33.07736333333333" lon="35.16433333333333">
        <ele>157.8</ele>
        <time>2013-02-12T20:38:39.15</time>
      </trkpt>
      <trkpt lat="33.07734833333333" lon="35.164365">
        <ele>158.60000000000002</ele>
        <time>2013-02-12T20:38:40.14</time>
      </trkpt>
      <trkpt lat="33.077335" lon="35.164386666666665">
        <ele>158.60000000000002</ele>
        <time>2013-02-12T20:38:41.15</time>
      </trkpt>
      <trkpt lat="33.07732" lon="35.16442833333333">
        <ele>158.60000000000002</ele>
        <time>2013-02-12T20:38:42.15</time>
      </trkpt>
      <trkpt lat="33.07734166666667" lon="35.16449166666666">
        <ele>161.00000000000003</ele>
        <time>2013-02-12T20:38:43.17</time>
      </trkpt>
      <trkpt lat="33.077351666666665" lon="35.16452666666667">
        <ele>161.80000000000004</ele>
        <time>2013-02-12T20:38:44.15</time>
      </trkpt>
      <trkpt lat="33.077351666666665" lon="35.16455">
        <ele>162.60000000000005</ele>
        <time>2013-02-12T20:38:45.19</time>
      </trkpt>
      <trkpt lat="33.07734166666667" lon="35.16457666666667">
        <ele>161.60000000000005</ele>
        <time>2013-02-12T20:38:46.15</time>
      </trkpt>
      <trkpt lat="33.077331666666666" lon="35.16459666666667">
        <ele>161.40000000000006</ele>
        <time>2013-02-12T20:38:47.17</time>
      </trkpt>
      <trkpt lat="33.07732333333333" lon="35.164615">
        <ele>161.10000000000005</ele>
        <time>2013-02-12T20:38:48.18</time>
      </trkpt>
      <trkpt lat="33.07731666666667" lon="35.164633333333335">
        <ele>161.50000000000006</ele>
        <time>2013-02-12T20:38:49.18</time>
      </trkpt>
      <trkpt lat="33.077306666666665" lon="35.164655">
        <ele>161.70000000000005</ele>
        <time>2013-02-12T20:38:50.18</time>
      </trkpt>
      <trkpt lat="33.07729833333333" lon="35.16467333333333">
        <ele>160.70000000000005</ele>
        <time>2013-02-12T20:38:51.18</time>
      </trkpt>
      <trkpt lat="33.07729833333333" lon="35.164703333333335">
        <ele>161.10000000000005</ele>
        <time>2013-02-12T20:38:52.20</time>
      </trkpt>
      <trkpt lat="33.07727166666667" lon="35.16473">
        <ele>161.30000000000004</ele>
        <time>2013-02-12T20:38:53.18</time>
      </trkpt>
      <trkpt lat="33.077268333333336" lon="35.164743333333334">
        <ele>161.90000000000003</ele>
        <time>2013-02-12T20:38:54.18</time>
      </trkpt>
      <trkpt lat="33.077235" lon="35.164768333333335">
        <ele>162.60000000000002</ele>
        <time>2013-02-12T20:38:55.22</time>
      </trkpt>
      <trkpt lat="33.07722" lon="35.1648">
        <ele>162.60000000000002</ele>
        <time>2013-02-12T20:38:56.20</time>
      </trkpt>
      <trkpt lat="33.077196666666666" lon="35.16482833333333">
        <ele>162.60000000000002</ele>
        <time>2013-02-12T20:38:57.20</time>
      </trkpt>
      <trkpt lat="33.077191666666664" lon="35.16485">
        <ele>163.3</ele>
        <time>2013-02-12T20:38:58.19</time>
      </trkpt>
      <trkpt lat="33.07721" lon="35.16490833333334">
        <ele>164.8</ele>
        <time>2013-02-12T20:38:59.19</time>
      </trkpt>
      <trkpt lat="33.0772" lon="35.16495166666667">
        <ele>164.70000000000002</ele>
        <time>2013-02-12T20:39:00.16</time>
      </trkpt>
      <trkpt lat="33.077193333333334" lon="35.164971666666666">
        <ele>164.70000000000002</ele>
        <time>2013-02-12T20:39:01.18</time>
      </trkpt>
      <trkpt lat="33.07720666666667" lon="35.164993333333335">
        <ele>164.3</ele>
        <time>2013-02-12T20:39:02.17</time>
      </trkpt>
      <trkpt lat="33.07720333333334" lon="35.16500666666666">
        <ele>164.10000000000002</ele>
        <time>2013-02-12T20:39:04.18</time>
      </trkpt>
      <trkpt lat="33.077193333333334" lon="35.16502333333333">
        <ele>163.8</ele>
        <time>2013-02-12T20:39:05.17</time>
      </trkpt>
      <trkpt lat="33.0772" lon="35.165076666666664">
        <ele>162.70000000000002</ele>
        <time>2013-02-12T20:39:06.18</time>
      </trkpt>
      <trkpt lat="33.077191666666664" lon="35.165063333333336">
        <ele>162.70000000000002</ele>
        <time>2013-02-12T20:39:07.18</time>
      </trkpt>
      <trkpt lat="33.07718166666667" lon="35.16505333333333">
        <ele>162.70000000000002</ele>
        <time>2013-02-12T20:39:08.17</time>
      </trkpt>
      <trkpt lat="33.07718666666667" lon="35.16504333333334">
        <ele>163.10000000000002</ele>
        <time>2013-02-12T20:39:09.20</time>
      </trkpt>
      <trkpt lat="33.07718" lon="35.165033333333334">
        <ele>162.8</ele>
        <time>2013-02-12T20:39:10.19</time>
      </trkpt>
      <trkpt lat="33.077145" lon="35.16500333333333">
        <ele>163.4</ele>
        <time>2013-02-12T20:39:11.18</time>
      </trkpt>
      <trkpt lat="33.07711666666667" lon="35.16499666666667">
        <ele>163.8</ele>
        <time>2013-02-12T20:39:12.18</time>
      </trkpt>
      <trkpt lat="33.077088333333336" lon="35.16495">
        <ele>163.3</ele>
        <time>2013-02-12T20:39:13.19</time>
      </trkpt>
      <trkpt lat="33.07704" lon="35.16493333333333">
        <ele>163.60000000000002</ele>
        <time>2013-02-12T20:39:14.19</time>
      </trkpt>
      <trkpt lat="33.07700333333333" lon="35.164901666666665">
        <ele>163.8</ele>
        <time>2013-02-12T20:39:15.19</time>
      </trkpt>
      <trkpt lat="33.07697833333334" lon="35.164881666666666">
        <ele>164</ele>
        <time>2013-02-12T20:39:16.19</time>
      </trkpt>
      <trkpt lat="33.076946666666664" lon="35.16484666666667">
        <ele>163.9</ele>
        <time>2013-02-12T20:39:17.18</time>
      </trkpt>
      <trkpt lat="33.07692" lon="35.16482833333333">
        <ele>163.6</ele>
        <time>2013-02-12T20:39:18.18</time>
      </trkpt>
      <trkpt lat="33.07691666666667" lon="35.16480833333333">
        <ele>162.7</ele>
        <time>2013-02-12T20:39:19.17</time>
      </trkpt>
      <trkpt lat="33.07691666666667" lon="35.16479833333333">
        <ele>162.29999999999998</ele>
        <time>2013-02-12T20:39:20.18</time>
      </trkpt>
      <trkpt lat="33.07692333333333" lon="35.16477833333333">
        <ele>162.39999999999998</ele>
        <time>2013-02-12T20:39:21.20</time>
      </trkpt>
      <trkpt lat="33.07692" lon="35.16475">
        <ele>162.89999999999998</ele>
        <time>2013-02-12T20:39:22.20</time>
      </trkpt>
      <trkpt lat="33.07693166666667" lon="35.16473166666667">
        <ele>162.49999999999997</ele>
        <time>2013-02-12T20:39:23.20</time>
      </trkpt>
      <trkpt lat="33.076933333333336" lon="35.164701666666666">
        <ele>162.89999999999998</ele>
        <time>2013-02-12T20:39:24.19</time>
      </trkpt>
      <trkpt lat="33.076951666666666" lon="35.16467333333333">
        <ele>163.29999999999998</ele>
        <time>2013-02-12T20:39:25.17</time>
      </trkpt>
      <trkpt lat="33.07696166666667" lon="35.164651666666664">
        <ele>163.89999999999998</ele>
        <time>2013-02-12T20:39:26.18</time>
      </trkpt>
      <trkpt lat="33.07697" lon="35.16459">
        <ele>163.09999999999997</ele>
        <time>2013-02-12T20:39:27.19</time>
      </trkpt>
      <trkpt lat="33.076971666666665" lon="35.16453833333333">
        <ele>162.29999999999995</ele>
        <time>2013-02-12T20:39:28.18</time>
      </trkpt>
      <trkpt lat="33.076953333333336" lon="35.164501666666666">
        <ele>162.39999999999995</ele>
        <time>2013-02-12T20:39:29.18</time>
      </trkpt>
      <trkpt lat="33.076925" lon="35.164471666666664">
        <ele>162.89999999999995</ele>
        <time>2013-02-12T20:39:30.18</time>
      </trkpt>
      <trkpt lat="33.07688666666667" lon="35.164431666666665">
        <ele>162.69999999999996</ele>
        <time>2013-02-12T20:39:31.18</time>
      </trkpt>
      <trkpt lat="33.07685166666667" lon="35.164386666666665">
        <ele>162.69999999999996</ele>
        <time>2013-02-12T20:39:32.17</time>
      </trkpt>
      <trkpt lat="33.07684833333333" lon="35.16435666666667">
        <ele>162.99999999999997</ele>
        <time>2013-02-12T20:39:33.19</time>
      </trkpt>
      <trkpt lat="33.07684166666667" lon="35.164325">
        <ele>162.79999999999998</ele>
        <time>2013-02-12T20:39:34.18</time>
      </trkpt>
      <trkpt lat="33.07682833333333" lon="35.16429333333333">
        <ele>162.49999999999997</ele>
        <time>2013-02-12T20:39:35.20</time>
      </trkpt>
      <trkpt lat="33.07682166666667" lon="35.16426">
        <ele>162.29999999999998</ele>
        <time>2013-02-12T20:39:36.18</time>
      </trkpt>
      <trkpt lat="33.07679" lon="35.16419833333333">
        <ele>162.2</ele>
        <time>2013-02-12T20:39:37.19</time>
      </trkpt>
      <trkpt lat="33.076793333333335" lon="35.164163333333335">
        <ele>162.29999999999998</ele>
        <time>2013-02-12T20:39:38.19</time>
      </trkpt>
      <trkpt lat="33.07679666666667" lon="35.164135">
        <ele>161.99999999999997</ele>
        <time>2013-02-12T20:39:39.19</time>
      </trkpt>
      <trkpt lat="33.07683" lon="35.16409">
        <ele>163.29999999999998</ele>
        <time>2013-02-12T20:39:40.21</time>
      </trkpt>
      <trkpt lat="33.076836666666665" lon="35.16406">
        <ele>162.99999999999997</ele>
        <time>2013-02-12T20:39:41.21</time>
      </trkpt>
      <trkpt lat="33.076843333333336" lon="35.164028333333334">
        <ele>163.09999999999997</ele>
        <time>2013-02-12T20:39:42.21</time>
      </trkpt>
      <trkpt lat="33.07683" lon="35.163983333333334">
        <ele>164.49999999999997</ele>
        <time>2013-02-12T20:39:43.18</time>
      </trkpt>
      <trkpt lat="33.076825" lon="35.163936666666665">
        <ele>164.69999999999996</ele>
        <time>2013-02-12T20:39:44.19</time>
      </trkpt>
      <trkpt lat="33.076836666666665" lon="35.163828333333335">
        <ele>162.69999999999996</ele>
        <time>2013-02-12T20:39:45.20</time>
      </trkpt>
      <trkpt lat="33.076825" lon="35.16379">
        <ele>162.39999999999995</ele>
        <time>2013-02-12T20:39:46.19</time>
      </trkpt>
      <trkpt lat="33.07680333333333" lon="35.16375">
        <ele>161.59999999999994</ele>
        <time>2013-02-12T20:39:47.19</time>
      </trkpt>
      <trkpt lat="33.07677833333333" lon="35.163736666666665">
        <ele>160.49999999999994</ele>
        <time>2013-02-12T20:39:48.18</time>
      </trkpt>
      <trkpt lat="33.07673666666667" lon="35.163715">
        <ele>160.29999999999995</ele>
        <time>2013-02-12T20:39:49.21</time>
      </trkpt>
      <trkpt lat="33.07671" lon="35.16372833333333">
        <ele>160.09999999999997</ele>
        <time>2013-02-12T20:39:50.20</time>
      </trkpt>
      <trkpt lat="33.076663333333336" lon="35.163713333333334">
        <ele>159.89999999999998</ele>
        <time>2013-02-12T20:39:51.21</time>
      </trkpt>
      <trkpt lat="33.076625" lon="35.16367666666667">
        <ele>159.29999999999998</ele>
        <time>2013-02-12T20:39:52.18</time>
      </trkpt>
      <trkpt lat="33.076575" lon="35.163645">
        <ele>158.39999999999998</ele>
        <time>2013-02-12T20:39:53.19</time>
      </trkpt>
      <trkpt lat="33.07651" lon="35.163628333333335">
        <ele>158.2</ele>
        <time>2013-02-12T20:39:54.19</time>
      </trkpt>
      <trkpt lat="33.07647333333333" lon="35.16359833333333">
        <ele>158.2</ele>
        <time>2013-02-12T20:39:55.20</time>
      </trkpt>
      <trkpt lat="33.076438333333336" lon="35.163535">
        <ele>158.1</ele>
        <time>2013-02-12T20:39:56.20</time>
      </trkpt>
      <trkpt lat="33.076411666666665" lon="35.163465">
        <ele>158.2</ele>
        <time>2013-02-12T20:39:57.20</time>
      </trkpt>
      <trkpt lat="33.076368333333335" lon="35.16338833333333">
        <ele>158.29999999999998</ele>
        <time>2013-02-12T20:39:58.21</time>
      </trkpt>
      <trkpt lat="33.07633333333333" lon="35.16334833333333">
        <ele>158.29999999999998</ele>
        <time>2013-02-12T20:39:59.18</time>
      </trkpt>
      <trkpt lat="33.076315" lon="35.163285">
        <ele>157.99999999999997</ele>
        <time>2013-02-12T20:40:00.17</time>
      </trkpt>
      <trkpt lat="33.07626333333333" lon="35.16321333333333">
        <ele>157.89999999999998</ele>
        <time>2013-02-12T20:40:01.20</time>
      </trkpt>
      <trkpt lat="33.07624333333333" lon="35.16315">
        <ele>157.89999999999998</ele>
        <time>2013-02-12T20:40:02.18</time>
      </trkpt>
      <trkpt lat="33.07619833333333" lon="35.163111666666666">
        <ele>155.99999999999997</ele>
        <time>2013-02-12T20:40:03.20</time>
      </trkpt>
      <trkpt lat="33.076163333333334" lon="35.16310333333333">
        <ele>156.39999999999998</ele>
        <time>2013-02-12T20:40:04.17</time>
      </trkpt>
      <trkpt lat="33.07612833333334" lon="35.163105">
        <ele>156.2</ele>
        <time>2013-02-12T20:40:05.17</time>
      </trkpt>
      <trkpt lat="33.07613166666667" lon="35.163135">
        <ele>156</ele>
        <time>2013-02-12T20:40:06.17</time>
      </trkpt>
      <trkpt lat="33.07612666666667" lon="35.163151666666664">
        <ele>155.3</ele>
        <time>2013-02-12T20:40:07.19</time>
      </trkpt>
      <trkpt lat="33.07606666666667" lon="35.163155">
        <ele>152.4</ele>
        <time>2013-02-12T20:40:08.19</time>
      </trkpt>
      <trkpt lat="33.07605" lon="35.16317">
        <ele>152.6</ele>
        <time>2013-02-12T20:40:10.20</time>
      </trkpt>
      <trkpt lat="33.07604833333333" lon="35.163178333333335">
        <ele>152.2</ele>
        <time>2013-02-12T20:40:11.18</time>
      </trkpt>
      <trkpt lat="33.07603666666667" lon="35.163176666666665">
        <ele>151.7</ele>
        <time>2013-02-12T20:40:18.19</time>
      </trkpt>
      <trkpt lat="33.07604166666667" lon="35.16318166666667">
        <ele>151.2</ele>
        <time>2013-02-12T20:40:22.19</time>
      </trkpt>
      <trkpt lat="33.076025" lon="35.16318166666667">
        <ele>151</ele>
        <time>2013-02-12T20:40:29.18</time>
      </trkpt>
      <trkpt lat="33.07599333333334" lon="35.16317">
        <ele>150.5</ele>
        <time>2013-02-12T20:40:30.20</time>
      </trkpt>
      <trkpt lat="33.07595833333333" lon="35.163156666666666">
        <ele>150.1</ele>
        <time>2013-02-12T20:40:31.20</time>
      </trkpt>
      <trkpt lat="33.07593166666667" lon="35.16311">
        <ele>150.1</ele>
        <time>2013-02-12T20:40:32.17</time>
      </trkpt>
      <trkpt lat="33.075898333333335" lon="35.163055">
        <ele>150.1</ele>
        <time>2013-02-12T20:40:33.19</time>
      </trkpt>
      <trkpt lat="33.075876666666666" lon="35.16301333333333">
        <ele>150.4</ele>
        <time>2013-02-12T20:40:34.19</time>
      </trkpt>
      <trkpt lat="33.07582" lon="35.162965">
        <ele>151.20000000000002</ele>
        <time>2013-02-12T20:40:35.21</time>
      </trkpt>
      <trkpt lat="33.075795" lon="35.16291833333333">
        <ele>151.00000000000003</ele>
        <time>2013-02-12T20:40:36.19</time>
      </trkpt>
      <trkpt lat="33.07575333333333" lon="35.162875">
        <ele>151.50000000000003</ele>
        <time>2013-02-12T20:40:37.18</time>
      </trkpt>
      <trkpt lat="33.07571333333333" lon="35.162825">
        <ele>150.60000000000002</ele>
        <time>2013-02-12T20:40:38.25</time>
      </trkpt>
      <trkpt lat="33.075693333333334" lon="35.16278333333333">
        <ele>150.60000000000002</ele>
        <time>2013-02-12T20:40:39.20</time>
      </trkpt>
      <trkpt lat="33.075673333333334" lon="35.162733333333335">
        <ele>149.8</ele>
        <time>2013-02-12T20:40:40.21</time>
      </trkpt>
      <trkpt lat="33.075655" lon="35.162683333333334">
        <ele>148.8</ele>
        <time>2013-02-12T20:40:41.20</time>
      </trkpt>
      <trkpt lat="33.07563833333333" lon="35.16265833333333">
        <ele>148.4</ele>
        <time>2013-02-12T20:40:42.18</time>
      </trkpt>
      <trkpt lat="33.075606666666665" lon="35.16261333333333">
        <ele>149.20000000000002</ele>
        <time>2013-02-12T20:40:43.19</time>
      </trkpt>
      <trkpt lat="33.07562" lon="35.16262833333333">
        <ele>148.9</ele>
        <time>2013-02-12T20:40:45.21</time>
      </trkpt>
      <trkpt lat="33.07563" lon="35.16263166666667">
        <ele>148.9</ele>
        <time>2013-02-12T20:40:47.18</time>
      </trkpt>
      <trkpt lat="33.075651666666666" lon="35.162645">
        <ele>149.3</ele>
        <time>2013-02-12T20:40:54.16</time>
      </trkpt>
      <trkpt lat="33.075655" lon="35.16265">
        <ele>149.5</ele>
        <time>2013-02-12T20:40:55.18</time>
      </trkpt>
      <trkpt lat="33.07565666666667" lon="35.16264666666667">
        <ele>149.3</ele>
        <time>2013-02-12T20:41:02.18</time>
      </trkpt>
      <trkpt lat="33.07566166666667" lon="35.162643333333335">
        <ele>149.4</ele>
        <time>2013-02-12T20:41:06.17</time>
      </trkpt>
      <trkpt lat="33.075705" lon="35.162661666666665">
        <ele>149.9</ele>
        <time>2013-02-12T20:41:07.18</time>
      </trkpt>
      <trkpt lat="33.07570666666667" lon="35.162616666666665">
        <ele>149.9</ele>
        <time>2013-02-12T20:41:08.22</time>
      </trkpt>
      <trkpt lat="33.07572" lon="35.16257">
        <ele>149.5</ele>
        <time>2013-02-12T20:41:09.18</time>
      </trkpt>
      <trkpt lat="33.07573166666667" lon="35.162535">
        <ele>149.1</ele>
        <time>2013-02-12T20:41:10.18</time>
      </trkpt>
      <trkpt lat="33.07575833333333" lon="35.1625">
        <ele>149.5</ele>
        <time>2013-02-12T20:41:11.19</time>
      </trkpt>
      <trkpt lat="33.07580166666666" lon="35.162461666666665">
        <ele>149.3</ele>
        <time>2013-02-12T20:41:12.18</time>
      </trkpt>
      <trkpt lat="33.075851666666665" lon="35.162455">
        <ele>149.20000000000002</ele>
        <time>2013-02-12T20:41:13.19</time>
      </trkpt>
      <trkpt lat="33.075873333333334" lon="35.162445">
        <ele>149.10000000000002</ele>
        <time>2013-02-12T20:41:14.24</time>
      </trkpt>
      <trkpt lat="33.075898333333335" lon="35.162415">
        <ele>149.10000000000002</ele>
        <time>2013-02-12T20:41:15.20</time>
      </trkpt>
      <trkpt lat="33.07589333333333" lon="35.162393333333334">
        <ele>149.20000000000002</ele>
        <time>2013-02-12T20:41:16.19</time>
      </trkpt>
      <trkpt lat="33.075905" lon="35.162366666666664">
        <ele>149.4</ele>
        <time>2013-02-12T20:41:17.19</time>
      </trkpt>
      <trkpt lat="33.07593833333333" lon="35.162321666666664">
        <ele>148.8</ele>
        <time>2013-02-12T20:41:18.20</time>
      </trkpt>
      <trkpt lat="33.075966666666666" lon="35.16229833333333">
        <ele>148.5</ele>
        <time>2013-02-12T20:41:19.18</time>
      </trkpt>
      <trkpt lat="33.07598" lon="35.162275">
        <ele>148.4</ele>
        <time>2013-02-12T20:41:20.19</time>
      </trkpt>
      <trkpt lat="33.07600166666667" lon="35.162265">
        <ele>148.5</ele>
        <time>2013-02-12T20:41:21.18</time>
      </trkpt>
      <trkpt lat="33.07602333333333" lon="35.16225">
        <ele>148.4</ele>
        <time>2013-02-12T20:41:22.20</time>
      </trkpt>
      <trkpt lat="33.076031666666665" lon="35.162215">
        <ele>148.9</ele>
        <time>2013-02-12T20:41:23.20</time>
      </trkpt>
      <trkpt lat="33.07603666666667" lon="35.16221">
        <ele>149.20000000000002</ele>
        <time>2013-02-12T20:41:24.20</time>
      </trkpt>
      <trkpt lat="33.07604333333333" lon="35.16217833333334">
        <ele>149.4</ele>
        <time>2013-02-12T20:41:25.20</time>
      </trkpt>
      <trkpt lat="33.076056666666666" lon="35.162173333333335">
        <ele>149.20000000000002</ele>
        <time>2013-02-12T20:41:26.25</time>
      </trkpt>
      <trkpt lat="33.07608" lon="35.162155">
        <ele>149.10000000000002</ele>
        <time>2013-02-12T20:41:27.22</time>
      </trkpt>
      <trkpt lat="33.07611833333333" lon="35.16215833333333">
        <ele>149.90000000000003</ele>
        <time>2013-02-12T20:41:29.18</time>
      </trkpt>
      <trkpt lat="33.07613833333333" lon="35.16213666666667">
        <ele>149.70000000000005</ele>
        <time>2013-02-12T20:41:30.19</time>
      </trkpt>
      <trkpt lat="33.076155" lon="35.16213333333334">
        <ele>149.60000000000005</ele>
        <time>2013-02-12T20:41:32.22</time>
      </trkpt>
      <trkpt lat="33.076168333333335" lon="35.16211166666667">
        <ele>149.90000000000006</ele>
        <time>2013-02-12T20:41:33.20</time>
      </trkpt>
      <trkpt lat="33.07619" lon="35.16209">
        <ele>150.10000000000005</ele>
        <time>2013-02-12T20:41:34.20</time>
      </trkpt>
      <trkpt lat="33.07622" lon="35.16207166666667">
        <ele>150.10000000000005</ele>
        <time>2013-02-12T20:41:35.18</time>
      </trkpt>
      <trkpt lat="33.076231666666665" lon="35.162055">
        <ele>150.50000000000006</ele>
        <time>2013-02-12T20:41:36.19</time>
      </trkpt>
      <trkpt lat="33.07626" lon="35.16204833333333">
        <ele>150.90000000000006</ele>
        <time>2013-02-12T20:41:37.20</time>
      </trkpt>
      <trkpt lat="33.07628" lon="35.16204833333333">
        <ele>151.80000000000007</ele>
        <time>2013-02-12T20:41:38.18</time>
      </trkpt>
      <trkpt lat="33.07629" lon="35.16204833333333">
        <ele>151.50000000000006</ele>
        <time>2013-02-12T20:41:39.18</time>
      </trkpt>
      <trkpt lat="33.07631333333333" lon="35.162045">
        <ele>151.20000000000005</ele>
        <time>2013-02-12T20:41:40.18</time>
      </trkpt>
      <trkpt lat="33.07633" lon="35.16205">
        <ele>151.40000000000003</ele>
        <time>2013-02-12T20:41:41.21</time>
      </trkpt>
      <trkpt lat="33.076348333333335" lon="35.16204">
        <ele>150.80000000000004</ele>
        <time>2013-02-12T20:41:42.21</time>
      </trkpt>
      <trkpt lat="33.07637666666667" lon="35.162016666666666">
        <ele>150.40000000000003</ele>
        <time>2013-02-12T20:41:43.25</time>
      </trkpt>
      <trkpt lat="33.076395" lon="35.16199">
        <ele>150.40000000000003</ele>
        <time>2013-02-12T20:41:44.19</time>
      </trkpt>
      <trkpt lat="33.076418333333336" lon="35.161975">
        <ele>150.60000000000002</ele>
        <time>2013-02-12T20:41:45.19</time>
      </trkpt>
      <trkpt lat="33.07644333333333" lon="35.16196">
        <ele>150.90000000000003</ele>
        <time>2013-02-12T20:41:46.19</time>
      </trkpt>
      <trkpt lat="33.07647166666667" lon="35.16197">
        <ele>151.30000000000004</ele>
        <time>2013-02-12T20:41:47.18</time>
      </trkpt>
      <trkpt lat="33.0765" lon="35.161991666666665">
        <ele>151.00000000000003</ele>
        <time>2013-02-12T20:41:48.19</time>
      </trkpt>
      <trkpt lat="33.07651833333333" lon="35.161991666666665">
        <ele>151.50000000000003</ele>
        <time>2013-02-12T20:41:49.18</time>
      </trkpt>
      <trkpt lat="33.076535" lon="35.16200166666667">
        <ele>151.50000000000003</ele>
        <time>2013-02-12T20:41:50.19</time>
      </trkpt>
      <trkpt lat="33.076571666666666" lon="35.16202666666667">
        <ele>151.00000000000003</ele>
        <time>2013-02-12T20:41:51.20</time>
      </trkpt>
      <trkpt lat="33.07659" lon="35.162031666666664">
        <ele>150.50000000000003</ele>
        <time>2013-02-12T20:41:52.20</time>
      </trkpt>
      <trkpt lat="33.076613333333334" lon="35.16204166666667">
        <ele>149.30000000000004</ele>
        <time>2013-02-12T20:41:53.20</time>
      </trkpt>
      <trkpt lat="33.076638333333335" lon="35.16204166666667">
        <ele>147.40000000000003</ele>
        <time>2013-02-12T20:41:54.19</time>
      </trkpt>
      <trkpt lat="33.07667333333333" lon="35.162076666666664">
        <ele>147.80000000000004</ele>
        <time>2013-02-12T20:41:55.18</time>
      </trkpt>
      <trkpt lat="33.07669666666666" lon="35.16209166666667">
        <ele>148.60000000000005</ele>
        <time>2013-02-12T20:41:56.16</time>
      </trkpt>
      <trkpt lat="33.07671166666667" lon="35.162095">
        <ele>148.60000000000005</ele>
        <time>2013-02-12T20:41:57.16</time>
      </trkpt>
      <trkpt lat="33.076708333333336" lon="35.162108333333336">
        <ele>149.00000000000006</ele>
        <time>2013-02-12T20:41:58.16</time>
      </trkpt>
      <trkpt lat="33.07671333333333" lon="35.16213666666667">
        <ele>149.40000000000006</ele>
        <time>2013-02-12T20:41:59.16</time>
      </trkpt>
      <trkpt lat="33.07672" lon="35.16214333333333">
        <ele>149.50000000000006</ele>
        <time>2013-02-12T20:42:00.15</time>
      </trkpt>
      <trkpt lat="33.07671666666667" lon="35.162153333333336">
        <ele>149.50000000000006</ele>
        <time>2013-02-12T20:42:01.22</time>
      </trkpt>
      <trkpt lat="33.076725" lon="35.16217666666667">
        <ele>149.20000000000005</ele>
        <time>2013-02-12T20:42:02.17</time>
      </trkpt>
      <trkpt lat="33.076746666666665" lon="35.162211666666664">
        <ele>148.80000000000004</ele>
        <time>2013-02-12T20:42:03.18</time>
      </trkpt>
      <trkpt lat="33.076746666666665" lon="35.16220333333333">
        <ele>148.90000000000003</ele>
        <time>2013-02-12T20:42:04.18</time>
      </trkpt>
      <trkpt lat="33.07677" lon="35.16222833333333">
        <ele>148.30000000000004</ele>
        <time>2013-02-12T20:42:05.17</time>
      </trkpt>
      <trkpt lat="33.07680166666667" lon="35.162235">
        <ele>146.80000000000004</ele>
        <time>2013-02-12T20:42:06.20</time>
      </trkpt>
      <trkpt lat="33.07682" lon="35.16224">
        <ele>147.30000000000004</ele>
        <time>2013-02-12T20:42:07.21</time>
      </trkpt>
      <trkpt lat="33.07683166666666" lon="35.162225">
        <ele>147.50000000000003</ele>
        <time>2013-02-12T20:42:08.21</time>
      </trkpt>
      <trkpt lat="33.07687333333333" lon="35.16220666666667">
        <ele>146.60000000000002</ele>
        <time>2013-02-12T20:42:09.21</time>
      </trkpt>
      <trkpt lat="33.076946666666664" lon="35.16220666666667">
        <ele>146.10000000000002</ele>
        <time>2013-02-12T20:42:10.19</time>
      </trkpt>
      <trkpt lat="33.076973333333335" lon="35.162193333333335">
        <ele>146.50000000000003</ele>
        <time>2013-02-12T20:42:11.20</time>
      </trkpt>
      <trkpt lat="33.077015" lon="35.16219">
        <ele>147.00000000000003</ele>
        <time>2013-02-12T20:42:12.18</time>
      </trkpt>
      <trkpt lat="33.07705833333333" lon="35.162213333333334">
        <ele>146.90000000000003</ele>
        <time>2013-02-12T20:42:13.20</time>
      </trkpt>
      <trkpt lat="33.07709166666667" lon="35.16222666666667">
        <ele>147.00000000000003</ele>
        <time>2013-02-12T20:42:14.19</time>
      </trkpt>
      <trkpt lat="33.07711833333333" lon="35.16223">
        <ele>147.20000000000002</ele>
        <time>2013-02-12T20:42:15.20</time>
      </trkpt>
      <trkpt lat="33.077131666666666" lon="35.162243333333336">
        <ele>146.9</ele>
        <time>2013-02-12T20:42:16.19</time>
      </trkpt>
      <trkpt lat="33.077155" lon="35.16225333333333">
        <ele>146.70000000000002</ele>
        <time>2013-02-12T20:42:17.19</time>
      </trkpt>
      <trkpt lat="33.077178333333336" lon="35.162275">
        <ele>146.20000000000002</ele>
        <time>2013-02-12T20:42:18.25</time>
      </trkpt>
      <trkpt lat="33.077225" lon="35.16229">
        <ele>146.4</ele>
        <time>2013-02-12T20:42:19.19</time>
      </trkpt>
      <trkpt lat="33.07725" lon="35.162308333333335">
        <ele>146.4</ele>
        <time>2013-02-12T20:42:20.20</time>
      </trkpt>
      <trkpt lat="33.07726" lon="35.16231833333333">
        <ele>146</ele>
        <time>2013-02-12T20:42:21.19</time>
      </trkpt>
      <trkpt lat="33.077268333333336" lon="35.16233666666667">
        <ele>145.6</ele>
        <time>2013-02-12T20:42:22.20</time>
      </trkpt>
      <trkpt lat="33.07729166666667" lon="35.162345">
        <ele>145.7</ele>
        <time>2013-02-12T20:42:23.20</time>
      </trkpt>
      <trkpt lat="33.07730333333333" lon="35.162351666666666">
        <ele>146.1</ele>
        <time>2013-02-12T20:42:24.25</time>
      </trkpt>
      <trkpt lat="33.07733" lon="35.162353333333336">
        <ele>145.7</ele>
        <time>2013-02-12T20:42:25.21</time>
      </trkpt>
      <trkpt lat="33.07738" lon="35.16233666666667">
        <ele>144.2</ele>
        <time>2013-02-12T20:42:26.18</time>
      </trkpt>
      <trkpt lat="33.077403333333336" lon="35.162345">
        <ele>143.7</ele>
        <time>2013-02-12T20:42:27.20</time>
      </trkpt>
      <trkpt lat="33.077416666666664" lon="35.162351666666666">
        <ele>143.1</ele>
        <time>2013-02-12T20:42:28.18</time>
      </trkpt>
      <trkpt lat="33.077443333333335" lon="35.16234166666667">
        <ele>142.2</ele>
        <time>2013-02-12T20:42:30.21</time>
      </trkpt>
      <trkpt lat="33.077511666666666" lon="35.16233833333333">
        <ele>143.6</ele>
        <time>2013-02-12T20:42:31.20</time>
      </trkpt>
      <trkpt lat="33.07759" lon="35.16232">
        <ele>145.4</ele>
        <time>2013-02-12T20:42:32.21</time>
      </trkpt>
      <trkpt lat="33.07763833333333" lon="35.16225166666667">
        <ele>145.8</ele>
        <time>2013-02-12T20:42:33.21</time>
      </trkpt>
      <trkpt lat="33.077635" lon="35.16214333333333">
        <ele>141</ele>
        <time>2013-02-12T20:42:34.18</time>
      </trkpt>
      <trkpt lat="33.07766" lon="35.162083333333335">
        <ele>140.3</ele>
        <time>2013-02-12T20:42:35.18</time>
      </trkpt>
      <trkpt lat="33.07767166666667" lon="35.16203333333333">
        <ele>140</ele>
        <time>2013-02-12T20:42:36.19</time>
      </trkpt>
      <trkpt lat="33.077685" lon="35.16198166666667">
        <ele>139.4</ele>
        <time>2013-02-12T20:42:37.20</time>
      </trkpt>
      <trkpt lat="33.07769833333333" lon="35.161935">
        <ele>139.20000000000002</ele>
        <time>2013-02-12T20:42:38.19</time>
      </trkpt>
      <trkpt lat="33.077708333333334" lon="35.161876666666664">
        <ele>138.8</ele>
        <time>2013-02-12T20:42:39.19</time>
      </trkpt>
      <trkpt lat="33.07772666666666" lon="35.16181666666667">
        <ele>138.8</ele>
        <time>2013-02-12T20:42:40.19</time>
      </trkpt>
      <trkpt lat="33.077733333333335" lon="35.161755">
        <ele>138.20000000000002</ele>
        <time>2013-02-12T20:42:41.20</time>
      </trkpt>
      <trkpt lat="33.07773" lon="35.16169333333333">
        <ele>137.70000000000002</ele>
        <time>2013-02-12T20:42:42.19</time>
      </trkpt>
      <trkpt lat="33.07774166666667" lon="35.16162833333333">
        <ele>137.20000000000002</ele>
        <time>2013-02-12T20:42:43.21</time>
      </trkpt>
      <trkpt lat="33.077758333333335" lon="35.16156333333333">
        <ele>137.10000000000002</ele>
        <time>2013-02-12T20:42:44.18</time>
      </trkpt>
      <trkpt lat="33.07778166666667" lon="35.161498333333334">
        <ele>137.20000000000002</ele>
        <time>2013-02-12T20:42:45.19</time>
      </trkpt>
      <trkpt lat="33.077796666666664" lon="35.161435">
        <ele>137.50000000000003</ele>
        <time>2013-02-12T20:42:46.20</time>
      </trkpt>
      <trkpt lat="33.07781833333333" lon="35.161368333333336">
        <ele>137.20000000000002</ele>
        <time>2013-02-12T20:42:47.19</time>
      </trkpt>
      <trkpt lat="33.07783166666667" lon="35.16130166666667">
        <ele>136.3</ele>
        <time>2013-02-12T20:42:48.20</time>
      </trkpt>
      <trkpt lat="33.07783833333333" lon="35.16126166666667">
        <ele>136</ele>
        <time>2013-02-12T20:42:49.20</time>
      </trkpt>
      <trkpt lat="33.077841666666664" lon="35.16120166666666">
        <ele>134.5</ele>
        <time>2013-02-12T20:42:50.20</time>
      </trkpt>
      <trkpt lat="33.07784" lon="35.161125">
        <ele>130.7</ele>
        <time>2013-02-12T20:42:51.19</time>
      </trkpt>
      <trkpt lat="33.077821666666665" lon="35.161076666666666">
        <ele>129.7</ele>
        <time>2013-02-12T20:42:52.17</time>
      </trkpt>
      <trkpt lat="33.077805" lon="35.16105">
        <ele>129.39999999999998</ele>
        <time>2013-02-12T20:42:53.17</time>
      </trkpt>
      <trkpt lat="33.07779333333333" lon="35.161031666666666">
        <ele>128.89999999999998</ele>
        <time>2013-02-12T20:42:54.19</time>
      </trkpt>
      <trkpt lat="33.07776333333333" lon="35.16099833333333">
        <ele>129.09999999999997</ele>
        <time>2013-02-12T20:42:55.20</time>
      </trkpt>
      <trkpt lat="33.07774333333333" lon="35.160965">
        <ele>128.99999999999997</ele>
        <time>2013-02-12T20:42:56.18</time>
      </trkpt>
      <trkpt lat="33.07772" lon="35.160935">
        <ele>128.29999999999998</ele>
        <time>2013-02-12T20:42:57.19</time>
      </trkpt>
      <trkpt lat="33.07769833333333" lon="35.160911666666664">
        <ele>127.89999999999998</ele>
        <time>2013-02-12T20:42:58.17</time>
      </trkpt>
      <trkpt lat="33.07767333333334" lon="35.16090666666667">
        <ele>128.39999999999998</ele>
        <time>2013-02-12T20:42:59.19</time>
      </trkpt>
      <trkpt lat="33.07765" lon="35.16088666666667">
        <ele>128.39999999999998</ele>
        <time>2013-02-12T20:43:00.17</time>
      </trkpt>
      <trkpt lat="33.077635" lon="35.160853333333336">
        <ele>128.29999999999998</ele>
        <time>2013-02-12T20:43:01.18</time>
      </trkpt>
      <trkpt lat="33.07761" lon="35.160825">
        <ele>128.29999999999998</ele>
        <time>2013-02-12T20:43:02.18</time>
      </trkpt>
      <trkpt lat="33.07761" lon="35.16079666666667">
        <ele>128.49999999999997</ele>
        <time>2013-02-12T20:43:03.20</time>
      </trkpt>
      <trkpt lat="33.077615" lon="35.160781666666665">
        <ele>128.59999999999997</ele>
        <time>2013-02-12T20:43:04.20</time>
      </trkpt>
      <trkpt lat="33.07760666666667" lon="35.16075166666667">
        <ele>128.59999999999997</ele>
        <time>2013-02-12T20:43:05.19</time>
      </trkpt>
      <trkpt lat="33.07761" lon="35.16070833333333">
        <ele>128.39999999999998</ele>
        <time>2013-02-12T20:43:06.20</time>
      </trkpt>
      <trkpt lat="33.077615" lon="35.16068166666667">
        <ele>128.59999999999997</ele>
        <time>2013-02-12T20:43:07.19</time>
      </trkpt>
      <trkpt lat="33.077635" lon="35.16065833333333">
        <ele>128.59999999999997</ele>
        <time>2013-02-12T20:43:08.19</time>
      </trkpt>
      <trkpt lat="33.077643333333334" lon="35.16064">
        <ele>128.59999999999997</ele>
        <time>2013-02-12T20:43:09.18</time>
      </trkpt>
      <trkpt lat="33.077655" lon="35.160623333333334">
        <ele>128.09999999999997</ele>
        <time>2013-02-12T20:43:10.19</time>
      </trkpt>
      <trkpt lat="33.077665" lon="35.160615">
        <ele>127.49999999999997</ele>
        <time>2013-02-12T20:43:11.19</time>
      </trkpt>
      <trkpt lat="33.07765" lon="35.160603333333334">
        <ele>127.89999999999998</ele>
        <time>2013-02-12T20:43:12.20</time>
      </trkpt>
      <trkpt lat="33.077675" lon="35.16055166666667">
        <ele>127.89999999999998</ele>
        <time>2013-02-12T20:43:13.21</time>
      </trkpt>
      <trkpt lat="33.07768166666666" lon="35.160515">
        <ele>127.69999999999997</ele>
        <time>2013-02-12T20:43:14.19</time>
      </trkpt>
      <trkpt lat="33.077675" lon="35.16045666666667">
        <ele>127.09999999999998</ele>
        <time>2013-02-12T20:43:15.20</time>
      </trkpt>
      <trkpt lat="33.07765666666667" lon="35.16044">
        <ele>127.09999999999998</ele>
        <time>2013-02-12T20:43:16.18</time>
      </trkpt>
      <trkpt lat="33.07763166666667" lon="35.160415">
        <ele>126.99999999999999</ele>
        <time>2013-02-12T20:43:17.20</time>
      </trkpt>
      <trkpt lat="33.07760666666667" lon="35.160381666666666">
        <ele>126.39999999999999</ele>
        <time>2013-02-12T20:43:18.20</time>
      </trkpt>
      <trkpt lat="33.077585" lon="35.160358333333335">
        <ele>126.39999999999999</ele>
        <time>2013-02-12T20:43:19.20</time>
      </trkpt>
      <trkpt lat="33.07756666666667" lon="35.16032166666667">
        <ele>126.3</ele>
        <time>2013-02-12T20:43:20.20</time>
      </trkpt>
      <trkpt lat="33.077565" lon="35.16028166666667">
        <ele>126.39999999999999</ele>
        <time>2013-02-12T20:43:21.19</time>
      </trkpt>
      <trkpt lat="33.07756833333333" lon="35.16026166666666">
        <ele>126.39999999999999</ele>
        <time>2013-02-12T20:43:22.20</time>
      </trkpt>
      <trkpt lat="33.077571666666664" lon="35.16023333333333">
        <ele>126.39999999999999</ele>
        <time>2013-02-12T20:43:23.18</time>
      </trkpt>
      <trkpt lat="33.07756666666667" lon="35.160203333333335">
        <ele>126.6</ele>
        <time>2013-02-12T20:43:24.19</time>
      </trkpt>
      <trkpt lat="33.07756333333333" lon="35.16017">
        <ele>126.19999999999999</ele>
        <time>2013-02-12T20:43:25.18</time>
      </trkpt>
      <trkpt lat="33.07756833333333" lon="35.16014833333333">
        <ele>126.99999999999999</ele>
        <time>2013-02-12T20:43:26.19</time>
      </trkpt>
      <trkpt lat="33.077575" lon="35.16013">
        <ele>127.19999999999999</ele>
        <time>2013-02-12T20:43:27.19</time>
      </trkpt>
      <trkpt lat="33.07758666666667" lon="35.160105">
        <ele>127.19999999999999</ele>
        <time>2013-02-12T20:43:28.18</time>
      </trkpt>
      <trkpt lat="33.07758333333334" lon="35.16007833333333">
        <ele>127.39999999999999</ele>
        <time>2013-02-12T20:43:29.18</time>
      </trkpt>
      <trkpt lat="33.07758833333333" lon="35.16003666666667">
        <ele>127.6</ele>
        <time>2013-02-12T20:43:30.16</time>
      </trkpt>
      <trkpt lat="33.07757333333333" lon="35.16">
        <ele>127.39999999999999</ele>
        <time>2013-02-12T20:43:31.16</time>
      </trkpt>
      <trkpt lat="33.077618333333334" lon="35.15992">
        <ele>126.39999999999999</ele>
        <time>2013-02-12T20:43:32.16</time>
      </trkpt>
      <trkpt lat="33.07760833333333" lon="35.159848333333336">
        <ele>124.89999999999999</ele>
        <time>2013-02-12T20:43:33.17</time>
      </trkpt>
      <trkpt lat="33.077595" lon="35.15984">
        <ele>124.8</ele>
        <time>2013-02-12T20:43:34.16</time>
      </trkpt>
      <trkpt lat="33.07758166666667" lon="35.15983666666666">
        <ele>124.39999999999999</ele>
        <time>2013-02-12T20:43:35.17</time>
      </trkpt>
      <trkpt lat="33.077565" lon="35.159835">
        <ele>124.3</ele>
        <time>2013-02-12T20:43:36.18</time>
      </trkpt>
      <trkpt lat="33.07753666666667" lon="35.159821666666666">
        <ele>124.5</ele>
        <time>2013-02-12T20:43:37.17</time>
      </trkpt>
      <trkpt lat="33.077531666666665" lon="35.15980833333333">
        <ele>124.4</ele>
        <time>2013-02-12T20:43:38.17</time>
      </trkpt>
      <trkpt lat="33.077515" lon="35.15980833333333">
        <ele>124.30000000000001</ele>
        <time>2013-02-12T20:43:39.16</time>
      </trkpt>
      <trkpt lat="33.077506666666665" lon="35.159823333333335">
        <ele>124.10000000000001</ele>
        <time>2013-02-12T20:43:40.18</time>
      </trkpt>
      <trkpt lat="33.07749833333333" lon="35.15985">
        <ele>124.2</ele>
        <time>2013-02-12T20:43:41.19</time>
      </trkpt>
      <trkpt lat="33.077481666666664" lon="35.159843333333335">
        <ele>124</ele>
        <time>2013-02-12T20:43:42.23</time>
      </trkpt>
      <trkpt lat="33.07744" lon="35.159848333333336">
        <ele>123.9</ele>
        <time>2013-02-12T20:43:43.20</time>
      </trkpt>
      <trkpt lat="33.07739333333333" lon="35.15986">
        <ele>124.10000000000001</ele>
        <time>2013-02-12T20:43:44.19</time>
      </trkpt>
      <trkpt lat="33.077353333333335" lon="35.159881666666664">
        <ele>124.00000000000001</ele>
        <time>2013-02-12T20:43:45.20</time>
      </trkpt>
      <trkpt lat="33.07732166666667" lon="35.15990166666667">
        <ele>123.80000000000001</ele>
        <time>2013-02-12T20:43:46.18</time>
      </trkpt>
      <trkpt lat="33.077325" lon="35.15988333333333">
        <ele>123.70000000000002</ele>
        <time>2013-02-12T20:43:48.18</time>
      </trkpt>
      <trkpt lat="33.07730166666666" lon="35.159886666666665">
        <ele>123.80000000000001</ele>
        <time>2013-02-12T20:43:49.20</time>
      </trkpt>
      <trkpt lat="33.07727833333333" lon="35.15985666666667">
        <ele>123.9</ele>
        <time>2013-02-12T20:43:50.19</time>
      </trkpt>
      <trkpt lat="33.077306666666665" lon="35.159905">
        <ele>123.80000000000001</ele>
        <time>2013-02-12T20:43:51.20</time>
      </trkpt>
      <trkpt lat="33.077313333333336" lon="35.159925">
        <ele>123.50000000000001</ele>
        <time>2013-02-12T20:43:52.19</time>
      </trkpt>
      <trkpt lat="33.077265" lon="35.159915">
        <ele>122.70000000000002</ele>
        <time>2013-02-12T20:43:53.17</time>
      </trkpt>
      <trkpt lat="33.07724833333333" lon="35.15992166666667">
        <ele>121.60000000000002</ele>
        <time>2013-02-12T20:43:54.17</time>
      </trkpt>
      <trkpt lat="33.077216666666665" lon="35.15994166666667">
        <ele>120.10000000000002</ele>
        <time>2013-02-12T20:43:55.18</time>
      </trkpt>
      <trkpt lat="33.07718" lon="35.15997">
        <ele>119.20000000000002</ele>
        <time>2013-02-12T20:43:56.18</time>
      </trkpt>
      <trkpt lat="33.077151666666666" lon="35.15998666666667">
        <ele>118.80000000000001</ele>
        <time>2013-02-12T20:43:57.15</time>
      </trkpt>
      <trkpt lat="33.07712166666666" lon="35.159995">
        <ele>117.70000000000002</ele>
        <time>2013-02-12T20:43:58.15</time>
      </trkpt>
      <trkpt lat="33.077106666666666" lon="35.160005">
        <ele>115.80000000000001</ele>
        <time>2013-02-12T20:43:59.15</time>
      </trkpt>
      <trkpt lat="33.07710333333333" lon="35.16002">
        <ele>115.60000000000001</ele>
        <time>2013-02-12T20:44:00.15</time>
      </trkpt>
      <trkpt lat="33.07711166666667" lon="35.16003666666667">
        <ele>114.9</ele>
        <time>2013-02-12T20:44:01.14</time>
      </trkpt>
      <trkpt lat="33.07711666666667" lon="35.160066666666665">
        <ele>115.2</ele>
        <time>2013-02-12T20:44:02.15</time>
      </trkpt>
      <trkpt lat="33.077115" lon="35.1601">
        <ele>115.3</ele>
        <time>2013-02-12T20:44:03.15</time>
      </trkpt>
      <trkpt lat="33.077146666666664" lon="35.16010333333333">
        <ele>114.7</ele>
        <time>2013-02-12T20:44:04.15</time>
      </trkpt>
      <trkpt lat="33.07716166666667" lon="35.160135">
        <ele>114.7</ele>
        <time>2013-02-12T20:44:05.16</time>
      </trkpt>
      <trkpt lat="33.07718" lon="35.16014">
        <ele>114.5</ele>
        <time>2013-02-12T20:44:06.18</time>
      </trkpt>
      <trkpt lat="33.077191666666664" lon="35.160151666666664">
        <ele>114.2</ele>
        <time>2013-02-12T20:44:07.17</time>
      </trkpt>
      <trkpt lat="33.077205" lon="35.16017166666666">
        <ele>113.7</ele>
        <time>2013-02-12T20:44:08.15</time>
      </trkpt>
      <trkpt lat="33.07721166666666" lon="35.16018">
        <ele>113.60000000000001</ele>
        <time>2013-02-12T20:44:09.15</time>
      </trkpt>
      <trkpt lat="33.077225" lon="35.16019">
        <ele>113.2</ele>
        <time>2013-02-12T20:44:10.17</time>
      </trkpt>
      <trkpt lat="33.077235" lon="35.16021">
        <ele>113.4</ele>
        <time>2013-02-12T20:44:11.18</time>
      </trkpt>
      <trkpt lat="33.077235" lon="35.16023333333333">
        <ele>113.30000000000001</ele>
        <time>2013-02-12T20:44:12.23</time>
      </trkpt>
      <trkpt lat="33.07724833333333" lon="35.16023833333333">
        <ele>113.30000000000001</ele>
        <time>2013-02-12T20:44:13.19</time>
      </trkpt>
      <trkpt lat="33.07727166666667" lon="35.160266666666665">
        <ele>113.9</ele>
        <time>2013-02-12T20:44:14.19</time>
      </trkpt>
      <trkpt lat="33.077283333333334" lon="35.16032333333333">
        <ele>114.5</ele>
        <time>2013-02-12T20:44:15.20</time>
      </trkpt>
      <trkpt lat="33.07726666666667" lon="35.16035">
        <ele>115.2</ele>
        <time>2013-02-12T20:44:16.20</time>
      </trkpt>
      <trkpt lat="33.07729166666667" lon="35.160355">
        <ele>114.7</ele>
        <time>2013-02-12T20:44:17.21</time>
      </trkpt>
      <trkpt lat="33.07729666666667" lon="35.16034166666667">
        <ele>113.9</ele>
        <time>2013-02-12T20:44:18.18</time>
      </trkpt>
      <trkpt lat="33.07727833333333" lon="35.16032166666667">
        <ele>113.2</ele>
        <time>2013-02-12T20:44:19.20</time>
      </trkpt>
      <trkpt lat="33.077265" lon="35.160315">
        <ele>113.3</ele>
        <time>2013-02-12T20:44:20.20</time>
      </trkpt>
      <trkpt lat="33.077281666666664" lon="35.160331666666664">
        <ele>112.7</ele>
        <time>2013-02-12T20:44:21.20</time>
      </trkpt>
      <trkpt lat="33.077268333333336" lon="35.160338333333335">
        <ele>113.3</ele>
        <time>2013-02-12T20:44:22.20</time>
      </trkpt>
      <trkpt lat="33.07727166666667" lon="35.16036">
        <ele>112.7</ele>
        <time>2013-02-12T20:44:23.19</time>
      </trkpt>
      <trkpt lat="33.077295" lon="35.16036">
        <ele>112.7</ele>
        <time>2013-02-12T20:44:24.18</time>
      </trkpt>
      <trkpt lat="33.07731833333333" lon="35.160351666666664">
        <ele>114.2</ele>
        <time>2013-02-12T20:44:26.20</time>
      </trkpt>
      <trkpt lat="33.077313333333336" lon="35.16035">
        <ele>114.3</ele>
        <time>2013-02-12T20:44:27.19</time>
      </trkpt>
      <trkpt lat="33.07731" lon="35.16036166666667">
        <ele>113.89999999999999</ele>
        <time>2013-02-12T20:44:28.19</time>
      </trkpt>
      <trkpt lat="33.077306666666665" lon="35.16037166666667">
        <ele>114.8</ele>
        <time>2013-02-12T20:44:35.19</time>
      </trkpt>
      <trkpt lat="33.077306666666665" lon="35.160381666666666">
        <ele>114.5</ele>
        <time>2013-02-12T20:44:37.20</time>
      </trkpt>
      <trkpt lat="33.077306666666665" lon="35.160385">
        <ele>114.5</ele>
        <time>2013-02-12T20:44:44.17</time>
      </trkpt>
      <trkpt lat="33.077315" lon="35.16044">
        <ele>114.2</ele>
        <time>2013-02-12T20:44:48.15</time>
      </trkpt>
      <trkpt lat="33.07732166666667" lon="35.16049">
        <ele>113</ele>
        <time>2013-02-12T20:44:49.16</time>
      </trkpt>
      <trkpt lat="33.07731166666667" lon="35.1605">
        <ele>112.3</ele>
        <time>2013-02-12T20:44:50.15</time>
      </trkpt>
      <trkpt lat="33.077308333333335" lon="35.160511666666665">
        <ele>112.39999999999999</ele>
        <time>2013-02-12T20:44:51.14</time>
      </trkpt>
      <trkpt lat="33.077306666666665" lon="35.160518333333336">
        <ele>111.8</ele>
        <time>2013-02-12T20:44:52.15</time>
      </trkpt>
      <trkpt lat="33.07731833333333" lon="35.16052666666667">
        <ele>111.6</ele>
        <time>2013-02-12T20:44:53.15</time>
      </trkpt>
      <trkpt lat="33.077325" lon="35.16053333333333">
        <ele>111.19999999999999</ele>
        <time>2013-02-12T20:44:54.17</time>
      </trkpt>
      <trkpt lat="33.07733" lon="35.16054333333334">
        <ele>111.39999999999999</ele>
        <time>2013-02-12T20:44:55.18</time>
      </trkpt>
      <trkpt lat="33.07733833333333" lon="35.16055">
        <ele>111.39999999999999</ele>
        <time>2013-02-12T20:44:56.15</time>
      </trkpt>
      <trkpt lat="33.077333333333335" lon="35.160556666666665">
        <ele>111.3</ele>
        <time>2013-02-12T20:44:57.15</time>
      </trkpt>
      <trkpt lat="33.077315" lon="35.16058">
        <ele>111.5</ele>
        <time>2013-02-12T20:44:59.20</time>
      </trkpt>
      <trkpt lat="33.07731833333333" lon="35.160605">
        <ele>111.3</ele>
        <time>2013-02-12T20:45:03.18</time>
      </trkpt>
      <trkpt lat="33.07731" lon="35.16061833333333">
        <ele>111.2</ele>
        <time>2013-02-12T20:45:04.19</time>
      </trkpt>
      <trkpt lat="33.077325" lon="35.16063166666667">
        <ele>110.9</ele>
        <time>2013-02-12T20:45:05.22</time>
      </trkpt>
      <trkpt lat="33.077326666666664" lon="35.16064333333333">
        <ele>110.7</ele>
        <time>2013-02-12T20:45:06.17</time>
      </trkpt>
      <trkpt lat="33.07733833333333" lon="35.16067666666667">
        <ele>110.2</ele>
        <time>2013-02-12T20:45:07.19</time>
      </trkpt>
      <trkpt lat="33.077331666666666" lon="35.16067833333334">
        <ele>110.3</ele>
        <time>2013-02-12T20:45:08.19</time>
      </trkpt>
      <trkpt lat="33.07734" lon="35.160705">
        <ele>110.2</ele>
        <time>2013-02-12T20:45:09.19</time>
      </trkpt>
      <trkpt lat="33.07733833333333" lon="35.160698333333336">
        <ele>110.7</ele>
        <time>2013-02-12T20:45:10.20</time>
      </trkpt>
      <trkpt lat="33.07734833333333" lon="35.160691666666665">
        <ele>111</ele>
        <time>2013-02-12T20:45:11.19</time>
      </trkpt>
      <trkpt lat="33.07735666666667" lon="35.160695">
        <ele>110.7</ele>
        <time>2013-02-12T20:45:12.25</time>
      </trkpt>
      <trkpt lat="33.07733666666667" lon="35.16068666666666">
        <ele>111</ele>
        <time>2013-02-12T20:45:13.20</time>
      </trkpt>
      <trkpt lat="33.077335" lon="35.16070333333333">
        <ele>111.7</ele>
        <time>2013-02-12T20:45:14.20</time>
      </trkpt>
      <trkpt lat="33.07733666666667" lon="35.16072833333333">
        <ele>111.5</ele>
        <time>2013-02-12T20:45:15.18</time>
      </trkpt>
      <trkpt lat="33.07732333333333" lon="35.160738333333335">
        <ele>111.8</ele>
        <time>2013-02-12T20:45:16.19</time>
      </trkpt>
      <trkpt lat="33.07732166666667" lon="35.16074833333333">
        <ele>112.3</ele>
        <time>2013-02-12T20:45:17.19</time>
      </trkpt>
      <trkpt lat="33.077325" lon="35.16076">
        <ele>113.39999999999999</ele>
        <time>2013-02-12T20:45:18.18</time>
      </trkpt>
      <trkpt lat="33.07732166666667" lon="35.16076833333333">
        <ele>113.8</ele>
        <time>2013-02-12T20:45:19.20</time>
      </trkpt>
      <trkpt lat="33.077335" lon="35.16077833333333">
        <ele>113.7</ele>
        <time>2013-02-12T20:45:20.19</time>
      </trkpt>
      <trkpt lat="33.077353333333335" lon="35.16079833333333">
        <ele>113.5</ele>
        <time>2013-02-12T20:45:21.21</time>
      </trkpt>
      <trkpt lat="33.07736333333333" lon="35.16081833333333">
        <ele>113.7</ele>
        <time>2013-02-12T20:45:22.20</time>
      </trkpt>
      <trkpt lat="33.07736" lon="35.16083166666667">
        <ele>113.5</ele>
        <time>2013-02-12T20:45:23.19</time>
      </trkpt>
      <trkpt lat="33.07738666666667" lon="35.160851666666666">
        <ele>113.8</ele>
        <time>2013-02-12T20:45:24.19</time>
      </trkpt>
      <trkpt lat="33.07738666666667" lon="35.16086333333333">
        <ele>114</ele>
        <time>2013-02-12T20:45:25.20</time>
      </trkpt>
      <trkpt lat="33.07741" lon="35.16087">
        <ele>114.2</ele>
        <time>2013-02-12T20:45:26.21</time>
      </trkpt>
      <trkpt lat="33.07741333333333" lon="35.16088333333333">
        <ele>114.8</ele>
        <time>2013-02-12T20:45:27.20</time>
      </trkpt>
      <trkpt lat="33.077405" lon="35.160911666666664">
        <ele>114.39999999999999</ele>
        <time>2013-02-12T20:45:29.19</time>
      </trkpt>
      <trkpt lat="33.07741333333333" lon="35.160911666666664">
        <ele>114.3</ele>
        <time>2013-02-12T20:45:30.20</time>
      </trkpt>
      <trkpt lat="33.07743333333333" lon="35.16092166666667">
        <ele>113.3</ele>
        <time>2013-02-12T20:45:31.19</time>
      </trkpt>
      <trkpt lat="33.07742666666667" lon="35.160935">
        <ele>112.8</ele>
        <time>2013-02-12T20:45:33.20</time>
      </trkpt>
      <trkpt lat="33.07742666666667" lon="35.160945">
        <ele>112.6</ele>
        <time>2013-02-12T20:45:40.18</time>
      </trkpt>
      <trkpt lat="33.077423333333336" lon="35.16095">
        <ele>113</ele>
        <time>2013-02-12T20:45:42.19</time>
      </trkpt>
      <trkpt lat="33.077425" lon="35.160943333333336">
        <ele>112.3</ele>
        <time>2013-02-12T20:45:43.19</time>
      </trkpt>
      <trkpt lat="33.07742666666667" lon="35.160986666666666">
        <ele>114.6</ele>
        <time>2013-02-12T20:45:49.18</time>
      </trkpt>
      <trkpt lat="33.07742666666667" lon="35.161001666666664">
        <ele>113.8</ele>
        <time>2013-02-12T20:45:50.17</time>
      </trkpt>
      <trkpt lat="33.077435" lon="35.16102333333333">
        <ele>113</ele>
        <time>2013-02-12T20:45:51.17</time>
      </trkpt>
      <trkpt lat="33.077443333333335" lon="35.161031666666666">
        <ele>113.2</ele>
        <time>2013-02-12T20:45:52.15</time>
      </trkpt>
      <trkpt lat="33.07745833333333" lon="35.161046666666664">
        <ele>112.10000000000001</ele>
        <time>2013-02-12T20:45:54.15</time>
      </trkpt>
      <trkpt lat="33.077468333333336" lon="35.16106666666666">
        <ele>112.60000000000001</ele>
        <time>2013-02-12T20:45:55.15</time>
      </trkpt>
      <trkpt lat="33.077463333333334" lon="35.161071666666665">
        <ele>113</ele>
        <time>2013-02-12T20:46:02.17</time>
      </trkpt>
      <trkpt lat="33.07746" lon="35.16108">
        <ele>113.2</ele>
        <time>2013-02-12T20:46:04.15</time>
      </trkpt>
      <trkpt lat="33.077463333333334" lon="35.16108666666667">
        <ele>113.9</ele>
        <time>2013-02-12T20:46:11.15</time>
      </trkpt>
      <trkpt lat="33.077466666666666" lon="35.161135">
        <ele>113.9</ele>
        <time>2013-02-12T20:46:15.14</time>
      </trkpt>
      <trkpt lat="33.07747166666667" lon="35.161143333333335">
        <ele>113.30000000000001</ele>
        <time>2013-02-12T20:46:16.15</time>
      </trkpt>
      <trkpt lat="33.077468333333336" lon="35.16116666666667">
        <ele>113.80000000000001</ele>
        <time>2013-02-12T20:46:17.16</time>
      </trkpt>
      <trkpt lat="33.077463333333334" lon="35.16120166666666">
        <ele>113.80000000000001</ele>
        <time>2013-02-12T20:46:18.15</time>
      </trkpt>
      <trkpt lat="33.07747333333333" lon="35.16121833333333">
        <ele>113.4</ele>
        <time>2013-02-12T20:46:19.15</time>
      </trkpt>
      <trkpt lat="33.07747333333333" lon="35.161231666666666">
        <ele>113.30000000000001</ele>
        <time>2013-02-12T20:46:20.15</time>
      </trkpt>
      <trkpt lat="33.077466666666666" lon="35.16124833333333">
        <ele>113.4</ele>
        <time>2013-02-12T20:46:21.16</time>
      </trkpt>
      <trkpt lat="33.077466666666666" lon="35.161253333333335">
        <ele>114.30000000000001</ele>
        <time>2013-02-12T20:46:22.15</time>
      </trkpt>
      <trkpt lat="33.07745833333333" lon="35.161265">
        <ele>114.50000000000001</ele>
        <time>2013-02-12T20:46:23.15</time>
      </trkpt>
      <trkpt lat="33.07746" lon="35.161278333333335">
        <ele>114.50000000000001</ele>
        <time>2013-02-12T20:46:24.15</time>
      </trkpt>
      <trkpt lat="33.07748" lon="35.16129">
        <ele>114.40000000000002</ele>
        <time>2013-02-12T20:46:25.17</time>
      </trkpt>
      <trkpt lat="33.07749333333334" lon="35.161295">
        <ele>115.80000000000003</ele>
        <time>2013-02-12T20:46:26.18</time>
      </trkpt>
      <trkpt lat="33.07749333333334" lon="35.16131166666667">
        <ele>114.20000000000003</ele>
        <time>2013-02-12T20:46:27.19</time>
      </trkpt>
      <trkpt lat="33.07749833333333" lon="35.161325">
        <ele>114.00000000000003</ele>
        <time>2013-02-12T20:46:28.19</time>
      </trkpt>
      <trkpt lat="33.07749833333333" lon="35.161335">
        <ele>113.70000000000003</ele>
        <time>2013-02-12T20:46:29.19</time>
      </trkpt>
      <trkpt lat="33.07749333333334" lon="35.161355">
        <ele>113.70000000000003</ele>
        <time>2013-02-12T20:46:30.24</time>
      </trkpt>
      <trkpt lat="33.077495" lon="35.16137">
        <ele>113.00000000000003</ele>
        <time>2013-02-12T20:46:31.19</time>
      </trkpt>
      <trkpt lat="33.07749666666667" lon="35.161385">
        <ele>113.50000000000003</ele>
        <time>2013-02-12T20:46:32.20</time>
      </trkpt>
      <trkpt lat="33.07749666666667" lon="35.161408333333334">
        <ele>113.00000000000003</ele>
        <time>2013-02-12T20:46:33.20</time>
      </trkpt>
      <trkpt lat="33.077506666666665" lon="35.16141">
        <ele>113.20000000000003</ele>
        <time>2013-02-12T20:46:34.17</time>
      </trkpt>
      <trkpt lat="33.077513333333336" lon="35.16142833333333">
        <ele>113.60000000000004</ele>
        <time>2013-02-12T20:46:35.19</time>
      </trkpt>
      <trkpt lat="33.077508333333334" lon="35.161435">
        <ele>113.80000000000004</ele>
        <time>2013-02-12T20:46:36.20</time>
      </trkpt>
      <trkpt lat="33.07749833333333" lon="35.161425">
        <ele>114.60000000000004</ele>
        <time>2013-02-12T20:46:38.17</time>
      </trkpt>
      <trkpt lat="33.07749833333333" lon="35.16146">
        <ele>115.80000000000004</ele>
        <time>2013-02-12T20:46:39.17</time>
      </trkpt>
      <trkpt lat="33.07749333333334" lon="35.16148333333334">
        <ele>115.50000000000004</ele>
        <time>2013-02-12T20:46:40.20</time>
      </trkpt>
      <trkpt lat="33.077485" lon="35.16150833333333">
        <ele>115.10000000000004</ele>
        <time>2013-02-12T20:46:42.19</time>
      </trkpt>
      <trkpt lat="33.07750333333333" lon="35.161505">
        <ele>115.20000000000003</ele>
        <time>2013-02-12T20:46:43.19</time>
      </trkpt>
      <trkpt lat="33.07750333333333" lon="35.16152666666667">
        <ele>115.60000000000004</ele>
        <time>2013-02-12T20:46:44.18</time>
      </trkpt>
      <trkpt lat="33.07749666666667" lon="35.16153333333333">
        <ele>116.20000000000003</ele>
        <time>2013-02-12T20:46:45.19</time>
      </trkpt>
      <trkpt lat="33.07747666666667" lon="35.161521666666665">
        <ele>119.10000000000004</ele>
        <time>2013-02-12T20:46:46.19</time>
      </trkpt>
      <trkpt lat="33.07747333333333" lon="35.16151833333333">
        <ele>120.20000000000003</ele>
        <time>2013-02-12T20:46:47.19</time>
      </trkpt>
      <trkpt lat="33.077463333333334" lon="35.16152">
        <ele>120.70000000000003</ele>
        <time>2013-02-12T20:46:48.21</time>
      </trkpt>
      <trkpt lat="33.07745" lon="35.161515">
        <ele>120.80000000000003</ele>
        <time>2013-02-12T20:46:49.20</time>
      </trkpt>
      <trkpt lat="33.07744833333334" lon="35.161546666666666">
        <ele>120.7</ele>
        <time>2013-02-12T20:46:56.19</time>
      </trkpt>
      <trkpt lat="33.077465" lon="35.161561666666664">
        <ele>120.7</ele>
        <time>2013-02-12T20:46:58.19</time>
      </trkpt>
      <trkpt lat="33.07747" lon="35.16160166666667">
        <ele>122.7</ele>
        <time>2013-02-12T20:47:02.20</time>
      </trkpt>
      <trkpt lat="33.077486666666665" lon="35.161611666666666">
        <ele>123.60000000000001</ele>
        <time>2013-02-12T20:47:03.19</time>
      </trkpt>
      <trkpt lat="33.0775" lon="35.16162333333333">
        <ele>124.10000000000001</ele>
        <time>2013-02-12T20:47:04.19</time>
      </trkpt>
      <trkpt lat="33.077508333333334" lon="35.16164333333333">
        <ele>124.10000000000001</ele>
        <time>2013-02-12T20:47:05.20</time>
      </trkpt>
      <trkpt lat="33.07751833333333" lon="35.16164666666667">
        <ele>123.9</ele>
        <time>2013-02-12T20:47:06.19</time>
      </trkpt>
      <trkpt lat="33.077535" lon="35.16166833333333">
        <ele>123.60000000000001</ele>
        <time>2013-02-12T20:47:07.18</time>
      </trkpt>
      <trkpt lat="33.07753833333334" lon="35.16168833333333">
        <ele>123.50000000000001</ele>
        <time>2013-02-12T20:47:08.18</time>
      </trkpt>
      <trkpt lat="33.077533333333335" lon="35.16169333333333">
        <ele>125.20000000000002</ele>
        <time>2013-02-12T20:47:09.18</time>
      </trkpt>
      <trkpt lat="33.07753666666667" lon="35.16170833333334">
        <ele>125.40000000000002</ele>
        <time>2013-02-12T20:47:10.18</time>
      </trkpt>
      <trkpt lat="33.07754333333333" lon="35.16172">
        <ele>125.60000000000002</ele>
        <time>2013-02-12T20:47:11.19</time>
      </trkpt>
      <trkpt lat="33.07755" lon="35.16173333333333">
        <ele>125.70000000000002</ele>
        <time>2013-02-12T20:47:12.18</time>
      </trkpt>
      <trkpt lat="33.077555" lon="35.161748333333335">
        <ele>125.50000000000001</ele>
        <time>2013-02-12T20:47:13.21</time>
      </trkpt>
      <trkpt lat="33.077565" lon="35.16176">
        <ele>126.90000000000002</ele>
        <time>2013-02-12T20:47:14.19</time>
      </trkpt>
      <trkpt lat="33.07756666666667" lon="35.16177">
        <ele>127.10000000000002</ele>
        <time>2013-02-12T20:47:15.19</time>
      </trkpt>
      <trkpt lat="33.077576666666666" lon="35.16178166666667">
        <ele>127.20000000000002</ele>
        <time>2013-02-12T20:47:16.18</time>
      </trkpt>
      <trkpt lat="33.07758166666667" lon="35.161786666666664">
        <ele>126.60000000000002</ele>
        <time>2013-02-12T20:47:17.19</time>
      </trkpt>
      <trkpt lat="33.07758166666667" lon="35.16179666666667">
        <ele>126.90000000000002</ele>
        <time>2013-02-12T20:47:18.20</time>
      </trkpt>
      <trkpt lat="33.077575" lon="35.161805">
        <ele>126.50000000000001</ele>
        <time>2013-02-12T20:47:19.20</time>
      </trkpt>
      <trkpt lat="33.077578333333335" lon="35.16181">
        <ele>127.10000000000001</ele>
        <time>2013-02-12T20:47:20.20</time>
      </trkpt>
      <trkpt lat="33.077585" lon="35.161818333333336">
        <ele>127.30000000000001</ele>
        <time>2013-02-12T20:47:21.19</time>
      </trkpt>
      <trkpt lat="33.07758333333334" lon="35.16182666666667">
        <ele>127.50000000000001</ele>
        <time>2013-02-12T20:47:22.20</time>
      </trkpt>
      <trkpt lat="33.07758666666667" lon="35.161838333333336">
        <ele>127.10000000000001</ele>
        <time>2013-02-12T20:47:23.19</time>
      </trkpt>
      <trkpt lat="33.07759166666666" lon="35.16185">
        <ele>127.00000000000001</ele>
        <time>2013-02-12T20:47:24.26</time>
      </trkpt>
      <trkpt lat="33.077598333333334" lon="35.16188">
        <ele>126.70000000000002</ele>
        <time>2013-02-12T20:47:25.20</time>
      </trkpt>
      <trkpt lat="33.077598333333334" lon="35.16189833333333">
        <ele>126.60000000000002</ele>
        <time>2013-02-12T20:47:26.18</time>
      </trkpt>
      <trkpt lat="33.07761" lon="35.16190666666667">
        <ele>126.30000000000003</ele>
        <time>2013-02-12T20:47:27.19</time>
      </trkpt>
      <trkpt lat="33.077625" lon="35.161915">
        <ele>126.00000000000003</ele>
        <time>2013-02-12T20:47:28.17</time>
      </trkpt>
      <trkpt lat="33.07760666666667" lon="35.16191333333333">
        <ele>125.10000000000002</ele>
        <time>2013-02-12T20:47:29.17</time>
      </trkpt>
      <trkpt lat="33.07760833333333" lon="35.161926666666666">
        <ele>124.60000000000002</ele>
        <time>2013-02-12T20:47:30.15</time>
      </trkpt>
      <trkpt lat="33.077621666666666" lon="35.16191166666667">
        <ele>124.60000000000002</ele>
        <time>2013-02-12T20:47:31.15</time>
      </trkpt>
      <trkpt lat="33.07763166666667" lon="35.16193333333333">
        <ele>126.10000000000002</ele>
        <time>2013-02-12T20:47:32.15</time>
      </trkpt>
      <trkpt lat="33.077621666666666" lon="35.16193666666667">
        <ele>127.50000000000003</ele>
        <time>2013-02-12T20:47:33.15</time>
      </trkpt>
      <trkpt lat="33.07763833333333" lon="35.161926666666666">
        <ele>126.50000000000003</ele>
        <time>2013-02-12T20:47:34.21</time>
      </trkpt>
      <trkpt lat="33.07763833333333" lon="35.16194333333333">
        <ele>126.70000000000003</ele>
        <time>2013-02-12T20:47:35.15</time>
      </trkpt>
      <trkpt lat="33.077635" lon="35.16195">
        <ele>127.40000000000003</ele>
        <time>2013-02-12T20:47:36.15</time>
      </trkpt>
      <trkpt lat="33.077615" lon="35.16194333333333">
        <ele>127.70000000000003</ele>
        <time>2013-02-12T20:47:37.15</time>
      </trkpt>
      <trkpt lat="33.07760833333333" lon="35.161946666666665">
        <ele>128.00000000000003</ele>
        <time>2013-02-12T20:47:38.15</time>
      </trkpt>
      <trkpt lat="33.077601666666666" lon="35.161945">
        <ele>127.20000000000003</ele>
        <time>2013-02-12T20:47:39.15</time>
      </trkpt>
      <trkpt lat="33.07759333333333" lon="35.161945">
        <ele>126.40000000000003</ele>
        <time>2013-02-12T20:47:40.15</time>
      </trkpt>
      <trkpt lat="33.077598333333334" lon="35.16193833333333">
        <ele>126.70000000000003</ele>
        <time>2013-02-12T20:47:41.15</time>
      </trkpt>
      <trkpt lat="33.077605" lon="35.161948333333335">
        <ele>126.40000000000003</ele>
        <time>2013-02-12T20:47:42.16</time>
      </trkpt>
      <trkpt lat="33.07760666666667" lon="35.16195333333334">
        <ele>126.20000000000003</ele>
        <time>2013-02-12T20:47:43.15</time>
      </trkpt>
      <trkpt lat="33.07760833333333" lon="35.16196166666667">
        <ele>125.6</ele>
        <time>2013-02-12T20:47:50.18</time>
      </trkpt>
      <trkpt lat="33.07761333333333" lon="35.16196">
        <ele>126.89999999999999</ele>
        <time>2013-02-12T20:47:52.15</time>
      </trkpt>
      <trkpt lat="33.07761166666667" lon="35.161965">
        <ele>126.7</ele>
        <time>2013-02-12T20:47:59.20</time>
      </trkpt>
      <trkpt lat="33.07760666666667" lon="35.161968333333334">
        <ele>125.7</ele>
        <time>2013-02-12T20:48:05.15</time>
      </trkpt>
      <trkpt lat="33.077596666666665" lon="35.16197666666667">
        <ele>126.8</ele>
        <time>2013-02-12T20:48:06.15</time>
      </trkpt>
      <trkpt lat="33.07759166666666" lon="35.161971666666666">
        <ele>126.39999999999999</ele>
        <time>2013-02-12T20:48:07.15</time>
      </trkpt>
      <trkpt lat="33.07758333333334" lon="35.16197666666667">
        <ele>126.19999999999999</ele>
        <time>2013-02-12T20:48:09.15</time>
      </trkpt>
      <trkpt lat="33.077578333333335" lon="35.161968333333334">
        <ele>126.1</ele>
        <time>2013-02-12T20:48:10.15</time>
      </trkpt>
      <trkpt lat="33.077565" lon="35.16196">
        <ele>126</ele>
        <time>2013-02-12T20:48:11.15</time>
      </trkpt>
      <trkpt lat="33.07756" lon="35.16195166666667">
        <ele>126.7</ele>
        <time>2013-02-12T20:48:12.15</time>
      </trkpt>
      <trkpt lat="33.077555" lon="35.16194">
        <ele>127.2</ele>
        <time>2013-02-12T20:48:13.15</time>
      </trkpt>
      <trkpt lat="33.07754833333333" lon="35.161925">
        <ele>127.3</ele>
        <time>2013-02-12T20:48:14.18</time>
      </trkpt>
      <trkpt lat="33.077533333333335" lon="35.16191166666667">
        <ele>127.3</ele>
        <time>2013-02-12T20:48:15.18</time>
      </trkpt>
      <trkpt lat="33.077506666666665" lon="35.161895">
        <ele>127.1</ele>
        <time>2013-02-12T20:48:16.21</time>
      </trkpt>
      <trkpt lat="33.07748" lon="35.16189">
        <ele>127.6</ele>
        <time>2013-02-12T20:48:17.18</time>
      </trkpt>
      <trkpt lat="33.07745833333333" lon="35.161878333333334">
        <ele>127.39999999999999</ele>
        <time>2013-02-12T20:48:18.18</time>
      </trkpt>
      <trkpt lat="33.07743166666667" lon="35.161865">
        <ele>127.39999999999999</ele>
        <time>2013-02-12T20:48:19.18</time>
      </trkpt>
      <trkpt lat="33.077425" lon="35.161863333333336">
        <ele>126.99999999999999</ele>
        <time>2013-02-12T20:48:20.17</time>
      </trkpt>
      <trkpt lat="33.077405" lon="35.161818333333336">
        <ele>127.09999999999998</ele>
        <time>2013-02-12T20:48:21.17</time>
      </trkpt>
      <trkpt lat="33.07738166666667" lon="35.161793333333335">
        <ele>127.19999999999997</ele>
        <time>2013-02-12T20:48:22.17</time>
      </trkpt>
      <trkpt lat="33.077373333333334" lon="35.161766666666665">
        <ele>126.99999999999997</ele>
        <time>2013-02-12T20:48:23.18</time>
      </trkpt>
      <trkpt lat="33.07734" lon="35.16173666666667">
        <ele>127.29999999999997</ele>
        <time>2013-02-12T20:48:24.16</time>
      </trkpt>
      <trkpt lat="33.077325" lon="35.16173">
        <ele>127.19999999999997</ele>
        <time>2013-02-12T20:48:25.15</time>
      </trkpt>
      <trkpt lat="33.077288333333335" lon="35.16173333333333">
        <ele>127.09999999999998</ele>
        <time>2013-02-12T20:48:26.15</time>
      </trkpt>
      <trkpt lat="33.07729166666667" lon="35.161715">
        <ele>127.19999999999997</ele>
        <time>2013-02-12T20:48:27.15</time>
      </trkpt>
      <trkpt lat="33.07726666666667" lon="35.161696666666664">
        <ele>126.99999999999997</ele>
        <time>2013-02-12T20:48:28.15</time>
      </trkpt>
      <trkpt lat="33.077238333333334" lon="35.16166833333333">
        <ele>126.99999999999997</ele>
        <time>2013-02-12T20:48:29.15</time>
      </trkpt>
      <trkpt lat="33.077215" lon="35.161658333333335">
        <ele>126.79999999999997</ele>
        <time>2013-02-12T20:48:30.15</time>
      </trkpt>
      <trkpt lat="33.077195" lon="35.161631666666665">
        <ele>127.59999999999997</ele>
        <time>2013-02-12T20:48:31.15</time>
      </trkpt>
      <trkpt lat="33.077171666666665" lon="35.16162666666666">
        <ele>127.19999999999996</ele>
        <time>2013-02-12T20:48:32.14</time>
      </trkpt>
      <trkpt lat="33.077148333333334" lon="35.16161833333334">
        <ele>127.19999999999996</ele>
        <time>2013-02-12T20:48:33.15</time>
      </trkpt>
      <trkpt lat="33.077128333333334" lon="35.1616">
        <ele>127.69999999999996</ele>
        <time>2013-02-12T20:48:34.17</time>
      </trkpt>
      <trkpt lat="33.07711333333334" lon="35.16159666666667">
        <ele>127.89999999999996</ele>
        <time>2013-02-12T20:48:35.17</time>
      </trkpt>
      <trkpt lat="33.07709166666667" lon="35.16157333333334">
        <ele>127.79999999999997</ele>
        <time>2013-02-12T20:48:36.17</time>
      </trkpt>
      <trkpt lat="33.077075" lon="35.161555">
        <ele>127.99999999999997</ele>
        <time>2013-02-12T20:48:37.15</time>
      </trkpt>
      <trkpt lat="33.07706666666667" lon="35.161546666666666">
        <ele>128.29999999999998</ele>
        <time>2013-02-12T20:48:38.14</time>
      </trkpt>
      <trkpt lat="33.077043333333336" lon="35.16152">
        <ele>128.2</ele>
        <time>2013-02-12T20:48:39.16</time>
      </trkpt>
      <trkpt lat="33.07701333333333" lon="35.161503333333336">
        <ele>128.2</ele>
        <time>2013-02-12T20:48:40.15</time>
      </trkpt>
      <trkpt lat="33.07698833333333" lon="35.161471666666664">
        <ele>128.1</ele>
        <time>2013-02-12T20:48:41.15</time>
      </trkpt>
      <trkpt lat="33.076975" lon="35.161455">
        <ele>128.5</ele>
        <time>2013-02-12T20:48:42.15</time>
      </trkpt>
      <trkpt lat="33.07695666666667" lon="35.161433333333335">
        <ele>128.9</ele>
        <time>2013-02-12T20:48:43.17</time>
      </trkpt>
      <trkpt lat="33.07692333333333" lon="35.161415">
        <ele>128.9</ele>
        <time>2013-02-12T20:48:44.15</time>
      </trkpt>
      <trkpt lat="33.076888333333336" lon="35.161395">
        <ele>128.8</ele>
        <time>2013-02-12T20:48:45.15</time>
      </trkpt>
      <trkpt lat="33.07687166666667" lon="35.161385">
        <ele>128.60000000000002</ele>
        <time>2013-02-12T20:48:46.15</time>
      </trkpt>
      <trkpt lat="33.076856666666664" lon="35.16138">
        <ele>128.8</ele>
        <time>2013-02-12T20:48:47.17</time>
      </trkpt>
      <trkpt lat="33.07685166666667" lon="35.161361666666664">
        <ele>128.8</ele>
        <time>2013-02-12T20:48:48.18</time>
      </trkpt>
      <trkpt lat="33.076838333333335" lon="35.161321666666666">
        <ele>128.3</ele>
        <time>2013-02-12T20:48:49.18</time>
      </trkpt>
      <trkpt lat="33.076815" lon="35.16130666666667">
        <ele>128</ele>
        <time>2013-02-12T20:48:50.20</time>
      </trkpt>
      <trkpt lat="33.076795" lon="35.161296666666665">
        <ele>128.4</ele>
        <time>2013-02-12T20:48:51.20</time>
      </trkpt>
      <trkpt lat="33.076768333333334" lon="35.161273333333334">
        <ele>128.20000000000002</ele>
        <time>2013-02-12T20:48:52.18</time>
      </trkpt>
      <trkpt lat="33.07673" lon="35.161253333333335">
        <ele>128.20000000000002</ele>
        <time>2013-02-12T20:48:53.19</time>
      </trkpt>
      <trkpt lat="33.07671833333333" lon="35.16124666666666">
        <ele>128.70000000000002</ele>
        <time>2013-02-12T20:48:54.19</time>
      </trkpt>
      <trkpt lat="33.076683333333335" lon="35.16123">
        <ele>128.8</ele>
        <time>2013-02-12T20:48:55.17</time>
      </trkpt>
      <trkpt lat="33.076645" lon="35.161213333333336">
        <ele>129.10000000000002</ele>
        <time>2013-02-12T20:48:56.17</time>
      </trkpt>
      <trkpt lat="33.076631666666664" lon="35.1612">
        <ele>129.20000000000002</ele>
        <time>2013-02-12T20:48:57.20</time>
      </trkpt>
      <trkpt lat="33.07662666666667" lon="35.161195">
        <ele>128.70000000000002</ele>
        <time>2013-02-12T20:48:58.19</time>
      </trkpt>
      <trkpt lat="33.07660833333333" lon="35.161175">
        <ele>128.8</ele>
        <time>2013-02-12T20:48:59.19</time>
      </trkpt>
      <trkpt lat="33.07656333333333" lon="35.16116666666667">
        <ele>129.60000000000002</ele>
        <time>2013-02-12T20:49:00.19</time>
      </trkpt>
      <trkpt lat="33.076555" lon="35.16115666666666">
        <ele>129.50000000000003</ele>
        <time>2013-02-12T20:49:01.17</time>
      </trkpt>
      <trkpt lat="33.07654333333333" lon="35.16114">
        <ele>129.00000000000003</ele>
        <time>2013-02-12T20:49:02.17</time>
      </trkpt>
      <trkpt lat="33.076523333333334" lon="35.161118333333334">
        <ele>130.00000000000003</ele>
        <time>2013-02-12T20:49:03.20</time>
      </trkpt>
      <trkpt lat="33.07651333333333" lon="35.1611">
        <ele>131.20000000000002</ele>
        <time>2013-02-12T20:49:04.18</time>
      </trkpt>
      <trkpt lat="33.076465" lon="35.16110666666667">
        <ele>131.10000000000002</ele>
        <time>2013-02-12T20:49:05.19</time>
      </trkpt>
      <trkpt lat="33.076425" lon="35.16110833333333">
        <ele>131.00000000000003</ele>
        <time>2013-02-12T20:49:06.18</time>
      </trkpt>
      <trkpt lat="33.07640166666667" lon="35.16111333333333">
        <ele>130.90000000000003</ele>
        <time>2013-02-12T20:49:07.19</time>
      </trkpt>
      <trkpt lat="33.076366666666665" lon="35.161125">
        <ele>131.00000000000003</ele>
        <time>2013-02-12T20:49:08.18</time>
      </trkpt>
      <trkpt lat="33.076348333333335" lon="35.161141666666666">
        <ele>131.30000000000004</ele>
        <time>2013-02-12T20:49:09.21</time>
      </trkpt>
      <trkpt lat="33.07632" lon="35.161143333333335">
        <ele>131.40000000000003</ele>
        <time>2013-02-12T20:49:10.21</time>
      </trkpt>
      <trkpt lat="33.076285" lon="35.161141666666666">
        <ele>130.10000000000002</ele>
        <time>2013-02-12T20:49:11.22</time>
      </trkpt>
      <trkpt lat="33.07626333333333" lon="35.161138333333334">
        <ele>130.70000000000002</ele>
        <time>2013-02-12T20:49:12.19</time>
      </trkpt>
      <trkpt lat="33.076238333333336" lon="35.161135">
        <ele>130.20000000000002</ele>
        <time>2013-02-12T20:49:13.18</time>
      </trkpt>
      <trkpt lat="33.07622833333333" lon="35.161138333333334">
        <ele>130.00000000000003</ele>
        <time>2013-02-12T20:49:14.19</time>
      </trkpt>
      <trkpt lat="33.076211666666666" lon="35.161095">
        <ele>130.20000000000002</ele>
        <time>2013-02-12T20:49:15.20</time>
      </trkpt>
      <trkpt lat="33.076205" lon="35.16105">
        <ele>130.3</ele>
        <time>2013-02-12T20:49:16.21</time>
      </trkpt>
      <trkpt lat="33.076191666666666" lon="35.16101833333333">
        <ele>129.9</ele>
        <time>2013-02-12T20:49:17.20</time>
      </trkpt>
      <trkpt lat="33.076175" lon="35.160988333333336">
        <ele>130</ele>
        <time>2013-02-12T20:49:18.21</time>
      </trkpt>
      <trkpt lat="33.076165" lon="35.160956666666664">
        <ele>129.5</ele>
        <time>2013-02-12T20:49:19.19</time>
      </trkpt>
      <trkpt lat="33.076155" lon="35.16092">
        <ele>130.1</ele>
        <time>2013-02-12T20:49:20.17</time>
      </trkpt>
      <trkpt lat="33.07615833333333" lon="35.16087">
        <ele>129.7</ele>
        <time>2013-02-12T20:49:21.18</time>
      </trkpt>
      <trkpt lat="33.07618" lon="35.16084166666667">
        <ele>129.7</ele>
        <time>2013-02-12T20:49:22.15</time>
      </trkpt>
      <trkpt lat="33.07617333333334" lon="35.160815">
        <ele>129.7</ele>
        <time>2013-02-12T20:49:23.15</time>
      </trkpt>
      <trkpt lat="33.076146666666666" lon="35.160803333333334">
        <ele>129.89999999999998</ele>
        <time>2013-02-12T20:49:24.15</time>
      </trkpt>
      <trkpt lat="33.076098333333334" lon="35.16076">
        <ele>129.7</ele>
        <time>2013-02-12T20:49:25.15</time>
      </trkpt>
      <trkpt lat="33.076095" lon="35.16075166666667">
        <ele>129.29999999999998</ele>
        <time>2013-02-12T20:49:26.18</time>
      </trkpt>
      <trkpt lat="33.076103333333336" lon="35.16073">
        <ele>129.6</ele>
        <time>2013-02-12T20:49:27.16</time>
      </trkpt>
      <trkpt lat="33.076103333333336" lon="35.16072">
        <ele>129</ele>
        <time>2013-02-12T20:49:28.15</time>
      </trkpt>
      <trkpt lat="33.07608666666667" lon="35.160725">
        <ele>129</ele>
        <time>2013-02-12T20:49:29.14</time>
      </trkpt>
      <trkpt lat="33.076105" lon="35.16072166666667">
        <ele>129.3</ele>
        <time>2013-02-12T20:49:30.15</time>
      </trkpt>
      <trkpt lat="33.076096666666665" lon="35.16072166666667">
        <ele>130.10000000000002</ele>
        <time>2013-02-12T20:49:31.17</time>
      </trkpt>
      <trkpt lat="33.07609333333333" lon="35.160715">
        <ele>130.10000000000002</ele>
        <time>2013-02-12T20:49:32.18</time>
      </trkpt>
      <trkpt lat="33.07608666666667" lon="35.16070166666667">
        <ele>130.40000000000003</ele>
        <time>2013-02-12T20:49:34.15</time>
      </trkpt>
      <trkpt lat="33.076096666666665" lon="35.16070166666667">
        <ele>130.50000000000003</ele>
        <time>2013-02-12T20:49:35.15</time>
      </trkpt>
      <trkpt lat="33.07609" lon="35.16068166666667">
        <ele>129.80000000000004</ele>
        <time>2013-02-12T20:49:36.15</time>
      </trkpt>
      <trkpt lat="33.076115" lon="35.16063833333333">
        <ele>128.90000000000003</ele>
        <time>2013-02-12T20:49:37.15</time>
      </trkpt>
      <trkpt lat="33.07610666666667" lon="35.16059">
        <ele>127.00000000000003</ele>
        <time>2013-02-12T20:49:38.17</time>
      </trkpt>
      <trkpt lat="33.07609333333333" lon="35.16054333333334">
        <ele>124.60000000000002</ele>
        <time>2013-02-12T20:49:39.15</time>
      </trkpt>
      <trkpt lat="33.07607" lon="35.160505">
        <ele>121.40000000000002</ele>
        <time>2013-02-12T20:49:40.15</time>
      </trkpt>
      <trkpt lat="33.07605" lon="35.160493333333335">
        <ele>119.50000000000001</ele>
        <time>2013-02-12T20:49:41.15</time>
      </trkpt>
      <trkpt lat="33.07604333333333" lon="35.16047833333333">
        <ele>118.90000000000002</ele>
        <time>2013-02-12T20:49:42.15</time>
      </trkpt>
      <trkpt lat="33.07604" lon="35.16046333333333">
        <ele>118.60000000000002</ele>
        <time>2013-02-12T20:49:43.18</time>
      </trkpt>
      <trkpt lat="33.076035" lon="35.160435">
        <ele>119.30000000000003</ele>
        <time>2013-02-12T20:49:44.18</time>
      </trkpt>
      <trkpt lat="33.076033333333335" lon="35.160423333333334">
        <ele>119.80000000000003</ele>
        <time>2013-02-12T20:49:45.17</time>
      </trkpt>
      <trkpt lat="33.076035" lon="35.16040666666667">
        <ele>119.50000000000003</ele>
        <time>2013-02-12T20:49:46.21</time>
      </trkpt>
      <trkpt lat="33.07601833333333" lon="35.16037166666667">
        <ele>120.10000000000002</ele>
        <time>2013-02-12T20:49:47.19</time>
      </trkpt>
      <trkpt lat="33.07599166666667" lon="35.16034833333333">
        <ele>120.00000000000003</ele>
        <time>2013-02-12T20:49:48.20</time>
      </trkpt>
      <trkpt lat="33.075986666666665" lon="35.160318333333336">
        <ele>119.50000000000003</ele>
        <time>2013-02-12T20:49:49.18</time>
      </trkpt>
      <trkpt lat="33.075961666666664" lon="35.160311666666665">
        <ele>120.10000000000002</ele>
        <time>2013-02-12T20:49:50.19</time>
      </trkpt>
      <trkpt lat="33.075955" lon="35.160318333333336">
        <ele>120.10000000000002</ele>
        <time>2013-02-12T20:49:51.18</time>
      </trkpt>
      <trkpt lat="33.07596" lon="35.16030833333333">
        <ele>119.20000000000002</ele>
        <time>2013-02-12T20:49:53.21</time>
      </trkpt>
      <trkpt lat="33.075965" lon="35.16029666666667">
        <ele>118.30000000000001</ele>
        <time>2013-02-12T20:49:54.19</time>
      </trkpt>
      <trkpt lat="33.07597" lon="35.160291666666666">
        <ele>117.9</ele>
        <time>2013-02-12T20:49:55.26</time>
      </trkpt>
      <trkpt lat="33.075968333333336" lon="35.16027833333333">
        <ele>117.30000000000001</ele>
        <time>2013-02-12T20:49:56.18</time>
      </trkpt>
      <trkpt lat="33.07597166666667" lon="35.160273333333336">
        <ele>117.00000000000001</ele>
        <time>2013-02-12T20:49:57.17</time>
      </trkpt>
      <trkpt lat="33.07597666666667" lon="35.16019">
        <ele>116.5</ele>
        <time>2013-02-12T20:50:02.18</time>
      </trkpt>
      <trkpt lat="33.07597333333333" lon="35.160131666666665">
        <ele>116.2</ele>
        <time>2013-02-12T20:50:03.19</time>
      </trkpt>
      <trkpt lat="33.07597" lon="35.16011666666667">
        <ele>116.3</ele>
        <time>2013-02-12T20:50:04.20</time>
      </trkpt>
      <trkpt lat="33.075995" lon="35.160088333333334">
        <ele>116</ele>
        <time>2013-02-12T20:50:05.17</time>
      </trkpt>
      <trkpt lat="33.07599833333333" lon="35.160055">
        <ele>116.5</ele>
        <time>2013-02-12T20:50:06.17</time>
      </trkpt>
      <trkpt lat="33.07599" lon="35.16">
        <ele>116.8</ele>
        <time>2013-02-12T20:50:07.17</time>
      </trkpt>
      <trkpt lat="33.076" lon="35.15996166666667">
        <ele>117.3</ele>
        <time>2013-02-12T20:50:08.18</time>
      </trkpt>
      <trkpt lat="33.075995" lon="35.159938333333336">
        <ele>117.39999999999999</ele>
        <time>2013-02-12T20:50:09.17</time>
      </trkpt>
      <trkpt lat="33.075985" lon="35.159885">
        <ele>117.89999999999999</ele>
        <time>2013-02-12T20:50:10.20</time>
      </trkpt>
      <trkpt lat="33.075981666666664" lon="35.15985333333333">
        <ele>117.89999999999999</ele>
        <time>2013-02-12T20:50:11.23</time>
      </trkpt>
      <trkpt lat="33.07599" lon="35.159821666666666">
        <ele>118.1</ele>
        <time>2013-02-12T20:50:12.21</time>
      </trkpt>
      <trkpt lat="33.07599666666667" lon="35.159778333333335">
        <ele>118.39999999999999</ele>
        <time>2013-02-12T20:50:13.17</time>
      </trkpt>
      <trkpt lat="33.07599666666667" lon="35.15974166666667">
        <ele>118.49999999999999</ele>
        <time>2013-02-12T20:50:14.18</time>
      </trkpt>
      <trkpt lat="33.07599333333334" lon="35.159733333333335">
        <ele>118.69999999999999</ele>
        <time>2013-02-12T20:50:15.17</time>
      </trkpt>
      <trkpt lat="33.076" lon="35.15973833333334">
        <ele>118.79999999999998</ele>
        <time>2013-02-12T20:50:16.19</time>
      </trkpt>
      <trkpt lat="33.076005" lon="35.15976333333333">
        <ele>118.9</ele>
        <time>2013-02-12T20:50:19.18</time>
      </trkpt>
      <trkpt lat="33.076026666666664" lon="35.159776666666666">
        <ele>118.80000000000001</ele>
        <time>2013-02-12T20:50:21.14</time>
      </trkpt>
      <trkpt lat="33.076035" lon="35.15976833333333">
        <ele>118.9</ele>
        <time>2013-02-12T20:50:22.14</time>
      </trkpt>
      <trkpt lat="33.07604666666667" lon="35.159776666666666">
        <ele>119</ele>
        <time>2013-02-12T20:50:23.17</time>
      </trkpt>
      <trkpt lat="33.076056666666666" lon="35.15978333333333">
        <ele>118.9</ele>
        <time>2013-02-12T20:50:24.16</time>
      </trkpt>
      <trkpt lat="33.076053333333334" lon="35.159805">
        <ele>118.9</ele>
        <time>2013-02-12T20:50:25.15</time>
      </trkpt>
      <trkpt lat="33.076058333333336" lon="35.159818333333334">
        <ele>118.9</ele>
        <time>2013-02-12T20:50:26.15</time>
      </trkpt>
      <trkpt lat="33.07606333333333" lon="35.159818333333334">
        <ele>118.9</ele>
        <time>2013-02-12T20:50:27.14</time>
      </trkpt>
      <trkpt lat="33.076076666666665" lon="35.15981333333333">
        <ele>118.9</ele>
        <time>2013-02-12T20:50:28.15</time>
      </trkpt>
      <trkpt lat="33.07608" lon="35.15980666666667">
        <ele>118.9</ele>
        <time>2013-02-12T20:50:29.17</time>
      </trkpt>
      <trkpt lat="33.076105" lon="35.159821666666666">
        <ele>118.9</ele>
        <time>2013-02-12T20:50:30.18</time>
      </trkpt>
      <trkpt lat="33.07612666666667" lon="35.15983166666667">
        <ele>118.9</ele>
        <time>2013-02-12T20:50:31.18</time>
      </trkpt>
      <trkpt lat="33.076125" lon="35.15983833333333">
        <ele>118.9</ele>
        <time>2013-02-12T20:50:32.15</time>
      </trkpt>
      <trkpt lat="33.07613166666667" lon="35.159835">
        <ele>118.9</ele>
        <time>2013-02-12T20:50:33.17</time>
      </trkpt>
      <trkpt lat="33.07615666666667" lon="35.159841666666665">
        <ele>119.10000000000001</ele>
        <time>2013-02-12T20:50:35.14</time>
      </trkpt>
      <trkpt lat="33.07617" lon="35.159845">
        <ele>119.00000000000001</ele>
        <time>2013-02-12T20:50:36.14</time>
      </trkpt>
      <trkpt lat="33.07619" lon="35.15984666666667">
        <ele>119.20000000000002</ele>
        <time>2013-02-12T20:50:37.16</time>
      </trkpt>
      <trkpt lat="33.07619666666667" lon="35.15983333333333">
        <ele>119.40000000000002</ele>
        <time>2013-02-12T20:50:38.18</time>
      </trkpt>
      <trkpt lat="33.07621666666667" lon="35.15983166666667">
        <ele>119.60000000000002</ele>
        <time>2013-02-12T20:50:39.17</time>
      </trkpt>
      <trkpt lat="33.076258333333335" lon="35.15983333333333">
        <ele>119.60000000000002</ele>
        <time>2013-02-12T20:50:40.17</time>
      </trkpt>
      <trkpt lat="33.07631166666667" lon="35.159816666666664">
        <ele>120.00000000000003</ele>
        <time>2013-02-12T20:50:41.17</time>
      </trkpt>
      <trkpt lat="33.07635833333333" lon="35.159815">
        <ele>120.00000000000003</ele>
        <time>2013-02-12T20:50:42.16</time>
      </trkpt>
      <trkpt lat="33.076373333333336" lon="35.159805">
        <ele>119.90000000000003</ele>
        <time>2013-02-12T20:50:43.16</time>
      </trkpt>
      <trkpt lat="33.07639666666667" lon="35.15979166666666">
        <ele>119.80000000000004</ele>
        <time>2013-02-12T20:50:44.17</time>
      </trkpt>
      <trkpt lat="33.07641" lon="35.159805">
        <ele>119.80000000000004</ele>
        <time>2013-02-12T20:50:45.16</time>
      </trkpt>
      <trkpt lat="33.0764" lon="35.15980166666667">
        <ele>119.90000000000003</ele>
        <time>2013-02-12T20:50:46.16</time>
      </trkpt>
      <trkpt lat="33.076433333333334" lon="35.15982666666667">
        <ele>119.90000000000003</ele>
        <time>2013-02-12T20:50:47.16</time>
      </trkpt>
      <trkpt lat="33.076436666666666" lon="35.159835">
        <ele>119.80000000000004</ele>
        <time>2013-02-12T20:50:48.23</time>
      </trkpt>
      <trkpt lat="33.076451666666664" lon="35.15985666666667">
        <ele>119.80000000000004</ele>
        <time>2013-02-12T20:50:49.16</time>
      </trkpt>
      <trkpt lat="33.076481666666666" lon="35.159855">
        <ele>119.90000000000003</ele>
        <time>2013-02-12T20:50:50.17</time>
      </trkpt>
      <trkpt lat="33.076501666666665" lon="35.15986">
        <ele>120.00000000000003</ele>
        <time>2013-02-12T20:50:51.17</time>
      </trkpt>
      <trkpt lat="33.076525" lon="35.15985166666667">
        <ele>120.10000000000002</ele>
        <time>2013-02-12T20:50:52.20</time>
      </trkpt>
      <trkpt lat="33.07655166666667" lon="35.159841666666665">
        <ele>120.50000000000003</ele>
        <time>2013-02-12T20:50:53.17</time>
      </trkpt>
      <trkpt lat="33.07656" lon="35.15983166666667">
        <ele>120.30000000000003</ele>
        <time>2013-02-12T20:50:54.17</time>
      </trkpt>
      <trkpt lat="33.07658" lon="35.159845">
        <ele>120.60000000000002</ele>
        <time>2013-02-12T20:50:55.18</time>
      </trkpt>
      <trkpt lat="33.07660333333333" lon="35.15985">
        <ele>120.50000000000003</ele>
        <time>2013-02-12T20:50:56.19</time>
      </trkpt>
      <trkpt lat="33.076631666666664" lon="35.15986">
        <ele>120.50000000000003</ele>
        <time>2013-02-12T20:50:57.20</time>
      </trkpt>
      <trkpt lat="33.07666" lon="35.159861666666664">
        <ele>120.60000000000002</ele>
        <time>2013-02-12T20:50:58.17</time>
      </trkpt>
      <trkpt lat="33.076683333333335" lon="35.159866666666666">
        <ele>120.70000000000002</ele>
        <time>2013-02-12T20:50:59.17</time>
      </trkpt>
      <trkpt lat="33.07672" lon="35.15985833333333">
        <ele>120.60000000000002</ele>
        <time>2013-02-12T20:51:00.16</time>
      </trkpt>
      <trkpt lat="33.076753333333336" lon="35.159848333333336">
        <ele>120.60000000000002</ele>
        <time>2013-02-12T20:51:01.17</time>
      </trkpt>
      <trkpt lat="33.07679" lon="35.15985">
        <ele>120.60000000000002</ele>
        <time>2013-02-12T20:51:02.15</time>
      </trkpt>
      <trkpt lat="33.076813333333334" lon="35.159855">
        <ele>120.50000000000003</ele>
        <time>2013-02-12T20:51:03.15</time>
      </trkpt>
      <trkpt lat="33.07683166666666" lon="35.159848333333336">
        <ele>120.50000000000003</ele>
        <time>2013-02-12T20:51:04.15</time>
      </trkpt>
      <trkpt lat="33.07685333333333" lon="35.15985166666667">
        <ele>120.80000000000003</ele>
        <time>2013-02-12T20:51:05.15</time>
      </trkpt>
      <trkpt lat="33.076845" lon="35.15985666666667">
        <ele>120.70000000000003</ele>
        <time>2013-02-12T20:51:06.17</time>
      </trkpt>
      <trkpt lat="33.07684833333333" lon="35.15984666666667">
        <ele>120.70000000000003</ele>
        <time>2013-02-12T20:51:07.18</time>
      </trkpt>
      <trkpt lat="33.076855" lon="35.15983">
        <ele>120.70000000000003</ele>
        <time>2013-02-12T20:51:08.19</time>
      </trkpt>
      <trkpt lat="33.07687833333333" lon="35.15982666666667">
        <ele>120.50000000000003</ele>
        <time>2013-02-12T20:51:09.21</time>
      </trkpt>
      <trkpt lat="33.07689" lon="35.159815">
        <ele>120.10000000000002</ele>
        <time>2013-02-12T20:51:10.15</time>
      </trkpt>
      <trkpt lat="33.07692" lon="35.15980666666667">
        <ele>120.20000000000002</ele>
        <time>2013-02-12T20:51:11.18</time>
      </trkpt>
      <trkpt lat="33.07693833333333" lon="35.159823333333335">
        <ele>120.10000000000002</ele>
        <time>2013-02-12T20:51:12.18</time>
      </trkpt>
      <trkpt lat="33.07698166666667" lon="35.159816666666664">
        <ele>120.30000000000003</ele>
        <time>2013-02-12T20:51:13.17</time>
      </trkpt>
      <trkpt lat="33.077005" lon="35.159815">
        <ele>120.40000000000002</ele>
        <time>2013-02-12T20:51:15.15</time>
      </trkpt>
      <trkpt lat="33.07702333333334" lon="35.159816666666664">
        <ele>120.60000000000002</ele>
        <time>2013-02-12T20:51:16.15</time>
      </trkpt>
      <trkpt lat="33.07704" lon="35.159821666666666">
        <ele>120.40000000000002</ele>
        <time>2013-02-12T20:51:17.17</time>
      </trkpt>
      <trkpt lat="33.077061666666665" lon="35.15982666666667">
        <ele>119.90000000000002</ele>
        <time>2013-02-12T20:51:18.17</time>
      </trkpt>
      <trkpt lat="33.077086666666666" lon="35.15983">
        <ele>120.80000000000003</ele>
        <time>2013-02-12T20:51:19.15</time>
      </trkpt>
      <trkpt lat="33.077101666666664" lon="35.15983">
        <ele>120.60000000000002</ele>
        <time>2013-02-12T20:51:20.15</time>
      </trkpt>
      <trkpt lat="33.07712" lon="35.159843333333335">
        <ele>120.60000000000002</ele>
        <time>2013-02-12T20:51:21.15</time>
      </trkpt>
      <trkpt lat="33.07714166666667" lon="35.159848333333336">
        <ele>120.10000000000002</ele>
        <time>2013-02-12T20:51:22.17</time>
      </trkpt>
      <trkpt lat="33.077165" lon="35.15986">
        <ele>119.80000000000003</ele>
        <time>2013-02-12T20:51:23.15</time>
      </trkpt>
      <trkpt lat="33.077185" lon="35.159875">
        <ele>118.40000000000002</ele>
        <time>2013-02-12T20:51:24.15</time>
      </trkpt>
      <trkpt lat="33.07720833333333" lon="35.15987">
        <ele>118.20000000000002</ele>
        <time>2013-02-12T20:51:25.15</time>
      </trkpt>
      <trkpt lat="33.077235" lon="35.159866666666666">
        <ele>118.60000000000002</ele>
        <time>2013-02-12T20:51:26.15</time>
      </trkpt>
      <trkpt lat="33.077255" lon="35.159866666666666">
        <ele>118.00000000000003</ele>
        <time>2013-02-12T20:51:27.15</time>
      </trkpt>
      <trkpt lat="33.07727333333333" lon="35.15985">
        <ele>117.90000000000003</ele>
        <time>2013-02-12T20:51:28.15</time>
      </trkpt>
      <trkpt lat="33.07730333333333" lon="35.159855">
        <ele>118.30000000000004</ele>
        <time>2013-02-12T20:51:29.18</time>
      </trkpt>
      <trkpt lat="33.077325" lon="35.15985833333333">
        <ele>118.00000000000004</ele>
        <time>2013-02-12T20:51:30.20</time>
      </trkpt>
      <trkpt lat="33.07734" lon="35.15985166666667">
        <ele>117.80000000000004</ele>
        <time>2013-02-12T20:51:31.15</time>
      </trkpt>
      <trkpt lat="33.07734" lon="35.159841666666665">
        <ele>117.30000000000004</ele>
        <time>2013-02-12T20:51:32.16</time>
      </trkpt>
      <trkpt lat="33.077391666666664" lon="35.15982833333333">
        <ele>117.40000000000003</ele>
        <time>2013-02-12T20:51:33.15</time>
      </trkpt>
      <trkpt lat="33.077395" lon="35.15981333333333">
        <ele>117.20000000000003</ele>
        <time>2013-02-12T20:51:34.15</time>
      </trkpt>
      <trkpt lat="33.07742833333333" lon="35.159803333333336">
        <ele>117.90000000000003</ele>
        <time>2013-02-12T20:51:35.15</time>
      </trkpt>
      <trkpt lat="33.07745333333333" lon="35.159796666666665">
        <ele>118.00000000000003</ele>
        <time>2013-02-12T20:51:36.15</time>
      </trkpt>
      <trkpt lat="33.07747333333333" lon="35.15978666666667">
        <ele>118.30000000000003</ele>
        <time>2013-02-12T20:51:37.16</time>
      </trkpt>
      <trkpt lat="33.07750333333333" lon="35.159755">
        <ele>118.00000000000003</ele>
        <time>2013-02-12T20:51:38.17</time>
      </trkpt>
      <trkpt lat="33.07752" lon="35.15976833333333">
        <ele>117.80000000000003</ele>
        <time>2013-02-12T20:51:39.18</time>
      </trkpt>
      <trkpt lat="33.07754666666667" lon="35.159773333333334">
        <ele>118.00000000000003</ele>
        <time>2013-02-12T20:51:40.18</time>
      </trkpt>
      <trkpt lat="33.07757333333333" lon="35.159758333333336">
        <ele>118.00000000000003</ele>
        <time>2013-02-12T20:51:41.18</time>
      </trkpt>
      <trkpt lat="33.0776" lon="35.15975">
        <ele>118.10000000000002</ele>
        <time>2013-02-12T20:51:42.24</time>
      </trkpt>
      <trkpt lat="33.07762666666667" lon="35.15974333333333">
        <ele>118.50000000000003</ele>
        <time>2013-02-12T20:51:43.22</time>
      </trkpt>
      <trkpt lat="33.07765833333333" lon="35.15972333333333">
        <ele>118.10000000000002</ele>
        <time>2013-02-12T20:51:44.19</time>
      </trkpt>
      <trkpt lat="33.077688333333334" lon="35.15969">
        <ele>118.30000000000003</ele>
        <time>2013-02-12T20:51:45.19</time>
      </trkpt>
      <trkpt lat="33.0777" lon="35.15970166666666">
        <ele>118.10000000000002</ele>
        <time>2013-02-12T20:51:46.17</time>
      </trkpt>
      <trkpt lat="33.07772333333333" lon="35.15968">
        <ele>117.70000000000002</ele>
        <time>2013-02-12T20:51:47.20</time>
      </trkpt>
      <trkpt lat="33.07772833333333" lon="35.15967333333333">
        <ele>118.40000000000002</ele>
        <time>2013-02-12T20:51:48.19</time>
      </trkpt>
      <trkpt lat="33.07774166666667" lon="35.15964666666667">
        <ele>118.40000000000002</ele>
        <time>2013-02-12T20:51:49.20</time>
      </trkpt>
      <trkpt lat="33.077751666666664" lon="35.15963333333333">
        <ele>118.40000000000002</ele>
        <time>2013-02-12T20:51:50.20</time>
      </trkpt>
      <trkpt lat="33.07777" lon="35.15963166666667">
        <ele>118.40000000000002</ele>
        <time>2013-02-12T20:51:51.19</time>
      </trkpt>
      <trkpt lat="33.077798333333334" lon="35.159605">
        <ele>118.60000000000002</ele>
        <time>2013-02-12T20:51:52.20</time>
      </trkpt>
      <trkpt lat="33.07781333333333" lon="35.15958833333333">
        <ele>118.30000000000003</ele>
        <time>2013-02-12T20:51:53.19</time>
      </trkpt>
      <trkpt lat="33.077801666666666" lon="35.15956333333333">
        <ele>118.30000000000003</ele>
        <time>2013-02-12T20:51:54.20</time>
      </trkpt>
      <trkpt lat="33.077825" lon="35.15956833333333">
        <ele>118.60000000000002</ele>
        <time>2013-02-12T20:51:55.18</time>
      </trkpt>
      <trkpt lat="33.07786" lon="35.159573333333334">
        <ele>118.70000000000002</ele>
        <time>2013-02-12T20:51:56.18</time>
      </trkpt>
      <trkpt lat="33.077888333333334" lon="35.15956666666667">
        <ele>119.10000000000002</ele>
        <time>2013-02-12T20:51:57.18</time>
      </trkpt>
      <trkpt lat="33.077911666666665" lon="35.159571666666665">
        <ele>119.00000000000003</ele>
        <time>2013-02-12T20:51:58.17</time>
      </trkpt>
      <trkpt lat="33.07795333333333" lon="35.159576666666666">
        <ele>119.20000000000003</ele>
        <time>2013-02-12T20:51:59.18</time>
      </trkpt>
      <trkpt lat="33.07796833333333" lon="35.159571666666665">
        <ele>119.20000000000003</ele>
        <time>2013-02-12T20:52:00.17</time>
      </trkpt>
      <trkpt lat="33.077996666666664" lon="35.159585">
        <ele>119.30000000000003</ele>
        <time>2013-02-12T20:52:01.19</time>
      </trkpt>
      <trkpt lat="33.078015" lon="35.159585">
        <ele>119.20000000000003</ele>
        <time>2013-02-12T20:52:02.18</time>
      </trkpt>
      <trkpt lat="33.078035" lon="35.159591666666664">
        <ele>119.10000000000004</ele>
        <time>2013-02-12T20:52:04.18</time>
      </trkpt>
      <trkpt lat="33.078048333333335" lon="35.15956333333333">
        <ele>119.00000000000004</ele>
        <time>2013-02-12T20:52:05.16</time>
      </trkpt>
      <trkpt lat="33.078068333333334" lon="35.159565">
        <ele>119.20000000000005</ele>
        <time>2013-02-12T20:52:06.19</time>
      </trkpt>
      <trkpt lat="33.07808166666667" lon="35.15954">
        <ele>119.40000000000005</ele>
        <time>2013-02-12T20:52:07.19</time>
      </trkpt>
      <trkpt lat="33.078095" lon="35.159535">
        <ele>119.60000000000005</ele>
        <time>2013-02-12T20:52:08.19</time>
      </trkpt>
      <trkpt lat="33.07810166666667" lon="35.15953">
        <ele>119.80000000000005</ele>
        <time>2013-02-12T20:52:09.25</time>
      </trkpt>
      <trkpt lat="33.07812" lon="35.159515">
        <ele>119.70000000000006</ele>
        <time>2013-02-12T20:52:10.24</time>
      </trkpt>
      <trkpt lat="33.07812666666667" lon="35.15949833333333">
        <ele>119.50000000000006</ele>
        <time>2013-02-12T20:52:11.19</time>
      </trkpt>
      <trkpt lat="33.078136666666666" lon="35.159495">
        <ele>119.30000000000005</ele>
        <time>2013-02-12T20:52:12.19</time>
      </trkpt>
      <trkpt lat="33.078136666666666" lon="35.159488333333336">
        <ele>119.00000000000006</ele>
        <time>2013-02-12T20:52:13.20</time>
      </trkpt>
      <trkpt lat="33.07815" lon="35.159501666666664">
        <ele>119.20000000000006</ele>
        <time>2013-02-12T20:52:14.19</time>
      </trkpt>
      <trkpt lat="33.07816666666667" lon="35.159483333333334">
        <ele>119.40000000000006</ele>
        <time>2013-02-12T20:52:15.20</time>
      </trkpt>
      <trkpt lat="33.078223333333334" lon="35.159495">
        <ele>119.40000000000006</ele>
        <time>2013-02-12T20:52:16.18</time>
      </trkpt>
      <trkpt lat="33.07825166666667" lon="35.159486666666666">
        <ele>119.50000000000006</ele>
        <time>2013-02-12T20:52:17.18</time>
      </trkpt>
      <trkpt lat="33.078268333333334" lon="35.15947333333333">
        <ele>119.70000000000006</ele>
        <time>2013-02-12T20:52:18.16</time>
      </trkpt>
      <trkpt lat="33.078295" lon="35.15948">
        <ele>119.60000000000007</ele>
        <time>2013-02-12T20:52:19.18</time>
      </trkpt>
      <trkpt lat="33.07828333333333" lon="35.159461666666665">
        <ele>119.70000000000006</ele>
        <time>2013-02-12T20:52:20.19</time>
      </trkpt>
      <trkpt lat="33.078315" lon="35.159475">
        <ele>119.80000000000005</ele>
        <time>2013-02-12T20:52:21.19</time>
      </trkpt>
      <trkpt lat="33.07832833333333" lon="35.159475">
        <ele>119.80000000000005</ele>
        <time>2013-02-12T20:52:22.24</time>
      </trkpt>
      <trkpt lat="33.07835" lon="35.159486666666666">
        <ele>120.00000000000006</ele>
        <time>2013-02-12T20:52:23.18</time>
      </trkpt>
      <trkpt lat="33.078361666666666" lon="35.15949833333333">
        <ele>119.80000000000005</ele>
        <time>2013-02-12T20:52:24.17</time>
      </trkpt>
      <trkpt lat="33.07837833333333" lon="35.15949">
        <ele>120.20000000000006</ele>
        <time>2013-02-12T20:52:25.17</time>
      </trkpt>
      <trkpt lat="33.07841333333333" lon="35.15949">
        <ele>120.80000000000005</ele>
        <time>2013-02-12T20:52:26.17</time>
      </trkpt>
      <trkpt lat="33.078448333333334" lon="35.15949833333333">
        <ele>120.90000000000005</ele>
        <time>2013-02-12T20:52:27.18</time>
      </trkpt>
      <trkpt lat="33.07845833333333" lon="35.15947833333333">
        <ele>120.80000000000005</ele>
        <time>2013-02-12T20:52:28.17</time>
      </trkpt>
      <trkpt lat="33.07847666666667" lon="35.159475">
        <ele>121.00000000000006</ele>
        <time>2013-02-12T20:52:29.17</time>
      </trkpt>
      <trkpt lat="33.07848666666667" lon="35.159486666666666">
        <ele>120.90000000000006</ele>
        <time>2013-02-12T20:52:30.18</time>
      </trkpt>
      <trkpt lat="33.07850833333333" lon="35.15949333333333">
        <ele>121.10000000000007</ele>
        <time>2013-02-12T20:52:31.16</time>
      </trkpt>
      <trkpt lat="33.07851" lon="35.1595">
        <ele>121.10000000000007</ele>
        <time>2013-02-12T20:52:32.18</time>
      </trkpt>
      <trkpt lat="33.07853166666666" lon="35.15949">
        <ele>121.10000000000007</ele>
        <time>2013-02-12T20:52:33.15</time>
      </trkpt>
      <trkpt lat="33.07854666666667" lon="35.15949833333333">
        <ele>121.50000000000007</ele>
        <time>2013-02-12T20:52:34.14</time>
      </trkpt>
      <trkpt lat="33.078563333333335" lon="35.15949333333333">
        <ele>121.60000000000007</ele>
        <time>2013-02-12T20:52:35.15</time>
      </trkpt>
      <trkpt lat="33.078575" lon="35.15948">
        <ele>122.10000000000007</ele>
        <time>2013-02-12T20:52:36.18</time>
      </trkpt>
      <trkpt lat="33.078601666666664" lon="35.15947833333333">
        <ele>124.60000000000007</ele>
        <time>2013-02-12T20:52:37.17</time>
      </trkpt>
      <trkpt lat="33.07861333333334" lon="35.15949166666667">
        <ele>124.20000000000006</ele>
        <time>2013-02-12T20:52:38.17</time>
      </trkpt>
      <trkpt lat="33.07862333333333" lon="35.15951166666667">
        <ele>124.70000000000006</ele>
        <time>2013-02-12T20:52:39.18</time>
      </trkpt>
      <trkpt lat="33.078653333333335" lon="35.159525">
        <ele>124.50000000000006</ele>
        <time>2013-02-12T20:52:40.23</time>
      </trkpt>
      <trkpt lat="33.07870166666667" lon="35.15953833333333">
        <ele>124.30000000000005</ele>
        <time>2013-02-12T20:52:41.17</time>
      </trkpt>
      <trkpt lat="33.078725" lon="35.159525">
        <ele>124.20000000000006</ele>
        <time>2013-02-12T20:52:42.17</time>
      </trkpt>
      <trkpt lat="33.07875166666667" lon="35.159515">
        <ele>123.50000000000006</ele>
        <time>2013-02-12T20:52:43.18</time>
      </trkpt>
      <trkpt lat="33.07877833333333" lon="35.1595">
        <ele>123.00000000000006</ele>
        <time>2013-02-12T20:52:44.17</time>
      </trkpt>
      <trkpt lat="33.07879666666667" lon="35.15950333333333">
        <ele>123.10000000000005</ele>
        <time>2013-02-12T20:52:45.17</time>
      </trkpt>
      <trkpt lat="33.078808333333335" lon="35.159501666666664">
        <ele>123.10000000000005</ele>
        <time>2013-02-12T20:52:46.17</time>
      </trkpt>
      <trkpt lat="33.07881666666667" lon="35.15951833333333">
        <ele>123.60000000000005</ele>
        <time>2013-02-12T20:52:47.18</time>
      </trkpt>
      <trkpt lat="33.078835" lon="35.159525">
        <ele>123.30000000000005</ele>
        <time>2013-02-12T20:52:48.18</time>
      </trkpt>
      <trkpt lat="33.078855" lon="35.159525">
        <ele>123.30000000000005</ele>
        <time>2013-02-12T20:52:49.17</time>
      </trkpt>
      <trkpt lat="33.07886333333333" lon="35.159535">
        <ele>123.50000000000006</ele>
        <time>2013-02-12T20:52:50.17</time>
      </trkpt>
      <trkpt lat="33.07888" lon="35.15953833333333">
        <ele>123.40000000000006</ele>
        <time>2013-02-12T20:52:52.15</time>
      </trkpt>
      <trkpt lat="33.07891166666667" lon="35.159546666666664">
        <ele>123.50000000000006</ele>
        <time>2013-02-12T20:52:53.16</time>
      </trkpt>
      <trkpt lat="33.07893333333333" lon="35.15956833333333">
        <ele>124.60000000000005</ele>
        <time>2013-02-12T20:52:54.17</time>
      </trkpt>
      <trkpt lat="33.07894833333334" lon="35.159578333333336">
        <ele>124.90000000000005</ele>
        <time>2013-02-12T20:52:55.18</time>
      </trkpt>
      <trkpt lat="33.07895333333333" lon="35.15958666666667">
        <ele>125.00000000000004</ele>
        <time>2013-02-12T20:52:56.18</time>
      </trkpt>
      <trkpt lat="33.07895833333333" lon="35.15958333333333">
        <ele>124.60000000000004</ele>
        <time>2013-02-12T20:52:57.16</time>
      </trkpt>
      <trkpt lat="33.078963333333334" lon="35.15958">
        <ele>124.20000000000003</ele>
        <time>2013-02-12T20:52:58.23</time>
      </trkpt>
      <trkpt lat="33.078986666666665" lon="35.159591666666664">
        <ele>124.00000000000003</ele>
        <time>2013-02-12T20:52:59.16</time>
      </trkpt>
      <trkpt lat="33.07899833333333" lon="35.159605">
        <ele>124.10000000000002</ele>
        <time>2013-02-12T20:53:00.15</time>
      </trkpt>
      <trkpt lat="33.079011666666666" lon="35.15962833333333">
        <ele>123.50000000000003</ele>
        <time>2013-02-12T20:53:01.17</time>
      </trkpt>
      <trkpt lat="33.079026666666664" lon="35.15965166666667">
        <ele>123.60000000000002</ele>
        <time>2013-02-12T20:53:02.17</time>
      </trkpt>
      <trkpt lat="33.07902" lon="35.15965666666666">
        <ele>123.70000000000002</ele>
        <time>2013-02-12T20:53:03.15</time>
      </trkpt>
      <trkpt lat="33.07903833333334" lon="35.159663333333334">
        <ele>123.70000000000002</ele>
        <time>2013-02-12T20:53:04.21</time>
      </trkpt>
      <trkpt lat="33.07908666666667" lon="35.159705">
        <ele>123.70000000000002</ele>
        <time>2013-02-12T20:53:05.18</time>
      </trkpt>
      <trkpt lat="33.07911333333333" lon="35.159728333333334">
        <ele>123.40000000000002</ele>
        <time>2013-02-12T20:53:06.17</time>
      </trkpt>
      <trkpt lat="33.079141666666665" lon="35.15974166666667">
        <ele>123.70000000000002</ele>
        <time>2013-02-12T20:53:07.15</time>
      </trkpt>
      <trkpt lat="33.07918166666666" lon="35.159758333333336">
        <ele>123.40000000000002</ele>
        <time>2013-02-12T20:53:08.17</time>
      </trkpt>
      <trkpt lat="33.079213333333335" lon="35.159755">
        <ele>123.50000000000001</ele>
        <time>2013-02-12T20:53:09.15</time>
      </trkpt>
      <trkpt lat="33.07924166666667" lon="35.15976">
        <ele>123.10000000000001</ele>
        <time>2013-02-12T20:53:10.16</time>
      </trkpt>
      <trkpt lat="33.079265" lon="35.15976666666667">
        <ele>122.60000000000001</ele>
        <time>2013-02-12T20:53:11.17</time>
      </trkpt>
      <trkpt lat="33.079275" lon="35.15978333333333">
        <ele>122.9</ele>
        <time>2013-02-12T20:53:12.17</time>
      </trkpt>
      <trkpt lat="33.079298333333334" lon="35.15978333333333">
        <ele>122.80000000000001</ele>
        <time>2013-02-12T20:53:13.15</time>
      </trkpt>
      <trkpt lat="33.079335" lon="35.15978666666667">
        <ele>123.20000000000002</ele>
        <time>2013-02-12T20:53:14.15</time>
      </trkpt>
      <trkpt lat="33.07935" lon="35.159805">
        <ele>123.30000000000001</ele>
        <time>2013-02-12T20:53:15.15</time>
      </trkpt>
      <trkpt lat="33.07937666666667" lon="35.159825">
        <ele>123.00000000000001</ele>
        <time>2013-02-12T20:53:16.14</time>
      </trkpt>
      <trkpt lat="33.07940833333333" lon="35.15983333333333">
        <ele>123.40000000000002</ele>
        <time>2013-02-12T20:53:17.15</time>
      </trkpt>
      <trkpt lat="33.07942666666667" lon="35.159843333333335">
        <ele>123.20000000000002</ele>
        <time>2013-02-12T20:53:18.18</time>
      </trkpt>
      <trkpt lat="33.07944333333333" lon="35.159843333333335">
        <ele>122.80000000000001</ele>
        <time>2013-02-12T20:53:19.16</time>
      </trkpt>
      <trkpt lat="33.079451666666664" lon="35.15984666666667">
        <ele>122.9</ele>
        <time>2013-02-12T20:53:20.17</time>
      </trkpt>
      <trkpt lat="33.07947" lon="35.15987166666667">
        <ele>122.7</ele>
        <time>2013-02-12T20:53:21.17</time>
      </trkpt>
      <trkpt lat="33.07948833333333" lon="35.15987833333333">
        <ele>122.8</ele>
        <time>2013-02-12T20:53:22.22</time>
      </trkpt>
      <trkpt lat="33.07949166666667" lon="35.15989833333333">
        <ele>123.1</ele>
        <time>2013-02-12T20:53:23.17</time>
      </trkpt>
      <trkpt lat="33.079503333333335" lon="35.15992">
        <ele>123.19999999999999</ele>
        <time>2013-02-12T20:53:24.17</time>
      </trkpt>
      <trkpt lat="33.07951833333333" lon="35.15994333333333">
        <ele>123.6</ele>
        <time>2013-02-12T20:53:25.17</time>
      </trkpt>
      <trkpt lat="33.07954" lon="35.15996833333333">
        <ele>123.69999999999999</ele>
        <time>2013-02-12T20:53:26.17</time>
      </trkpt>
      <trkpt lat="33.079545" lon="35.159976666666665">
        <ele>122.69999999999999</ele>
        <time>2013-02-12T20:53:27.16</time>
      </trkpt>
      <trkpt lat="33.07955166666667" lon="35.15998666666667">
        <ele>122.49999999999999</ele>
        <time>2013-02-12T20:53:28.15</time>
      </trkpt>
      <trkpt lat="33.07957" lon="35.16">
        <ele>123.09999999999998</ele>
        <time>2013-02-12T20:53:29.15</time>
      </trkpt>
      <trkpt lat="33.079585" lon="35.160005">
        <ele>123.29999999999998</ele>
        <time>2013-02-12T20:53:30.16</time>
      </trkpt>
      <trkpt lat="33.079595" lon="35.160025">
        <ele>123.59999999999998</ele>
        <time>2013-02-12T20:53:31.16</time>
      </trkpt>
      <trkpt lat="33.07960333333333" lon="35.16005333333333">
        <ele>124.09999999999998</ele>
        <time>2013-02-12T20:53:32.17</time>
      </trkpt>
      <trkpt lat="33.079618333333336" lon="35.16007">
        <ele>123.59999999999998</ele>
        <time>2013-02-12T20:53:33.18</time>
      </trkpt>
      <trkpt lat="33.079633333333334" lon="35.16007">
        <ele>123.99999999999999</ele>
        <time>2013-02-12T20:53:34.22</time>
      </trkpt>
      <trkpt lat="33.079638333333335" lon="35.160093333333336">
        <ele>123.79999999999998</ele>
        <time>2013-02-12T20:53:35.21</time>
      </trkpt>
      <trkpt lat="33.079658333333334" lon="35.16011666666667">
        <ele>123.29999999999998</ele>
        <time>2013-02-12T20:53:36.20</time>
      </trkpt>
      <trkpt lat="33.07966666666667" lon="35.160113333333335">
        <ele>123.39999999999998</ele>
        <time>2013-02-12T20:53:37.20</time>
      </trkpt>
      <trkpt lat="33.079683333333335" lon="35.16012">
        <ele>123.39999999999998</ele>
        <time>2013-02-12T20:53:38.18</time>
      </trkpt>
      <trkpt lat="33.079705" lon="35.16011666666667">
        <ele>123.39999999999998</ele>
        <time>2013-02-12T20:53:39.19</time>
      </trkpt>
      <trkpt lat="33.079735" lon="35.160136666666666">
        <ele>124.89999999999998</ele>
        <time>2013-02-12T20:53:40.18</time>
      </trkpt>
      <trkpt lat="33.07977666666667" lon="35.160125">
        <ele>124.49999999999997</ele>
        <time>2013-02-12T20:53:41.18</time>
      </trkpt>
      <trkpt lat="33.079813333333334" lon="35.160125">
        <ele>125.09999999999997</ele>
        <time>2013-02-12T20:53:42.18</time>
      </trkpt>
      <trkpt lat="33.079876666666664" lon="35.160133333333334">
        <ele>127.29999999999997</ele>
        <time>2013-02-12T20:53:43.19</time>
      </trkpt>
      <trkpt lat="33.079901666666665" lon="35.160153333333334">
        <ele>126.39999999999996</ele>
        <time>2013-02-12T20:53:44.20</time>
      </trkpt>
      <trkpt lat="33.079915" lon="35.160155">
        <ele>125.29999999999997</ele>
        <time>2013-02-12T20:53:45.19</time>
      </trkpt>
      <trkpt lat="33.07994" lon="35.16016666666667">
        <ele>124.49999999999997</ele>
        <time>2013-02-12T20:53:46.25</time>
      </trkpt>
      <trkpt lat="33.079945" lon="35.160198333333334">
        <ele>123.19999999999997</ele>
        <time>2013-02-12T20:53:47.18</time>
      </trkpt>
      <trkpt lat="33.079966666666664" lon="35.16021833333333">
        <ele>123.19999999999997</ele>
        <time>2013-02-12T20:53:48.19</time>
      </trkpt>
      <trkpt lat="33.079991666666665" lon="35.16021666666666">
        <ele>123.29999999999997</ele>
        <time>2013-02-12T20:53:49.19</time>
      </trkpt>
      <trkpt lat="33.08001" lon="35.16023166666667">
        <ele>124.19999999999997</ele>
        <time>2013-02-12T20:53:50.20</time>
      </trkpt>
      <trkpt lat="33.08002" lon="35.160246666666666">
        <ele>123.99999999999997</ele>
        <time>2013-02-12T20:53:51.21</time>
      </trkpt>
      <trkpt lat="33.080038333333334" lon="35.16026333333333">
        <ele>124.39999999999998</ele>
        <time>2013-02-12T20:53:52.25</time>
      </trkpt>
      <trkpt lat="33.08005333333333" lon="35.16028">
        <ele>123.19999999999997</ele>
        <time>2013-02-12T20:53:53.21</time>
      </trkpt>
      <trkpt lat="33.080065" lon="35.16030666666666">
        <ele>123.39999999999998</ele>
        <time>2013-02-12T20:53:54.18</time>
      </trkpt>
      <trkpt lat="33.08007666666666" lon="35.16032333333333">
        <ele>123.19999999999997</ele>
        <time>2013-02-12T20:53:55.19</time>
      </trkpt>
      <trkpt lat="33.080085" lon="35.160335">
        <ele>123.39999999999998</ele>
        <time>2013-02-12T20:53:56.18</time>
      </trkpt>
      <trkpt lat="33.08009" lon="35.16034333333333">
        <ele>123.29999999999998</ele>
        <time>2013-02-12T20:53:57.19</time>
      </trkpt>
      <trkpt lat="33.080101666666664" lon="35.160365">
        <ele>123.99999999999999</ele>
        <time>2013-02-12T20:53:58.19</time>
      </trkpt>
      <trkpt lat="33.08011166666667" lon="35.160375">
        <ele>123.99999999999999</ele>
        <time>2013-02-12T20:53:59.20</time>
      </trkpt>
      <trkpt lat="33.080133333333336" lon="35.16037">
        <ele>123.99999999999999</ele>
        <time>2013-02-12T20:54:00.37</time>
      </trkpt>
      <trkpt lat="33.080153333333335" lon="35.16037166666667">
        <ele>123.59999999999998</ele>
        <time>2013-02-12T20:54:01.18</time>
      </trkpt>
      <trkpt lat="33.08017666666667" lon="35.16037">
        <ele>124.79999999999998</ele>
        <time>2013-02-12T20:54:02.20</time>
      </trkpt>
      <trkpt lat="33.08020166666667" lon="35.160395">
        <ele>124.39999999999998</ele>
        <time>2013-02-12T20:54:03.18</time>
      </trkpt>
      <trkpt lat="33.08022166666667" lon="35.160408333333336">
        <ele>124.39999999999998</ele>
        <time>2013-02-12T20:54:04.19</time>
      </trkpt>
      <trkpt lat="33.08024833333333" lon="35.160423333333334">
        <ele>124.79999999999998</ele>
        <time>2013-02-12T20:54:05.17</time>
      </trkpt>
      <trkpt lat="33.080265" lon="35.160435">
        <ele>124.69999999999999</ele>
        <time>2013-02-12T20:54:06.19</time>
      </trkpt>
      <trkpt lat="33.080286666666666" lon="35.160453333333336">
        <ele>124.49999999999999</ele>
        <time>2013-02-12T20:54:07.19</time>
      </trkpt>
      <trkpt lat="33.08032" lon="35.16043833333333">
        <ele>124.19999999999999</ele>
        <time>2013-02-12T20:54:08.19</time>
      </trkpt>
      <trkpt lat="33.080335" lon="35.16043166666667">
        <ele>124.49999999999999</ele>
        <time>2013-02-12T20:54:09.19</time>
      </trkpt>
      <trkpt lat="33.08035666666667" lon="35.16043333333333">
        <ele>124.29999999999998</ele>
        <time>2013-02-12T20:54:10.24</time>
      </trkpt>
      <trkpt lat="33.080391666666664" lon="35.160455">
        <ele>124.49999999999999</ele>
        <time>2013-02-12T20:54:11.21</time>
      </trkpt>
      <trkpt lat="33.08043333333333" lon="35.16045166666667">
        <ele>124.09999999999998</ele>
        <time>2013-02-12T20:54:12.18</time>
      </trkpt>
      <trkpt lat="33.080445" lon="35.16045833333333">
        <ele>123.69999999999997</ele>
        <time>2013-02-12T20:54:13.19</time>
      </trkpt>
      <trkpt lat="33.080485" lon="35.16046333333333">
        <ele>124.39999999999998</ele>
        <time>2013-02-12T20:54:14.20</time>
      </trkpt>
      <trkpt lat="33.080508333333334" lon="35.160468333333334">
        <ele>125.99999999999997</ele>
        <time>2013-02-12T20:54:15.19</time>
      </trkpt>
      <trkpt lat="33.08052833333333" lon="35.160485">
        <ele>126.09999999999997</ele>
        <time>2013-02-12T20:54:16.19</time>
      </trkpt>
      <trkpt lat="33.08054833333333" lon="35.160491666666665">
        <ele>126.19999999999996</ele>
        <time>2013-02-12T20:54:17.19</time>
      </trkpt>
      <trkpt lat="33.08058333333334" lon="35.160491666666665">
        <ele>126.39999999999996</ele>
        <time>2013-02-12T20:54:18.19</time>
      </trkpt>
      <trkpt lat="33.080615" lon="35.16049666666667">
        <ele>125.89999999999996</ele>
        <time>2013-02-12T20:54:19.18</time>
      </trkpt>
      <trkpt lat="33.08063666666666" lon="35.16049833333334">
        <ele>126.09999999999997</ele>
        <time>2013-02-12T20:54:20.18</time>
      </trkpt>
      <trkpt lat="33.08065166666667" lon="35.16050333333333">
        <ele>126.29999999999997</ele>
        <time>2013-02-12T20:54:21.17</time>
      </trkpt>
      <trkpt lat="33.08065166666667" lon="35.160518333333336">
        <ele>126.49999999999997</ele>
        <time>2013-02-12T20:54:22.17</time>
      </trkpt>
      <trkpt lat="33.08067" lon="35.160505">
        <ele>125.69999999999997</ele>
        <time>2013-02-12T20:54:23.20</time>
      </trkpt>
      <trkpt lat="33.08069166666667" lon="35.16052166666667">
        <ele>125.29999999999997</ele>
        <time>2013-02-12T20:54:24.22</time>
      </trkpt>
      <trkpt lat="33.08072166666667" lon="35.16054166666667">
        <ele>124.59999999999997</ele>
        <time>2013-02-12T20:54:25.19</time>
      </trkpt>
      <trkpt lat="33.08074833333333" lon="35.160563333333336">
        <ele>124.39999999999996</ele>
        <time>2013-02-12T20:54:26.20</time>
      </trkpt>
      <trkpt lat="33.080756666666666" lon="35.16058">
        <ele>124.39999999999996</ele>
        <time>2013-02-12T20:54:27.19</time>
      </trkpt>
      <trkpt lat="33.08078166666667" lon="35.160595">
        <ele>123.39999999999996</ele>
        <time>2013-02-12T20:54:28.18</time>
      </trkpt>
      <trkpt lat="33.08080666666667" lon="35.16063">
        <ele>123.39999999999996</ele>
        <time>2013-02-12T20:54:29.19</time>
      </trkpt>
      <trkpt lat="33.080823333333335" lon="35.16063666666667">
        <ele>123.39999999999996</ele>
        <time>2013-02-12T20:54:30.18</time>
      </trkpt>
      <trkpt lat="33.08085166666667" lon="35.160665">
        <ele>124.19999999999996</ele>
        <time>2013-02-12T20:54:31.19</time>
      </trkpt>
      <trkpt lat="33.080875" lon="35.160673333333335">
        <ele>123.89999999999996</ele>
        <time>2013-02-12T20:54:32.20</time>
      </trkpt>
      <trkpt lat="33.080906666666664" lon="35.16068833333333">
        <ele>124.39999999999996</ele>
        <time>2013-02-12T20:54:33.18</time>
      </trkpt>
      <trkpt lat="33.080933333333334" lon="35.160685">
        <ele>124.29999999999997</ele>
        <time>2013-02-12T20:54:34.25</time>
      </trkpt>
      <trkpt lat="33.08094166666667" lon="35.16070666666667">
        <ele>123.59999999999997</ele>
        <time>2013-02-12T20:54:35.19</time>
      </trkpt>
      <trkpt lat="33.08096666666667" lon="35.16072666666667">
        <ele>124.39999999999996</ele>
        <time>2013-02-12T20:54:36.19</time>
      </trkpt>
      <trkpt lat="33.08099" lon="35.16073333333333">
        <ele>123.79999999999997</ele>
        <time>2013-02-12T20:54:37.18</time>
      </trkpt>
      <trkpt lat="33.08099833333333" lon="35.160755">
        <ele>124.19999999999997</ele>
        <time>2013-02-12T20:54:38.18</time>
      </trkpt>
      <trkpt lat="33.081003333333335" lon="35.160761666666666">
        <ele>124.29999999999997</ele>
        <time>2013-02-12T20:54:39.19</time>
      </trkpt>
      <trkpt lat="33.081015" lon="35.160761666666666">
        <ele>123.29999999999997</ele>
        <time>2013-02-12T20:54:40.19</time>
      </trkpt>
      <trkpt lat="33.081025" lon="35.16077333333333">
        <ele>123.59999999999997</ele>
        <time>2013-02-12T20:54:41.20</time>
      </trkpt>
      <trkpt lat="33.081035" lon="35.16079">
        <ele>124.19999999999996</ele>
        <time>2013-02-12T20:54:42.17</time>
      </trkpt>
      <trkpt lat="33.08105333333334" lon="35.16079666666667">
        <ele>124.29999999999995</ele>
        <time>2013-02-12T20:54:43.19</time>
      </trkpt>
      <trkpt lat="33.08108333333333" lon="35.16079">
        <ele>124.39999999999995</ele>
        <time>2013-02-12T20:54:44.19</time>
      </trkpt>
      <trkpt lat="33.0811" lon="35.160788333333336">
        <ele>124.59999999999995</ele>
        <time>2013-02-12T20:54:45.18</time>
      </trkpt>
      <trkpt lat="33.08112666666667" lon="35.16077833333333">
        <ele>124.69999999999995</ele>
        <time>2013-02-12T20:54:46.18</time>
      </trkpt>
      <trkpt lat="33.081145" lon="35.160775">
        <ele>124.49999999999994</ele>
        <time>2013-02-12T20:54:47.19</time>
      </trkpt>
      <trkpt lat="33.081165" lon="35.160761666666666">
        <ele>124.59999999999994</ele>
        <time>2013-02-12T20:54:48.19</time>
      </trkpt>
      <trkpt lat="33.081181666666666" lon="35.160756666666664">
        <ele>124.49999999999994</ele>
        <time>2013-02-12T20:54:49.19</time>
      </trkpt>
      <trkpt lat="33.08119833333333" lon="35.16076833333333">
        <ele>124.49999999999994</ele>
        <time>2013-02-12T20:54:50.20</time>
      </trkpt>
      <trkpt lat="33.081203333333335" lon="35.160775">
        <ele>124.19999999999995</ele>
        <time>2013-02-12T20:54:51.19</time>
      </trkpt>
      <trkpt lat="33.08123166666667" lon="35.160765">
        <ele>124.49999999999994</ele>
        <time>2013-02-12T20:54:52.19</time>
      </trkpt>
      <trkpt lat="33.08125166666667" lon="35.16076833333333">
        <ele>124.49999999999994</ele>
        <time>2013-02-12T20:54:53.19</time>
      </trkpt>
      <trkpt lat="33.081266666666664" lon="35.160763333333335">
        <ele>124.49999999999994</ele>
        <time>2013-02-12T20:54:54.18</time>
      </trkpt>
      <trkpt lat="33.08127833333333" lon="35.16077166666667">
        <ele>125.29999999999994</ele>
        <time>2013-02-12T20:54:55.19</time>
      </trkpt>
      <trkpt lat="33.08131" lon="35.160785">
        <ele>124.79999999999994</ele>
        <time>2013-02-12T20:54:56.19</time>
      </trkpt>
      <trkpt lat="33.081316666666666" lon="35.16079333333333">
        <ele>125.49999999999994</ele>
        <time>2013-02-12T20:54:57.20</time>
      </trkpt>
      <trkpt lat="33.08134" lon="35.16079833333333">
        <ele>125.09999999999994</ele>
        <time>2013-02-12T20:54:58.19</time>
      </trkpt>
      <trkpt lat="33.08136" lon="35.1608">
        <ele>125.19999999999993</ele>
        <time>2013-02-12T20:54:59.19</time>
      </trkpt>
      <trkpt lat="33.08137166666667" lon="35.16081666666667">
        <ele>125.39999999999993</ele>
        <time>2013-02-12T20:55:00.16</time>
      </trkpt>
      <trkpt lat="33.081381666666665" lon="35.16083">
        <ele>125.59999999999994</ele>
        <time>2013-02-12T20:55:01.18</time>
      </trkpt>
      <trkpt lat="33.081401666666665" lon="35.160835">
        <ele>125.39999999999993</ele>
        <time>2013-02-12T20:55:02.17</time>
      </trkpt>
      <trkpt lat="33.081405" lon="35.16085666666667">
        <ele>125.69999999999993</ele>
        <time>2013-02-12T20:55:03.17</time>
      </trkpt>
      <trkpt lat="33.08143666666667" lon="35.160885">
        <ele>125.69999999999993</ele>
        <time>2013-02-12T20:55:04.17</time>
      </trkpt>
      <trkpt lat="33.08144333333333" lon="35.160898333333336">
        <ele>125.79999999999993</ele>
        <time>2013-02-12T20:55:05.17</time>
      </trkpt>
      <trkpt lat="33.081475" lon="35.160896666666666">
        <ele>125.79999999999993</ele>
        <time>2013-02-12T20:55:06.18</time>
      </trkpt>
      <trkpt lat="33.081518333333335" lon="35.16090666666667">
        <ele>125.49999999999993</ele>
        <time>2013-02-12T20:55:07.18</time>
      </trkpt>
      <trkpt lat="33.08155333333333" lon="35.16090666666667">
        <ele>125.59999999999992</ele>
        <time>2013-02-12T20:55:08.19</time>
      </trkpt>
      <trkpt lat="33.08156833333334" lon="35.16092">
        <ele>125.59999999999992</ele>
        <time>2013-02-12T20:55:09.19</time>
      </trkpt>
      <trkpt lat="33.081625" lon="35.16088833333333">
        <ele>125.49999999999993</ele>
        <time>2013-02-12T20:55:10.18</time>
      </trkpt>
      <trkpt lat="33.08166666666666" lon="35.16091">
        <ele>125.49999999999993</ele>
        <time>2013-02-12T20:55:11.19</time>
      </trkpt>
      <trkpt lat="33.08170666666667" lon="35.16090166666667">
        <ele>125.59999999999992</ele>
        <time>2013-02-12T20:55:13.19</time>
      </trkpt>
      <trkpt lat="33.081725" lon="35.16090166666667">
        <ele>125.59999999999992</ele>
        <time>2013-02-12T20:55:14.17</time>
      </trkpt>
      <trkpt lat="33.081735" lon="35.16090166666667">
        <ele>125.69999999999992</ele>
        <time>2013-02-12T20:55:15.19</time>
      </trkpt>
      <trkpt lat="33.08176666666667" lon="35.160896666666666">
        <ele>125.29999999999991</ele>
        <time>2013-02-12T20:55:16.19</time>
      </trkpt>
      <trkpt lat="33.08179" lon="35.16092">
        <ele>127.19999999999992</ele>
        <time>2013-02-12T20:55:17.19</time>
      </trkpt>
      <trkpt lat="33.081788333333336" lon="35.16092833333333">
        <ele>127.79999999999991</ele>
        <time>2013-02-12T20:55:18.20</time>
      </trkpt>
      <trkpt lat="33.08179333333333" lon="35.160918333333335">
        <ele>127.8999999999999</ele>
        <time>2013-02-12T20:55:19.20</time>
      </trkpt>
      <trkpt lat="33.081801666666664" lon="35.160938333333334">
        <ele>127.9999999999999</ele>
        <time>2013-02-12T20:55:20.20</time>
      </trkpt>
      <trkpt lat="33.081806666666665" lon="35.16094833333333">
        <ele>127.9999999999999</ele>
        <time>2013-02-12T20:55:21.20</time>
      </trkpt>
      <trkpt lat="33.081808333333335" lon="35.16093166666667">
        <ele>128.3999999999999</ele>
        <time>2013-02-12T20:55:22.19</time>
      </trkpt>
      <trkpt lat="33.081813333333336" lon="35.16092666666667">
        <ele>128.1999999999999</ele>
        <time>2013-02-12T20:55:23.19</time>
      </trkpt>
      <trkpt lat="33.08182333333333" lon="35.16093">
        <ele>128.2999999999999</ele>
        <time>2013-02-12T20:55:24.19</time>
      </trkpt>
      <trkpt lat="33.08184" lon="35.16094833333333">
        <ele>128.6999999999999</ele>
        <time>2013-02-12T20:55:25.18</time>
      </trkpt>
      <trkpt lat="33.08186" lon="35.16095">
        <ele>128.8999999999999</ele>
        <time>2013-02-12T20:55:26.19</time>
      </trkpt>
      <trkpt lat="33.08188833333333" lon="35.160945">
        <ele>129.3999999999999</ele>
        <time>2013-02-12T20:55:27.19</time>
      </trkpt>
      <trkpt lat="33.08191333333333" lon="35.16095166666667">
        <ele>128.9999999999999</ele>
        <time>2013-02-12T20:55:28.18</time>
      </trkpt>
      <trkpt lat="33.08194" lon="35.160936666666665">
        <ele>129.09999999999988</ele>
        <time>2013-02-12T20:55:29.20</time>
      </trkpt>
      <trkpt lat="33.08194833333334" lon="35.160945">
        <ele>128.8999999999999</ele>
        <time>2013-02-12T20:55:30.20</time>
      </trkpt>
      <trkpt lat="33.081965" lon="35.160961666666665">
        <ele>128.59999999999988</ele>
        <time>2013-02-12T20:55:31.20</time>
      </trkpt>
      <trkpt lat="33.081986666666666" lon="35.16097666666667">
        <ele>128.19999999999987</ele>
        <time>2013-02-12T20:55:32.19</time>
      </trkpt>
      <trkpt lat="33.08199666666667" lon="35.161">
        <ele>127.69999999999987</ele>
        <time>2013-02-12T20:55:33.18</time>
      </trkpt>
      <trkpt lat="33.082011666666666" lon="35.16101333333334">
        <ele>127.49999999999987</ele>
        <time>2013-02-12T20:55:34.18</time>
      </trkpt>
      <trkpt lat="33.082025" lon="35.16103666666667">
        <ele>127.99999999999987</ele>
        <time>2013-02-12T20:55:35.19</time>
      </trkpt>
      <trkpt lat="33.08206333333333" lon="35.16106666666666">
        <ele>130.39999999999986</ele>
        <time>2013-02-12T20:55:36.19</time>
      </trkpt>
      <trkpt lat="33.082078333333335" lon="35.16108833333333">
        <ele>130.99999999999986</ele>
        <time>2013-02-12T20:55:37.19</time>
      </trkpt>
      <trkpt lat="33.0821" lon="35.161095">
        <ele>130.29999999999987</ele>
        <time>2013-02-12T20:55:38.20</time>
      </trkpt>
      <trkpt lat="33.08210833333333" lon="35.16110833333333">
        <ele>131.09999999999988</ele>
        <time>2013-02-12T20:55:39.18</time>
      </trkpt>
      <trkpt lat="33.08211166666667" lon="35.161136666666664">
        <ele>130.09999999999988</ele>
        <time>2013-02-12T20:55:40.20</time>
      </trkpt>
      <trkpt lat="33.082115" lon="35.16115166666667">
        <ele>130.29999999999987</ele>
        <time>2013-02-12T20:55:41.20</time>
      </trkpt>
      <trkpt lat="33.08212833333333" lon="35.161185">
        <ele>131.19999999999987</ele>
        <time>2013-02-12T20:55:42.19</time>
      </trkpt>
      <trkpt lat="33.08214" lon="35.16120166666666">
        <ele>130.79999999999987</ele>
        <time>2013-02-12T20:55:43.20</time>
      </trkpt>
      <trkpt lat="33.082155" lon="35.161215">
        <ele>130.79999999999987</ele>
        <time>2013-02-12T20:55:44.19</time>
      </trkpt>
      <trkpt lat="33.082163333333334" lon="35.16123">
        <ele>132.29999999999987</ele>
        <time>2013-02-12T20:55:45.19</time>
      </trkpt>
      <trkpt lat="33.08218" lon="35.16124666666666">
        <ele>133.79999999999987</ele>
        <time>2013-02-12T20:55:46.17</time>
      </trkpt>
      <trkpt lat="33.08220166666667" lon="35.16123833333333">
        <ele>134.09999999999988</ele>
        <time>2013-02-12T20:55:47.19</time>
      </trkpt>
      <trkpt lat="33.082211666666666" lon="35.161253333333335">
        <ele>133.8999999999999</ele>
        <time>2013-02-12T20:55:48.19</time>
      </trkpt>
      <trkpt lat="33.08223666666667" lon="35.16126333333333">
        <ele>133.8999999999999</ele>
        <time>2013-02-12T20:55:49.21</time>
      </trkpt>
      <trkpt lat="33.08226" lon="35.16128">
        <ele>133.4999999999999</ele>
        <time>2013-02-12T20:55:50.20</time>
      </trkpt>
      <trkpt lat="33.082278333333335" lon="35.161278333333335">
        <ele>133.9999999999999</ele>
        <time>2013-02-12T20:55:51.19</time>
      </trkpt>
      <trkpt lat="33.08228666666667" lon="35.16130833333333">
        <ele>134.09999999999988</ele>
        <time>2013-02-12T20:55:52.19</time>
      </trkpt>
      <trkpt lat="33.082296666666664" lon="35.161321666666666">
        <ele>134.19999999999987</ele>
        <time>2013-02-12T20:55:53.18</time>
      </trkpt>
      <trkpt lat="33.0823" lon="35.16132833333333">
        <ele>134.79999999999987</ele>
        <time>2013-02-12T20:55:54.28</time>
      </trkpt>
      <trkpt lat="33.08231333333333" lon="35.16134666666667">
        <ele>135.79999999999987</ele>
        <time>2013-02-12T20:55:55.15</time>
      </trkpt>
      <trkpt lat="33.082321666666665" lon="35.16135166666667">
        <ele>134.89999999999986</ele>
        <time>2013-02-12T20:55:56.15</time>
      </trkpt>
      <trkpt lat="33.082366666666665" lon="35.16134666666667">
        <ele>134.89999999999986</ele>
        <time>2013-02-12T20:55:57.16</time>
      </trkpt>
      <trkpt lat="33.08237833333333" lon="35.161348333333336">
        <ele>135.09999999999985</ele>
        <time>2013-02-12T20:55:58.15</time>
      </trkpt>
      <trkpt lat="33.08239833333333" lon="35.16136">
        <ele>134.89999999999986</ele>
        <time>2013-02-12T20:55:59.15</time>
      </trkpt>
      <trkpt lat="33.08242333333333" lon="35.161366666666666">
        <ele>134.99999999999986</ele>
        <time>2013-02-12T20:56:00.15</time>
      </trkpt>
      <trkpt lat="33.08245333333333" lon="35.16137">
        <ele>136.19999999999985</ele>
        <time>2013-02-12T20:56:01.15</time>
      </trkpt>
      <trkpt lat="33.082476666666665" lon="35.16136">
        <ele>136.49999999999986</ele>
        <time>2013-02-12T20:56:02.17</time>
      </trkpt>
      <trkpt lat="33.08249333333333" lon="35.161348333333336">
        <ele>134.89999999999986</ele>
        <time>2013-02-12T20:56:03.15</time>
      </trkpt>
      <trkpt lat="33.08251333333333" lon="35.16135333333333">
        <ele>134.59999999999985</ele>
        <time>2013-02-12T20:56:04.15</time>
      </trkpt>
      <trkpt lat="33.082528333333336" lon="35.16133333333333">
        <ele>134.99999999999986</ele>
        <time>2013-02-12T20:56:05.15</time>
      </trkpt>
      <trkpt lat="33.082535" lon="35.16136">
        <ele>135.69999999999985</ele>
        <time>2013-02-12T20:56:06.16</time>
      </trkpt>
      <trkpt lat="33.08255333333334" lon="35.16135833333333">
        <ele>134.99999999999986</ele>
        <time>2013-02-12T20:56:07.18</time>
      </trkpt>
      <trkpt lat="33.082565" lon="35.16137333333333">
        <ele>135.69999999999985</ele>
        <time>2013-02-12T20:56:08.18</time>
      </trkpt>
      <trkpt lat="33.082585" lon="35.16137166666667">
        <ele>136.69999999999985</ele>
        <time>2013-02-12T20:56:09.22</time>
      </trkpt>
      <trkpt lat="33.082593333333335" lon="35.16137166666667">
        <ele>137.09999999999985</ele>
        <time>2013-02-12T20:56:10.17</time>
      </trkpt>
      <trkpt lat="33.082618333333336" lon="35.16137">
        <ele>136.69999999999985</ele>
        <time>2013-02-12T20:56:11.18</time>
      </trkpt>
      <trkpt lat="33.08263" lon="35.16138333333333">
        <ele>135.59999999999985</ele>
        <time>2013-02-12T20:56:12.18</time>
      </trkpt>
      <trkpt lat="33.082635" lon="35.161411666666666">
        <ele>134.89999999999986</ele>
        <time>2013-02-12T20:56:13.17</time>
      </trkpt>
      <trkpt lat="33.082638333333335" lon="35.16143">
        <ele>134.09999999999985</ele>
        <time>2013-02-12T20:56:14.18</time>
      </trkpt>
      <trkpt lat="33.08262" lon="35.16144166666667">
        <ele>133.89999999999986</ele>
        <time>2013-02-12T20:56:16.20</time>
      </trkpt>
      <trkpt lat="33.082631666666664" lon="35.161453333333334">
        <ele>132.99999999999986</ele>
        <time>2013-02-12T20:56:17.18</time>
      </trkpt>
      <trkpt lat="33.08260333333333" lon="35.161475">
        <ele>133.29999999999987</ele>
        <time>2013-02-12T20:56:18.18</time>
      </trkpt>
      <trkpt lat="33.082595" lon="35.161478333333335">
        <ele>133.79999999999987</ele>
        <time>2013-02-12T20:56:19.19</time>
      </trkpt>
      <trkpt lat="33.08258166666667" lon="35.161495">
        <ele>133.19999999999987</ele>
        <time>2013-02-12T20:56:20.20</time>
      </trkpt>
      <trkpt lat="33.082565" lon="35.16151166666667">
        <ele>133.19999999999987</ele>
        <time>2013-02-12T20:56:21.20</time>
      </trkpt>
      <trkpt lat="33.08255333333334" lon="35.16152">
        <ele>133.19999999999987</ele>
        <time>2013-02-12T20:56:22.18</time>
      </trkpt>
      <trkpt lat="33.082546666666666" lon="35.161525">
        <ele>133.4999999999999</ele>
        <time>2013-02-12T20:56:23.19</time>
      </trkpt>
      <trkpt lat="33.082526666666666" lon="35.161521666666665">
        <ele>133.3999999999999</ele>
        <time>2013-02-12T20:56:24.20</time>
      </trkpt>
      <trkpt lat="33.082526666666666" lon="35.16152833333334">
        <ele>133.4999999999999</ele>
        <time>2013-02-12T20:56:25.19</time>
      </trkpt>
      <trkpt lat="33.082515" lon="35.161523333333335">
        <ele>133.9999999999999</ele>
        <time>2013-02-12T20:56:26.19</time>
      </trkpt>
      <trkpt lat="33.08249166666667" lon="35.16151833333333">
        <ele>134.09999999999988</ele>
        <time>2013-02-12T20:56:27.21</time>
      </trkpt>
      <trkpt lat="33.082483333333336" lon="35.16152833333334">
        <ele>134.9999999999999</ele>
        <time>2013-02-12T20:56:28.20</time>
      </trkpt>
      <trkpt lat="33.082476666666665" lon="35.16153">
        <ele>135.09999999999988</ele>
        <time>2013-02-12T20:56:29.19</time>
      </trkpt>
      <trkpt lat="33.082465" lon="35.16153166666667">
        <ele>135.4999999999999</ele>
        <time>2013-02-12T20:56:30.20</time>
      </trkpt>
      <trkpt lat="33.082455" lon="35.16153666666666">
        <ele>136.09999999999988</ele>
        <time>2013-02-12T20:56:31.19</time>
      </trkpt>
      <trkpt lat="33.082431666666665" lon="35.16154">
        <ele>137.4</ele>
        <time>2013-02-12T20:56:34.19</time>
      </trkpt>
      <trkpt lat="33.08242166666667" lon="35.161541666666665">
        <ele>138.1</ele>
        <time>2013-02-12T20:56:35.20</time>
      </trkpt>
      <trkpt lat="33.082411666666665" lon="35.161546666666666">
        <ele>139.1</ele>
        <time>2013-02-12T20:56:36.19</time>
      </trkpt>
      <trkpt lat="33.08241" lon="35.161565">
        <ele>139.5</ele>
        <time>2013-02-12T20:56:37.16</time>
      </trkpt>
      <trkpt lat="33.08242666666667" lon="35.16155333333333">
        <ele>142.8</ele>
        <time>2013-02-12T20:56:40.17</time>
      </trkpt>
      <trkpt lat="33.082405" lon="35.16156">
        <ele>143.10000000000002</ele>
        <time>2013-02-12T20:56:41.15</time>
      </trkpt>
      <trkpt lat="33.0824" lon="35.16155666666667">
        <ele>143.40000000000003</ele>
        <time>2013-02-12T20:56:42.15</time>
      </trkpt>
      <trkpt lat="33.08241" lon="35.16157166666667">
        <ele>142.90000000000003</ele>
        <time>2013-02-12T20:56:43.15</time>
      </trkpt>
      <trkpt lat="33.08241833333334" lon="35.161588333333334">
        <ele>142.50000000000003</ele>
        <time>2013-02-12T20:56:44.17</time>
      </trkpt>
      <trkpt lat="33.08240166666667" lon="35.1616">
        <ele>142.80000000000004</ele>
        <time>2013-02-12T20:56:45.17</time>
      </trkpt>
      <trkpt lat="33.082388333333334" lon="35.16161">
        <ele>143.10000000000005</ele>
        <time>2013-02-12T20:56:46.18</time>
      </trkpt>
      <trkpt lat="33.082361666666664" lon="35.161633333333334">
        <ele>142.80000000000004</ele>
        <time>2013-02-12T20:56:47.15</time>
      </trkpt>
      <trkpt lat="33.08235333333333" lon="35.161631666666665">
        <ele>142.70000000000005</ele>
        <time>2013-02-12T20:56:48.15</time>
      </trkpt>
      <trkpt lat="33.082323333333335" lon="35.161633333333334">
        <ele>142.40000000000003</ele>
        <time>2013-02-12T20:56:50.23</time>
      </trkpt>
      <trkpt lat="33.082296666666664" lon="35.161636666666666">
        <ele>142.40000000000003</ele>
        <time>2013-02-12T20:56:51.18</time>
      </trkpt>
      <trkpt lat="33.08228" lon="35.16164833333333">
        <ele>142.00000000000003</ele>
        <time>2013-02-12T20:56:52.18</time>
      </trkpt>
      <trkpt lat="33.08224333333333" lon="35.16166666666667">
        <ele>143.50000000000003</ele>
        <time>2013-02-12T20:56:54.20</time>
      </trkpt>
      <trkpt lat="33.082206666666664" lon="35.161675">
        <ele>144.10000000000002</ele>
        <time>2013-02-12T20:56:55.18</time>
      </trkpt>
      <trkpt lat="33.08218166666666" lon="35.16169166666667">
        <ele>143.90000000000003</ele>
        <time>2013-02-12T20:56:56.17</time>
      </trkpt>
      <trkpt lat="33.08215333333333" lon="35.161705">
        <ele>144.00000000000003</ele>
        <time>2013-02-12T20:56:57.18</time>
      </trkpt>
      <trkpt lat="33.082135" lon="35.16170666666667">
        <ele>144.50000000000003</ele>
        <time>2013-02-12T20:56:58.17</time>
      </trkpt>
      <trkpt lat="33.08212833333333" lon="35.161705">
        <ele>144.60000000000002</ele>
        <time>2013-02-12T20:56:59.24</time>
      </trkpt>
      <trkpt lat="33.08212" lon="35.16175">
        <ele>144.50000000000003</ele>
        <time>2013-02-12T20:57:00.21</time>
      </trkpt>
      <trkpt lat="33.08208166666667" lon="35.16177">
        <ele>145.30000000000004</ele>
        <time>2013-02-12T20:57:01.17</time>
      </trkpt>
      <trkpt lat="33.082056666666666" lon="35.161773333333336">
        <ele>146.00000000000003</ele>
        <time>2013-02-12T20:57:02.17</time>
      </trkpt>
      <trkpt lat="33.082045" lon="35.16179666666667">
        <ele>145.80000000000004</ele>
        <time>2013-02-12T20:57:03.21</time>
      </trkpt>
      <trkpt lat="33.08204" lon="35.161815">
        <ele>145.60000000000005</ele>
        <time>2013-02-12T20:57:04.19</time>
      </trkpt>
      <trkpt lat="33.082025" lon="35.16182">
        <ele>145.7</ele>
        <time>2013-02-12T20:57:11.17</time>
      </trkpt>
      <trkpt lat="33.08202333333333" lon="35.161831666666664">
        <ele>145.7</ele>
        <time>2013-02-12T20:57:13.17</time>
      </trkpt>
      <trkpt lat="33.08202" lon="35.16184333333333">
        <ele>145.7</ele>
        <time>2013-02-12T20:57:14.16</time>
      </trkpt>
      <trkpt lat="33.081995" lon="35.16185">
        <ele>145.6</ele>
        <time>2013-02-12T20:57:17.17</time>
      </trkpt>
      <trkpt lat="33.081988333333335" lon="35.16184">
        <ele>145.6</ele>
        <time>2013-02-12T20:57:18.17</time>
      </trkpt>
      <trkpt lat="33.08197833333333" lon="35.16184666666667">
        <ele>145.29999999999998</ele>
        <time>2013-02-12T20:57:19.20</time>
      </trkpt>
      <trkpt lat="33.081975" lon="35.16185333333333">
        <ele>145.29999999999998</ele>
        <time>2013-02-12T20:57:20.16</time>
      </trkpt>
      <trkpt lat="33.081975" lon="35.161863333333336">
        <ele>145.29999999999998</ele>
        <time>2013-02-12T20:57:21.17</time>
      </trkpt>
      <trkpt lat="33.08197166666667" lon="35.16188">
        <ele>145.1</ele>
        <time>2013-02-12T20:57:22.17</time>
      </trkpt>
      <trkpt lat="33.081968333333336" lon="35.16189166666667">
        <ele>145.29999999999998</ele>
        <time>2013-02-12T20:57:23.16</time>
      </trkpt>
      <trkpt lat="33.08195833333333" lon="35.161901666666665">
        <ele>145.39999999999998</ele>
        <time>2013-02-12T20:57:24.18</time>
      </trkpt>
      <trkpt lat="33.08195166666667" lon="35.16190666666667">
        <ele>145.49999999999997</ele>
        <time>2013-02-12T20:57:25.17</time>
      </trkpt>
      <trkpt lat="33.08191" lon="35.16193666666667">
        <ele>146.09999999999997</ele>
        <time>2013-02-12T20:57:26.18</time>
      </trkpt>
      <trkpt lat="33.08190166666667" lon="35.161946666666665">
        <ele>146.09999999999997</ele>
        <time>2013-02-12T20:57:27.17</time>
      </trkpt>
      <trkpt lat="33.08183" lon="35.161986666666664">
        <ele>146.49999999999997</ele>
        <time>2013-02-12T20:57:28.17</time>
      </trkpt>
      <trkpt lat="33.081781666666664" lon="35.16200166666667">
        <ele>146.29999999999998</ele>
        <time>2013-02-12T20:57:29.16</time>
      </trkpt>
      <trkpt lat="33.08175333333333" lon="35.16202166666667">
        <ele>146.29999999999998</ele>
        <time>2013-02-12T20:57:30.17</time>
      </trkpt>
      <trkpt lat="33.08173166666667" lon="35.16204">
        <ele>146.6</ele>
        <time>2013-02-12T20:57:31.17</time>
      </trkpt>
      <trkpt lat="33.08172833333333" lon="35.162055">
        <ele>146.7</ele>
        <time>2013-02-12T20:57:32.25</time>
      </trkpt>
      <trkpt lat="33.081698333333335" lon="35.162058333333334">
        <ele>146.89999999999998</ele>
        <time>2013-02-12T20:57:33.17</time>
      </trkpt>
      <trkpt lat="33.081673333333335" lon="35.162061666666666">
        <ele>147.79999999999998</ele>
        <time>2013-02-12T20:57:34.17</time>
      </trkpt>
      <trkpt lat="33.08165833333333" lon="35.162063333333336">
        <ele>147.2</ele>
        <time>2013-02-12T20:57:35.27</time>
      </trkpt>
      <trkpt lat="33.08164" lon="35.162085">
        <ele>147.1</ele>
        <time>2013-02-12T20:57:36.18</time>
      </trkpt>
      <trkpt lat="33.081608333333335" lon="35.162108333333336">
        <ele>147.2</ele>
        <time>2013-02-12T20:57:37.17</time>
      </trkpt>
      <trkpt lat="33.08158" lon="35.16211166666667">
        <ele>146.7</ele>
        <time>2013-02-12T20:57:38.20</time>
      </trkpt>
      <trkpt lat="33.08156833333334" lon="35.16211833333333">
        <ele>146.6</ele>
        <time>2013-02-12T20:57:39.22</time>
      </trkpt>
      <trkpt lat="33.081545" lon="35.162128333333335">
        <ele>148</ele>
        <time>2013-02-12T20:57:46.17</time>
      </trkpt>
      <trkpt lat="33.08152" lon="35.162148333333334">
        <ele>147.3</ele>
        <time>2013-02-12T20:57:47.17</time>
      </trkpt>
      <trkpt lat="33.081495" lon="35.162171666666666">
        <ele>147.8</ele>
        <time>2013-02-12T20:57:48.17</time>
      </trkpt>
      <trkpt lat="33.08147" lon="35.162211666666664">
        <ele>147.5</ele>
        <time>2013-02-12T20:57:49.17</time>
      </trkpt>
      <trkpt lat="33.08144" lon="35.162213333333334">
        <ele>147.3</ele>
        <time>2013-02-12T20:57:50.18</time>
      </trkpt>
      <trkpt lat="33.08141166666667" lon="35.162191666666665">
        <ele>147.60000000000002</ele>
        <time>2013-02-12T20:57:51.17</time>
      </trkpt>
      <trkpt lat="33.08136666666667" lon="35.16218333333333">
        <ele>147.3</ele>
        <time>2013-02-12T20:57:52.18</time>
      </trkpt>
      <trkpt lat="33.08134833333333" lon="35.16218666666666">
        <ele>148.4</ele>
        <time>2013-02-12T20:57:53.17</time>
      </trkpt>
      <trkpt lat="33.081313333333334" lon="35.16218">
        <ele>148</ele>
        <time>2013-02-12T20:57:54.18</time>
      </trkpt>
      <trkpt lat="33.081311666666664" lon="35.162198333333336">
        <ele>148.4</ele>
        <time>2013-02-12T20:57:55.26</time>
      </trkpt>
      <trkpt lat="33.08128333333333" lon="35.16219">
        <ele>148.3</ele>
        <time>2013-02-12T20:57:56.22</time>
      </trkpt>
      <trkpt lat="33.081268333333334" lon="35.162193333333335">
        <ele>149.10000000000002</ele>
        <time>2013-02-12T20:57:57.20</time>
      </trkpt>
      <trkpt lat="33.08124" lon="35.1622">
        <ele>150.00000000000003</ele>
        <time>2013-02-12T20:57:58.19</time>
      </trkpt>
      <trkpt lat="33.081225" lon="35.16220833333333">
        <ele>151.70000000000002</ele>
        <time>2013-02-12T20:57:59.17</time>
      </trkpt>
      <trkpt lat="33.08121833333333" lon="35.162213333333334">
        <ele>152.20000000000002</ele>
        <time>2013-02-12T20:58:00.35</time>
      </trkpt>
      <trkpt lat="33.081203333333335" lon="35.162216666666666">
        <ele>152.00000000000003</ele>
        <time>2013-02-12T20:58:01.17</time>
      </trkpt>
      <trkpt lat="33.08118833333333" lon="35.162238333333335">
        <ele>151.50000000000003</ele>
        <time>2013-02-12T20:58:02.18</time>
      </trkpt>
      <trkpt lat="33.081185" lon="35.162243333333336">
        <ele>151.50000000000003</ele>
        <time>2013-02-12T20:58:03.17</time>
      </trkpt>
      <trkpt lat="33.08118" lon="35.162243333333336">
        <ele>151.60000000000002</ele>
        <time>2013-02-12T20:58:04.21</time>
      </trkpt>
      <trkpt lat="33.08117" lon="35.16224666666667">
        <ele>151.50000000000003</ele>
        <time>2013-02-12T20:58:05.17</time>
      </trkpt>
      <trkpt lat="33.08115" lon="35.16226">
        <ele>151.30000000000004</ele>
        <time>2013-02-12T20:58:06.18</time>
      </trkpt>
      <trkpt lat="33.08112833333333" lon="35.16227166666667">
        <ele>150.70000000000005</ele>
        <time>2013-02-12T20:58:07.17</time>
      </trkpt>
      <trkpt lat="33.08107833333333" lon="35.16231833333333">
        <ele>150.10000000000005</ele>
        <time>2013-02-12T20:58:08.17</time>
      </trkpt>
      <trkpt lat="33.08105333333334" lon="35.16234333333333">
        <ele>150.80000000000004</ele>
        <time>2013-02-12T20:58:09.17</time>
      </trkpt>
      <trkpt lat="33.08104" lon="35.162351666666666">
        <ele>149.40000000000003</ele>
        <time>2013-02-12T20:58:10.17</time>
      </trkpt>
      <trkpt lat="33.081003333333335" lon="35.162355">
        <ele>150.50000000000003</ele>
        <time>2013-02-12T20:58:11.18</time>
      </trkpt>
      <trkpt lat="33.08097" lon="35.162371666666665">
        <ele>150.80000000000004</ele>
        <time>2013-02-12T20:58:12.17</time>
      </trkpt>
      <trkpt lat="33.08094" lon="35.16238833333333">
        <ele>151.00000000000003</ele>
        <time>2013-02-12T20:58:13.23</time>
      </trkpt>
      <trkpt lat="33.08093" lon="35.162405">
        <ele>150.00000000000003</ele>
        <time>2013-02-12T20:58:14.19</time>
      </trkpt>
      <trkpt lat="33.080915" lon="35.162415">
        <ele>150.10000000000002</ele>
        <time>2013-02-12T20:58:15.17</time>
      </trkpt>
      <trkpt lat="33.080895" lon="35.162425">
        <ele>150.40000000000003</ele>
        <time>2013-02-12T20:58:16.18</time>
      </trkpt>
      <trkpt lat="33.080885" lon="35.162443333333336">
        <ele>150.20000000000005</ele>
        <time>2013-02-12T20:58:17.17</time>
      </trkpt>
      <trkpt lat="33.08087" lon="35.162463333333335">
        <ele>150.30000000000004</ele>
        <time>2013-02-12T20:58:18.17</time>
      </trkpt>
      <trkpt lat="33.08087" lon="35.16247166666667">
        <ele>150.70000000000005</ele>
        <time>2013-02-12T20:58:19.18</time>
      </trkpt>
      <trkpt lat="33.08087666666667" lon="35.162481666666665">
        <ele>150.90000000000003</ele>
        <time>2013-02-12T20:58:20.21</time>
      </trkpt>
      <trkpt lat="33.08089" lon="35.162495">
        <ele>151.00000000000003</ele>
        <time>2013-02-12T20:58:21.17</time>
      </trkpt>
      <trkpt lat="33.080893333333336" lon="35.16251666666667">
        <ele>150.30000000000004</ele>
        <time>2013-02-12T20:58:22.17</time>
      </trkpt>
      <trkpt lat="33.08090166666667" lon="35.162531666666666">
        <ele>150.30000000000004</ele>
        <time>2013-02-12T20:58:23.19</time>
      </trkpt>
      <trkpt lat="33.08090166666667" lon="35.162545">
        <ele>150.20000000000005</ele>
        <time>2013-02-12T20:58:25.17</time>
      </trkpt>
      <trkpt lat="33.08092166666667" lon="35.162555">
        <ele>150.20000000000005</ele>
        <time>2013-02-12T20:58:26.20</time>
      </trkpt>
      <trkpt lat="33.08092333333333" lon="35.162565">
        <ele>149.90000000000003</ele>
        <time>2013-02-12T20:58:27.22</time>
      </trkpt>
      <trkpt lat="33.080931666666665" lon="35.16256333333333">
        <ele>150.10000000000002</ele>
        <time>2013-02-12T20:58:28.17</time>
      </trkpt>
      <trkpt lat="33.08096666666667" lon="35.162585">
        <ele>150.50000000000003</ele>
        <time>2013-02-12T20:58:29.18</time>
      </trkpt>
      <trkpt lat="33.08099" lon="35.162598333333335">
        <ele>151.20000000000002</ele>
        <time>2013-02-12T20:58:30.18</time>
      </trkpt>
      <trkpt lat="33.080995" lon="35.16258833333333">
        <ele>151.3</ele>
        <time>2013-02-12T20:58:31.18</time>
      </trkpt>
      <trkpt lat="33.08101833333333" lon="35.162595">
        <ele>151.8</ele>
        <time>2013-02-12T20:58:32.21</time>
      </trkpt>
      <trkpt lat="33.08103166666667" lon="35.16260166666667">
        <ele>152.5</ele>
        <time>2013-02-12T20:58:33.20</time>
      </trkpt>
      <trkpt lat="33.081048333333335" lon="35.162615">
        <ele>153.7</ele>
        <time>2013-02-12T20:58:34.20</time>
      </trkpt>
      <trkpt lat="33.08105333333334" lon="35.162643333333335">
        <ele>154.2</ele>
        <time>2013-02-12T20:58:35.18</time>
      </trkpt>
      <trkpt lat="33.08105333333334" lon="35.162655">
        <ele>154.39999999999998</ele>
        <time>2013-02-12T20:58:36.18</time>
      </trkpt>
      <trkpt lat="33.08106166666666" lon="35.162681666666664">
        <ele>154.2</ele>
        <time>2013-02-12T20:58:37.17</time>
      </trkpt>
      <trkpt lat="33.081075" lon="35.16269166666667">
        <ele>154</ele>
        <time>2013-02-12T20:58:38.19</time>
      </trkpt>
      <trkpt lat="33.08106333333333" lon="35.162708333333335">
        <ele>154.8</ele>
        <time>2013-02-12T20:58:39.20</time>
      </trkpt>
      <trkpt lat="33.081065" lon="35.16273833333333">
        <ele>154</ele>
        <time>2013-02-12T20:58:40.20</time>
      </trkpt>
      <trkpt lat="33.08107" lon="35.16276666666667">
        <ele>154.1</ele>
        <time>2013-02-12T20:58:41.19</time>
      </trkpt>
      <trkpt lat="33.081105" lon="35.162791666666664">
        <ele>153.2</ele>
        <time>2013-02-12T20:58:42.17</time>
      </trkpt>
      <trkpt lat="33.08114" lon="35.162805">
        <ele>154.29999999999998</ele>
        <time>2013-02-12T20:58:43.18</time>
      </trkpt>
      <trkpt lat="33.08116166666667" lon="35.162805">
        <ele>153.89999999999998</ele>
        <time>2013-02-12T20:58:44.19</time>
      </trkpt>
      <trkpt lat="33.081163333333336" lon="35.16282">
        <ele>153.79999999999998</ele>
        <time>2013-02-12T20:58:45.20</time>
      </trkpt>
      <trkpt lat="33.08117333333333" lon="35.162825">
        <ele>154.79999999999998</ele>
        <time>2013-02-12T20:58:46.20</time>
      </trkpt>
      <trkpt lat="33.08118" lon="35.16284">
        <ele>155.2</ele>
        <time>2013-02-12T20:58:47.18</time>
      </trkpt>
      <trkpt lat="33.08118666666667" lon="35.162863333333334">
        <ele>154.79999999999998</ele>
        <time>2013-02-12T20:58:48.19</time>
      </trkpt>
      <trkpt lat="33.08119166666667" lon="35.162885">
        <ele>154.49999999999997</ele>
        <time>2013-02-12T20:58:49.23</time>
      </trkpt>
      <trkpt lat="33.08119666666666" lon="35.162895">
        <ele>154.59999999999997</ele>
        <time>2013-02-12T20:58:50.20</time>
      </trkpt>
      <trkpt lat="33.081215" lon="35.16291">
        <ele>154.89999999999998</ele>
        <time>2013-02-12T20:58:51.19</time>
      </trkpt>
      <trkpt lat="33.081226666666666" lon="35.16292166666667">
        <ele>154.99999999999997</ele>
        <time>2013-02-12T20:58:52.20</time>
      </trkpt>
      <trkpt lat="33.08121666666667" lon="35.16293">
        <ele>156.49999999999997</ele>
        <time>2013-02-12T20:58:53.19</time>
      </trkpt>
      <trkpt lat="33.081235" lon="35.16293833333334">
        <ele>157.19999999999996</ele>
        <time>2013-02-12T20:58:54.18</time>
      </trkpt>
      <trkpt lat="33.08126333333333" lon="35.162955">
        <ele>159.49999999999997</ele>
        <time>2013-02-12T20:58:55.15</time>
      </trkpt>
      <trkpt lat="33.08127666666667" lon="35.16296666666667">
        <ele>160.59999999999997</ele>
        <time>2013-02-12T20:58:56.15</time>
      </trkpt>
      <trkpt lat="33.081305" lon="35.16298666666667">
        <ele>162.49999999999997</ele>
        <time>2013-02-12T20:58:57.15</time>
      </trkpt>
      <trkpt lat="33.081305" lon="35.163001666666666">
        <ele>162.99999999999997</ele>
        <time>2013-02-12T20:58:58.15</time>
      </trkpt>
      <trkpt lat="33.08132166666667" lon="35.16300833333333">
        <ele>162.69999999999996</ele>
        <time>2013-02-12T20:58:59.16</time>
      </trkpt>
      <trkpt lat="33.08132166666667" lon="35.163021666666666">
        <ele>162.79999999999995</ele>
        <time>2013-02-12T20:59:00.15</time>
      </trkpt>
      <trkpt lat="33.081343333333336" lon="35.16302833333334">
        <ele>162.89999999999995</ele>
        <time>2013-02-12T20:59:01.15</time>
      </trkpt>
      <trkpt lat="33.081365" lon="35.16301166666667">
        <ele>162.99999999999994</ele>
        <time>2013-02-12T20:59:02.15</time>
      </trkpt>
      <trkpt lat="33.081385" lon="35.163015">
        <ele>163.19999999999993</ele>
        <time>2013-02-12T20:59:03.15</time>
      </trkpt>
      <trkpt lat="33.08139" lon="35.16303">
        <ele>164.19999999999993</ele>
        <time>2013-02-12T20:59:05.18</time>
      </trkpt>
      <trkpt lat="33.08139333333333" lon="35.16305666666667">
        <ele>164.29999999999993</ele>
        <time>2013-02-12T20:59:06.19</time>
      </trkpt>
      <trkpt lat="33.081405" lon="35.163063333333334">
        <ele>164.29999999999993</ele>
        <time>2013-02-12T20:59:07.16</time>
      </trkpt>
      <trkpt lat="33.081428333333335" lon="35.163091666666666">
        <ele>164.09999999999994</ele>
        <time>2013-02-12T20:59:08.15</time>
      </trkpt>
      <trkpt lat="33.08146833333333" lon="35.163105">
        <ele>164.29999999999993</ele>
        <time>2013-02-12T20:59:09.18</time>
      </trkpt>
      <trkpt lat="33.08148666666666" lon="35.16311666666667">
        <ele>165.49999999999991</ele>
        <time>2013-02-12T20:59:10.18</time>
      </trkpt>
      <trkpt lat="33.08151" lon="35.16312833333333">
        <ele>166.49999999999991</ele>
        <time>2013-02-12T20:59:11.18</time>
      </trkpt>
      <trkpt lat="33.08152833333333" lon="35.16314">
        <ele>166.49999999999991</ele>
        <time>2013-02-12T20:59:12.23</time>
      </trkpt>
      <trkpt lat="33.08156" lon="35.163155">
        <ele>166.6999999999999</ele>
        <time>2013-02-12T20:59:13.21</time>
      </trkpt>
      <trkpt lat="33.081565" lon="35.16316333333333">
        <ele>166.6999999999999</ele>
        <time>2013-02-12T20:59:14.19</time>
      </trkpt>
      <trkpt lat="33.08156833333334" lon="35.163176666666665">
        <ele>166.6999999999999</ele>
        <time>2013-02-12T20:59:15.20</time>
      </trkpt>
      <trkpt lat="33.08157333333333" lon="35.16319166666667">
        <ele>166.99999999999991</ele>
        <time>2013-02-12T20:59:16.18</time>
      </trkpt>
      <trkpt lat="33.08157833333333" lon="35.163201666666666">
        <ele>167.29999999999993</ele>
        <time>2013-02-12T20:59:17.19</time>
      </trkpt>
      <trkpt lat="33.08159666666667" lon="35.163215">
        <ele>167.19999999999993</ele>
        <time>2013-02-12T20:59:18.20</time>
      </trkpt>
      <trkpt lat="33.0816" lon="35.16322">
        <ele>167.49999999999994</ele>
        <time>2013-02-12T20:59:19.18</time>
      </trkpt>
      <trkpt lat="33.081606666666666" lon="35.163221666666665">
        <ele>168.09999999999994</ele>
        <time>2013-02-12T20:59:20.20</time>
      </trkpt>
      <trkpt lat="33.081608333333335" lon="35.16323333333333">
        <ele>169.29999999999993</ele>
        <time>2013-02-12T20:59:21.19</time>
      </trkpt>
      <trkpt lat="33.08161833333333" lon="35.163246666666666">
        <ele>168.79999999999993</ele>
        <time>2013-02-12T20:59:22.20</time>
      </trkpt>
      <trkpt lat="33.081628333333335" lon="35.16325333333333">
        <ele>168.29999999999993</ele>
        <time>2013-02-12T20:59:23.20</time>
      </trkpt>
      <trkpt lat="33.08163666666667" lon="35.16327666666667">
        <ele>168.29999999999993</ele>
        <time>2013-02-12T20:59:24.25</time>
      </trkpt>
      <trkpt lat="33.081635" lon="35.16328333333333">
        <ele>168.59999999999994</ele>
        <time>2013-02-12T20:59:25.18</time>
      </trkpt>
      <trkpt lat="33.08164166666667" lon="35.163285">
        <ele>168.49999999999994</ele>
        <time>2013-02-12T20:59:26.19</time>
      </trkpt>
      <trkpt lat="33.08165833333333" lon="35.163288333333334">
        <ele>168.09999999999994</ele>
        <time>2013-02-12T20:59:27.19</time>
      </trkpt>
      <trkpt lat="33.08166833333333" lon="35.163286666666664">
        <ele>167.99999999999994</ele>
        <time>2013-02-12T20:59:28.18</time>
      </trkpt>
      <trkpt lat="33.08166833333333" lon="35.16330833333333">
        <ele>168.09999999999994</ele>
        <time>2013-02-12T20:59:29.19</time>
      </trkpt>
      <trkpt lat="33.08168166666667" lon="35.16333">
        <ele>168.29999999999993</ele>
        <time>2013-02-12T20:59:30.20</time>
      </trkpt>
      <trkpt lat="33.08170166666667" lon="35.163335000000004">
        <ele>168.49999999999991</ele>
        <time>2013-02-12T20:59:31.20</time>
      </trkpt>
      <trkpt lat="33.08172666666667" lon="35.163313333333335">
        <ele>168.5999999999999</ele>
        <time>2013-02-12T20:59:32.18</time>
      </trkpt>
      <trkpt lat="33.08173333333333" lon="35.163325">
        <ele>168.5999999999999</ele>
        <time>2013-02-12T20:59:33.18</time>
      </trkpt>
      <trkpt lat="33.081741666666666" lon="35.16334166666667">
        <ele>168.5999999999999</ele>
        <time>2013-02-12T20:59:34.19</time>
      </trkpt>
      <trkpt lat="33.081743333333335" lon="35.163363333333336">
        <ele>168.49999999999991</ele>
        <time>2013-02-12T20:59:35.19</time>
      </trkpt>
      <trkpt lat="33.08175833333333" lon="35.16337">
        <ele>168.5999999999999</ele>
        <time>2013-02-12T20:59:36.21</time>
      </trkpt>
      <trkpt lat="33.08177" lon="35.16339">
        <ele>168.7999999999999</ele>
        <time>2013-02-12T20:59:37.19</time>
      </trkpt>
      <trkpt lat="33.081801666666664" lon="35.163403333333335">
        <ele>169.8</ele>
        <time>2013-02-12T20:59:41.20</time>
      </trkpt>
      <trkpt lat="33.081813333333336" lon="35.16341833333333">
        <ele>171.10000000000002</ele>
        <time>2013-02-12T20:59:42.19</time>
      </trkpt>
      <trkpt lat="33.08182333333333" lon="35.16341666666667">
        <ele>171.10000000000002</ele>
        <time>2013-02-12T20:59:43.19</time>
      </trkpt>
      <trkpt lat="33.081825" lon="35.163425">
        <ele>171.10000000000002</ele>
        <time>2013-02-12T20:59:44.19</time>
      </trkpt>
      <trkpt lat="33.081833333333336" lon="35.163441666666664">
        <ele>170.90000000000003</ele>
        <time>2013-02-12T20:59:45.20</time>
      </trkpt>
      <trkpt lat="33.08183833333333" lon="35.16345333333334">
        <ele>170.00000000000003</ele>
        <time>2013-02-12T20:59:46.18</time>
      </trkpt>
      <trkpt lat="33.08184833333333" lon="35.16346">
        <ele>169.80000000000004</ele>
        <time>2013-02-12T20:59:47.19</time>
      </trkpt>
      <trkpt lat="33.081853333333335" lon="35.163468333333334">
        <ele>169.70000000000005</ele>
        <time>2013-02-12T20:59:48.18</time>
      </trkpt>
      <trkpt lat="33.081853333333335" lon="35.16348166666667">
        <ele>170.00000000000006</ele>
        <time>2013-02-12T20:59:49.19</time>
      </trkpt>
      <trkpt lat="33.08186666666667" lon="35.16349666666667">
        <ele>169.70000000000005</ele>
        <time>2013-02-12T20:59:50.20</time>
      </trkpt>
      <trkpt lat="33.08186833333333" lon="35.163515">
        <ele>169.30000000000004</ele>
        <time>2013-02-12T20:59:51.19</time>
      </trkpt>
      <trkpt lat="33.081885" lon="35.16351">
        <ele>169.50000000000003</ele>
        <time>2013-02-12T20:59:52.20</time>
      </trkpt>
      <trkpt lat="33.08189333333333" lon="35.16352">
        <ele>169.80000000000004</ele>
        <time>2013-02-12T20:59:53.19</time>
      </trkpt>
      <trkpt lat="33.081898333333335" lon="35.16354166666667">
        <ele>169.20000000000005</ele>
        <time>2013-02-12T20:59:55.21</time>
      </trkpt>
      <trkpt lat="33.08189333333333" lon="35.16354666666667">
        <ele>169.70000000000005</ele>
        <time>2013-02-12T20:59:56.20</time>
      </trkpt>
      <trkpt lat="33.08186666666667" lon="35.16355333333333">
        <ele>170.00000000000006</ele>
        <time>2013-02-12T20:59:57.19</time>
      </trkpt>
      <trkpt lat="33.08186833333333" lon="35.163576666666664">
        <ele>170.00000000000006</ele>
        <time>2013-02-12T20:59:59.20</time>
      </trkpt>
      <trkpt lat="33.08185" lon="35.16359333333333">
        <ele>170.30000000000007</ele>
        <time>2013-02-12T21:00:00.18</time>
      </trkpt>
      <trkpt lat="33.08184833333333" lon="35.163608333333336">
        <ele>169.70000000000007</ele>
        <time>2013-02-12T21:00:01.21</time>
      </trkpt>
      <trkpt lat="33.08184333333333" lon="35.163621666666664">
        <ele>170.20000000000007</ele>
        <time>2013-02-12T21:00:02.19</time>
      </trkpt>
      <trkpt lat="33.081833333333336" lon="35.163623333333334">
        <ele>169.90000000000006</ele>
        <time>2013-02-12T21:00:03.20</time>
      </trkpt>
      <trkpt lat="33.081826666666664" lon="35.163626666666666">
        <ele>170.10000000000005</ele>
        <time>2013-02-12T21:00:04.19</time>
      </trkpt>
      <trkpt lat="33.08181666666667" lon="35.16364166666666">
        <ele>169.30000000000004</ele>
        <time>2013-02-12T21:00:05.18</time>
      </trkpt>
      <trkpt lat="33.081815" lon="35.16365166666667">
        <ele>169.30000000000004</ele>
        <time>2013-02-12T21:00:06.18</time>
      </trkpt>
      <trkpt lat="33.08181" lon="35.163665">
        <ele>169.30000000000004</ele>
        <time>2013-02-12T21:00:07.19</time>
      </trkpt>
      <trkpt lat="33.08179333333333" lon="35.163673333333335">
        <ele>169.20000000000005</ele>
        <time>2013-02-12T21:00:08.20</time>
      </trkpt>
      <trkpt lat="33.081788333333336" lon="35.16368666666666">
        <ele>169.00000000000006</ele>
        <time>2013-02-12T21:00:09.18</time>
      </trkpt>
      <trkpt lat="33.08177666666667" lon="35.16368833333333">
        <ele>169.00000000000006</ele>
        <time>2013-02-12T21:00:10.18</time>
      </trkpt>
      <trkpt lat="33.08175833333333" lon="35.16369">
        <ele>169.20000000000005</ele>
        <time>2013-02-12T21:00:11.15</time>
      </trkpt>
      <trkpt lat="33.081735" lon="35.163705">
        <ele>169.40000000000003</ele>
        <time>2013-02-12T21:00:12.15</time>
      </trkpt>
      <trkpt lat="33.081725" lon="35.163735">
        <ele>169.50000000000003</ele>
        <time>2013-02-12T21:00:13.15</time>
      </trkpt>
      <trkpt lat="33.08172666666667" lon="35.163745">
        <ele>169.50000000000003</ele>
        <time>2013-02-12T21:00:14.17</time>
      </trkpt>
      <trkpt lat="33.081736666666664" lon="35.16377333333333">
        <ele>169.30000000000004</ele>
        <time>2013-02-12T21:00:15.16</time>
      </trkpt>
      <trkpt lat="33.08173166666667" lon="35.16379833333333">
        <ele>169.40000000000003</ele>
        <time>2013-02-12T21:00:16.15</time>
      </trkpt>
      <trkpt lat="33.081736666666664" lon="35.163808333333336">
        <ele>169.00000000000003</ele>
        <time>2013-02-12T21:00:17.15</time>
      </trkpt>
      <trkpt lat="33.08173166666667" lon="35.163833333333336">
        <ele>168.50000000000003</ele>
        <time>2013-02-12T21:00:18.17</time>
      </trkpt>
      <trkpt lat="33.08173" lon="35.163851666666666">
        <ele>167.80000000000004</ele>
        <time>2013-02-12T21:00:19.15</time>
      </trkpt>
      <trkpt lat="33.08172166666667" lon="35.16386833333333">
        <ele>167.30000000000004</ele>
        <time>2013-02-12T21:00:20.17</time>
      </trkpt>
      <trkpt lat="33.081738333333334" lon="35.16388333333333">
        <ele>166.80000000000004</ele>
        <time>2013-02-12T21:00:21.18</time>
      </trkpt>
      <trkpt lat="33.081756666666664" lon="35.16391333333333">
        <ele>167.00000000000003</ele>
        <time>2013-02-12T21:00:22.15</time>
      </trkpt>
      <trkpt lat="33.08177166666667" lon="35.16394">
        <ele>167.10000000000002</ele>
        <time>2013-02-12T21:00:23.17</time>
      </trkpt>
      <trkpt lat="33.081784999999996" lon="35.163956666666664">
        <ele>166.90000000000003</ele>
        <time>2013-02-12T21:00:24.15</time>
      </trkpt>
      <trkpt lat="33.081801666666664" lon="35.16396833333334">
        <ele>166.90000000000003</ele>
        <time>2013-02-12T21:00:25.17</time>
      </trkpt>
      <trkpt lat="33.08179" lon="35.163965">
        <ele>166.50000000000003</ele>
        <time>2013-02-12T21:00:26.18</time>
      </trkpt>
      <trkpt lat="33.08181166666667" lon="35.16397333333333">
        <ele>167.40000000000003</ele>
        <time>2013-02-12T21:00:27.15</time>
      </trkpt>
      <trkpt lat="33.081805" lon="35.163988333333336">
        <ele>167.20000000000005</ele>
        <time>2013-02-12T21:00:28.15</time>
      </trkpt>
      <trkpt lat="33.08179666666667" lon="35.16402333333333">
        <ele>167.70000000000005</ele>
        <time>2013-02-12T21:00:29.15</time>
      </trkpt>
      <trkpt lat="33.08179833333333" lon="35.164048333333334">
        <ele>168.30000000000004</ele>
        <time>2013-02-12T21:00:30.17</time>
      </trkpt>
      <trkpt lat="33.081784999999996" lon="35.164091666666664">
        <ele>167.90000000000003</ele>
        <time>2013-02-12T21:00:31.17</time>
      </trkpt>
      <trkpt lat="33.081786666666666" lon="35.164136666666664">
        <ele>166.40000000000003</ele>
        <time>2013-02-12T21:00:32.18</time>
      </trkpt>
      <trkpt lat="33.08179166666667" lon="35.16417666666667">
        <ele>165.50000000000003</ele>
        <time>2013-02-12T21:00:33.17</time>
      </trkpt>
      <trkpt lat="33.08177833333333" lon="35.164225">
        <ele>165.70000000000002</ele>
        <time>2013-02-12T21:00:34.19</time>
      </trkpt>
      <trkpt lat="33.081784999999996" lon="35.16426166666667">
        <ele>165.60000000000002</ele>
        <time>2013-02-12T21:00:35.21</time>
      </trkpt>
      <trkpt lat="33.081775" lon="35.16431166666667">
        <ele>165.60000000000002</ele>
        <time>2013-02-12T21:00:36.23</time>
      </trkpt>
      <trkpt lat="33.081786666666666" lon="35.164323333333336">
        <ele>165.50000000000003</ele>
        <time>2013-02-12T21:00:37.20</time>
      </trkpt>
      <trkpt lat="33.081808333333335" lon="35.16434666666667">
        <ele>164.70000000000002</ele>
        <time>2013-02-12T21:00:38.17</time>
      </trkpt>
      <trkpt lat="33.081826666666664" lon="35.164368333333336">
        <ele>164.20000000000002</ele>
        <time>2013-02-12T21:00:39.19</time>
      </trkpt>
      <trkpt lat="33.08183" lon="35.16438333333333">
        <ele>163.8</ele>
        <time>2013-02-12T21:00:40.21</time>
      </trkpt>
      <trkpt lat="33.08184" lon="35.164413333333336">
        <ele>163.3</ele>
        <time>2013-02-12T21:00:41.20</time>
      </trkpt>
      <trkpt lat="33.08184166666667" lon="35.164426666666664">
        <ele>163</ele>
        <time>2013-02-12T21:00:42.19</time>
      </trkpt>
      <trkpt lat="33.08183833333333" lon="35.16441833333333">
        <ele>162.9</ele>
        <time>2013-02-12T21:00:43.21</time>
      </trkpt>
      <trkpt lat="33.081833333333336" lon="35.16443">
        <ele>162.6</ele>
        <time>2013-02-12T21:00:44.21</time>
      </trkpt>
      <trkpt lat="33.08184333333333" lon="35.16443666666667">
        <ele>162</ele>
        <time>2013-02-12T21:00:45.20</time>
      </trkpt>
      <trkpt lat="33.081833333333336" lon="35.164445">
        <ele>160.9</ele>
        <time>2013-02-12T21:00:46.18</time>
      </trkpt>
      <trkpt lat="33.08186333333333" lon="35.16444166666667">
        <ele>160.8</ele>
        <time>2013-02-12T21:00:47.19</time>
      </trkpt>
      <trkpt lat="33.081873333333334" lon="35.16444666666667">
        <ele>161</ele>
        <time>2013-02-12T21:00:48.19</time>
      </trkpt>
      <trkpt lat="33.08188" lon="35.16444666666667">
        <ele>161.2</ele>
        <time>2013-02-12T21:00:49.21</time>
      </trkpt>
      <trkpt lat="33.08188833333333" lon="35.16445">
        <ele>161.2</ele>
        <time>2013-02-12T21:00:50.20</time>
      </trkpt>
      <trkpt lat="33.081895" lon="35.164453333333334">
        <ele>161.2</ele>
        <time>2013-02-12T21:00:51.19</time>
      </trkpt>
      <trkpt lat="33.081885" lon="35.164455">
        <ele>160.1</ele>
        <time>2013-02-12T21:00:58.19</time>
      </trkpt>
      <trkpt lat="33.08188" lon="35.164453333333334">
        <ele>160.2</ele>
        <time>2013-02-12T21:01:02.18</time>
      </trkpt>
      <trkpt lat="33.08188166666667" lon="35.164503333333336">
        <ele>161.6</ele>
        <time>2013-02-12T21:01:07.19</time>
      </trkpt>
      <trkpt lat="33.08188666666667" lon="35.16452666666667">
        <ele>162.2</ele>
        <time>2013-02-12T21:01:08.19</time>
      </trkpt>
      <trkpt lat="33.0819" lon="35.164555">
        <ele>162.39999999999998</ele>
        <time>2013-02-12T21:01:09.18</time>
      </trkpt>
      <trkpt lat="33.08191333333333" lon="35.16459166666667">
        <ele>163.49999999999997</ele>
        <time>2013-02-12T21:01:10.20</time>
      </trkpt>
      <trkpt lat="33.08190666666667" lon="35.164633333333335">
        <ele>163.69999999999996</ele>
        <time>2013-02-12T21:01:11.19</time>
      </trkpt>
      <trkpt lat="33.08188333333333" lon="35.16466833333333">
        <ele>163.59999999999997</ele>
        <time>2013-02-12T21:01:12.19</time>
      </trkpt>
      <trkpt lat="33.08188166666667" lon="35.16471666666666">
        <ele>163.49999999999997</ele>
        <time>2013-02-12T21:01:13.19</time>
      </trkpt>
      <trkpt lat="33.08186666666667" lon="35.16475">
        <ele>163.99999999999997</ele>
        <time>2013-02-12T21:01:14.20</time>
      </trkpt>
      <trkpt lat="33.08185833333334" lon="35.164786666666664">
        <ele>163.69999999999996</ele>
        <time>2013-02-12T21:01:15.19</time>
      </trkpt>
      <trkpt lat="33.081851666666665" lon="35.16483">
        <ele>164.49999999999997</ele>
        <time>2013-02-12T21:01:16.18</time>
      </trkpt>
      <trkpt lat="33.081846666666664" lon="35.164858333333335">
        <ele>164.79999999999998</ele>
        <time>2013-02-12T21:01:17.18</time>
      </trkpt>
      <trkpt lat="33.08185" lon="35.164881666666666">
        <ele>164.99999999999997</ele>
        <time>2013-02-12T21:01:18.19</time>
      </trkpt>
      <trkpt lat="33.081851666666665" lon="35.164903333333335">
        <ele>165.29999999999998</ele>
        <time>2013-02-12T21:01:19.20</time>
      </trkpt>
      <trkpt lat="33.081851666666665" lon="35.16494333333333">
        <ele>165.49999999999997</ele>
        <time>2013-02-12T21:01:20.20</time>
      </trkpt>
      <trkpt lat="33.08183833333333" lon="35.16495">
        <ele>165.29999999999998</ele>
        <time>2013-02-12T21:01:21.21</time>
      </trkpt>
      <trkpt lat="33.081833333333336" lon="35.164966666666665">
        <ele>165.89999999999998</ele>
        <time>2013-02-12T21:01:22.19</time>
      </trkpt>
      <trkpt lat="33.081826666666664" lon="35.164986666666664">
        <ele>166.09999999999997</ele>
        <time>2013-02-12T21:01:23.19</time>
      </trkpt>
      <trkpt lat="33.08186166666667" lon="35.16502">
        <ele>167.99999999999997</ele>
        <time>2013-02-12T21:01:24.20</time>
      </trkpt>
      <trkpt lat="33.08185" lon="35.165033333333334">
        <ele>169.39999999999998</ele>
        <time>2013-02-12T21:01:25.19</time>
      </trkpt>
      <trkpt lat="33.081805" lon="35.16505">
        <ele>170.09999999999997</ele>
        <time>2013-02-12T21:01:26.19</time>
      </trkpt>
      <trkpt lat="33.08177833333333" lon="35.16506833333333">
        <ele>171.19999999999996</ele>
        <time>2013-02-12T21:01:27.19</time>
      </trkpt>
      <trkpt lat="33.08177" lon="35.165105">
        <ele>172.59999999999997</ele>
        <time>2013-02-12T21:01:28.20</time>
      </trkpt>
      <trkpt lat="33.081743333333335" lon="35.16510666666667">
        <ele>172.69999999999996</ele>
        <time>2013-02-12T21:01:29.20</time>
      </trkpt>
      <trkpt lat="33.081741666666666" lon="35.165123333333334">
        <ele>172.99999999999997</ele>
        <time>2013-02-12T21:01:30.21</time>
      </trkpt>
      <trkpt lat="33.08173333333333" lon="35.165148333333335">
        <ele>172.99999999999997</ele>
        <time>2013-02-12T21:01:31.18</time>
      </trkpt>
      <trkpt lat="33.08173333333333" lon="35.16517">
        <ele>172.59999999999997</ele>
        <time>2013-02-12T21:01:32.20</time>
      </trkpt>
      <trkpt lat="33.08172833333333" lon="35.165195">
        <ele>172.49999999999997</ele>
        <time>2013-02-12T21:01:33.19</time>
      </trkpt>
      <trkpt lat="33.08170333333333" lon="35.16520666666667">
        <ele>172.69999999999996</ele>
        <time>2013-02-12T21:01:34.18</time>
      </trkpt>
      <trkpt lat="33.08167666666667" lon="35.16522166666667">
        <ele>172.99999999999997</ele>
        <time>2013-02-12T21:01:35.20</time>
      </trkpt>
      <trkpt lat="33.081655" lon="35.16522833333333">
        <ele>173.19999999999996</ele>
        <time>2013-02-12T21:01:36.18</time>
      </trkpt>
      <trkpt lat="33.081646666666664" lon="35.16524">
        <ele>172.99999999999997</ele>
        <time>2013-02-12T21:01:37.20</time>
      </trkpt>
      <trkpt lat="33.08162" lon="35.165236666666665">
        <ele>172.99999999999997</ele>
        <time>2013-02-12T21:01:38.18</time>
      </trkpt>
      <trkpt lat="33.08159" lon="35.165245">
        <ele>172.99999999999997</ele>
        <time>2013-02-12T21:01:39.19</time>
      </trkpt>
      <trkpt lat="33.08156" lon="35.165255">
        <ele>173.19999999999996</ele>
        <time>2013-02-12T21:01:40.18</time>
      </trkpt>
      <trkpt lat="33.08154" lon="35.165263333333336">
        <ele>173.39999999999995</ele>
        <time>2013-02-12T21:01:41.18</time>
      </trkpt>
      <trkpt lat="33.081515" lon="35.165276666666664">
        <ele>173.69999999999996</ele>
        <time>2013-02-12T21:01:42.20</time>
      </trkpt>
      <trkpt lat="33.081496666666666" lon="35.16529833333333">
        <ele>174.19999999999996</ele>
        <time>2013-02-12T21:01:43.19</time>
      </trkpt>
      <trkpt lat="33.081466666666664" lon="35.16531333333333">
        <ele>174.39999999999995</ele>
        <time>2013-02-12T21:01:44.20</time>
      </trkpt>
      <trkpt lat="33.08142" lon="35.16534333333333">
        <ele>174.29999999999995</ele>
        <time>2013-02-12T21:01:45.19</time>
      </trkpt>
      <trkpt lat="33.08139333333333" lon="35.165365">
        <ele>174.29999999999995</ele>
        <time>2013-02-12T21:01:46.20</time>
      </trkpt>
      <trkpt lat="33.08136" lon="35.165393333333334">
        <ele>174.29999999999995</ele>
        <time>2013-02-12T21:01:47.19</time>
      </trkpt>
      <trkpt lat="33.081335" lon="35.16540666666667">
        <ele>174.19999999999996</ele>
        <time>2013-02-12T21:01:48.21</time>
      </trkpt>
      <trkpt lat="33.081285" lon="35.16543">
        <ele>173.99999999999997</ele>
        <time>2013-02-12T21:01:49.16</time>
      </trkpt>
      <trkpt lat="33.08128166666667" lon="35.165465">
        <ele>174.09999999999997</ele>
        <time>2013-02-12T21:01:50.15</time>
      </trkpt>
      <trkpt lat="33.081235" lon="35.165475">
        <ele>174.29999999999995</ele>
        <time>2013-02-12T21:01:51.18</time>
      </trkpt>
      <trkpt lat="33.081221666666664" lon="35.165485">
        <ele>174.29999999999995</ele>
        <time>2013-02-12T21:01:52.16</time>
      </trkpt>
      <trkpt lat="33.081175" lon="35.16549">
        <ele>174.39999999999995</ele>
        <time>2013-02-12T21:01:53.15</time>
      </trkpt>
      <trkpt lat="33.08114" lon="35.165506666666666">
        <ele>174.39999999999995</ele>
        <time>2013-02-12T21:01:54.15</time>
      </trkpt>
      <trkpt lat="33.08110666666666" lon="35.16551333333334">
        <ele>174.39999999999995</ele>
        <time>2013-02-12T21:01:55.17</time>
      </trkpt>
      <trkpt lat="33.08107666666667" lon="35.16555">
        <ele>174.59999999999994</ele>
        <time>2013-02-12T21:01:56.18</time>
      </trkpt>
      <trkpt lat="33.08106166666666" lon="35.165548333333334">
        <ele>174.39999999999995</ele>
        <time>2013-02-12T21:01:57.15</time>
      </trkpt>
      <trkpt lat="33.081048333333335" lon="35.16557">
        <ele>174.09999999999994</ele>
        <time>2013-02-12T21:01:58.17</time>
      </trkpt>
      <trkpt lat="33.08103666666667" lon="35.16558833333333">
        <ele>174.19999999999993</ele>
        <time>2013-02-12T21:01:59.19</time>
      </trkpt>
      <trkpt lat="33.08101166666667" lon="35.16561166666666">
        <ele>174.29999999999993</ele>
        <time>2013-02-12T21:02:00.15</time>
      </trkpt>
      <trkpt lat="33.08100666666667" lon="35.165661666666665">
        <ele>174.59999999999994</ele>
        <time>2013-02-12T21:02:01.17</time>
      </trkpt>
      <trkpt lat="33.08099166666667" lon="35.16570333333333">
        <ele>174.19999999999993</ele>
        <time>2013-02-12T21:02:02.15</time>
      </trkpt>
      <trkpt lat="33.080931666666665" lon="35.165728333333334">
        <ele>173.89999999999992</ele>
        <time>2013-02-12T21:02:03.17</time>
      </trkpt>
      <trkpt lat="33.08090833333333" lon="35.16576833333333">
        <ele>174.29999999999993</ele>
        <time>2013-02-12T21:02:04.17</time>
      </trkpt>
      <trkpt lat="33.080866666666665" lon="35.16575">
        <ele>173.99999999999991</ele>
        <time>2013-02-12T21:02:05.14</time>
      </trkpt>
      <trkpt lat="33.080846666666666" lon="35.16578">
        <ele>174.6999999999999</ele>
        <time>2013-02-12T21:02:06.17</time>
      </trkpt>
      <trkpt lat="33.080828333333336" lon="35.16580833333333">
        <ele>174.8999999999999</ele>
        <time>2013-02-12T21:02:07.17</time>
      </trkpt>
      <trkpt lat="33.080805" lon="35.16582">
        <ele>175.1999999999999</ele>
        <time>2013-02-12T21:02:08.17</time>
      </trkpt>
      <trkpt lat="33.0808" lon="35.165825">
        <ele>175.0999999999999</ele>
        <time>2013-02-12T21:02:09.17</time>
      </trkpt>
      <trkpt lat="33.080796666666664" lon="35.165866666666666">
        <ele>174.7999999999999</ele>
        <time>2013-02-12T21:02:10.23</time>
      </trkpt>
      <trkpt lat="33.080776666666665" lon="35.165886666666665">
        <ele>174.5999999999999</ele>
        <time>2013-02-12T21:02:11.19</time>
      </trkpt>
      <trkpt lat="33.080753333333334" lon="35.16590333333333">
        <ele>174.2999999999999</ele>
        <time>2013-02-12T21:02:12.18</time>
      </trkpt>
      <trkpt lat="33.08071833333333" lon="35.165911666666666">
        <ele>173.2999999999999</ele>
        <time>2013-02-12T21:02:13.18</time>
      </trkpt>
      <trkpt lat="33.080695" lon="35.165908333333334">
        <ele>174.4999999999999</ele>
        <time>2013-02-12T21:02:14.20</time>
      </trkpt>
      <trkpt lat="33.080668333333335" lon="35.16591">
        <ele>174.19999999999987</ele>
        <time>2013-02-12T21:02:15.17</time>
      </trkpt>
      <trkpt lat="33.08065666666667" lon="35.165915">
        <ele>173.89999999999986</ele>
        <time>2013-02-12T21:02:16.15</time>
      </trkpt>
      <trkpt lat="33.080641666666665" lon="35.165931666666665">
        <ele>173.89999999999986</ele>
        <time>2013-02-12T21:02:17.17</time>
      </trkpt>
      <trkpt lat="33.08062666666667" lon="35.16594666666666">
        <ele>173.49999999999986</ele>
        <time>2013-02-12T21:02:18.17</time>
      </trkpt>
      <trkpt lat="33.08060166666667" lon="35.165953333333334">
        <ele>173.09999999999985</ele>
        <time>2013-02-12T21:02:19.17</time>
      </trkpt>
      <trkpt lat="33.080571666666664" lon="35.16596166666667">
        <ele>173.29999999999984</ele>
        <time>2013-02-12T21:02:20.17</time>
      </trkpt>
      <trkpt lat="33.08054166666667" lon="35.165976666666666">
        <ele>173.59999999999985</ele>
        <time>2013-02-12T21:02:21.21</time>
      </trkpt>
      <trkpt lat="33.080511666666666" lon="35.165998333333334">
        <ele>173.39999999999986</ele>
        <time>2013-02-12T21:02:22.16</time>
      </trkpt>
      <trkpt lat="33.08047833333333" lon="35.166005">
        <ele>173.39999999999986</ele>
        <time>2013-02-12T21:02:23.17</time>
      </trkpt>
      <trkpt lat="33.080443333333335" lon="35.166018333333334">
        <ele>173.19999999999987</ele>
        <time>2013-02-12T21:02:24.18</time>
      </trkpt>
      <trkpt lat="33.080425" lon="35.16603166666667">
        <ele>173.09999999999988</ele>
        <time>2013-02-12T21:02:25.18</time>
      </trkpt>
      <trkpt lat="33.08036166666667" lon="35.16608333333333">
        <ele>172.8999999999999</ele>
        <time>2013-02-12T21:02:26.17</time>
      </trkpt>
      <trkpt lat="33.08031666666667" lon="35.16612">
        <ele>171.7999999999999</ele>
        <time>2013-02-12T21:02:27.17</time>
      </trkpt>
      <trkpt lat="33.080288333333336" lon="35.16612333333333">
        <ele>171.1999999999999</ele>
        <time>2013-02-12T21:02:28.18</time>
      </trkpt>
      <trkpt lat="33.08026" lon="35.16614666666667">
        <ele>171.3999999999999</ele>
        <time>2013-02-12T21:02:29.16</time>
      </trkpt>
      <trkpt lat="33.08021166666666" lon="35.16616">
        <ele>171.09999999999988</ele>
        <time>2013-02-12T21:02:30.23</time>
      </trkpt>
      <trkpt lat="33.080146666666664" lon="35.16621">
        <ele>170.8999999999999</ele>
        <time>2013-02-12T21:02:31.22</time>
      </trkpt>
      <trkpt lat="33.08007833333333" lon="35.166198333333334">
        <ele>170.7999999999999</ele>
        <time>2013-02-12T21:02:32.17</time>
      </trkpt>
      <trkpt lat="33.08002833333333" lon="35.166225">
        <ele>170.4999999999999</ele>
        <time>2013-02-12T21:02:33.16</time>
      </trkpt>
      <trkpt lat="33.079995" lon="35.16623">
        <ele>170.2999999999999</ele>
        <time>2013-02-12T21:02:34.14</time>
      </trkpt>
      <trkpt lat="33.079948333333334" lon="35.166221666666665">
        <ele>170.2999999999999</ele>
        <time>2013-02-12T21:02:35.17</time>
      </trkpt>
      <trkpt lat="33.079903333333334" lon="35.166225">
        <ele>169.7999999999999</ele>
        <time>2013-02-12T21:02:36.17</time>
      </trkpt>
      <trkpt lat="33.07986666666667" lon="35.166228333333336">
        <ele>168.5999999999999</ele>
        <time>2013-02-12T21:02:37.18</time>
      </trkpt>
      <trkpt lat="33.07986833333333" lon="35.16622">
        <ele>167.89999999999992</ele>
        <time>2013-02-12T21:02:38.16</time>
      </trkpt>
      <trkpt lat="33.079836666666665" lon="35.166221666666665">
        <ele>167.99999999999991</ele>
        <time>2013-02-12T21:02:39.23</time>
      </trkpt>
      <trkpt lat="33.07980666666667" lon="35.166223333333335">
        <ele>167.99999999999991</ele>
        <time>2013-02-12T21:02:40.21</time>
      </trkpt>
      <trkpt lat="33.079768333333334" lon="35.166215">
        <ele>168.39999999999992</ele>
        <time>2013-02-12T21:02:41.17</time>
      </trkpt>
      <trkpt lat="33.079748333333335" lon="35.16623">
        <ele>168.39999999999992</ele>
        <time>2013-02-12T21:02:42.17</time>
      </trkpt>
      <trkpt lat="33.07973833333333" lon="35.16623333333333">
        <ele>168.19999999999993</ele>
        <time>2013-02-12T21:02:43.17</time>
      </trkpt>
      <trkpt lat="33.079735" lon="35.166225">
        <ele>168.79999999999993</ele>
        <time>2013-02-12T21:02:44.17</time>
      </trkpt>
      <trkpt lat="33.07974166666666" lon="35.16623166666667">
        <ele>168.69999999999993</ele>
        <time>2013-02-12T21:02:45.66</time>
      </trkpt>
      <trkpt lat="33.079746666666665" lon="35.16623">
        <ele>168.89999999999992</ele>
        <time>2013-02-12T21:02:46.16</time>
      </trkpt>
      <trkpt lat="33.079753333333336" lon="35.16623333333333">
        <ele>168.8</ele>
        <time>2013-02-12T21:02:53.17</time>
      </trkpt>
      <trkpt lat="33.07975" lon="35.16623833333333">
        <ele>168.6</ele>
        <time>2013-02-12T21:03:14.20</time>
      </trkpt>
      <trkpt lat="33.079748333333335" lon="35.16624">
        <ele>168.6</ele>
        <time>2013-02-12T21:03:21.19</time>
      </trkpt>
      <trkpt lat="33.07973833333333" lon="35.166243333333334">
        <ele>168.79999999999998</ele>
        <time>2013-02-12T21:03:22.17</time>
      </trkpt>
      <trkpt lat="33.07967166666667" lon="35.166311666666665">
        <ele>169.6</ele>
        <time>2013-02-12T21:03:23.16</time>
      </trkpt>
      <trkpt lat="33.079575" lon="35.166365">
        <ele>170</ele>
        <time>2013-02-12T21:03:24.17</time>
      </trkpt>
      <trkpt lat="33.079503333333335" lon="35.166403333333335">
        <ele>170</ele>
        <time>2013-02-12T21:03:25.17</time>
      </trkpt>
      <trkpt lat="33.079435" lon="35.16641">
        <ele>169.7</ele>
        <time>2013-02-12T21:03:26.17</time>
      </trkpt>
      <trkpt lat="33.07936333333333" lon="35.16641166666667">
        <ele>169</ele>
        <time>2013-02-12T21:03:27.18</time>
      </trkpt>
      <trkpt lat="33.079283333333336" lon="35.16641166666667">
        <ele>169</ele>
        <time>2013-02-12T21:03:28.17</time>
      </trkpt>
      <trkpt lat="33.079188333333335" lon="35.16642">
        <ele>168.5</ele>
        <time>2013-02-12T21:03:29.18</time>
      </trkpt>
      <trkpt lat="33.07909166666666" lon="35.166448333333335">
        <ele>168.1</ele>
        <time>2013-02-12T21:03:30.14</time>
      </trkpt>
      <trkpt lat="33.079026666666664" lon="35.16646">
        <ele>168.29999999999998</ele>
        <time>2013-02-12T21:03:31.15</time>
      </trkpt>
      <trkpt lat="33.07897" lon="35.166465">
        <ele>168.79999999999998</ele>
        <time>2013-02-12T21:03:32.17</time>
      </trkpt>
      <trkpt lat="33.078923333333336" lon="35.16645833333333">
        <ele>167.99999999999997</ele>
        <time>2013-02-12T21:03:33.18</time>
      </trkpt>
      <trkpt lat="33.078885" lon="35.16646333333333">
        <ele>167.39999999999998</ele>
        <time>2013-02-12T21:03:34.17</time>
      </trkpt>
      <trkpt lat="33.078851666666665" lon="35.16648">
        <ele>167.39999999999998</ele>
        <time>2013-02-12T21:03:35.16</time>
      </trkpt>
      <trkpt lat="33.07881833333333" lon="35.16648333333333">
        <ele>167.2</ele>
        <time>2013-02-12T21:03:36.17</time>
      </trkpt>
      <trkpt lat="33.07879" lon="35.166516666666666">
        <ele>167.2</ele>
        <time>2013-02-12T21:03:37.17</time>
      </trkpt>
      <trkpt lat="33.078695" lon="35.166535">
        <ele>168.1</ele>
        <time>2013-02-12T21:03:38.20</time>
      </trkpt>
      <trkpt lat="33.07866833333333" lon="35.16657">
        <ele>168.2</ele>
        <time>2013-02-12T21:03:39.22</time>
      </trkpt>
      <trkpt lat="33.078635" lon="35.16659666666666">
        <ele>167.89999999999998</ele>
        <time>2013-02-12T21:03:40.16</time>
      </trkpt>
      <trkpt lat="33.078605" lon="35.16663166666667">
        <ele>167.99999999999997</ele>
        <time>2013-02-12T21:03:41.19</time>
      </trkpt>
      <trkpt lat="33.07854833333333" lon="35.16664">
        <ele>167.39999999999998</ele>
        <time>2013-02-12T21:03:42.17</time>
      </trkpt>
      <trkpt lat="33.07852833333333" lon="35.166645">
        <ele>167.39999999999998</ele>
        <time>2013-02-12T21:03:43.17</time>
      </trkpt>
      <trkpt lat="33.07851333333333" lon="35.16665">
        <ele>167.29999999999998</ele>
        <time>2013-02-12T21:03:44.17</time>
      </trkpt>
      <trkpt lat="33.07847833333334" lon="35.166653333333336">
        <ele>167.6</ele>
        <time>2013-02-12T21:03:45.17</time>
      </trkpt>
      <trkpt lat="33.078453333333336" lon="35.16665166666667">
        <ele>167.29999999999998</ele>
        <time>2013-02-12T21:03:46.17</time>
      </trkpt>
      <trkpt lat="33.07843666666667" lon="35.166666666666664">
        <ele>167.2</ele>
        <time>2013-02-12T21:03:47.18</time>
      </trkpt>
      <trkpt lat="33.078408333333336" lon="35.16666166666667">
        <ele>167.1</ele>
        <time>2013-02-12T21:03:48.17</time>
      </trkpt>
      <trkpt lat="33.07836666666667" lon="35.166655">
        <ele>167.2</ele>
        <time>2013-02-12T21:03:49.25</time>
      </trkpt>
      <trkpt lat="33.078343333333336" lon="35.16665666666667">
        <ele>167.2</ele>
        <time>2013-02-12T21:03:50.20</time>
      </trkpt>
      <trkpt lat="33.078315" lon="35.166625">
        <ele>167.29999999999998</ele>
        <time>2013-02-12T21:03:51.17</time>
      </trkpt>
      <trkpt lat="33.078335" lon="35.16664333333333">
        <ele>167.39999999999998</ele>
        <time>2013-02-12T21:03:52.17</time>
      </trkpt>
      <trkpt lat="33.078343333333336" lon="35.16666333333333">
        <ele>167.29999999999998</ele>
        <time>2013-02-12T21:03:53.22</time>
      </trkpt>
      <trkpt lat="33.078336666666665" lon="35.16665833333333">
        <ele>167.1</ele>
        <time>2013-02-12T21:03:54.17</time>
      </trkpt>
      <trkpt lat="33.078316666666666" lon="35.16668166666667">
        <ele>167.1</ele>
        <time>2013-02-12T21:03:55.28</time>
      </trkpt>
      <trkpt lat="33.078331666666664" lon="35.16672">
        <ele>166.9</ele>
        <time>2013-02-12T21:03:56.26</time>
      </trkpt>
      <trkpt lat="33.078335" lon="35.166755">
        <ele>166.6</ele>
        <time>2013-02-12T21:03:57.18</time>
      </trkpt>
      <trkpt lat="33.07832" lon="35.166763333333336">
        <ele>166.29999999999998</ele>
        <time>2013-02-12T21:03:58.16</time>
      </trkpt>
      <trkpt lat="33.07832666666667" lon="35.166776666666664">
        <ele>165.99999999999997</ele>
        <time>2013-02-12T21:03:59.16</time>
      </trkpt>
      <trkpt lat="33.078313333333334" lon="35.16678666666667">
        <ele>166.09999999999997</ele>
        <time>2013-02-12T21:04:00.14</time>
      </trkpt>
      <trkpt lat="33.0783" lon="35.166795">
        <ele>166.19999999999996</ele>
        <time>2013-02-12T21:04:01.17</time>
      </trkpt>
      <trkpt lat="33.07828166666667" lon="35.16677833333333">
        <ele>166.09999999999997</ele>
        <time>2013-02-12T21:04:02.18</time>
      </trkpt>
      <trkpt lat="33.07825666666667" lon="35.16676">
        <ele>165.99999999999997</ele>
        <time>2013-02-12T21:04:03.17</time>
      </trkpt>
      <trkpt lat="33.07825166666667" lon="35.16677833333333">
        <ele>165.99999999999997</ele>
        <time>2013-02-12T21:04:04.16</time>
      </trkpt>
      <trkpt lat="33.07823666666667" lon="35.16678666666667">
        <ele>165.99999999999997</ele>
        <time>2013-02-12T21:04:05.16</time>
      </trkpt>
      <trkpt lat="33.078226666666666" lon="35.166788333333336">
        <ele>166.19999999999996</ele>
        <time>2013-02-12T21:04:06.17</time>
      </trkpt>
      <trkpt lat="33.07821666666667" lon="35.16676666666667">
        <ele>165.99999999999997</ele>
        <time>2013-02-12T21:04:07.26</time>
      </trkpt>
      <trkpt lat="33.07821" lon="35.166745">
        <ele>165.99999999999997</ele>
        <time>2013-02-12T21:04:08.16</time>
      </trkpt>
      <trkpt lat="33.078201666666665" lon="35.16674">
        <ele>165.99999999999997</ele>
        <time>2013-02-12T21:04:09.16</time>
      </trkpt>
      <trkpt lat="33.07819333333333" lon="35.166743333333336">
        <ele>165.89999999999998</ele>
        <time>2013-02-12T21:04:10.17</time>
      </trkpt>
      <trkpt lat="33.078181666666666" lon="35.16675333333333">
        <ele>165.89999999999998</ele>
        <time>2013-02-12T21:04:11.18</time>
      </trkpt>
      <trkpt lat="33.07817333333333" lon="35.16675">
        <ele>165.89999999999998</ele>
        <time>2013-02-12T21:04:12.19</time>
      </trkpt>
      <trkpt lat="33.07817166666667" lon="35.166711666666664">
        <ele>165.89999999999998</ele>
        <time>2013-02-12T21:04:13.23</time>
      </trkpt>
      <trkpt lat="33.07816666666667" lon="35.166675">
        <ele>165.89999999999998</ele>
        <time>2013-02-12T21:04:14.19</time>
      </trkpt>
      <trkpt lat="33.07816166666667" lon="35.16667">
        <ele>165.89999999999998</ele>
        <time>2013-02-12T21:04:15.20</time>
      </trkpt>
      <trkpt lat="33.07815" lon="35.1667">
        <ele>165.89999999999998</ele>
        <time>2013-02-12T21:04:16.19</time>
      </trkpt>
      <trkpt lat="33.07814166666667" lon="35.166698333333336">
        <ele>165.99999999999997</ele>
        <time>2013-02-12T21:04:17.18</time>
      </trkpt>
      <trkpt lat="33.078135" lon="35.166691666666665">
        <ele>165.99999999999997</ele>
        <time>2013-02-12T21:04:18.19</time>
      </trkpt>
      <trkpt lat="33.07812833333333" lon="35.166693333333335">
        <ele>165.99999999999997</ele>
        <time>2013-02-12T21:04:19.18</time>
      </trkpt>
      <trkpt lat="33.078118333333336" lon="35.16670666666667">
        <ele>165.99999999999997</ele>
        <time>2013-02-12T21:04:20.20</time>
      </trkpt>
      <trkpt lat="33.078075" lon="35.166718333333336">
        <ele>165.99999999999997</ele>
        <time>2013-02-12T21:04:21.19</time>
      </trkpt>
      <trkpt lat="33.07805" lon="35.16681166666667">
        <ele>165.99999999999997</ele>
        <time>2013-02-12T21:04:22.20</time>
      </trkpt>
      <trkpt lat="33.07807" lon="35.166826666666665">
        <ele>165.69999999999996</ele>
        <time>2013-02-12T21:04:23.18</time>
      </trkpt>
      <trkpt lat="33.078048333333335" lon="35.16683833333333">
        <ele>165.69999999999996</ele>
        <time>2013-02-12T21:04:24.19</time>
      </trkpt>
      <trkpt lat="33.07806" lon="35.16685666666667">
        <ele>164.89999999999995</ele>
        <time>2013-02-12T21:04:25.18</time>
      </trkpt>
      <trkpt lat="33.078115" lon="35.166893333333334">
        <ele>159.39999999999995</ele>
        <time>2013-02-12T21:04:26.18</time>
      </trkpt>
      <trkpt lat="33.078116666666666" lon="35.16688666666667">
        <ele>159.79999999999995</ele>
        <time>2013-02-12T21:04:27.18</time>
      </trkpt>
      <trkpt lat="33.078118333333336" lon="35.16690333333333">
        <ele>159.69999999999996</ele>
        <time>2013-02-12T21:04:28.19</time>
      </trkpt>
      <trkpt lat="33.078118333333336" lon="35.166943333333336">
        <ele>159.09999999999997</ele>
        <time>2013-02-12T21:04:29.19</time>
      </trkpt>
      <trkpt lat="33.078105" lon="35.16695">
        <ele>158.79999999999995</ele>
        <time>2013-02-12T21:04:30.18</time>
      </trkpt>
      <trkpt lat="33.07807833333333" lon="35.166938333333334">
        <ele>158.79999999999995</ele>
        <time>2013-02-12T21:04:31.18</time>
      </trkpt>
      <trkpt lat="33.078075" lon="35.16695833333333">
        <ele>158.49999999999994</ele>
        <time>2013-02-12T21:04:32.18</time>
      </trkpt>
      <trkpt lat="33.078066666666665" lon="35.166956666666664">
        <ele>158.39999999999995</ele>
        <time>2013-02-12T21:04:33.21</time>
      </trkpt>
      <trkpt lat="33.078046666666665" lon="35.16697166666667">
        <ele>158.19999999999996</ele>
        <time>2013-02-12T21:04:34.21</time>
      </trkpt>
      <trkpt lat="33.07802" lon="35.16698">
        <ele>158.09999999999997</ele>
        <time>2013-02-12T21:04:35.19</time>
      </trkpt>
      <trkpt lat="33.078" lon="35.166981666666665">
        <ele>157.99999999999997</ele>
        <time>2013-02-12T21:04:36.18</time>
      </trkpt>
      <trkpt lat="33.077985" lon="35.16699333333333">
        <ele>156.49999999999997</ele>
        <time>2013-02-12T21:04:37.16</time>
      </trkpt>
      <trkpt lat="33.077976666666665" lon="35.166995">
        <ele>156.59999999999997</ele>
        <time>2013-02-12T21:04:38.17</time>
      </trkpt>
      <trkpt lat="33.077951666666664" lon="35.16697333333333">
        <ele>156.89999999999998</ele>
        <time>2013-02-12T21:04:39.17</time>
      </trkpt>
      <trkpt lat="33.077938333333336" lon="35.16696666666667">
        <ele>156.89999999999998</ele>
        <time>2013-02-12T21:04:41.18</time>
      </trkpt>
      <trkpt lat="33.07792833333333" lon="35.166965">
        <ele>156.59999999999997</ele>
        <time>2013-02-12T21:04:42.18</time>
      </trkpt>
      <trkpt lat="33.077933333333334" lon="35.16697833333333">
        <ele>157.1</ele>
        <time>2013-02-12T21:04:49.19</time>
      </trkpt>
      <trkpt lat="33.077938333333336" lon="35.16698">
        <ele>156.7</ele>
        <time>2013-02-12T21:05:12.22</time>
      </trkpt>
      <trkpt lat="33.07794" lon="35.166981666666665">
        <ele>156.7</ele>
        <time>2013-02-12T21:05:19.17</time>
      </trkpt>
      <trkpt lat="33.077938333333336" lon="35.166988333333336">
        <ele>156.9</ele>
        <time>2013-02-12T21:05:52.17</time>
      </trkpt>
      <trkpt lat="33.077936666666666" lon="35.166988333333336">
        <ele>156.9</ele>
        <time>2013-02-12T21:05:59.22</time>
      </trkpt>
      <trkpt lat="33.07792333333333" lon="35.166986666666666">
        <ele>157.1</ele>
        <time>2013-02-12T21:06:10.17</time>
      </trkpt>
      <trkpt lat="33.077875" lon="35.16705833333334">
        <ele>157.29999999999998</ele>
        <time>2013-02-12T21:06:11.16</time>
      </trkpt>
      <trkpt lat="33.07783666666667" lon="35.16711166666666">
        <ele>157.29999999999998</ele>
        <time>2013-02-12T21:06:12.17</time>
      </trkpt>
      <trkpt lat="33.077783333333336" lon="35.167123333333336">
        <ele>157.2</ele>
        <time>2013-02-12T21:06:13.32</time>
      </trkpt>
      <trkpt lat="33.07774166666667" lon="35.16715333333333">
        <ele>157.6</ele>
        <time>2013-02-12T21:06:14.29</time>
      </trkpt>
      <trkpt lat="33.07767333333334" lon="35.167201666666664">
        <ele>157.9</ele>
        <time>2013-02-12T21:06:15.22</time>
      </trkpt>
      <trkpt lat="33.07758666666667" lon="35.16719">
        <ele>157.5</ele>
        <time>2013-02-12T21:06:16.22</time>
      </trkpt>
      <trkpt lat="33.077533333333335" lon="35.167181666666664">
        <ele>156.9</ele>
        <time>2013-02-12T21:06:17.20</time>
      </trkpt>
      <trkpt lat="33.07745" lon="35.167168333333336">
        <ele>157.1</ele>
        <time>2013-02-12T21:06:18.16</time>
      </trkpt>
      <trkpt lat="33.07739333333333" lon="35.167161666666665">
        <ele>157.1</ele>
        <time>2013-02-12T21:06:19.17</time>
      </trkpt>
      <trkpt lat="33.077355" lon="35.16717166666667">
        <ele>157</ele>
        <time>2013-02-12T21:06:20.17</time>
      </trkpt>
      <trkpt lat="33.077305" lon="35.16717">
        <ele>156.7</ele>
        <time>2013-02-12T21:06:21.32</time>
      </trkpt>
      <trkpt lat="33.07727333333333" lon="35.16715">
        <ele>156.5</ele>
        <time>2013-02-12T21:06:22.20</time>
      </trkpt>
      <trkpt lat="33.077245" lon="35.16715333333333">
        <ele>156.6</ele>
        <time>2013-02-12T21:06:23.17</time>
      </trkpt>
      <trkpt lat="33.07721166666666" lon="35.167141666666666">
        <ele>156.5</ele>
        <time>2013-02-12T21:06:24.17</time>
      </trkpt>
      <trkpt lat="33.077195" lon="35.16715333333333">
        <ele>156.2</ele>
        <time>2013-02-12T21:06:25.17</time>
      </trkpt>
      <trkpt lat="33.077173333333334" lon="35.167181666666664">
        <ele>156.1</ele>
        <time>2013-02-12T21:06:26.16</time>
      </trkpt>
      <trkpt lat="33.07714166666667" lon="35.16716666666667">
        <ele>156</ele>
        <time>2013-02-12T21:06:28.17</time>
      </trkpt>
      <trkpt lat="33.07713833333333" lon="35.167206666666665">
        <ele>156</ele>
        <time>2013-02-12T21:06:29.17</time>
      </trkpt>
      <trkpt lat="33.077131666666666" lon="35.16725">
        <ele>156</ele>
        <time>2013-02-12T21:06:30.14</time>
      </trkpt>
      <trkpt lat="33.07710333333333" lon="35.16723">
        <ele>155.9</ele>
        <time>2013-02-12T21:06:31.14</time>
      </trkpt>
      <trkpt lat="33.077086666666666" lon="35.16723">
        <ele>155.9</ele>
        <time>2013-02-12T21:06:32.17</time>
      </trkpt>
      <trkpt lat="33.077075" lon="35.167233333333336">
        <ele>155.6</ele>
        <time>2013-02-12T21:06:33.21</time>
      </trkpt>
      <trkpt lat="33.07704" lon="35.16726833333333">
        <ele>155.79999999999998</ele>
        <time>2013-02-12T21:06:34.17</time>
      </trkpt>
      <trkpt lat="33.07698666666667" lon="35.16726833333333">
        <ele>155.7</ele>
        <time>2013-02-12T21:06:35.18</time>
      </trkpt>
      <trkpt lat="33.07696833333333" lon="35.16725666666667">
        <ele>155.6</ele>
        <time>2013-02-12T21:06:36.22</time>
      </trkpt>
      <trkpt lat="33.076951666666666" lon="35.16726166666667">
        <ele>155.5</ele>
        <time>2013-02-12T21:06:37.15</time>
      </trkpt>
      <trkpt lat="33.07691166666667" lon="35.16726333333333">
        <ele>155.4</ele>
        <time>2013-02-12T21:06:38.15</time>
      </trkpt>
      <trkpt lat="33.07689" lon="35.16731166666667">
        <ele>155.4</ele>
        <time>2013-02-12T21:06:39.18</time>
      </trkpt>
      <trkpt lat="33.07686666666667" lon="35.167335">
        <ele>155</ele>
        <time>2013-02-12T21:06:40.16</time>
      </trkpt>
      <trkpt lat="33.076838333333335" lon="35.167345">
        <ele>154.3</ele>
        <time>2013-02-12T21:06:41.17</time>
      </trkpt>
      <trkpt lat="33.076825" lon="35.16734666666667">
        <ele>154.4</ele>
        <time>2013-02-12T21:06:42.17</time>
      </trkpt>
      <trkpt lat="33.07681" lon="35.16733">
        <ele>154.5</ele>
        <time>2013-02-12T21:06:43.17</time>
      </trkpt>
      <trkpt lat="33.07680666666667" lon="35.167335">
        <ele>154.4</ele>
        <time>2013-02-12T21:06:44.17</time>
      </trkpt>
      <trkpt lat="33.076795" lon="35.16734">
        <ele>154.70000000000002</ele>
        <time>2013-02-12T21:06:45.17</time>
      </trkpt>
      <trkpt lat="33.07679" lon="35.16733833333333">
        <ele>154.60000000000002</ele>
        <time>2013-02-12T21:06:46.17</time>
      </trkpt>
      <trkpt lat="33.076785" lon="35.16734833333334">
        <ele>154.60000000000002</ele>
        <time>2013-02-12T21:06:47.17</time>
      </trkpt>
      <trkpt lat="33.076773333333335" lon="35.16735166666667">
        <ele>154.50000000000003</ele>
        <time>2013-02-12T21:06:48.18</time>
      </trkpt>
      <trkpt lat="33.076766666666664" lon="35.16735">
        <ele>154.50000000000003</ele>
        <time>2013-02-12T21:06:49.18</time>
      </trkpt>
      <trkpt lat="33.07676" lon="35.167361666666665">
        <ele>153.60000000000002</ele>
        <time>2013-02-12T21:06:50.17</time>
      </trkpt>
      <trkpt lat="33.076755" lon="35.167365">
        <ele>153.60000000000002</ele>
        <time>2013-02-12T21:06:51.18</time>
      </trkpt>
      <trkpt lat="33.07675166666667" lon="35.167365">
        <ele>153.7</ele>
        <time>2013-02-12T21:06:58.15</time>
      </trkpt>
      <trkpt lat="33.07673666666667" lon="35.16737166666667">
        <ele>153.7</ele>
        <time>2013-02-12T21:07:02.18</time>
      </trkpt>
      <trkpt lat="33.07658333333333" lon="35.16749">
        <ele>155</ele>
        <time>2013-02-12T21:07:04.17</time>
      </trkpt>
      <trkpt lat="33.07652" lon="35.167548333333336">
        <ele>154.8</ele>
        <time>2013-02-12T21:07:05.15</time>
      </trkpt>
      <trkpt lat="33.076451666666664" lon="35.167588333333335">
        <ele>154.60000000000002</ele>
        <time>2013-02-12T21:07:06.15</time>
      </trkpt>
      <trkpt lat="33.07637666666667" lon="35.167645">
        <ele>156.8</ele>
        <time>2013-02-12T21:07:07.15</time>
      </trkpt>
      <trkpt lat="33.076321666666665" lon="35.16771333333333">
        <ele>156</ele>
        <time>2013-02-12T21:07:08.15</time>
      </trkpt>
      <trkpt lat="33.076265" lon="35.167748333333336">
        <ele>155.8</ele>
        <time>2013-02-12T21:07:09.15</time>
      </trkpt>
      <trkpt lat="33.07619666666667" lon="35.167755">
        <ele>154.8</ele>
        <time>2013-02-12T21:07:10.19</time>
      </trkpt>
      <trkpt lat="33.07613166666667" lon="35.16775666666667">
        <ele>154.70000000000002</ele>
        <time>2013-02-12T21:07:11.17</time>
      </trkpt>
      <trkpt lat="33.07604833333333" lon="35.16777">
        <ele>154.50000000000003</ele>
        <time>2013-02-12T21:07:12.17</time>
      </trkpt>
      <trkpt lat="33.07600166666667" lon="35.16778333333333">
        <ele>154.20000000000002</ele>
        <time>2013-02-12T21:07:13.15</time>
      </trkpt>
      <trkpt lat="33.07597" lon="35.16781">
        <ele>154.10000000000002</ele>
        <time>2013-02-12T21:07:14.15</time>
      </trkpt>
      <trkpt lat="33.07592666666667" lon="35.16782">
        <ele>154.10000000000002</ele>
        <time>2013-02-12T21:07:15.15</time>
      </trkpt>
      <trkpt lat="33.075898333333335" lon="35.16781">
        <ele>154.3</ele>
        <time>2013-02-12T21:07:16.16</time>
      </trkpt>
      <trkpt lat="33.07582166666667" lon="35.16782833333333">
        <ele>153.8</ele>
        <time>2013-02-12T21:07:17.14</time>
      </trkpt>
      <trkpt lat="33.07581166666667" lon="35.167896666666664">
        <ele>151.9</ele>
        <time>2013-02-12T21:07:18.14</time>
      </trkpt>
      <trkpt lat="33.075765" lon="35.167925">
        <ele>149.4</ele>
        <time>2013-02-12T21:07:19.16</time>
      </trkpt>
      <trkpt lat="33.07572833333333" lon="35.16793666666667">
        <ele>148.3</ele>
        <time>2013-02-12T21:07:20.15</time>
      </trkpt>
      <trkpt lat="33.07569" lon="35.16795666666667">
        <ele>147.3</ele>
        <time>2013-02-12T21:07:21.15</time>
      </trkpt>
      <trkpt lat="33.07564333333333" lon="35.167968333333334">
        <ele>146.70000000000002</ele>
        <time>2013-02-12T21:07:22.19</time>
      </trkpt>
      <trkpt lat="33.075583333333334" lon="35.167986666666664">
        <ele>145.70000000000002</ele>
        <time>2013-02-12T21:07:23.18</time>
      </trkpt>
      <trkpt lat="33.07555333333333" lon="35.168011666666665">
        <ele>143.8</ele>
        <time>2013-02-12T21:07:24.16</time>
      </trkpt>
      <trkpt lat="33.07547666666667" lon="35.16804333333333">
        <ele>137.20000000000002</ele>
        <time>2013-02-12T21:07:25.15</time>
      </trkpt>
      <trkpt lat="33.075421666666664" lon="35.168058333333335">
        <ele>136.10000000000002</ele>
        <time>2013-02-12T21:07:26.15</time>
      </trkpt>
      <trkpt lat="33.075375" lon="35.16805">
        <ele>138.10000000000002</ele>
        <time>2013-02-12T21:07:27.17</time>
      </trkpt>
      <trkpt lat="33.07533" lon="35.168065">
        <ele>135.40000000000003</ele>
        <time>2013-02-12T21:07:28.17</time>
      </trkpt>
      <trkpt lat="33.075293333333335" lon="35.168056666666665">
        <ele>135.20000000000005</ele>
        <time>2013-02-12T21:07:29.15</time>
      </trkpt>
      <trkpt lat="33.075246666666665" lon="35.16809166666667">
        <ele>131.70000000000005</ele>
        <time>2013-02-12T21:07:30.15</time>
      </trkpt>
      <trkpt lat="33.075206666666666" lon="35.16813">
        <ele>130.40000000000003</ele>
        <time>2013-02-12T21:07:31.15</time>
      </trkpt>
      <trkpt lat="33.075161666666666" lon="35.16814166666666">
        <ele>125.60000000000004</ele>
        <time>2013-02-12T21:07:32.17</time>
      </trkpt>
      <trkpt lat="33.075116666666666" lon="35.16818166666667">
        <ele>121.50000000000004</ele>
        <time>2013-02-12T21:07:33.18</time>
      </trkpt>
      <trkpt lat="33.07507833333333" lon="35.16819">
        <ele>121.60000000000004</ele>
        <time>2013-02-12T21:07:34.21</time>
      </trkpt>
      <trkpt lat="33.075026666666666" lon="35.16822333333333">
        <ele>119.80000000000004</ele>
        <time>2013-02-12T21:07:35.20</time>
      </trkpt>
      <trkpt lat="33.07498" lon="35.168255">
        <ele>119.20000000000005</ele>
        <time>2013-02-12T21:07:36.20</time>
      </trkpt>
      <trkpt lat="33.074936666666666" lon="35.16826833333333">
        <ele>119.50000000000004</ele>
        <time>2013-02-12T21:07:37.19</time>
      </trkpt>
      <trkpt lat="33.074906666666664" lon="35.16832333333333">
        <ele>118.10000000000004</ele>
        <time>2013-02-12T21:07:38.18</time>
      </trkpt>
      <trkpt lat="33.074865" lon="35.16837833333334">
        <ele>117.40000000000003</ele>
        <time>2013-02-12T21:07:39.18</time>
      </trkpt>
      <trkpt lat="33.074815" lon="35.16843166666666">
        <ele>118.60000000000004</ele>
        <time>2013-02-12T21:07:40.20</time>
      </trkpt>
      <trkpt lat="33.074785" lon="35.16843166666666">
        <ele>112.40000000000003</ele>
        <time>2013-02-12T21:07:41.19</time>
      </trkpt>
      <trkpt lat="33.07474666666667" lon="35.168425">
        <ele>105.70000000000003</ele>
        <time>2013-02-12T21:07:42.20</time>
      </trkpt>
      <trkpt lat="33.07470166666667" lon="35.16840833333333">
        <ele>102.20000000000003</ele>
        <time>2013-02-12T21:07:43.17</time>
      </trkpt>
      <trkpt lat="33.07466" lon="35.168441666666666">
        <ele>100.30000000000003</ele>
        <time>2013-02-12T21:07:44.22</time>
      </trkpt>
      <trkpt lat="33.07461333333333" lon="35.168461666666666">
        <ele>99.70000000000003</ele>
        <time>2013-02-12T21:07:45.19</time>
      </trkpt>
      <trkpt lat="33.07456" lon="35.16847">
        <ele>99.00000000000003</ele>
        <time>2013-02-12T21:07:46.20</time>
      </trkpt>
      <trkpt lat="33.07452" lon="35.16846833333334">
        <ele>99.00000000000003</ele>
        <time>2013-02-12T21:07:47.20</time>
      </trkpt>
      <trkpt lat="33.07447166666667" lon="35.16846666666667">
        <ele>99.20000000000003</ele>
        <time>2013-02-12T21:07:48.20</time>
      </trkpt>
      <trkpt lat="33.074416666666664" lon="35.168465">
        <ele>98.20000000000003</ele>
        <time>2013-02-12T21:07:49.21</time>
      </trkpt>
      <trkpt lat="33.07436833333333" lon="35.168456666666664">
        <ele>98.10000000000004</ele>
        <time>2013-02-12T21:07:50.19</time>
      </trkpt>
      <trkpt lat="33.07433666666667" lon="35.168438333333334">
        <ele>97.00000000000004</ele>
        <time>2013-02-12T21:07:51.18</time>
      </trkpt>
      <trkpt lat="33.0743" lon="35.168425">
        <ele>96.90000000000005</ele>
        <time>2013-02-12T21:07:52.20</time>
      </trkpt>
      <trkpt lat="33.07427666666667" lon="35.16840333333333">
        <ele>96.00000000000004</ele>
        <time>2013-02-12T21:07:53.19</time>
      </trkpt>
      <trkpt lat="33.074241666666666" lon="35.16839">
        <ele>95.10000000000004</ele>
        <time>2013-02-12T21:07:54.17</time>
      </trkpt>
      <trkpt lat="33.07421" lon="35.168393333333334">
        <ele>94.60000000000004</ele>
        <time>2013-02-12T21:07:55.15</time>
      </trkpt>
      <trkpt lat="33.074175" lon="35.168348333333334">
        <ele>94.40000000000003</ele>
        <time>2013-02-12T21:07:56.15</time>
      </trkpt>
      <trkpt lat="33.07414166666667" lon="35.168328333333335">
        <ele>94.30000000000004</ele>
        <time>2013-02-12T21:07:57.15</time>
      </trkpt>
      <trkpt lat="33.074105" lon="35.16831166666667">
        <ele>93.60000000000004</ele>
        <time>2013-02-12T21:07:58.15</time>
      </trkpt>
      <trkpt lat="33.074065" lon="35.16829333333333">
        <ele>93.00000000000004</ele>
        <time>2013-02-12T21:07:59.16</time>
      </trkpt>
      <trkpt lat="33.07402666666667" lon="35.16829">
        <ele>92.20000000000005</ele>
        <time>2013-02-12T21:08:00.15</time>
      </trkpt>
      <trkpt lat="33.07400166666667" lon="35.168275">
        <ele>92.20000000000005</ele>
        <time>2013-02-12T21:08:01.15</time>
      </trkpt>
      <trkpt lat="33.073945" lon="35.16826833333333">
        <ele>91.90000000000005</ele>
        <time>2013-02-12T21:08:02.14</time>
      </trkpt>
      <trkpt lat="33.07388666666667" lon="35.16825333333333">
        <ele>89.40000000000005</ele>
        <time>2013-02-12T21:08:03.18</time>
      </trkpt>
      <trkpt lat="33.073836666666665" lon="35.16822">
        <ele>89.40000000000005</ele>
        <time>2013-02-12T21:08:04.16</time>
      </trkpt>
      <trkpt lat="33.07378666666666" lon="35.16821">
        <ele>89.60000000000005</ele>
        <time>2013-02-12T21:08:05.15</time>
      </trkpt>
      <trkpt lat="33.07374166666666" lon="35.16818166666667">
        <ele>90.20000000000005</ele>
        <time>2013-02-12T21:08:06.16</time>
      </trkpt>
      <trkpt lat="33.073676666666664" lon="35.16814166666666">
        <ele>90.10000000000005</ele>
        <time>2013-02-12T21:08:07.16</time>
      </trkpt>
      <trkpt lat="33.073618333333336" lon="35.168108333333336">
        <ele>90.50000000000006</ele>
        <time>2013-02-12T21:08:08.17</time>
      </trkpt>
      <trkpt lat="33.073586666666664" lon="35.16807166666667">
        <ele>90.50000000000006</ele>
        <time>2013-02-12T21:08:09.16</time>
      </trkpt>
      <trkpt lat="33.073535" lon="35.16804666666667">
        <ele>90.60000000000005</ele>
        <time>2013-02-12T21:08:10.15</time>
      </trkpt>
      <trkpt lat="33.073478333333334" lon="35.16799666666667">
        <ele>87.90000000000005</ele>
        <time>2013-02-12T21:08:11.15</time>
      </trkpt>
      <trkpt lat="33.07345333333333" lon="35.16795666666667">
        <ele>87.80000000000005</ele>
        <time>2013-02-12T21:08:12.16</time>
      </trkpt>
      <trkpt lat="33.07343" lon="35.167943333333334">
        <ele>87.00000000000006</ele>
        <time>2013-02-12T21:08:13.15</time>
      </trkpt>
      <trkpt lat="33.073395" lon="35.167915">
        <ele>87.80000000000005</ele>
        <time>2013-02-12T21:08:14.15</time>
      </trkpt>
      <trkpt lat="33.07335166666667" lon="35.167896666666664">
        <ele>87.80000000000005</ele>
        <time>2013-02-12T21:08:15.16</time>
      </trkpt>
      <trkpt lat="33.07331833333333" lon="35.167875">
        <ele>87.40000000000005</ele>
        <time>2013-02-12T21:08:16.15</time>
      </trkpt>
      <trkpt lat="33.07328166666667" lon="35.16784833333333">
        <ele>87.20000000000005</ele>
        <time>2013-02-12T21:08:17.15</time>
      </trkpt>
      <trkpt lat="33.07325" lon="35.16781833333334">
        <ele>88.10000000000005</ele>
        <time>2013-02-12T21:08:18.17</time>
      </trkpt>
      <trkpt lat="33.07322666666666" lon="35.167786666666665">
        <ele>88.20000000000005</ele>
        <time>2013-02-12T21:08:19.18</time>
      </trkpt>
      <trkpt lat="33.073205" lon="35.167775">
        <ele>88.00000000000004</ele>
        <time>2013-02-12T21:08:20.15</time>
      </trkpt>
      <trkpt lat="33.073206666666664" lon="35.167748333333336">
        <ele>87.80000000000004</ele>
        <time>2013-02-12T21:08:21.15</time>
      </trkpt>
      <trkpt lat="33.07320833333333" lon="35.167716666666664">
        <ele>86.90000000000003</ele>
        <time>2013-02-12T21:08:22.15</time>
      </trkpt>
      <trkpt lat="33.0732" lon="35.16769">
        <ele>87.10000000000004</ele>
        <time>2013-02-12T21:08:23.17</time>
      </trkpt>
      <trkpt lat="33.07320333333333" lon="35.16767">
        <ele>86.00000000000004</ele>
        <time>2013-02-12T21:08:24.15</time>
      </trkpt>
      <trkpt lat="33.073213333333335" lon="35.167653333333334">
        <ele>87.00000000000004</ele>
        <time>2013-02-12T21:08:25.15</time>
      </trkpt>
      <trkpt lat="33.07322666666666" lon="35.167638333333336">
        <ele>88.00000000000004</ele>
        <time>2013-02-12T21:08:26.16</time>
      </trkpt>
      <trkpt lat="33.07321833333334" lon="35.167605">
        <ele>87.00000000000004</ele>
        <time>2013-02-12T21:08:27.15</time>
      </trkpt>
      <trkpt lat="33.073233333333334" lon="35.16758333333333">
        <ele>87.00000000000004</ele>
        <time>2013-02-12T21:08:28.15</time>
      </trkpt>
      <trkpt lat="33.073245" lon="35.167566666666666">
        <ele>86.70000000000005</ele>
        <time>2013-02-12T21:08:29.15</time>
      </trkpt>
      <trkpt lat="33.073255" lon="35.167541666666665">
        <ele>87.00000000000004</ele>
        <time>2013-02-12T21:08:30.17</time>
      </trkpt>
      <trkpt lat="33.073256666666666" lon="35.16751">
        <ele>86.80000000000004</ele>
        <time>2013-02-12T21:08:31.17</time>
      </trkpt>
      <trkpt lat="33.073256666666666" lon="35.16748">
        <ele>87.30000000000004</ele>
        <time>2013-02-12T21:08:32.15</time>
      </trkpt>
      <trkpt lat="33.07326333333334" lon="35.16746">
        <ele>87.10000000000004</ele>
        <time>2013-02-12T21:08:33.15</time>
      </trkpt>
      <trkpt lat="33.073256666666666" lon="35.16743">
        <ele>87.20000000000003</ele>
        <time>2013-02-12T21:08:34.15</time>
      </trkpt>
      <trkpt lat="33.073256666666666" lon="35.167405">
        <ele>87.50000000000003</ele>
        <time>2013-02-12T21:08:35.15</time>
      </trkpt>
      <trkpt lat="33.073256666666666" lon="35.167388333333335">
        <ele>88.10000000000002</ele>
        <time>2013-02-12T21:08:36.15</time>
      </trkpt>
      <trkpt lat="33.07326" lon="35.16737">
        <ele>88.50000000000003</ele>
        <time>2013-02-12T21:08:37.15</time>
      </trkpt>
      <trkpt lat="33.07326666666667" lon="35.167365">
        <ele>88.50000000000003</ele>
        <time>2013-02-12T21:08:38.15</time>
      </trkpt>
      <trkpt lat="33.07328166666667" lon="35.167355">
        <ele>88.00000000000003</ele>
        <time>2013-02-12T21:08:39.15</time>
      </trkpt>
      <trkpt lat="33.073301666666666" lon="35.16732">
        <ele>87.80000000000003</ele>
        <time>2013-02-12T21:08:40.17</time>
      </trkpt>
      <trkpt lat="33.07331" lon="35.16730166666667">
        <ele>87.80000000000003</ele>
        <time>2013-02-12T21:08:41.15</time>
      </trkpt>
      <trkpt lat="33.07330833333334" lon="35.167271666666664">
        <ele>87.10000000000002</ele>
        <time>2013-02-12T21:08:42.15</time>
      </trkpt>
      <trkpt lat="33.07331333333333" lon="35.167251666666665">
        <ele>87.00000000000003</ele>
        <time>2013-02-12T21:08:43.15</time>
      </trkpt>
      <trkpt lat="33.073298333333334" lon="35.16722333333333">
        <ele>87.10000000000002</ele>
        <time>2013-02-12T21:08:44.15</time>
      </trkpt>
      <trkpt lat="33.073295" lon="35.167208333333335">
        <ele>86.70000000000002</ele>
        <time>2013-02-12T21:08:45.16</time>
      </trkpt>
      <trkpt lat="33.07328666666667" lon="35.167185">
        <ele>86.40000000000002</ele>
        <time>2013-02-12T21:08:46.15</time>
      </trkpt>
      <trkpt lat="33.07327333333333" lon="35.167161666666665">
        <ele>85.80000000000003</ele>
        <time>2013-02-12T21:08:47.17</time>
      </trkpt>
      <trkpt lat="33.07326666666667" lon="35.16714">
        <ele>86.40000000000002</ele>
        <time>2013-02-12T21:08:48.15</time>
      </trkpt>
      <trkpt lat="33.073245" lon="35.16711166666666">
        <ele>86.00000000000001</ele>
        <time>2013-02-12T21:08:49.15</time>
      </trkpt>
      <trkpt lat="33.073251666666664" lon="35.16709">
        <ele>86.10000000000001</ele>
        <time>2013-02-12T21:08:50.15</time>
      </trkpt>
      <trkpt lat="33.073255" lon="35.167071666666665">
        <ele>85.80000000000001</ele>
        <time>2013-02-12T21:08:51.15</time>
      </trkpt>
      <trkpt lat="33.073258333333335" lon="35.16704166666667">
        <ele>84.30000000000001</ele>
        <time>2013-02-12T21:08:52.17</time>
      </trkpt>
      <trkpt lat="33.073256666666666" lon="35.16701166666667">
        <ele>84.20000000000002</ele>
        <time>2013-02-12T21:08:53.15</time>
      </trkpt>
      <trkpt lat="33.073253333333334" lon="35.166985">
        <ele>84.50000000000001</ele>
        <time>2013-02-12T21:08:54.15</time>
      </trkpt>
      <trkpt lat="33.07324833333333" lon="35.166961666666666">
        <ele>85.40000000000002</ele>
        <time>2013-02-12T21:08:55.16</time>
      </trkpt>
      <trkpt lat="33.07324" lon="35.166938333333334">
        <ele>85.60000000000002</ele>
        <time>2013-02-12T21:08:56.16</time>
      </trkpt>
      <trkpt lat="33.07325" lon="35.16692333333334">
        <ele>85.70000000000002</ele>
        <time>2013-02-12T21:08:57.15</time>
      </trkpt>
      <trkpt lat="33.073236666666666" lon="35.16690166666667">
        <ele>84.90000000000002</ele>
        <time>2013-02-12T21:08:58.14</time>
      </trkpt>
      <trkpt lat="33.07324" lon="35.16686166666667">
        <ele>83.90000000000002</ele>
        <time>2013-02-12T21:08:59.15</time>
      </trkpt>
      <trkpt lat="33.073236666666666" lon="35.16684166666667">
        <ele>84.00000000000001</ele>
        <time>2013-02-12T21:09:00.15</time>
      </trkpt>
      <trkpt lat="33.07323" lon="35.166815">
        <ele>83.40000000000002</ele>
        <time>2013-02-12T21:09:01.17</time>
      </trkpt>
      <trkpt lat="33.073211666666666" lon="35.166783333333335">
        <ele>83.10000000000002</ele>
        <time>2013-02-12T21:09:02.19</time>
      </trkpt>
      <trkpt lat="33.073213333333335" lon="35.16675333333333">
        <ele>83.70000000000002</ele>
        <time>2013-02-12T21:09:03.15</time>
      </trkpt>
      <trkpt lat="33.073211666666666" lon="35.16672333333333">
        <ele>83.70000000000002</ele>
        <time>2013-02-12T21:09:04.15</time>
      </trkpt>
      <trkpt lat="33.073206666666664" lon="35.166695">
        <ele>83.80000000000001</ele>
        <time>2013-02-12T21:09:05.15</time>
      </trkpt>
      <trkpt lat="33.0732" lon="35.166668333333334">
        <ele>84.20000000000002</ele>
        <time>2013-02-12T21:09:06.14</time>
      </trkpt>
      <trkpt lat="33.07320333333333" lon="35.16664333333333">
        <ele>84.80000000000001</ele>
        <time>2013-02-12T21:09:07.15</time>
      </trkpt>
      <trkpt lat="33.07319666666667" lon="35.166623333333334">
        <ele>84.9</ele>
        <time>2013-02-12T21:09:08.15</time>
      </trkpt>
      <trkpt lat="33.073191666666666" lon="35.166601666666665">
        <ele>84.80000000000001</ele>
        <time>2013-02-12T21:09:09.16</time>
      </trkpt>
      <trkpt lat="33.073195" lon="35.16659">
        <ele>86.10000000000001</ele>
        <time>2013-02-12T21:09:10.15</time>
      </trkpt>
      <trkpt lat="33.07320166666667" lon="35.16657">
        <ele>86.7</ele>
        <time>2013-02-12T21:09:11.15</time>
      </trkpt>
      <trkpt lat="33.073206666666664" lon="35.16655">
        <ele>86.3</ele>
        <time>2013-02-12T21:09:12.17</time>
      </trkpt>
      <trkpt lat="33.07319666666667" lon="35.16652833333333">
        <ele>86.7</ele>
        <time>2013-02-12T21:09:13.16</time>
      </trkpt>
      <trkpt lat="33.073191666666666" lon="35.166505">
        <ele>86.7</ele>
        <time>2013-02-12T21:09:14.15</time>
      </trkpt>
      <trkpt lat="33.073188333333334" lon="35.16648333333333">
        <ele>86.60000000000001</ele>
        <time>2013-02-12T21:09:15.15</time>
      </trkpt>
      <trkpt lat="33.073188333333334" lon="35.166465">
        <ele>86.60000000000001</ele>
        <time>2013-02-12T21:09:16.15</time>
      </trkpt>
      <trkpt lat="33.073185" lon="35.16644">
        <ele>86.30000000000001</ele>
        <time>2013-02-12T21:09:17.15</time>
      </trkpt>
      <trkpt lat="33.073185" lon="35.16641666666666">
        <ele>86.50000000000001</ele>
        <time>2013-02-12T21:09:18.15</time>
      </trkpt>
      <trkpt lat="33.073186666666665" lon="35.16639333333333">
        <ele>85.90000000000002</ele>
        <time>2013-02-12T21:09:19.15</time>
      </trkpt>
      <trkpt lat="33.07318333333333" lon="35.16637333333333">
        <ele>85.80000000000003</ele>
        <time>2013-02-12T21:09:20.15</time>
      </trkpt>
      <trkpt lat="33.07316" lon="35.166345">
        <ele>86.40000000000002</ele>
        <time>2013-02-12T21:09:21.17</time>
      </trkpt>
      <trkpt lat="33.07316333333333" lon="35.16632333333333">
        <ele>86.00000000000001</ele>
        <time>2013-02-12T21:09:22.15</time>
      </trkpt>
      <trkpt lat="33.073161666666664" lon="35.16629666666667">
        <ele>86.00000000000001</ele>
        <time>2013-02-12T21:09:23.15</time>
      </trkpt>
      <trkpt lat="33.07317" lon="35.16627">
        <ele>85.50000000000001</ele>
        <time>2013-02-12T21:09:24.15</time>
      </trkpt>
      <trkpt lat="33.073166666666665" lon="35.16623">
        <ele>84.30000000000001</ele>
        <time>2013-02-12T21:09:25.15</time>
      </trkpt>
      <trkpt lat="33.07315833333333" lon="35.16620833333333">
        <ele>84.60000000000001</ele>
        <time>2013-02-12T21:09:26.15</time>
      </trkpt>
      <trkpt lat="33.07317" lon="35.16619">
        <ele>84.9</ele>
        <time>2013-02-12T21:09:27.15</time>
      </trkpt>
      <trkpt lat="33.073166666666665" lon="35.16616166666667">
        <ele>85.4</ele>
        <time>2013-02-12T21:09:28.15</time>
      </trkpt>
      <trkpt lat="33.07317166666667" lon="35.166145">
        <ele>85</ele>
        <time>2013-02-12T21:09:29.18</time>
      </trkpt>
      <trkpt lat="33.073175" lon="35.16613">
        <ele>85.1</ele>
        <time>2013-02-12T21:09:30.18</time>
      </trkpt>
      <trkpt lat="33.073166666666665" lon="35.166106666666664">
        <ele>85.3</ele>
        <time>2013-02-12T21:09:31.19</time>
      </trkpt>
      <trkpt lat="33.07317" lon="35.16609166666667">
        <ele>85.39999999999999</ele>
        <time>2013-02-12T21:09:32.15</time>
      </trkpt>
      <trkpt lat="33.073166666666665" lon="35.16607166666667">
        <ele>84.89999999999999</ele>
        <time>2013-02-12T21:09:33.19</time>
      </trkpt>
      <trkpt lat="33.07317" lon="35.166045">
        <ele>85.8</ele>
        <time>2013-02-12T21:09:34.17</time>
      </trkpt>
      <trkpt lat="33.073161666666664" lon="35.166018333333334">
        <ele>85.2</ele>
        <time>2013-02-12T21:09:35.18</time>
      </trkpt>
      <trkpt lat="33.073161666666664" lon="35.166">
        <ele>85.3</ele>
        <time>2013-02-12T21:09:36.17</time>
      </trkpt>
      <trkpt lat="33.07317" lon="35.165975">
        <ele>85</ele>
        <time>2013-02-12T21:09:37.19</time>
      </trkpt>
      <trkpt lat="33.07316333333333" lon="35.165956666666666">
        <ele>85.1</ele>
        <time>2013-02-12T21:09:38.18</time>
      </trkpt>
      <trkpt lat="33.073141666666665" lon="35.165913333333336">
        <ele>86</ele>
        <time>2013-02-12T21:09:39.17</time>
      </trkpt>
      <trkpt lat="33.073085" lon="35.165861666666665">
        <ele>86.6</ele>
        <time>2013-02-12T21:09:40.20</time>
      </trkpt>
      <trkpt lat="33.07306833333333" lon="35.16583333333333">
        <ele>85.8</ele>
        <time>2013-02-12T21:09:41.19</time>
      </trkpt>
      <trkpt lat="33.073055" lon="35.165805">
        <ele>85.5</ele>
        <time>2013-02-12T21:09:42.21</time>
      </trkpt>
      <trkpt lat="33.073058333333336" lon="35.165773333333334">
        <ele>83.2</ele>
        <time>2013-02-12T21:09:43.18</time>
      </trkpt>
      <trkpt lat="33.07304666666667" lon="35.16575666666667">
        <ele>83.60000000000001</ele>
        <time>2013-02-12T21:09:44.17</time>
      </trkpt>
      <trkpt lat="33.073055" lon="35.165745">
        <ele>84.10000000000001</ele>
        <time>2013-02-12T21:09:45.17</time>
      </trkpt>
      <trkpt lat="33.073053333333334" lon="35.16572333333333">
        <ele>84.50000000000001</ele>
        <time>2013-02-12T21:09:46.18</time>
      </trkpt>
      <trkpt lat="33.07305" lon="35.16570333333333">
        <ele>85.50000000000001</ele>
        <time>2013-02-12T21:09:47.18</time>
      </trkpt>
      <trkpt lat="33.07304666666667" lon="35.16568">
        <ele>86.00000000000001</ele>
        <time>2013-02-12T21:09:48.18</time>
      </trkpt>
      <trkpt lat="33.07305" lon="35.16565833333333">
        <ele>86.10000000000001</ele>
        <time>2013-02-12T21:09:49.17</time>
      </trkpt>
      <trkpt lat="33.07304666666667" lon="35.16563333333333">
        <ele>86.2</ele>
        <time>2013-02-12T21:09:50.18</time>
      </trkpt>
      <trkpt lat="33.07304" lon="35.16561">
        <ele>86.3</ele>
        <time>2013-02-12T21:09:51.17</time>
      </trkpt>
      <trkpt lat="33.07303666666667" lon="35.165595">
        <ele>86.1</ele>
        <time>2013-02-12T21:09:52.17</time>
      </trkpt>
      <trkpt lat="33.073045" lon="35.16557">
        <ele>85.69999999999999</ele>
        <time>2013-02-12T21:09:53.17</time>
      </trkpt>
      <trkpt lat="33.07304666666667" lon="35.16555">
        <ele>86.29999999999998</ele>
        <time>2013-02-12T21:09:54.17</time>
      </trkpt>
      <trkpt lat="33.07304666666667" lon="35.165533333333336">
        <ele>85.99999999999999</ele>
        <time>2013-02-12T21:09:55.17</time>
      </trkpt>
      <trkpt lat="33.07304833333333" lon="35.16551">
        <ele>85.59999999999998</ele>
        <time>2013-02-12T21:09:56.22</time>
      </trkpt>
      <trkpt lat="33.073056666666666" lon="35.16549">
        <ele>85.49999999999999</ele>
        <time>2013-02-12T21:09:57.17</time>
      </trkpt>
      <trkpt lat="33.07308" lon="35.16546833333334">
        <ele>84.79999999999998</ele>
        <time>2013-02-12T21:09:58.18</time>
      </trkpt>
      <trkpt lat="33.073085" lon="35.16545">
        <ele>84.79999999999998</ele>
        <time>2013-02-12T21:09:59.18</time>
      </trkpt>
      <trkpt lat="33.07311333333333" lon="35.16544666666667">
        <ele>84.89999999999998</ele>
        <time>2013-02-12T21:10:00.15</time>
      </trkpt>
      <trkpt lat="33.073123333333335" lon="35.16543166666667">
        <ele>85.29999999999998</ele>
        <time>2013-02-12T21:10:02.17</time>
      </trkpt>
      <trkpt lat="33.07313833333333" lon="35.16542833333333">
        <ele>85.49999999999999</ele>
        <time>2013-02-12T21:10:03.17</time>
      </trkpt>
      <trkpt lat="33.07315" lon="35.16543166666667">
        <ele>85.59999999999998</ele>
        <time>2013-02-12T21:10:04.18</time>
      </trkpt>
      <trkpt lat="33.07318166666666" lon="35.16542333333334">
        <ele>85.69999999999997</ele>
        <time>2013-02-12T21:10:05.17</time>
      </trkpt>
      <trkpt lat="33.07321" lon="35.165411666666664">
        <ele>86.29999999999997</ele>
        <time>2013-02-12T21:10:06.16</time>
      </trkpt>
      <trkpt lat="33.07323" lon="35.1654">
        <ele>86.29999999999997</ele>
        <time>2013-02-12T21:10:07.19</time>
      </trkpt>
      <trkpt lat="33.07324333333333" lon="35.16539">
        <ele>86.89999999999996</ele>
        <time>2013-02-12T21:10:08.23</time>
      </trkpt>
      <trkpt lat="33.073255" lon="35.16539">
        <ele>87.29999999999997</ele>
        <time>2013-02-12T21:10:09.22</time>
      </trkpt>
      <trkpt lat="33.073278333333334" lon="35.16538666666667">
        <ele>87.29999999999997</ele>
        <time>2013-02-12T21:10:10.18</time>
      </trkpt>
      <trkpt lat="33.07329166666667" lon="35.16539">
        <ele>87.59999999999997</ele>
        <time>2013-02-12T21:10:11.17</time>
      </trkpt>
      <trkpt lat="33.073303333333335" lon="35.16538833333333">
        <ele>87.59999999999997</ele>
        <time>2013-02-12T21:10:12.17</time>
      </trkpt>
      <trkpt lat="33.07331333333333" lon="35.165391666666665">
        <ele>88.29999999999997</ele>
        <time>2013-02-12T21:10:13.14</time>
      </trkpt>
      <trkpt lat="33.07331666666666" lon="35.16538666666667">
        <ele>89.49999999999997</ele>
        <time>2013-02-12T21:10:14.14</time>
      </trkpt>
      <trkpt lat="33.073323333333335" lon="35.16537833333334">
        <ele>90.69999999999997</ele>
        <time>2013-02-12T21:10:15.14</time>
      </trkpt>
      <trkpt lat="33.07335" lon="35.16536166666667">
        <ele>90.39999999999998</ele>
        <time>2013-02-12T21:10:16.15</time>
      </trkpt>
      <trkpt lat="33.07336" lon="35.16533666666667">
        <ele>90.19999999999997</ele>
        <time>2013-02-12T21:10:17.15</time>
      </trkpt>
      <trkpt lat="33.073375" lon="35.16532">
        <ele>90.49999999999997</ele>
        <time>2013-02-12T21:10:18.15</time>
      </trkpt>
      <trkpt lat="33.073395" lon="35.165308333333336">
        <ele>90.29999999999997</ele>
        <time>2013-02-12T21:10:19.15</time>
      </trkpt>
      <trkpt lat="33.07341666666667" lon="35.16529666666667">
        <ele>89.99999999999997</ele>
        <time>2013-02-12T21:10:20.14</time>
      </trkpt>
      <trkpt lat="33.07341666666667" lon="35.16526666666667">
        <ele>90.29999999999997</ele>
        <time>2013-02-12T21:10:21.17</time>
      </trkpt>
      <trkpt lat="33.073425" lon="35.165255">
        <ele>90.59999999999997</ele>
        <time>2013-02-12T21:10:22.14</time>
      </trkpt>
      <trkpt lat="33.07343" lon="35.16523">
        <ele>91.09999999999997</ele>
        <time>2013-02-12T21:10:23.14</time>
      </trkpt>
      <trkpt lat="33.073438333333335" lon="35.16520833333333">
        <ele>90.99999999999997</ele>
        <time>2013-02-12T21:10:24.15</time>
      </trkpt>
      <trkpt lat="33.073438333333335" lon="35.16518833333333">
        <ele>90.99999999999997</ele>
        <time>2013-02-12T21:10:25.17</time>
      </trkpt>
      <trkpt lat="33.07344333333333" lon="35.16518">
        <ele>90.49999999999997</ele>
        <time>2013-02-12T21:10:26.15</time>
      </trkpt>
      <trkpt lat="33.073456666666665" lon="35.165165">
        <ele>90.49999999999997</ele>
        <time>2013-02-12T21:10:27.15</time>
      </trkpt>
      <trkpt lat="33.07347166666667" lon="35.165146666666665">
        <ele>90.09999999999997</ele>
        <time>2013-02-12T21:10:28.15</time>
      </trkpt>
      <trkpt lat="33.07346666666667" lon="35.16513">
        <ele>89.99999999999997</ele>
        <time>2013-02-12T21:10:29.14</time>
      </trkpt>
      <trkpt lat="33.07347" lon="35.165115">
        <ele>90.29999999999997</ele>
        <time>2013-02-12T21:10:30.15</time>
      </trkpt>
      <trkpt lat="33.073478333333334" lon="35.16509166666667">
        <ele>90.09999999999997</ele>
        <time>2013-02-12T21:10:31.15</time>
      </trkpt>
      <trkpt lat="33.07349333333333" lon="35.165078333333334">
        <ele>90.39999999999996</ele>
        <time>2013-02-12T21:10:32.18</time>
      </trkpt>
      <trkpt lat="33.073503333333335" lon="35.165061666666666">
        <ele>90.89999999999996</ele>
        <time>2013-02-12T21:10:33.20</time>
      </trkpt>
      <trkpt lat="33.073515" lon="35.16504">
        <ele>90.89999999999996</ele>
        <time>2013-02-12T21:10:34.14</time>
      </trkpt>
      <trkpt lat="33.07353666666667" lon="35.165018333333336">
        <ele>90.99999999999996</ele>
        <time>2013-02-12T21:10:35.14</time>
      </trkpt>
      <trkpt lat="33.073546666666665" lon="35.165">
        <ele>91.79999999999995</ele>
        <time>2013-02-12T21:10:36.16</time>
      </trkpt>
      <trkpt lat="33.07355166666667" lon="35.164965">
        <ele>91.79999999999995</ele>
        <time>2013-02-12T21:10:37.14</time>
      </trkpt>
      <trkpt lat="33.073568333333334" lon="35.164935">
        <ele>91.19999999999996</ele>
        <time>2013-02-12T21:10:38.14</time>
      </trkpt>
      <trkpt lat="33.07358166666667" lon="35.16490666666667">
        <ele>90.39999999999996</ele>
        <time>2013-02-12T21:10:39.14</time>
      </trkpt>
      <trkpt lat="33.073585" lon="35.164875">
        <ele>91.09999999999997</ele>
        <time>2013-02-12T21:10:40.15</time>
      </trkpt>
      <trkpt lat="33.07358333333333" lon="35.164845">
        <ele>92.49999999999997</ele>
        <time>2013-02-12T21:10:41.15</time>
      </trkpt>
      <trkpt lat="33.07359" lon="35.16482666666667">
        <ele>92.39999999999998</ele>
        <time>2013-02-12T21:10:42.14</time>
      </trkpt>
      <trkpt lat="33.073611666666665" lon="35.16482333333333">
        <ele>92.39999999999998</ele>
        <time>2013-02-12T21:10:43.14</time>
      </trkpt>
      <trkpt lat="33.073615" lon="35.164805">
        <ele>91.99999999999997</ele>
        <time>2013-02-12T21:10:44.15</time>
      </trkpt>
      <trkpt lat="33.073635" lon="35.16480333333333">
        <ele>92.69999999999997</ele>
        <time>2013-02-12T21:10:45.17</time>
      </trkpt>
      <trkpt lat="33.073645" lon="35.16478166666667">
        <ele>92.49999999999997</ele>
        <time>2013-02-12T21:10:46.18</time>
      </trkpt>
      <trkpt lat="33.07364833333333" lon="35.164766666666665">
        <ele>92.69999999999997</ele>
        <time>2013-02-12T21:10:47.18</time>
      </trkpt>
      <trkpt lat="33.07367166666667" lon="35.164768333333335">
        <ele>93.19999999999997</ele>
        <time>2013-02-12T21:10:48.14</time>
      </trkpt>
      <trkpt lat="33.07369166666667" lon="35.164746666666666">
        <ele>93.59999999999998</ele>
        <time>2013-02-12T21:10:49.15</time>
      </trkpt>
      <trkpt lat="33.073708333333336" lon="35.16473666666667">
        <ele>94.19999999999997</ele>
        <time>2013-02-12T21:10:50.18</time>
      </trkpt>
      <trkpt lat="33.07372" lon="35.164721666666665">
        <ele>94.29999999999997</ele>
        <time>2013-02-12T21:10:51.17</time>
      </trkpt>
      <trkpt lat="33.073735" lon="35.16471">
        <ele>95.39999999999996</ele>
        <time>2013-02-12T21:10:52.17</time>
      </trkpt>
      <trkpt lat="33.073755" lon="35.16469333333333">
        <ele>95.39999999999996</ele>
        <time>2013-02-12T21:10:53.18</time>
      </trkpt>
      <trkpt lat="33.07376333333333" lon="35.164683333333336">
        <ele>94.79999999999997</ele>
        <time>2013-02-12T21:10:54.18</time>
      </trkpt>
      <trkpt lat="33.073766666666664" lon="35.164665">
        <ele>94.69999999999997</ele>
        <time>2013-02-12T21:10:55.17</time>
      </trkpt>
      <trkpt lat="33.07377666666667" lon="35.16466333333333">
        <ele>94.59999999999998</ele>
        <time>2013-02-12T21:10:56.16</time>
      </trkpt>
      <trkpt lat="33.073793333333334" lon="35.164653333333334">
        <ele>95.09999999999998</ele>
        <time>2013-02-12T21:10:57.17</time>
      </trkpt>
      <trkpt lat="33.07380333333333" lon="35.16466166666667">
        <ele>95.09999999999998</ele>
        <time>2013-02-12T21:10:58.16</time>
      </trkpt>
      <trkpt lat="33.07380833333333" lon="35.16467333333333">
        <ele>95.69999999999997</ele>
        <time>2013-02-12T21:10:59.17</time>
      </trkpt>
      <trkpt lat="33.07382166666667" lon="35.16465">
        <ele>94.99999999999997</ele>
        <time>2013-02-12T21:11:00.38</time>
      </trkpt>
      <trkpt lat="33.07382166666667" lon="35.16464333333333">
        <ele>95.69999999999997</ele>
        <time>2013-02-12T21:11:01.16</time>
      </trkpt>
      <trkpt lat="33.073818333333335" lon="35.16466">
        <ele>95.79999999999997</ele>
        <time>2013-02-12T21:11:02.18</time>
      </trkpt>
      <trkpt lat="33.07382666666667" lon="35.16467166666666">
        <ele>96.19999999999997</ele>
        <time>2013-02-12T21:11:03.18</time>
      </trkpt>
      <trkpt lat="33.073838333333335" lon="35.1647">
        <ele>96.69999999999997</ele>
        <time>2013-02-12T21:11:04.23</time>
      </trkpt>
      <trkpt lat="33.073838333333335" lon="35.164723333333335">
        <ele>96.19999999999997</ele>
        <time>2013-02-12T21:11:05.20</time>
      </trkpt>
      <trkpt lat="33.07383" lon="35.16475333333333">
        <ele>96.39999999999998</ele>
        <time>2013-02-12T21:11:06.18</time>
      </trkpt>
      <trkpt lat="33.07382333333333" lon="35.16478">
        <ele>95.89999999999998</ele>
        <time>2013-02-12T21:11:07.16</time>
      </trkpt>
      <trkpt lat="33.073815" lon="35.1648">
        <ele>95.99999999999997</ele>
        <time>2013-02-12T21:11:08.18</time>
      </trkpt>
      <trkpt lat="33.07382666666667" lon="35.16481666666667">
        <ele>95.59999999999997</ele>
        <time>2013-02-12T21:11:09.17</time>
      </trkpt>
      <trkpt lat="33.07383" lon="35.16485333333333">
        <ele>95.09999999999997</ele>
        <time>2013-02-12T21:11:10.17</time>
      </trkpt>
      <trkpt lat="33.073843333333336" lon="35.164878333333334">
        <ele>94.99999999999997</ele>
        <time>2013-02-12T21:11:11.20</time>
      </trkpt>
      <trkpt lat="33.073845" lon="35.164903333333335">
        <ele>95.19999999999997</ele>
        <time>2013-02-12T21:11:12.15</time>
      </trkpt>
      <trkpt lat="33.07384" lon="35.16491833333333">
        <ele>95.29999999999997</ele>
        <time>2013-02-12T21:11:13.15</time>
      </trkpt>
      <trkpt lat="33.073838333333335" lon="35.16494333333333">
        <ele>95.39999999999996</ele>
        <time>2013-02-12T21:11:14.14</time>
      </trkpt>
      <trkpt lat="33.07382833333333" lon="35.16495666666667">
        <ele>95.29999999999997</ele>
        <time>2013-02-12T21:11:15.16</time>
      </trkpt>
      <trkpt lat="33.07382833333333" lon="35.164968333333334">
        <ele>95.59999999999997</ele>
        <time>2013-02-12T21:11:16.14</time>
      </trkpt>
      <trkpt lat="33.07382666666667" lon="35.16499666666667">
        <ele>96.09999999999997</ele>
        <time>2013-02-12T21:11:17.15</time>
      </trkpt>
      <trkpt lat="33.07382166666667" lon="35.16503">
        <ele>96.99999999999997</ele>
        <time>2013-02-12T21:11:18.15</time>
      </trkpt>
      <trkpt lat="33.073825" lon="35.16505166666666">
        <ele>97.39999999999998</ele>
        <time>2013-02-12T21:11:19.17</time>
      </trkpt>
      <trkpt lat="33.073836666666665" lon="35.165076666666664">
        <ele>97.49999999999997</ele>
        <time>2013-02-12T21:11:20.15</time>
      </trkpt>
      <trkpt lat="33.073838333333335" lon="35.16509666666666">
        <ele>98.59999999999997</ele>
        <time>2013-02-12T21:11:21.18</time>
      </trkpt>
      <trkpt lat="33.073835" lon="35.165121666666664">
        <ele>98.39999999999996</ele>
        <time>2013-02-12T21:11:22.14</time>
      </trkpt>
      <trkpt lat="33.073838333333335" lon="35.165148333333335">
        <ele>99.29999999999997</ele>
        <time>2013-02-12T21:11:23.16</time>
      </trkpt>
      <trkpt lat="33.07384" lon="35.165166666666664">
        <ele>99.19999999999997</ele>
        <time>2013-02-12T21:11:24.18</time>
      </trkpt>
      <trkpt lat="33.073845" lon="35.165195">
        <ele>99.09999999999998</ele>
        <time>2013-02-12T21:11:25.17</time>
      </trkpt>
      <trkpt lat="33.073843333333336" lon="35.16520666666667">
        <ele>99.09999999999998</ele>
        <time>2013-02-12T21:11:26.17</time>
      </trkpt>
      <trkpt lat="33.073843333333336" lon="35.16522">
        <ele>98.79999999999998</ele>
        <time>2013-02-12T21:11:27.17</time>
      </trkpt>
      <trkpt lat="33.07384666666667" lon="35.16524833333333">
        <ele>98.59999999999998</ele>
        <time>2013-02-12T21:11:28.17</time>
      </trkpt>
      <trkpt lat="33.07385" lon="35.165276666666664">
        <ele>97.49999999999999</ele>
        <time>2013-02-12T21:11:29.16</time>
      </trkpt>
      <trkpt lat="33.073861666666666" lon="35.165308333333336">
        <ele>97.99999999999999</ele>
        <time>2013-02-12T21:11:30.17</time>
      </trkpt>
      <trkpt lat="33.07387166666667" lon="35.165325">
        <ele>98.99999999999999</ele>
        <time>2013-02-12T21:11:31.17</time>
      </trkpt>
      <trkpt lat="33.07387" lon="35.16534166666667">
        <ele>99.09999999999998</ele>
        <time>2013-02-12T21:11:32.17</time>
      </trkpt>
      <trkpt lat="33.07386833333333" lon="35.16537">
        <ele>99.09999999999998</ele>
        <time>2013-02-12T21:11:33.18</time>
      </trkpt>
      <trkpt lat="33.073863333333335" lon="35.16538833333333">
        <ele>99.59999999999998</ele>
        <time>2013-02-12T21:11:34.18</time>
      </trkpt>
      <trkpt lat="33.07386" lon="35.16540166666667">
        <ele>99.59999999999998</ele>
        <time>2013-02-12T21:11:35.17</time>
      </trkpt>
      <trkpt lat="33.073861666666666" lon="35.16542166666667">
        <ele>100.29999999999998</ele>
        <time>2013-02-12T21:11:36.17</time>
      </trkpt>
      <trkpt lat="33.07386" lon="35.16545">
        <ele>100.49999999999999</ele>
        <time>2013-02-12T21:11:37.17</time>
      </trkpt>
      <trkpt lat="33.073865" lon="35.165481666666665">
        <ele>100.69999999999999</ele>
        <time>2013-02-12T21:11:38.17</time>
      </trkpt>
      <trkpt lat="33.07386666666667" lon="35.16549333333333">
        <ele>100.69999999999999</ele>
        <time>2013-02-12T21:11:39.18</time>
      </trkpt>
      <trkpt lat="33.07386666666667" lon="35.165505">
        <ele>100.6</ele>
        <time>2013-02-12T21:11:40.17</time>
      </trkpt>
      <trkpt lat="33.073863333333335" lon="35.16552166666666">
        <ele>100.69999999999999</ele>
        <time>2013-02-12T21:11:41.18</time>
      </trkpt>
      <trkpt lat="33.073875" lon="35.16553">
        <ele>100.79999999999998</ele>
        <time>2013-02-12T21:11:42.20</time>
      </trkpt>
      <trkpt lat="33.07387833333333" lon="35.165548333333334">
        <ele>100.49999999999999</ele>
        <time>2013-02-12T21:11:43.17</time>
      </trkpt>
      <trkpt lat="33.07389666666667" lon="35.16556666666666">
        <ele>99.89999999999999</ele>
        <time>2013-02-12T21:11:44.17</time>
      </trkpt>
      <trkpt lat="33.07389666666667" lon="35.165591666666664">
        <ele>99.39999999999999</ele>
        <time>2013-02-12T21:11:46.18</time>
      </trkpt>
      <trkpt lat="33.073901666666664" lon="35.165618333333335">
        <ele>100.6</ele>
        <time>2013-02-12T21:11:47.17</time>
      </trkpt>
      <trkpt lat="33.07391166666667" lon="35.16564666666667">
        <ele>100.3</ele>
        <time>2013-02-12T21:11:48.17</time>
      </trkpt>
      <trkpt lat="33.07391" lon="35.16569166666667">
        <ele>100.7</ele>
        <time>2013-02-12T21:11:49.18</time>
      </trkpt>
      <trkpt lat="33.073901666666664" lon="35.16571666666667">
        <ele>100.4</ele>
        <time>2013-02-12T21:11:50.18</time>
      </trkpt>
      <trkpt lat="33.073888333333336" lon="35.16573">
        <ele>100.9</ele>
        <time>2013-02-12T21:11:51.18</time>
      </trkpt>
      <trkpt lat="33.073901666666664" lon="35.16575666666667">
        <ele>102.30000000000001</ele>
        <time>2013-02-12T21:11:52.17</time>
      </trkpt>
      <trkpt lat="33.07389833333333" lon="35.165775">
        <ele>102.10000000000001</ele>
        <time>2013-02-12T21:11:53.17</time>
      </trkpt>
      <trkpt lat="33.07389333333333" lon="35.16578833333333">
        <ele>103.10000000000001</ele>
        <time>2013-02-12T21:11:54.17</time>
      </trkpt>
      <trkpt lat="33.073901666666664" lon="35.16581333333333">
        <ele>104.10000000000001</ele>
        <time>2013-02-12T21:11:55.17</time>
      </trkpt>
      <trkpt lat="33.07389833333333" lon="35.16582666666667">
        <ele>104.9</ele>
        <time>2013-02-12T21:11:56.24</time>
      </trkpt>
      <trkpt lat="33.073908333333335" lon="35.165855">
        <ele>104.10000000000001</ele>
        <time>2013-02-12T21:11:57.17</time>
      </trkpt>
      <trkpt lat="33.073901666666664" lon="35.165875">
        <ele>104.4</ele>
        <time>2013-02-12T21:11:58.17</time>
      </trkpt>
      <trkpt lat="33.07391166666667" lon="35.1659">
        <ele>104.5</ele>
        <time>2013-02-12T21:11:59.18</time>
      </trkpt>
      <trkpt lat="33.073908333333335" lon="35.165926666666664">
        <ele>104.1</ele>
        <time>2013-02-12T21:12:00.19</time>
      </trkpt>
      <trkpt lat="33.07391" lon="35.16593833333334">
        <ele>104</ele>
        <time>2013-02-12T21:12:01.22</time>
      </trkpt>
      <trkpt lat="33.07392" lon="35.165955">
        <ele>103.9</ele>
        <time>2013-02-12T21:12:02.17</time>
      </trkpt>
      <trkpt lat="33.07392" lon="35.16596833333333">
        <ele>104.7</ele>
        <time>2013-02-12T21:12:03.18</time>
      </trkpt>
      <trkpt lat="33.07392333333333" lon="35.16598333333334">
        <ele>107</ele>
        <time>2013-02-12T21:12:04.17</time>
      </trkpt>
      <trkpt lat="33.073928333333335" lon="35.16600666666667">
        <ele>107.9</ele>
        <time>2013-02-12T21:12:05.18</time>
      </trkpt>
      <trkpt lat="33.07393833333333" lon="35.166025">
        <ele>108.4</ele>
        <time>2013-02-12T21:12:06.17</time>
      </trkpt>
      <trkpt lat="33.07394166666667" lon="35.166035">
        <ele>108.7</ele>
        <time>2013-02-12T21:12:07.17</time>
      </trkpt>
      <trkpt lat="33.073945" lon="35.16605">
        <ele>109</ele>
        <time>2013-02-12T21:12:08.17</time>
      </trkpt>
      <trkpt lat="33.073948333333334" lon="35.16607666666667">
        <ele>108.7</ele>
        <time>2013-02-12T21:12:09.19</time>
      </trkpt>
      <trkpt lat="33.07394333333333" lon="35.16609833333333">
        <ele>109.3</ele>
        <time>2013-02-12T21:12:10.17</time>
      </trkpt>
      <trkpt lat="33.073948333333334" lon="35.16611666666667">
        <ele>108.8</ele>
        <time>2013-02-12T21:12:11.17</time>
      </trkpt>
      <trkpt lat="33.07395833333333" lon="35.166133333333335">
        <ele>109.3</ele>
        <time>2013-02-12T21:12:12.18</time>
      </trkpt>
      <trkpt lat="33.07395833333333" lon="35.166155">
        <ele>109.39999999999999</ele>
        <time>2013-02-12T21:12:13.18</time>
      </trkpt>
      <trkpt lat="33.073945" lon="35.166175">
        <ele>109.6</ele>
        <time>2013-02-12T21:12:14.17</time>
      </trkpt>
      <trkpt lat="33.073946666666664" lon="35.16619333333333">
        <ele>109.5</ele>
        <time>2013-02-12T21:12:15.18</time>
      </trkpt>
      <trkpt lat="33.07395833333333" lon="35.1662">
        <ele>108.9</ele>
        <time>2013-02-12T21:12:16.23</time>
      </trkpt>
      <trkpt lat="33.07396333333333" lon="35.166215">
        <ele>108.60000000000001</ele>
        <time>2013-02-12T21:12:17.19</time>
      </trkpt>
      <trkpt lat="33.07398666666667" lon="35.16622666666667">
        <ele>108.2</ele>
        <time>2013-02-12T21:12:18.17</time>
      </trkpt>
      <trkpt lat="33.07398833333333" lon="35.16624">
        <ele>108.5</ele>
        <time>2013-02-12T21:12:19.18</time>
      </trkpt>
      <trkpt lat="33.07398833333333" lon="35.166265">
        <ele>108.4</ele>
        <time>2013-02-12T21:12:20.17</time>
      </trkpt>
      <trkpt lat="33.07400333333333" lon="35.16629666666667">
        <ele>108.80000000000001</ele>
        <time>2013-02-12T21:12:21.18</time>
      </trkpt>
      <trkpt lat="33.07402166666667" lon="35.16631833333334">
        <ele>108.20000000000002</ele>
        <time>2013-02-12T21:12:22.16</time>
      </trkpt>
      <trkpt lat="33.074025" lon="35.16634">
        <ele>108.00000000000001</ele>
        <time>2013-02-12T21:12:23.19</time>
      </trkpt>
      <trkpt lat="33.07403333333333" lon="35.166358333333335">
        <ele>107.50000000000001</ele>
        <time>2013-02-12T21:12:24.20</time>
      </trkpt>
      <trkpt lat="33.07405" lon="35.16637">
        <ele>108.10000000000001</ele>
        <time>2013-02-12T21:12:25.19</time>
      </trkpt>
      <trkpt lat="33.07406" lon="35.16638666666667">
        <ele>108.60000000000001</ele>
        <time>2013-02-12T21:12:26.24</time>
      </trkpt>
      <trkpt lat="33.07409166666667" lon="35.166403333333335">
        <ele>108.00000000000001</ele>
        <time>2013-02-12T21:12:27.18</time>
      </trkpt>
      <trkpt lat="33.07409833333333" lon="35.166421666666665">
        <ele>108.20000000000002</ele>
        <time>2013-02-12T21:12:28.21</time>
      </trkpt>
      <trkpt lat="33.074101666666664" lon="35.166445">
        <ele>108.60000000000002</ele>
        <time>2013-02-12T21:12:29.19</time>
      </trkpt>
      <trkpt lat="33.07412166666667" lon="35.16646166666666">
        <ele>107.80000000000003</ele>
        <time>2013-02-12T21:12:30.21</time>
      </trkpt>
      <trkpt lat="33.074133333333336" lon="35.166475">
        <ele>107.80000000000003</ele>
        <time>2013-02-12T21:12:31.18</time>
      </trkpt>
      <trkpt lat="33.074126666666665" lon="35.166491666666666">
        <ele>108.10000000000002</ele>
        <time>2013-02-12T21:12:32.24</time>
      </trkpt>
      <trkpt lat="33.07413833333333" lon="35.16651">
        <ele>107.70000000000002</ele>
        <time>2013-02-12T21:12:33.20</time>
      </trkpt>
      <trkpt lat="33.07414" lon="35.166525">
        <ele>107.60000000000002</ele>
        <time>2013-02-12T21:12:34.19</time>
      </trkpt>
      <trkpt lat="33.074153333333335" lon="35.16655333333333">
        <ele>106.80000000000003</ele>
        <time>2013-02-12T21:12:35.19</time>
      </trkpt>
      <trkpt lat="33.07416833333333" lon="35.166585">
        <ele>106.40000000000002</ele>
        <time>2013-02-12T21:12:36.17</time>
      </trkpt>
      <trkpt lat="33.074175" lon="35.16661">
        <ele>105.80000000000003</ele>
        <time>2013-02-12T21:12:37.17</time>
      </trkpt>
      <trkpt lat="33.07418833333333" lon="35.16663">
        <ele>106.40000000000002</ele>
        <time>2013-02-12T21:12:38.18</time>
      </trkpt>
      <trkpt lat="33.074215" lon="35.16664">
        <ele>106.30000000000003</ele>
        <time>2013-02-12T21:12:39.19</time>
      </trkpt>
      <trkpt lat="33.074225" lon="35.16666166666667">
        <ele>106.20000000000003</ele>
        <time>2013-02-12T21:12:40.19</time>
      </trkpt>
      <trkpt lat="33.074218333333334" lon="35.166671666666666">
        <ele>106.10000000000004</ele>
        <time>2013-02-12T21:12:41.19</time>
      </trkpt>
      <trkpt lat="33.074238333333334" lon="35.166673333333335">
        <ele>106.50000000000004</ele>
        <time>2013-02-12T21:12:42.19</time>
      </trkpt>
      <trkpt lat="33.07427" lon="35.16668166666667">
        <ele>107.60000000000004</ele>
        <time>2013-02-12T21:12:43.18</time>
      </trkpt>
      <trkpt lat="33.074286666666666" lon="35.166685">
        <ele>108.40000000000003</ele>
        <time>2013-02-12T21:12:44.19</time>
      </trkpt>
      <trkpt lat="33.074306666666665" lon="35.16669">
        <ele>108.70000000000003</ele>
        <time>2013-02-12T21:12:45.19</time>
      </trkpt>
      <trkpt lat="33.07431833333333" lon="35.16667">
        <ele>108.70000000000003</ele>
        <time>2013-02-12T21:12:46.20</time>
      </trkpt>
      <trkpt lat="33.07434" lon="35.16666">
        <ele>108.80000000000003</ele>
        <time>2013-02-12T21:12:47.19</time>
      </trkpt>
      <trkpt lat="33.074355" lon="35.166648333333335">
        <ele>109.20000000000003</ele>
        <time>2013-02-12T21:12:48.20</time>
      </trkpt>
      <trkpt lat="33.07437" lon="35.16663333333333">
        <ele>109.40000000000003</ele>
        <time>2013-02-12T21:12:49.20</time>
      </trkpt>
      <trkpt lat="33.074373333333334" lon="35.16661">
        <ele>109.30000000000004</ele>
        <time>2013-02-12T21:12:50.18</time>
      </trkpt>
      <trkpt lat="33.07438166666667" lon="35.1666">
        <ele>109.40000000000003</ele>
        <time>2013-02-12T21:12:51.20</time>
      </trkpt>
      <trkpt lat="33.07438333333333" lon="35.166581666666666">
        <ele>109.70000000000003</ele>
        <time>2013-02-12T21:12:52.20</time>
      </trkpt>
      <trkpt lat="33.07439333333333" lon="35.166558333333334">
        <ele>109.60000000000004</ele>
        <time>2013-02-12T21:12:53.20</time>
      </trkpt>
      <trkpt lat="33.074405" lon="35.16654166666667">
        <ele>109.10000000000004</ele>
        <time>2013-02-12T21:12:54.18</time>
      </trkpt>
      <trkpt lat="33.07440666666667" lon="35.16652166666667">
        <ele>109.50000000000004</ele>
        <time>2013-02-12T21:12:55.18</time>
      </trkpt>
      <trkpt lat="33.074405" lon="35.16649833333334">
        <ele>109.50000000000004</ele>
        <time>2013-02-12T21:12:56.18</time>
      </trkpt>
      <trkpt lat="33.07440833333333" lon="35.16647666666667">
        <ele>109.80000000000004</ele>
        <time>2013-02-12T21:12:57.20</time>
      </trkpt>
      <trkpt lat="33.07441166666667" lon="35.16646333333333">
        <ele>110.10000000000004</ele>
        <time>2013-02-12T21:12:58.19</time>
      </trkpt>
      <trkpt lat="33.07440666666667" lon="35.16644">
        <ele>109.70000000000003</ele>
        <time>2013-02-12T21:12:59.22</time>
      </trkpt>
      <trkpt lat="33.074415" lon="35.16643">
        <ele>110.00000000000003</ele>
        <time>2013-02-12T21:13:00.16</time>
      </trkpt>
      <trkpt lat="33.07441333333333" lon="35.16639333333333">
        <ele>110.40000000000003</ele>
        <time>2013-02-12T21:13:01.17</time>
      </trkpt>
      <trkpt lat="33.074423333333336" lon="35.16634833333333">
        <ele>110.10000000000004</ele>
        <time>2013-02-12T21:13:02.15</time>
      </trkpt>
      <trkpt lat="33.07443333333333" lon="35.166306666666664">
        <ele>109.80000000000004</ele>
        <time>2013-02-12T21:13:03.17</time>
      </trkpt>
      <trkpt lat="33.07443833333333" lon="35.16628333333333">
        <ele>110.20000000000005</ele>
        <time>2013-02-12T21:13:04.15</time>
      </trkpt>
      <trkpt lat="33.074435" lon="35.166273333333336">
        <ele>111.50000000000004</ele>
        <time>2013-02-12T21:13:05.15</time>
      </trkpt>
      <trkpt lat="33.07443166666667" lon="35.16626">
        <ele>111.10000000000004</ele>
        <time>2013-02-12T21:13:06.15</time>
      </trkpt>
      <trkpt lat="33.074436666666664" lon="35.166246666666666">
        <ele>111.40000000000003</ele>
        <time>2013-02-12T21:13:07.17</time>
      </trkpt>
      <trkpt lat="33.074423333333336" lon="35.166225">
        <ele>112.10000000000004</ele>
        <time>2013-02-12T21:13:09.15</time>
      </trkpt>
      <trkpt lat="33.07442666666667" lon="35.16621333333333">
        <ele>112.50000000000004</ele>
        <time>2013-02-12T21:13:10.15</time>
      </trkpt>
      <trkpt lat="33.074436666666664" lon="35.166198333333334">
        <ele>112.50000000000004</ele>
        <time>2013-02-12T21:13:11.15</time>
      </trkpt>
      <trkpt lat="33.07444666666667" lon="35.166183333333336">
        <ele>112.90000000000005</ele>
        <time>2013-02-12T21:13:12.17</time>
      </trkpt>
      <trkpt lat="33.074448333333336" lon="35.16617">
        <ele>113.10000000000005</ele>
        <time>2013-02-12T21:13:13.18</time>
      </trkpt>
      <trkpt lat="33.07445333333333" lon="35.166153333333334">
        <ele>113.40000000000005</ele>
        <time>2013-02-12T21:13:14.22</time>
      </trkpt>
      <trkpt lat="33.074465000000004" lon="35.16614">
        <ele>113.80000000000005</ele>
        <time>2013-02-12T21:13:15.18</time>
      </trkpt>
      <trkpt lat="33.07447833333333" lon="35.16612666666666">
        <ele>113.80000000000005</ele>
        <time>2013-02-12T21:13:16.18</time>
      </trkpt>
      <trkpt lat="33.07447833333333" lon="35.16611833333333">
        <ele>114.60000000000005</ele>
        <time>2013-02-12T21:13:17.18</time>
      </trkpt>
      <trkpt lat="33.07447833333333" lon="35.166105">
        <ele>114.70000000000005</ele>
        <time>2013-02-12T21:13:18.19</time>
      </trkpt>
      <trkpt lat="33.074475" lon="35.166088333333335">
        <ele>114.90000000000005</ele>
        <time>2013-02-12T21:13:19.18</time>
      </trkpt>
      <trkpt lat="33.07447" lon="35.16607">
        <ele>115.40000000000005</ele>
        <time>2013-02-12T21:13:20.24</time>
      </trkpt>
      <trkpt lat="33.07447" lon="35.16605666666667">
        <ele>115.80000000000005</ele>
        <time>2013-02-12T21:13:21.19</time>
      </trkpt>
      <trkpt lat="33.074481666666664" lon="35.16605166666667">
        <ele>116.90000000000005</ele>
        <time>2013-02-12T21:13:22.18</time>
      </trkpt>
      <trkpt lat="33.07447666666667" lon="35.166041666666665">
        <ele>116.90000000000005</ele>
        <time>2013-02-12T21:13:23.19</time>
      </trkpt>
      <trkpt lat="33.074485" lon="35.16603166666667">
        <ele>117.30000000000005</ele>
        <time>2013-02-12T21:13:24.19</time>
      </trkpt>
      <trkpt lat="33.07448333333333" lon="35.165996666666665">
        <ele>117.00000000000006</ele>
        <time>2013-02-12T21:13:25.20</time>
      </trkpt>
      <trkpt lat="33.074486666666665" lon="35.165978333333335">
        <ele>117.70000000000006</ele>
        <time>2013-02-12T21:13:26.25</time>
      </trkpt>
      <trkpt lat="33.07449666666667" lon="35.165956666666666">
        <ele>117.80000000000005</ele>
        <time>2013-02-12T21:13:27.19</time>
      </trkpt>
      <trkpt lat="33.07449" lon="35.16593666666667">
        <ele>117.90000000000005</ele>
        <time>2013-02-12T21:13:28.19</time>
      </trkpt>
      <trkpt lat="33.07452833333333" lon="35.16592">
        <ele>118.40000000000005</ele>
        <time>2013-02-12T21:13:29.18</time>
      </trkpt>
      <trkpt lat="33.07452" lon="35.165911666666666">
        <ele>118.30000000000005</ele>
        <time>2013-02-12T21:13:30.20</time>
      </trkpt>
      <trkpt lat="33.07452" lon="35.1659">
        <ele>118.90000000000005</ele>
        <time>2013-02-12T21:13:31.18</time>
      </trkpt>
      <trkpt lat="33.074525" lon="35.16589">
        <ele>118.90000000000005</ele>
        <time>2013-02-12T21:13:32.20</time>
      </trkpt>
      <trkpt lat="33.07454" lon="35.16587666666667">
        <ele>119.30000000000005</ele>
        <time>2013-02-12T21:13:33.20</time>
      </trkpt>
      <trkpt lat="33.07454166666667" lon="35.16585666666667">
        <ele>119.90000000000005</ele>
        <time>2013-02-12T21:13:34.21</time>
      </trkpt>
      <trkpt lat="33.07455" lon="35.16583333333333">
        <ele>120.20000000000005</ele>
        <time>2013-02-12T21:13:35.20</time>
      </trkpt>
      <trkpt lat="33.07456666666667" lon="35.16582666666667">
        <ele>120.40000000000005</ele>
        <time>2013-02-12T21:13:36.18</time>
      </trkpt>
      <trkpt lat="33.07457333333333" lon="35.165825">
        <ele>119.70000000000005</ele>
        <time>2013-02-12T21:13:37.18</time>
      </trkpt>
      <trkpt lat="33.07458166666667" lon="35.16581">
        <ele>118.60000000000005</ele>
        <time>2013-02-12T21:13:38.18</time>
      </trkpt>
      <trkpt lat="33.07459333333333" lon="35.1658">
        <ele>118.70000000000005</ele>
        <time>2013-02-12T21:13:39.21</time>
      </trkpt>
      <trkpt lat="33.074596666666665" lon="35.16579333333333">
        <ele>118.80000000000004</ele>
        <time>2013-02-12T21:13:40.18</time>
      </trkpt>
      <trkpt lat="33.07461333333333" lon="35.165773333333334">
        <ele>118.80000000000004</ele>
        <time>2013-02-12T21:13:41.20</time>
      </trkpt>
      <trkpt lat="33.074616666666664" lon="35.165751666666665">
        <ele>119.30000000000004</ele>
        <time>2013-02-12T21:13:42.17</time>
      </trkpt>
      <trkpt lat="33.07463" lon="35.16574">
        <ele>118.90000000000003</ele>
        <time>2013-02-12T21:13:43.19</time>
      </trkpt>
      <trkpt lat="33.074643333333334" lon="35.16571833333333">
        <ele>119.40000000000003</ele>
        <time>2013-02-12T21:13:44.19</time>
      </trkpt>
      <trkpt lat="33.07465666666667" lon="35.165685">
        <ele>119.80000000000004</ele>
        <time>2013-02-12T21:13:45.20</time>
      </trkpt>
      <trkpt lat="33.07467666666667" lon="35.16567333333333">
        <ele>121.10000000000004</ele>
        <time>2013-02-12T21:13:46.20</time>
      </trkpt>
      <trkpt lat="33.074686666666665" lon="35.16565833333333">
        <ele>120.70000000000003</ele>
        <time>2013-02-12T21:13:47.18</time>
      </trkpt>
      <trkpt lat="33.07469666666667" lon="35.16564833333333">
        <ele>121.40000000000003</ele>
        <time>2013-02-12T21:13:48.20</time>
      </trkpt>
      <trkpt lat="33.074695" lon="35.16563166666667">
        <ele>122.30000000000004</ele>
        <time>2013-02-12T21:13:49.19</time>
      </trkpt>
      <trkpt lat="33.07472" lon="35.165618333333335">
        <ele>122.80000000000004</ele>
        <time>2013-02-12T21:13:50.26</time>
      </trkpt>
      <trkpt lat="33.074733333333334" lon="35.165596666666666">
        <ele>123.40000000000003</ele>
        <time>2013-02-12T21:13:51.20</time>
      </trkpt>
      <trkpt lat="33.07474333333333" lon="35.165593333333334">
        <ele>123.70000000000003</ele>
        <time>2013-02-12T21:13:52.19</time>
      </trkpt>
      <trkpt lat="33.07475" lon="35.165575">
        <ele>123.40000000000003</ele>
        <time>2013-02-12T21:13:53.18</time>
      </trkpt>
      <trkpt lat="33.07476166666667" lon="35.16556">
        <ele>124.10000000000004</ele>
        <time>2013-02-12T21:13:54.18</time>
      </trkpt>
      <trkpt lat="33.07478166666667" lon="35.165551666666666">
        <ele>123.90000000000003</ele>
        <time>2013-02-12T21:13:55.19</time>
      </trkpt>
      <trkpt lat="33.074775" lon="35.16553">
        <ele>124.00000000000003</ele>
        <time>2013-02-12T21:13:56.19</time>
      </trkpt>
      <trkpt lat="33.07479166666667" lon="35.16551833333333">
        <ele>124.50000000000003</ele>
        <time>2013-02-12T21:13:57.21</time>
      </trkpt>
      <trkpt lat="33.074795" lon="35.16549833333333">
        <ele>124.20000000000003</ele>
        <time>2013-02-12T21:13:58.19</time>
      </trkpt>
      <trkpt lat="33.07479333333333" lon="35.16546">
        <ele>123.40000000000003</ele>
        <time>2013-02-12T21:13:59.20</time>
      </trkpt>
      <trkpt lat="33.074801666666666" lon="35.165445">
        <ele>123.70000000000003</ele>
        <time>2013-02-12T21:14:00.17</time>
      </trkpt>
      <trkpt lat="33.074801666666666" lon="35.16542833333333">
        <ele>123.50000000000003</ele>
        <time>2013-02-12T21:14:01.20</time>
      </trkpt>
      <trkpt lat="33.07481166666667" lon="35.16541">
        <ele>124.10000000000002</ele>
        <time>2013-02-12T21:14:02.19</time>
      </trkpt>
      <trkpt lat="33.07482666666667" lon="35.165395">
        <ele>124.30000000000003</ele>
        <time>2013-02-12T21:14:03.19</time>
      </trkpt>
      <trkpt lat="33.07483666666667" lon="35.16536833333333">
        <ele>124.70000000000003</ele>
        <time>2013-02-12T21:14:04.21</time>
      </trkpt>
      <trkpt lat="33.074855" lon="35.16535833333333">
        <ele>125.40000000000003</ele>
        <time>2013-02-12T21:14:05.20</time>
      </trkpt>
      <trkpt lat="33.074865" lon="35.165333333333336">
        <ele>126.00000000000003</ele>
        <time>2013-02-12T21:14:06.20</time>
      </trkpt>
      <trkpt lat="33.07487833333333" lon="35.16531666666667">
        <ele>125.80000000000003</ele>
        <time>2013-02-12T21:14:07.20</time>
      </trkpt>
      <trkpt lat="33.07487666666667" lon="35.165305">
        <ele>126.00000000000003</ele>
        <time>2013-02-12T21:14:08.18</time>
      </trkpt>
      <trkpt lat="33.07487666666667" lon="35.16528">
        <ele>126.70000000000003</ele>
        <time>2013-02-12T21:14:09.20</time>
      </trkpt>
      <trkpt lat="33.07488166666667" lon="35.165265">
        <ele>126.70000000000003</ele>
        <time>2013-02-12T21:14:10.21</time>
      </trkpt>
      <trkpt lat="33.07489" lon="35.165243333333336">
        <ele>127.10000000000004</ele>
        <time>2013-02-12T21:14:11.19</time>
      </trkpt>
      <trkpt lat="33.07490833333333" lon="35.165215">
        <ele>127.20000000000003</ele>
        <time>2013-02-12T21:14:12.18</time>
      </trkpt>
      <trkpt lat="33.07491" lon="35.16520666666667">
        <ele>127.20000000000003</ele>
        <time>2013-02-12T21:14:13.17</time>
      </trkpt>
      <trkpt lat="33.07491666666667" lon="35.16519666666667">
        <ele>127.70000000000003</ele>
        <time>2013-02-12T21:14:15.17</time>
      </trkpt>
      <trkpt lat="33.07494333333333" lon="35.16519">
        <ele>127.80000000000003</ele>
        <time>2013-02-12T21:14:16.17</time>
      </trkpt>
      <trkpt lat="33.07494333333333" lon="35.16517">
        <ele>128.00000000000003</ele>
        <time>2013-02-12T21:14:17.17</time>
      </trkpt>
      <trkpt lat="33.07494666666667" lon="35.16515">
        <ele>128.50000000000003</ele>
        <time>2013-02-12T21:14:18.15</time>
      </trkpt>
      <trkpt lat="33.074955" lon="35.165128333333335">
        <ele>128.80000000000004</ele>
        <time>2013-02-12T21:14:19.15</time>
      </trkpt>
      <trkpt lat="33.07496166666667" lon="35.165105">
        <ele>128.90000000000003</ele>
        <time>2013-02-12T21:14:20.15</time>
      </trkpt>
      <trkpt lat="33.07496166666667" lon="35.16511166666667">
        <ele>129.10000000000002</ele>
        <time>2013-02-12T21:14:21.15</time>
      </trkpt>
      <trkpt lat="33.07496833333333" lon="35.16508833333334">
        <ele>131.10000000000002</ele>
        <time>2013-02-12T21:14:23.15</time>
      </trkpt>
      <trkpt lat="33.07499166666667" lon="35.16506666666667">
        <ele>132.20000000000002</ele>
        <time>2013-02-12T21:14:24.15</time>
      </trkpt>
      <trkpt lat="33.07500833333334" lon="35.165065">
        <ele>133.60000000000002</ele>
        <time>2013-02-12T21:14:25.15</time>
      </trkpt>
      <trkpt lat="33.07501833333333" lon="35.165063333333336">
        <ele>133.8</ele>
        <time>2013-02-12T21:14:26.18</time>
      </trkpt>
      <trkpt lat="33.075025" lon="35.165061666666666">
        <ele>132.5</ele>
        <time>2013-02-12T21:14:27.18</time>
      </trkpt>
      <trkpt lat="33.075035" lon="35.165078333333334">
        <ele>132.5</ele>
        <time>2013-02-12T21:14:28.15</time>
      </trkpt>
      <trkpt lat="33.07503833333333" lon="35.16509333333333">
        <ele>132.9</ele>
        <time>2013-02-12T21:14:29.15</time>
      </trkpt>
      <trkpt lat="33.07503833333333" lon="35.165101666666665">
        <ele>133.6</ele>
        <time>2013-02-12T21:14:30.16</time>
      </trkpt>
      <trkpt lat="33.075025" lon="35.165063333333336">
        <ele>131.7</ele>
        <time>2013-02-12T21:14:31.17</time>
      </trkpt>
      <trkpt lat="33.07504" lon="35.165076666666664">
        <ele>131.79999999999998</ele>
        <time>2013-02-12T21:14:32.18</time>
      </trkpt>
      <trkpt lat="33.07503666666667" lon="35.16509666666666">
        <ele>131.2</ele>
        <time>2013-02-12T21:14:33.18</time>
      </trkpt>
      <trkpt lat="33.075041666666664" lon="35.16511666666667">
        <ele>131.39999999999998</ele>
        <time>2013-02-12T21:14:34.18</time>
      </trkpt>
      <trkpt lat="33.07504" lon="35.16513">
        <ele>130.99999999999997</ele>
        <time>2013-02-12T21:14:35.18</time>
      </trkpt>
      <trkpt lat="33.07505" lon="35.16514166666666">
        <ele>130.89999999999998</ele>
        <time>2013-02-12T21:14:36.17</time>
      </trkpt>
      <trkpt lat="33.07505333333334" lon="35.165155">
        <ele>131.29999999999998</ele>
        <time>2013-02-12T21:14:37.17</time>
      </trkpt>
      <trkpt lat="33.07505" lon="35.165171666666666">
        <ele>131.29999999999998</ele>
        <time>2013-02-12T21:14:38.17</time>
      </trkpt>
      <trkpt lat="33.07505" lon="35.16518333333333">
        <ele>130.7</ele>
        <time>2013-02-12T21:14:39.17</time>
      </trkpt>
      <trkpt lat="33.07505" lon="35.165193333333335">
        <ele>131.1</ele>
        <time>2013-02-12T21:14:40.18</time>
      </trkpt>
      <trkpt lat="33.07505" lon="35.165211666666664">
        <ele>131.1</ele>
        <time>2013-02-12T21:14:41.20</time>
      </trkpt>
      <trkpt lat="33.07505833333333" lon="35.165225">
        <ele>130.9</ele>
        <time>2013-02-12T21:14:42.17</time>
      </trkpt>
      <trkpt lat="33.07505333333334" lon="35.165235">
        <ele>131.20000000000002</ele>
        <time>2013-02-12T21:14:43.18</time>
      </trkpt>
      <trkpt lat="33.07504333333333" lon="35.16526">
        <ele>130.8</ele>
        <time>2013-02-12T21:14:44.17</time>
      </trkpt>
      <trkpt lat="33.075041666666664" lon="35.16527333333333">
        <ele>130.70000000000002</ele>
        <time>2013-02-12T21:14:45.22</time>
      </trkpt>
      <trkpt lat="33.075041666666664" lon="35.165288333333336">
        <ele>131.00000000000003</ele>
        <time>2013-02-12T21:14:46.20</time>
      </trkpt>
      <trkpt lat="33.075048333333335" lon="35.16531">
        <ele>131.50000000000003</ele>
        <time>2013-02-12T21:14:47.18</time>
      </trkpt>
      <trkpt lat="33.07506166666667" lon="35.165345">
        <ele>133.50000000000003</ele>
        <time>2013-02-12T21:14:48.22</time>
      </trkpt>
      <trkpt lat="33.075066666666665" lon="35.165373333333335">
        <ele>133.00000000000003</ele>
        <time>2013-02-12T21:14:49.19</time>
      </trkpt>
      <trkpt lat="33.07508333333333" lon="35.1654">
        <ele>132.90000000000003</ele>
        <time>2013-02-12T21:14:50.20</time>
      </trkpt>
      <trkpt lat="33.07508" lon="35.16540666666667">
        <ele>132.80000000000004</ele>
        <time>2013-02-12T21:14:51.19</time>
      </trkpt>
      <trkpt lat="33.07508" lon="35.165415">
        <ele>133.70000000000005</ele>
        <time>2013-02-12T21:14:52.19</time>
      </trkpt>
      <trkpt lat="33.07508833333333" lon="35.16543333333333">
        <ele>134.00000000000006</ele>
        <time>2013-02-12T21:14:53.18</time>
      </trkpt>
      <trkpt lat="33.07509666666667" lon="35.16545333333333">
        <ele>134.20000000000005</ele>
        <time>2013-02-12T21:14:54.20</time>
      </trkpt>
      <trkpt lat="33.075091666666665" lon="35.165463333333335">
        <ele>134.60000000000005</ele>
        <time>2013-02-12T21:14:55.19</time>
      </trkpt>
      <trkpt lat="33.075093333333335" lon="35.165486666666666">
        <ele>134.50000000000006</ele>
        <time>2013-02-12T21:14:56.19</time>
      </trkpt>
      <trkpt lat="33.07510166666667" lon="35.16549833333333">
        <ele>134.60000000000005</ele>
        <time>2013-02-12T21:14:57.20</time>
      </trkpt>
      <trkpt lat="33.07510666666667" lon="35.16551333333334">
        <ele>134.50000000000006</ele>
        <time>2013-02-12T21:14:58.19</time>
      </trkpt>
      <trkpt lat="33.07512" lon="35.165528333333334">
        <ele>133.90000000000006</ele>
        <time>2013-02-12T21:14:59.19</time>
      </trkpt>
      <trkpt lat="33.07511" lon="35.16555">
        <ele>134.00000000000006</ele>
        <time>2013-02-12T21:15:00.16</time>
      </trkpt>
      <trkpt lat="33.07514" lon="35.16555666666667">
        <ele>134.9</ele>
        <time>2013-02-12T21:15:03.20</time>
      </trkpt>
      <trkpt lat="33.075158333333334" lon="35.16556333333333">
        <ele>134.70000000000002</ele>
        <time>2013-02-12T21:15:04.19</time>
      </trkpt>
      <trkpt lat="33.07517166666667" lon="35.165575">
        <ele>134.50000000000003</ele>
        <time>2013-02-12T21:15:05.18</time>
      </trkpt>
      <trkpt lat="33.07518" lon="35.165578333333336">
        <ele>135.00000000000003</ele>
        <time>2013-02-12T21:15:06.19</time>
      </trkpt>
      <trkpt lat="33.075185" lon="35.16559">
        <ele>134.90000000000003</ele>
        <time>2013-02-12T21:15:07.18</time>
      </trkpt>
      <trkpt lat="33.075195" lon="35.16559">
        <ele>134.80000000000004</ele>
        <time>2013-02-12T21:15:08.20</time>
      </trkpt>
      <trkpt lat="33.075221666666664" lon="35.165585">
        <ele>134.90000000000003</ele>
        <time>2013-02-12T21:15:09.20</time>
      </trkpt>
      <trkpt lat="33.075228333333335" lon="35.165578333333336">
        <ele>135.00000000000003</ele>
        <time>2013-02-12T21:15:10.21</time>
      </trkpt>
      <trkpt lat="33.075245" lon="35.16558833333333">
        <ele>135.60000000000002</ele>
        <time>2013-02-12T21:15:11.19</time>
      </trkpt>
      <trkpt lat="33.07525666666667" lon="35.16560333333334">
        <ele>135.40000000000003</ele>
        <time>2013-02-12T21:15:12.19</time>
      </trkpt>
      <trkpt lat="33.075271666666666" lon="35.165615">
        <ele>135.00000000000003</ele>
        <time>2013-02-12T21:15:13.18</time>
      </trkpt>
      <trkpt lat="33.07527833333333" lon="35.16562166666667">
        <ele>135.40000000000003</ele>
        <time>2013-02-12T21:15:14.18</time>
      </trkpt>
      <trkpt lat="33.075291666666665" lon="35.165643333333335">
        <ele>136.40000000000003</ele>
        <time>2013-02-12T21:15:15.20</time>
      </trkpt>
      <trkpt lat="33.075311666666664" lon="35.16563166666667">
        <ele>136.60000000000002</ele>
        <time>2013-02-12T21:15:16.19</time>
      </trkpt>
      <trkpt lat="33.07532166666667" lon="35.16563166666667">
        <ele>137.50000000000003</ele>
        <time>2013-02-12T21:15:17.18</time>
      </trkpt>
      <trkpt lat="33.07532666666667" lon="35.165623333333336">
        <ele>137.00000000000003</ele>
        <time>2013-02-12T21:15:18.19</time>
      </trkpt>
      <trkpt lat="33.075338333333335" lon="35.165636666666664">
        <ele>137.00000000000003</ele>
        <time>2013-02-12T21:15:19.19</time>
      </trkpt>
      <trkpt lat="33.075356666666664" lon="35.165625">
        <ele>137.30000000000004</ele>
        <time>2013-02-12T21:15:20.18</time>
      </trkpt>
      <trkpt lat="33.075388333333336" lon="35.165605">
        <ele>137.50000000000003</ele>
        <time>2013-02-12T21:15:21.19</time>
      </trkpt>
      <trkpt lat="33.075388333333336" lon="35.165595">
        <ele>137.70000000000002</ele>
        <time>2013-02-12T21:15:22.19</time>
      </trkpt>
      <trkpt lat="33.075408333333336" lon="35.165591666666664">
        <ele>138.8</ele>
        <time>2013-02-12T21:15:23.18</time>
      </trkpt>
      <trkpt lat="33.075415" lon="35.165585">
        <ele>139.20000000000002</ele>
        <time>2013-02-12T21:15:24.20</time>
      </trkpt>
      <trkpt lat="33.07541666666667" lon="35.16556166666667">
        <ele>139.4</ele>
        <time>2013-02-12T21:15:25.19</time>
      </trkpt>
      <trkpt lat="33.075428333333335" lon="35.16554333333333">
        <ele>139.3</ele>
        <time>2013-02-12T21:15:26.26</time>
      </trkpt>
      <trkpt lat="33.07544333333333" lon="35.16553666666667">
        <ele>139.70000000000002</ele>
        <time>2013-02-12T21:15:27.20</time>
      </trkpt>
      <trkpt lat="33.075466666666664" lon="35.165531666666666">
        <ele>140.60000000000002</ele>
        <time>2013-02-12T21:15:28.19</time>
      </trkpt>
      <trkpt lat="33.075473333333335" lon="35.165533333333336">
        <ele>141.3</ele>
        <time>2013-02-12T21:15:29.18</time>
      </trkpt>
      <trkpt lat="33.07548833333333" lon="35.165533333333336">
        <ele>141.10000000000002</ele>
        <time>2013-02-12T21:15:30.18</time>
      </trkpt>
      <trkpt lat="33.07550666666667" lon="35.165531666666666">
        <ele>140.70000000000002</ele>
        <time>2013-02-12T21:15:31.19</time>
      </trkpt>
      <trkpt lat="33.075511666666664" lon="35.165535">
        <ele>140.60000000000002</ele>
        <time>2013-02-12T21:15:32.18</time>
      </trkpt>
      <trkpt lat="33.075536666666665" lon="35.165526666666665">
        <ele>140.3</ele>
        <time>2013-02-12T21:15:33.19</time>
      </trkpt>
      <trkpt lat="33.075565" lon="35.165535">
        <ele>141.3</ele>
        <time>2013-02-12T21:15:34.19</time>
      </trkpt>
      <trkpt lat="33.075588333333336" lon="35.16551833333333">
        <ele>141.4</ele>
        <time>2013-02-12T21:15:35.22</time>
      </trkpt>
      <trkpt lat="33.075605" lon="35.165508333333335">
        <ele>142.20000000000002</ele>
        <time>2013-02-12T21:15:36.19</time>
      </trkpt>
      <trkpt lat="33.07562" lon="35.1655">
        <ele>142.50000000000003</ele>
        <time>2013-02-12T21:15:37.18</time>
      </trkpt>
      <trkpt lat="33.075626666666665" lon="35.16549833333333">
        <ele>142.90000000000003</ele>
        <time>2013-02-12T21:15:38.19</time>
      </trkpt>
      <trkpt lat="33.075646666666664" lon="35.16549166666667">
        <ele>142.90000000000003</ele>
        <time>2013-02-12T21:15:39.19</time>
      </trkpt>
      <trkpt lat="33.07566" lon="35.165488333333336">
        <ele>143.30000000000004</ele>
        <time>2013-02-12T21:15:40.18</time>
      </trkpt>
      <trkpt lat="33.075673333333334" lon="35.165465">
        <ele>143.50000000000003</ele>
        <time>2013-02-12T21:15:41.18</time>
      </trkpt>
      <trkpt lat="33.075675" lon="35.165455">
        <ele>143.80000000000004</ele>
        <time>2013-02-12T21:15:42.19</time>
      </trkpt>
      <trkpt lat="33.075676666666666" lon="35.165443333333336">
        <ele>144.20000000000005</ele>
        <time>2013-02-12T21:15:43.19</time>
      </trkpt>
      <trkpt lat="33.07569" lon="35.165455">
        <ele>144.60000000000005</ele>
        <time>2013-02-12T21:15:45.20</time>
      </trkpt>
      <trkpt lat="33.07570166666667" lon="35.16545">
        <ele>145.00000000000006</ele>
        <time>2013-02-12T21:15:46.18</time>
      </trkpt>
      <trkpt lat="33.075718333333334" lon="35.165435">
        <ele>145.00000000000006</ele>
        <time>2013-02-12T21:15:47.19</time>
      </trkpt>
      <trkpt lat="33.07573166666667" lon="35.165436666666665">
        <ele>146.60000000000005</ele>
        <time>2013-02-12T21:15:48.19</time>
      </trkpt>
      <trkpt lat="33.07574666666667" lon="35.165416666666665">
        <ele>147.20000000000005</ele>
        <time>2013-02-12T21:15:49.21</time>
      </trkpt>
      <trkpt lat="33.07576" lon="35.16541333333333">
        <ele>147.60000000000005</ele>
        <time>2013-02-12T21:15:50.20</time>
      </trkpt>
      <trkpt lat="33.075788333333335" lon="35.165425">
        <ele>147.30000000000004</ele>
        <time>2013-02-12T21:15:51.20</time>
      </trkpt>
      <trkpt lat="33.07580333333333" lon="35.16542">
        <ele>147.00000000000003</ele>
        <time>2013-02-12T21:15:52.19</time>
      </trkpt>
      <trkpt lat="33.075815" lon="35.165405">
        <ele>146.90000000000003</ele>
        <time>2013-02-12T21:15:53.18</time>
      </trkpt>
      <trkpt lat="33.075825" lon="35.165398333333336">
        <ele>147.30000000000004</ele>
        <time>2013-02-12T21:15:54.19</time>
      </trkpt>
      <trkpt lat="33.075828333333334" lon="35.16538833333333">
        <ele>147.30000000000004</ele>
        <time>2013-02-12T21:15:55.19</time>
      </trkpt>
      <trkpt lat="33.07584666666666" lon="35.165385">
        <ele>147.60000000000005</ele>
        <time>2013-02-12T21:15:56.19</time>
      </trkpt>
      <trkpt lat="33.075885" lon="35.16538333333333">
        <ele>146.30000000000004</ele>
        <time>2013-02-12T21:15:58.21</time>
      </trkpt>
      <trkpt lat="33.07590833333333" lon="35.165375">
        <ele>145.80000000000004</ele>
        <time>2013-02-12T21:15:59.19</time>
      </trkpt>
      <trkpt lat="33.075916666666664" lon="35.16537833333334">
        <ele>146.20000000000005</ele>
        <time>2013-02-12T21:16:00.16</time>
      </trkpt>
      <trkpt lat="33.075945" lon="35.165396666666666">
        <ele>145.80000000000004</ele>
        <time>2013-02-12T21:16:01.18</time>
      </trkpt>
      <trkpt lat="33.07597" lon="35.1654">
        <ele>145.70000000000005</ele>
        <time>2013-02-12T21:16:02.18</time>
      </trkpt>
      <trkpt lat="33.07599333333334" lon="35.165411666666664">
        <ele>146.10000000000005</ele>
        <time>2013-02-12T21:16:03.19</time>
      </trkpt>
      <trkpt lat="33.07599833333333" lon="35.165395">
        <ele>146.30000000000004</ele>
        <time>2013-02-12T21:16:04.24</time>
      </trkpt>
      <trkpt lat="33.07601666666667" lon="35.16540666666667">
        <ele>146.70000000000005</ele>
        <time>2013-02-12T21:16:05.19</time>
      </trkpt>
      <trkpt lat="33.07604333333333" lon="35.165405">
        <ele>146.80000000000004</ele>
        <time>2013-02-12T21:16:06.18</time>
      </trkpt>
      <trkpt lat="33.076058333333336" lon="35.16541">
        <ele>146.50000000000003</ele>
        <time>2013-02-12T21:16:07.19</time>
      </trkpt>
      <trkpt lat="33.076078333333335" lon="35.16539">
        <ele>147.40000000000003</ele>
        <time>2013-02-12T21:16:08.18</time>
      </trkpt>
      <trkpt lat="33.07608333333334" lon="35.165393333333334">
        <ele>147.40000000000003</ele>
        <time>2013-02-12T21:16:09.19</time>
      </trkpt>
      <trkpt lat="33.076098333333334" lon="35.16538666666667">
        <ele>147.00000000000003</ele>
        <time>2013-02-12T21:16:10.18</time>
      </trkpt>
      <trkpt lat="33.07611" lon="35.165395">
        <ele>147.10000000000002</ele>
        <time>2013-02-12T21:16:11.18</time>
      </trkpt>
      <trkpt lat="33.076121666666666" lon="35.165398333333336">
        <ele>147.20000000000002</ele>
        <time>2013-02-12T21:16:12.19</time>
      </trkpt>
      <trkpt lat="33.07612833333334" lon="35.165416666666665">
        <ele>146.8</ele>
        <time>2013-02-12T21:16:13.19</time>
      </trkpt>
      <trkpt lat="33.076146666666666" lon="35.16542833333333">
        <ele>147</ele>
        <time>2013-02-12T21:16:14.25</time>
      </trkpt>
      <trkpt lat="33.076166666666666" lon="35.16542666666667">
        <ele>147.7</ele>
        <time>2013-02-12T21:16:15.19</time>
      </trkpt>
      <trkpt lat="33.07619666666667" lon="35.16542">
        <ele>147.7</ele>
        <time>2013-02-12T21:16:16.18</time>
      </trkpt>
      <trkpt lat="33.076225" lon="35.16542">
        <ele>148.2</ele>
        <time>2013-02-12T21:16:17.18</time>
      </trkpt>
      <trkpt lat="33.07624333333333" lon="35.165415">
        <ele>148.39999999999998</ele>
        <time>2013-02-12T21:16:18.19</time>
      </trkpt>
      <trkpt lat="33.076265" lon="35.16540333333333">
        <ele>148.2</ele>
        <time>2013-02-12T21:16:19.19</time>
      </trkpt>
      <trkpt lat="33.076296666666664" lon="35.165405">
        <ele>148.79999999999998</ele>
        <time>2013-02-12T21:16:20.18</time>
      </trkpt>
      <trkpt lat="33.07631" lon="35.16540333333333">
        <ele>149.2</ele>
        <time>2013-02-12T21:16:21.20</time>
      </trkpt>
      <trkpt lat="33.07631166666667" lon="35.165415">
        <ele>149.5</ele>
        <time>2013-02-12T21:16:22.20</time>
      </trkpt>
      <trkpt lat="33.076335" lon="35.16542333333334">
        <ele>150.1</ele>
        <time>2013-02-12T21:16:23.22</time>
      </trkpt>
      <trkpt lat="33.076341666666664" lon="35.16542166666667">
        <ele>150.5</ele>
        <time>2013-02-12T21:16:24.19</time>
      </trkpt>
      <trkpt lat="33.07636333333333" lon="35.165418333333335">
        <ele>150.8</ele>
        <time>2013-02-12T21:16:25.18</time>
      </trkpt>
      <trkpt lat="33.076375" lon="35.16542166666667">
        <ele>151.3</ele>
        <time>2013-02-12T21:16:26.19</time>
      </trkpt>
      <trkpt lat="33.07639833333333" lon="35.165425">
        <ele>151.4</ele>
        <time>2013-02-12T21:16:27.19</time>
      </trkpt>
      <trkpt lat="33.076411666666665" lon="35.165416666666665">
        <ele>151.9</ele>
        <time>2013-02-12T21:16:28.19</time>
      </trkpt>
      <trkpt lat="33.076431666666664" lon="35.165416666666665">
        <ele>152.20000000000002</ele>
        <time>2013-02-12T21:16:29.18</time>
      </trkpt>
      <trkpt lat="33.07644666666667" lon="35.165418333333335">
        <ele>153.3</ele>
        <time>2013-02-12T21:16:30.18</time>
      </trkpt>
      <trkpt lat="33.07646" lon="35.165411666666664">
        <ele>154.10000000000002</ele>
        <time>2013-02-12T21:16:31.17</time>
      </trkpt>
      <trkpt lat="33.07648" lon="35.16541333333333">
        <ele>154.3</ele>
        <time>2013-02-12T21:16:32.19</time>
      </trkpt>
      <trkpt lat="33.076503333333335" lon="35.16540666666667">
        <ele>154.60000000000002</ele>
        <time>2013-02-12T21:16:33.20</time>
      </trkpt>
      <trkpt lat="33.07652" lon="35.165415">
        <ele>154.8</ele>
        <time>2013-02-12T21:16:34.18</time>
      </trkpt>
      <trkpt lat="33.07654" lon="35.165415">
        <ele>154.8</ele>
        <time>2013-02-12T21:16:35.18</time>
      </trkpt>
      <trkpt lat="33.07655333333334" lon="35.165416666666665">
        <ele>154.9</ele>
        <time>2013-02-12T21:16:36.18</time>
      </trkpt>
      <trkpt lat="33.076573333333336" lon="35.16542166666667">
        <ele>155.1</ele>
        <time>2013-02-12T21:16:37.20</time>
      </trkpt>
      <trkpt lat="33.07659833333334" lon="35.165435">
        <ele>156</ele>
        <time>2013-02-12T21:16:38.25</time>
      </trkpt>
      <trkpt lat="33.076615" lon="35.165438333333334">
        <ele>156</ele>
        <time>2013-02-12T21:16:39.21</time>
      </trkpt>
      <trkpt lat="33.076633333333334" lon="35.16543333333333">
        <ele>156</ele>
        <time>2013-02-12T21:16:40.19</time>
      </trkpt>
      <trkpt lat="33.076635" lon="35.16542666666667">
        <ele>155.6</ele>
        <time>2013-02-12T21:16:41.18</time>
      </trkpt>
      <trkpt lat="33.07664333333334" lon="35.165425">
        <ele>155.7</ele>
        <time>2013-02-12T21:16:42.19</time>
      </trkpt>
      <trkpt lat="33.07664833333333" lon="35.16541333333333">
        <ele>156.89999999999998</ele>
        <time>2013-02-12T21:16:43.18</time>
      </trkpt>
      <trkpt lat="33.07666833333333" lon="35.165425">
        <ele>157.09999999999997</ele>
        <time>2013-02-12T21:16:44.19</time>
      </trkpt>
      <trkpt lat="33.076695" lon="35.16542833333333">
        <ele>157.19999999999996</ele>
        <time>2013-02-12T21:16:45.19</time>
      </trkpt>
      <trkpt lat="33.07671666666667" lon="35.165435">
        <ele>157.29999999999995</ele>
        <time>2013-02-12T21:16:46.21</time>
      </trkpt>
      <trkpt lat="33.07674166666666" lon="35.16542833333333">
        <ele>157.19999999999996</ele>
        <time>2013-02-12T21:16:47.18</time>
      </trkpt>
      <trkpt lat="33.076746666666665" lon="35.165425">
        <ele>157.19999999999996</ele>
        <time>2013-02-12T21:16:48.19</time>
      </trkpt>
      <trkpt lat="33.07676" lon="35.16542666666667">
        <ele>157.79999999999995</ele>
        <time>2013-02-12T21:16:49.18</time>
      </trkpt>
      <trkpt lat="33.07676333333333" lon="35.16541333333333">
        <ele>158.09999999999997</ele>
        <time>2013-02-12T21:16:50.18</time>
      </trkpt>
      <trkpt lat="33.07678" lon="35.16542">
        <ele>157.89999999999998</ele>
        <time>2013-02-12T21:16:51.20</time>
      </trkpt>
      <trkpt lat="33.076805" lon="35.16542333333334">
        <ele>157.79999999999998</ele>
        <time>2013-02-12T21:16:52.19</time>
      </trkpt>
      <trkpt lat="33.076818333333335" lon="35.16543">
        <ele>158.2</ele>
        <time>2013-02-12T21:16:53.19</time>
      </trkpt>
      <trkpt lat="33.07684" lon="35.16542833333333">
        <ele>157.89999999999998</ele>
        <time>2013-02-12T21:16:54.20</time>
      </trkpt>
      <trkpt lat="33.076855" lon="35.16542666666667">
        <ele>157.59999999999997</ele>
        <time>2013-02-12T21:16:55.20</time>
      </trkpt>
      <trkpt lat="33.07687333333333" lon="35.165418333333335">
        <ele>158.09999999999997</ele>
        <time>2013-02-12T21:16:56.18</time>
      </trkpt>
      <trkpt lat="33.076895" lon="35.16542666666667">
        <ele>157.99999999999997</ele>
        <time>2013-02-12T21:16:57.19</time>
      </trkpt>
      <trkpt lat="33.07692333333333" lon="35.165418333333335">
        <ele>158.39999999999998</ele>
        <time>2013-02-12T21:16:58.19</time>
      </trkpt>
      <trkpt lat="33.076933333333336" lon="35.16540833333333">
        <ele>158.2</ele>
        <time>2013-02-12T21:16:59.18</time>
      </trkpt>
      <trkpt lat="33.07696" lon="35.165416666666665">
        <ele>158.39999999999998</ele>
        <time>2013-02-12T21:17:00.17</time>
      </trkpt>
      <trkpt lat="33.07697" lon="35.16541333333333">
        <ele>158.89999999999998</ele>
        <time>2013-02-12T21:17:01.18</time>
      </trkpt>
      <trkpt lat="33.07697666666667" lon="35.16541333333333">
        <ele>159.29999999999998</ele>
        <time>2013-02-12T21:17:02.19</time>
      </trkpt>
      <trkpt lat="33.076985" lon="35.16542">
        <ele>159.7</ele>
        <time>2013-02-12T21:17:03.19</time>
      </trkpt>
      <trkpt lat="33.07700333333333" lon="35.165411666666664">
        <ele>159.79999999999998</ele>
        <time>2013-02-12T21:17:04.18</time>
      </trkpt>
      <trkpt lat="33.07702333333334" lon="35.1654">
        <ele>159.6</ele>
        <time>2013-02-12T21:17:05.18</time>
      </trkpt>
      <trkpt lat="33.077055" lon="35.165405">
        <ele>159</ele>
        <time>2013-02-12T21:17:06.18</time>
      </trkpt>
      <trkpt lat="33.07707666666666" lon="35.165405">
        <ele>159.1</ele>
        <time>2013-02-12T21:17:07.19</time>
      </trkpt>
      <trkpt lat="33.07707833333333" lon="35.165411666666664">
        <ele>158.7</ele>
        <time>2013-02-12T21:17:08.18</time>
      </trkpt>
      <trkpt lat="33.07711166666667" lon="35.1654">
        <ele>156.89999999999998</ele>
        <time>2013-02-12T21:17:09.19</time>
      </trkpt>
      <trkpt lat="33.077128333333334" lon="35.16538666666667">
        <ele>157.89999999999998</ele>
        <time>2013-02-12T21:17:10.17</time>
      </trkpt>
      <trkpt lat="33.07714" lon="35.165375">
        <ele>157.99999999999997</ele>
        <time>2013-02-12T21:17:11.18</time>
      </trkpt>
      <trkpt lat="33.077165" lon="35.16535666666667">
        <ele>157.69999999999996</ele>
        <time>2013-02-12T21:17:12.18</time>
      </trkpt>
      <trkpt lat="33.07718833333333" lon="35.165353333333336">
        <ele>157.49999999999997</ele>
        <time>2013-02-12T21:17:13.18</time>
      </trkpt>
      <trkpt lat="33.077193333333334" lon="35.165328333333335">
        <ele>156.69999999999996</ele>
        <time>2013-02-12T21:17:14.17</time>
      </trkpt>
      <trkpt lat="33.07721" lon="35.165333333333336">
        <ele>157.19999999999996</ele>
        <time>2013-02-12T21:17:15.18</time>
      </trkpt>
      <trkpt lat="33.077223333333336" lon="35.165328333333335">
        <ele>157.29999999999995</ele>
        <time>2013-02-12T21:17:16.17</time>
      </trkpt>
      <trkpt lat="33.07725166666667" lon="35.16533">
        <ele>156.99999999999994</ele>
        <time>2013-02-12T21:17:17.17</time>
      </trkpt>
      <trkpt lat="33.077263333333335" lon="35.16533">
        <ele>157.29999999999995</ele>
        <time>2013-02-12T21:17:18.18</time>
      </trkpt>
      <trkpt lat="33.07727333333333" lon="35.16533">
        <ele>157.19999999999996</ele>
        <time>2013-02-12T21:17:19.15</time>
      </trkpt>
      <trkpt lat="33.077285" lon="35.16533166666667">
        <ele>157.49999999999997</ele>
        <time>2013-02-12T21:17:20.15</time>
      </trkpt>
      <trkpt lat="33.07729833333333" lon="35.16531166666667">
        <ele>158.29999999999998</ele>
        <time>2013-02-12T21:17:21.15</time>
      </trkpt>
      <trkpt lat="33.07731" lon="35.165303333333334">
        <ele>158.99999999999997</ele>
        <time>2013-02-12T21:17:22.16</time>
      </trkpt>
      <trkpt lat="33.077328333333334" lon="35.16529833333333">
        <ele>159.09999999999997</ele>
        <time>2013-02-12T21:17:23.15</time>
      </trkpt>
      <trkpt lat="33.077345" lon="35.165303333333334">
        <ele>159.79999999999995</ele>
        <time>2013-02-12T21:17:24.15</time>
      </trkpt>
      <trkpt lat="33.07736" lon="35.16529333333333">
        <ele>160.09999999999997</ele>
        <time>2013-02-12T21:17:25.16</time>
      </trkpt>
      <trkpt lat="33.077375" lon="35.16529833333333">
        <ele>160.39999999999998</ele>
        <time>2013-02-12T21:17:26.15</time>
      </trkpt>
      <trkpt lat="33.077396666666665" lon="35.165306666666666">
        <ele>161.2</ele>
        <time>2013-02-12T21:17:27.17</time>
      </trkpt>
      <trkpt lat="33.077415" lon="35.165303333333334">
        <ele>161.39999999999998</ele>
        <time>2013-02-12T21:17:28.18</time>
      </trkpt>
      <trkpt lat="33.077425" lon="35.165303333333334">
        <ele>161.89999999999998</ele>
        <time>2013-02-12T21:17:29.15</time>
      </trkpt>
      <trkpt lat="33.07743166666667" lon="35.165321666666664">
        <ele>162.2</ele>
        <time>2013-02-12T21:17:30.15</time>
      </trkpt>
      <trkpt lat="33.077436666666664" lon="35.16533166666667">
        <ele>162.7</ele>
        <time>2013-02-12T21:17:31.15</time>
      </trkpt>
      <trkpt lat="33.077461666666665" lon="35.16533833333333">
        <ele>163.39999999999998</ele>
        <time>2013-02-12T21:17:32.15</time>
      </trkpt>
      <trkpt lat="33.077475" lon="35.16533666666667">
        <ele>163.79999999999998</ele>
        <time>2013-02-12T21:17:33.16</time>
      </trkpt>
      <trkpt lat="33.07748" lon="35.165348333333334">
        <ele>163.89999999999998</ele>
        <time>2013-02-12T21:17:34.18</time>
      </trkpt>
      <trkpt lat="33.077488333333335" lon="35.165345">
        <ele>163.99999999999997</ele>
        <time>2013-02-12T21:17:35.18</time>
      </trkpt>
      <trkpt lat="33.0775" lon="35.16533166666667">
        <ele>164.09999999999997</ele>
        <time>2013-02-12T21:17:36.19</time>
      </trkpt>
      <trkpt lat="33.07752833333333" lon="35.16534">
        <ele>163.89999999999998</ele>
        <time>2013-02-12T21:17:37.17</time>
      </trkpt>
      <trkpt lat="33.077555" lon="35.16535666666667">
        <ele>163.89999999999998</ele>
        <time>2013-02-12T21:17:38.23</time>
      </trkpt>
      <trkpt lat="33.07756833333333" lon="35.16536">
        <ele>163.99999999999997</ele>
        <time>2013-02-12T21:17:39.21</time>
      </trkpt>
      <trkpt lat="33.077576666666666" lon="35.16538666666667">
        <ele>163.79999999999998</ele>
        <time>2013-02-12T21:17:40.21</time>
      </trkpt>
      <trkpt lat="33.07762666666667" lon="35.16536833333333">
        <ele>161.2</ele>
        <time>2013-02-12T21:17:41.21</time>
      </trkpt>
      <trkpt lat="33.077598333333334" lon="35.165398333333336">
        <ele>160.29999999999998</ele>
        <time>2013-02-12T21:17:42.19</time>
      </trkpt>
      <trkpt lat="33.07757" lon="35.165418333333335">
        <ele>158.89999999999998</ele>
        <time>2013-02-12T21:17:43.25</time>
      </trkpt>
      <trkpt lat="33.07754666666667" lon="35.165445">
        <ele>159.2</ele>
        <time>2013-02-12T21:17:44.19</time>
      </trkpt>
      <trkpt lat="33.077533333333335" lon="35.1655">
        <ele>156.2</ele>
        <time>2013-02-12T21:17:45.19</time>
      </trkpt>
      <trkpt lat="33.077545" lon="35.165545">
        <ele>155.7</ele>
        <time>2013-02-12T21:17:46.19</time>
      </trkpt>
      <trkpt lat="33.07753833333334" lon="35.16558166666667">
        <ele>155.39999999999998</ele>
        <time>2013-02-12T21:17:47.19</time>
      </trkpt>
      <trkpt lat="33.07753" lon="35.16560333333334">
        <ele>155.49999999999997</ele>
        <time>2013-02-12T21:17:48.20</time>
      </trkpt>
      <trkpt lat="33.07752166666667" lon="35.16562166666667">
        <ele>155.19999999999996</ele>
        <time>2013-02-12T21:17:49.19</time>
      </trkpt>
      <trkpt lat="33.077525" lon="35.16565">
        <ele>155.49999999999997</ele>
        <time>2013-02-12T21:17:50.19</time>
      </trkpt>
      <trkpt lat="33.07753" lon="35.165675">
        <ele>155.49999999999997</ele>
        <time>2013-02-12T21:17:51.20</time>
      </trkpt>
      <trkpt lat="33.07752166666667" lon="35.16569">
        <ele>154.79999999999998</ele>
        <time>2013-02-12T21:17:52.19</time>
      </trkpt>
      <trkpt lat="33.07752166666667" lon="35.1657">
        <ele>155.2</ele>
        <time>2013-02-12T21:17:53.17</time>
      </trkpt>
      <trkpt lat="33.07752166666667" lon="35.165706666666665">
        <ele>155.5</ele>
        <time>2013-02-12T21:17:54.18</time>
      </trkpt>
      <trkpt lat="33.07752333333333" lon="35.165713333333336">
        <ele>155.6</ele>
        <time>2013-02-12T21:17:55.18</time>
      </trkpt>
      <trkpt lat="33.077508333333334" lon="35.16571">
        <ele>155.6</ele>
        <time>2013-02-12T21:17:57.20</time>
      </trkpt>
      <trkpt lat="33.077511666666666" lon="35.16569666666667">
        <ele>156.2</ele>
        <time>2013-02-12T21:17:58.18</time>
      </trkpt>
      <trkpt lat="33.07750333333333" lon="35.16568">
        <ele>155.5</ele>
        <time>2013-02-12T21:18:00.16</time>
      </trkpt>
      <trkpt lat="33.07747833333333" lon="35.16567166666667">
        <ele>155.8</ele>
        <time>2013-02-12T21:18:01.20</time>
      </trkpt>
      <trkpt lat="33.07747" lon="35.16567166666667">
        <ele>155.8</ele>
        <time>2013-02-12T21:18:02.19</time>
      </trkpt>
      <trkpt lat="33.07745833333333" lon="35.16565833333333">
        <ele>156.10000000000002</ele>
        <time>2013-02-12T21:18:03.19</time>
      </trkpt>
      <trkpt lat="33.07743166666667" lon="35.16564">
        <ele>156.8</ele>
        <time>2013-02-12T21:18:04.20</time>
      </trkpt>
      <trkpt lat="33.07741333333333" lon="35.16563333333333">
        <ele>157.20000000000002</ele>
        <time>2013-02-12T21:18:05.20</time>
      </trkpt>
      <trkpt lat="33.077385" lon="35.16563333333333">
        <ele>157.20000000000002</ele>
        <time>2013-02-12T21:18:06.21</time>
      </trkpt>
      <trkpt lat="33.077353333333335" lon="35.16563166666667">
        <ele>157.20000000000002</ele>
        <time>2013-02-12T21:18:08.19</time>
      </trkpt>
      <trkpt lat="33.077335" lon="35.165625">
        <ele>157.3</ele>
        <time>2013-02-12T21:18:09.19</time>
      </trkpt>
      <trkpt lat="33.07732166666667" lon="35.165616666666665">
        <ele>157.10000000000002</ele>
        <time>2013-02-12T21:18:10.18</time>
      </trkpt>
      <trkpt lat="33.07729" lon="35.165625">
        <ele>156.8</ele>
        <time>2013-02-12T21:18:11.20</time>
      </trkpt>
      <trkpt lat="33.07725666666666" lon="35.16563166666667">
        <ele>157</ele>
        <time>2013-02-12T21:18:12.16</time>
      </trkpt>
      <trkpt lat="33.077235" lon="35.16562833333333">
        <ele>157</ele>
        <time>2013-02-12T21:18:13.17</time>
      </trkpt>
      <trkpt lat="33.07722666666667" lon="35.16560666666667">
        <ele>157.5</ele>
        <time>2013-02-12T21:18:14.18</time>
      </trkpt>
      <trkpt lat="33.077191666666664" lon="35.165585">
        <ele>157.5</ele>
        <time>2013-02-12T21:18:15.17</time>
      </trkpt>
      <trkpt lat="33.07716666666666" lon="35.165578333333336">
        <ele>156.7</ele>
        <time>2013-02-12T21:18:16.15</time>
      </trkpt>
      <trkpt lat="33.077133333333336" lon="35.16559">
        <ele>156.2</ele>
        <time>2013-02-12T21:18:17.15</time>
      </trkpt>
      <trkpt lat="33.077106666666666" lon="35.16560166666667">
        <ele>155.39999999999998</ele>
        <time>2013-02-12T21:18:18.15</time>
      </trkpt>
      <trkpt lat="33.07707" lon="35.16558833333333">
        <ele>154.89999999999998</ele>
        <time>2013-02-12T21:18:19.18</time>
      </trkpt>
      <trkpt lat="33.07705166666667" lon="35.165591666666664">
        <ele>154.2</ele>
        <time>2013-02-12T21:18:20.18</time>
      </trkpt>
      <trkpt lat="33.07704666666667" lon="35.16558166666667">
        <ele>153.5</ele>
        <time>2013-02-12T21:18:21.16</time>
      </trkpt>
      <trkpt lat="33.07702166666667" lon="35.16558833333333">
        <ele>153.3</ele>
        <time>2013-02-12T21:18:22.15</time>
      </trkpt>
      <trkpt lat="33.076998333333336" lon="35.165578333333336">
        <ele>153.60000000000002</ele>
        <time>2013-02-12T21:18:23.15</time>
      </trkpt>
      <trkpt lat="33.07697666666667" lon="35.165571666666665">
        <ele>154.10000000000002</ele>
        <time>2013-02-12T21:18:24.16</time>
      </trkpt>
      <trkpt lat="33.07693" lon="35.16557666666667">
        <ele>154.3</ele>
        <time>2013-02-12T21:18:25.18</time>
      </trkpt>
      <trkpt lat="33.076903333333334" lon="35.16556666666666">
        <ele>154.60000000000002</ele>
        <time>2013-02-12T21:18:26.22</time>
      </trkpt>
      <trkpt lat="33.07687166666667" lon="35.165578333333336">
        <ele>153.10000000000002</ele>
        <time>2013-02-12T21:18:27.19</time>
      </trkpt>
      <trkpt lat="33.07683333333333" lon="35.1656">
        <ele>151.60000000000002</ele>
        <time>2013-02-12T21:18:28.20</time>
      </trkpt>
      <trkpt lat="33.07680333333333" lon="35.165623333333336">
        <ele>151.10000000000002</ele>
        <time>2013-02-12T21:18:29.21</time>
      </trkpt>
      <trkpt lat="33.07675666666667" lon="35.16564">
        <ele>151.10000000000002</ele>
        <time>2013-02-12T21:18:30.19</time>
      </trkpt>
      <trkpt lat="33.07671333333333" lon="35.16565833333333">
        <ele>151.10000000000002</ele>
        <time>2013-02-12T21:18:31.19</time>
      </trkpt>
      <trkpt lat="33.076683333333335" lon="35.16565833333333">
        <ele>150.40000000000003</ele>
        <time>2013-02-12T21:18:32.18</time>
      </trkpt>
      <trkpt lat="33.076636666666666" lon="35.16566666666667">
        <ele>150.20000000000005</ele>
        <time>2013-02-12T21:18:33.19</time>
      </trkpt>
      <trkpt lat="33.076595" lon="35.165695">
        <ele>149.90000000000003</ele>
        <time>2013-02-12T21:18:34.17</time>
      </trkpt>
      <trkpt lat="33.076566666666665" lon="35.165706666666665">
        <ele>150.20000000000005</ele>
        <time>2013-02-12T21:18:35.17</time>
      </trkpt>
      <trkpt lat="33.07653666666667" lon="35.16572">
        <ele>150.30000000000004</ele>
        <time>2013-02-12T21:18:36.25</time>
      </trkpt>
      <trkpt lat="33.07651166666667" lon="35.16571166666667">
        <ele>151.10000000000005</ele>
        <time>2013-02-12T21:18:37.27</time>
      </trkpt>
      <trkpt lat="33.07649833333333" lon="35.165685">
        <ele>150.70000000000005</ele>
        <time>2013-02-12T21:18:38.19</time>
      </trkpt>
      <trkpt lat="33.07648" lon="35.16567833333333">
        <ele>151.10000000000005</ele>
        <time>2013-02-12T21:18:39.22</time>
      </trkpt>
      <trkpt lat="33.076465" lon="35.16567166666667">
        <ele>151.10000000000005</ele>
        <time>2013-02-12T21:18:40.22</time>
      </trkpt>
      <trkpt lat="33.076435" lon="35.165675">
        <ele>151.50000000000006</ele>
        <time>2013-02-12T21:18:41.17</time>
      </trkpt>
      <trkpt lat="33.076393333333336" lon="35.165661666666665">
        <ele>151.00000000000006</ele>
        <time>2013-02-12T21:18:42.17</time>
      </trkpt>
      <trkpt lat="33.07636333333333" lon="35.16565833333333">
        <ele>151.00000000000006</ele>
        <time>2013-02-12T21:18:43.20</time>
      </trkpt>
      <trkpt lat="33.076321666666665" lon="35.16567333333333">
        <ele>150.90000000000006</ele>
        <time>2013-02-12T21:18:44.20</time>
      </trkpt>
      <trkpt lat="33.07629333333333" lon="35.16566666666667">
        <ele>150.90000000000006</ele>
        <time>2013-02-12T21:18:45.25</time>
      </trkpt>
      <trkpt lat="33.076251666666664" lon="35.165665">
        <ele>151.10000000000005</ele>
        <time>2013-02-12T21:18:46.18</time>
      </trkpt>
      <trkpt lat="33.076213333333335" lon="35.165683333333334">
        <ele>151.30000000000004</ele>
        <time>2013-02-12T21:18:47.17</time>
      </trkpt>
      <trkpt lat="33.07617833333333" lon="35.165683333333334">
        <ele>151.50000000000003</ele>
        <time>2013-02-12T21:18:48.17</time>
      </trkpt>
      <trkpt lat="33.076165" lon="35.16571666666667">
        <ele>150.90000000000003</ele>
        <time>2013-02-12T21:18:49.18</time>
      </trkpt>
      <trkpt lat="33.076143333333334" lon="35.165745">
        <ele>150.50000000000003</ele>
        <time>2013-02-12T21:18:50.17</time>
      </trkpt>
      <trkpt lat="33.076125" lon="35.165765">
        <ele>150.50000000000003</ele>
        <time>2013-02-12T21:18:51.18</time>
      </trkpt>
      <trkpt lat="33.07610833333333" lon="35.165771666666664">
        <ele>150.40000000000003</ele>
        <time>2013-02-12T21:18:52.18</time>
      </trkpt>
      <trkpt lat="33.076085" lon="35.16577">
        <ele>150.60000000000002</ele>
        <time>2013-02-12T21:18:53.15</time>
      </trkpt>
      <trkpt lat="33.07606833333333" lon="35.165796666666665">
        <ele>151.20000000000002</ele>
        <time>2013-02-12T21:18:54.16</time>
      </trkpt>
      <trkpt lat="33.07603833333334" lon="35.165815">
        <ele>151.00000000000003</ele>
        <time>2013-02-12T21:18:55.18</time>
      </trkpt>
      <trkpt lat="33.07602333333333" lon="35.16582666666667">
        <ele>151.30000000000004</ele>
        <time>2013-02-12T21:18:56.17</time>
      </trkpt>
      <trkpt lat="33.076006666666665" lon="35.165843333333335">
        <ele>151.50000000000003</ele>
        <time>2013-02-12T21:18:57.17</time>
      </trkpt>
      <trkpt lat="33.07597333333333" lon="35.165861666666665">
        <ele>150.50000000000003</ele>
        <time>2013-02-12T21:18:58.18</time>
      </trkpt>
      <trkpt lat="33.07593833333333" lon="35.16587666666667">
        <ele>150.10000000000002</ele>
        <time>2013-02-12T21:18:59.22</time>
      </trkpt>
      <trkpt lat="33.075935" lon="35.16589">
        <ele>150.10000000000002</ele>
        <time>2013-02-12T21:19:00.14</time>
      </trkpt>
      <trkpt lat="33.07586833333333" lon="35.165926666666664">
        <ele>150.3</ele>
        <time>2013-02-12T21:19:01.19</time>
      </trkpt>
      <trkpt lat="33.07583833333333" lon="35.16593666666667">
        <ele>151.20000000000002</ele>
        <time>2013-02-12T21:19:02.23</time>
      </trkpt>
      <trkpt lat="33.075795" lon="35.16596833333333">
        <ele>149.9</ele>
        <time>2013-02-12T21:19:03.17</time>
      </trkpt>
      <trkpt lat="33.07575833333333" lon="35.16600666666667">
        <ele>150.70000000000002</ele>
        <time>2013-02-12T21:19:04.16</time>
      </trkpt>
      <trkpt lat="33.07572666666667" lon="35.16605333333333">
        <ele>150.3</ele>
        <time>2013-02-12T21:19:05.17</time>
      </trkpt>
      <trkpt lat="33.07570166666667" lon="35.166086666666665">
        <ele>150</ele>
        <time>2013-02-12T21:19:06.16</time>
      </trkpt>
      <trkpt lat="33.07568" lon="35.166111666666666">
        <ele>150.6</ele>
        <time>2013-02-12T21:19:07.16</time>
      </trkpt>
      <trkpt lat="33.07565666666667" lon="35.16612833333333">
        <ele>150.1</ele>
        <time>2013-02-12T21:19:08.23</time>
      </trkpt>
      <trkpt lat="33.07563666666667" lon="35.16612833333333">
        <ele>150.1</ele>
        <time>2013-02-12T21:19:09.18</time>
      </trkpt>
      <trkpt lat="33.07561833333333" lon="35.16612">
        <ele>150</ele>
        <time>2013-02-12T21:19:10.16</time>
      </trkpt>
      <trkpt lat="33.075585" lon="35.16612833333333">
        <ele>150.2</ele>
        <time>2013-02-12T21:19:11.19</time>
      </trkpt>
      <trkpt lat="33.07554833333333" lon="35.16614333333333">
        <ele>150.39999999999998</ele>
        <time>2013-02-12T21:19:12.22</time>
      </trkpt>
      <trkpt lat="33.07551333333333" lon="35.166155">
        <ele>149.59999999999997</ele>
        <time>2013-02-12T21:19:13.17</time>
      </trkpt>
      <trkpt lat="33.075465" lon="35.16616333333333">
        <ele>149.19999999999996</ele>
        <time>2013-02-12T21:19:14.22</time>
      </trkpt>
      <trkpt lat="33.07544" lon="35.166176666666665">
        <ele>148.99999999999997</ele>
        <time>2013-02-12T21:19:15.20</time>
      </trkpt>
      <trkpt lat="33.075408333333336" lon="35.166195">
        <ele>148.99999999999997</ele>
        <time>2013-02-12T21:19:16.16</time>
      </trkpt>
      <trkpt lat="33.07536833333333" lon="35.16621166666667">
        <ele>148.49999999999997</ele>
        <time>2013-02-12T21:19:17.16</time>
      </trkpt>
      <trkpt lat="33.075325" lon="35.16623166666667">
        <ele>147.99999999999997</ele>
        <time>2013-02-12T21:19:18.19</time>
      </trkpt>
      <trkpt lat="33.07530833333333" lon="35.16623333333333">
        <ele>147.69999999999996</ele>
        <time>2013-02-12T21:19:19.18</time>
      </trkpt>
      <trkpt lat="33.075273333333335" lon="35.166248333333336">
        <ele>147.39999999999995</ele>
        <time>2013-02-12T21:19:20.18</time>
      </trkpt>
      <trkpt lat="33.075255" lon="35.16627166666667">
        <ele>147.09999999999994</ele>
        <time>2013-02-12T21:19:21.19</time>
      </trkpt>
      <trkpt lat="33.075225" lon="35.16631">
        <ele>146.79999999999993</ele>
        <time>2013-02-12T21:19:22.17</time>
      </trkpt>
      <trkpt lat="33.075206666666666" lon="35.16634666666667">
        <ele>145.69999999999993</ele>
        <time>2013-02-12T21:19:23.17</time>
      </trkpt>
      <trkpt lat="33.075161666666666" lon="35.16637">
        <ele>144.49999999999994</ele>
        <time>2013-02-12T21:19:24.16</time>
      </trkpt>
      <trkpt lat="33.07510833333333" lon="35.166403333333335">
        <ele>142.09999999999994</ele>
        <time>2013-02-12T21:19:25.17</time>
      </trkpt>
      <trkpt lat="33.075066666666665" lon="35.166423333333334">
        <ele>140.29999999999993</ele>
        <time>2013-02-12T21:19:26.17</time>
      </trkpt>
      <trkpt lat="33.07499166666667" lon="35.16649">
        <ele>137.89999999999992</ele>
        <time>2013-02-12T21:19:27.19</time>
      </trkpt>
      <trkpt lat="33.074995" lon="35.16649666666667">
        <ele>137.5999999999999</ele>
        <time>2013-02-12T21:19:28.22</time>
      </trkpt>
      <trkpt lat="33.074983333333336" lon="35.16650166666667">
        <ele>137.2999999999999</ele>
        <time>2013-02-12T21:19:29.22</time>
      </trkpt>
      <trkpt lat="33.074978333333334" lon="35.16652833333333">
        <ele>136.0999999999999</ele>
        <time>2013-02-12T21:19:30.20</time>
      </trkpt>
      <trkpt lat="33.07497" lon="35.16654">
        <ele>136.2999999999999</ele>
        <time>2013-02-12T21:19:31.20</time>
      </trkpt>
      <trkpt lat="33.07496" lon="35.166555">
        <ele>135.4999999999999</ele>
        <time>2013-02-12T21:19:32.19</time>
      </trkpt>
      <trkpt lat="33.074955" lon="35.166565">
        <ele>134.69999999999987</ele>
        <time>2013-02-12T21:19:33.21</time>
      </trkpt>
      <trkpt lat="33.074951666666664" lon="35.166576666666664">
        <ele>133.79999999999987</ele>
        <time>2013-02-12T21:19:34.20</time>
      </trkpt>
      <trkpt lat="33.074951666666664" lon="35.16659666666666">
        <ele>133.79999999999987</ele>
        <time>2013-02-12T21:19:35.19</time>
      </trkpt>
      <trkpt lat="33.074955" lon="35.166585">
        <ele>133.69999999999987</ele>
        <time>2013-02-12T21:19:37.18</time>
      </trkpt>
      <trkpt lat="33.07494666666667" lon="35.16659166666667">
        <ele>133.79999999999987</ele>
        <time>2013-02-12T21:19:38.18</time>
      </trkpt>
      <trkpt lat="33.07494166666667" lon="35.16659666666666">
        <ele>133.49999999999986</ele>
        <time>2013-02-12T21:19:39.19</time>
      </trkpt>
      <trkpt lat="33.07492833333333" lon="35.16661">
        <ele>133.29999999999987</ele>
        <time>2013-02-12T21:19:40.19</time>
      </trkpt>
      <trkpt lat="33.07492833333333" lon="35.16661833333333">
        <ele>133.59999999999988</ele>
        <time>2013-02-12T21:19:41.18</time>
      </trkpt>
      <trkpt lat="33.07492166666667" lon="35.166635">
        <ele>134.09999999999988</ele>
        <time>2013-02-12T21:19:42.20</time>
      </trkpt>
      <trkpt lat="33.07491" lon="35.166655">
        <ele>134.09999999999988</ele>
        <time>2013-02-12T21:19:43.18</time>
      </trkpt>
      <trkpt lat="33.074891666666666" lon="35.166665">
        <ele>133.8999999999999</ele>
        <time>2013-02-12T21:19:44.18</time>
      </trkpt>
      <trkpt lat="33.07485666666667" lon="35.166705">
        <ele>132.6999999999999</ele>
        <time>2013-02-12T21:19:45.20</time>
      </trkpt>
      <trkpt lat="33.07483333333333" lon="35.166738333333335">
        <ele>131.99999999999991</ele>
        <time>2013-02-12T21:19:46.18</time>
      </trkpt>
      <trkpt lat="33.07481333333333" lon="35.166756666666664">
        <ele>132.1999999999999</ele>
        <time>2013-02-12T21:19:47.17</time>
      </trkpt>
      <trkpt lat="33.07479" lon="35.16678666666667">
        <ele>131.49999999999991</ele>
        <time>2013-02-12T21:19:48.20</time>
      </trkpt>
      <trkpt lat="33.074785" lon="35.16682">
        <ele>131.29999999999993</ele>
        <time>2013-02-12T21:19:49.19</time>
      </trkpt>
      <trkpt lat="33.07478166666667" lon="35.16685833333333">
        <ele>130.59999999999994</ele>
        <time>2013-02-12T21:19:50.20</time>
      </trkpt>
      <trkpt lat="33.074778333333335" lon="35.16687833333334">
        <ele>130.29999999999993</ele>
        <time>2013-02-12T21:19:51.20</time>
      </trkpt>
      <trkpt lat="33.07478" lon="35.16691">
        <ele>129.89999999999992</ele>
        <time>2013-02-12T21:19:52.17</time>
      </trkpt>
      <trkpt lat="33.074776666666665" lon="35.16693333333333">
        <ele>130.0999999999999</ele>
        <time>2013-02-12T21:19:53.18</time>
      </trkpt>
      <trkpt lat="33.07476833333333" lon="35.16694833333333">
        <ele>130.1999999999999</ele>
        <time>2013-02-12T21:19:54.19</time>
      </trkpt>
      <trkpt lat="33.07476666666667" lon="35.16695833333333">
        <ele>128.7999999999999</ele>
        <time>2013-02-12T21:19:55.18</time>
      </trkpt>
      <trkpt lat="33.07474666666667" lon="35.16697666666666">
        <ele>127.89999999999989</ele>
        <time>2013-02-12T21:19:56.19</time>
      </trkpt>
      <trkpt lat="33.074731666666665" lon="35.16701166666667">
        <ele>126.5999999999999</ele>
        <time>2013-02-12T21:19:57.19</time>
      </trkpt>
      <trkpt lat="33.074733333333334" lon="35.16701833333333">
        <ele>126.2999999999999</ele>
        <time>2013-02-12T21:19:58.20</time>
      </trkpt>
      <trkpt lat="33.07472333333333" lon="35.167035">
        <ele>126.5999999999999</ele>
        <time>2013-02-12T21:19:59.19</time>
      </trkpt>
      <trkpt lat="33.07471666666667" lon="35.16705666666667">
        <ele>125.5999999999999</ele>
        <time>2013-02-12T21:20:00.16</time>
      </trkpt>
      <trkpt lat="33.074705" lon="35.167075">
        <ele>125.19999999999989</ele>
        <time>2013-02-12T21:20:01.19</time>
      </trkpt>
      <trkpt lat="33.0747" lon="35.167105">
        <ele>124.79999999999988</ele>
        <time>2013-02-12T21:20:02.18</time>
      </trkpt>
      <trkpt lat="33.074685" lon="35.16713166666667">
        <ele>124.09999999999988</ele>
        <time>2013-02-12T21:20:03.20</time>
      </trkpt>
      <trkpt lat="33.07467" lon="35.167175">
        <ele>123.59999999999988</ele>
        <time>2013-02-12T21:20:04.18</time>
      </trkpt>
      <trkpt lat="33.07467333333334" lon="35.16721666666667">
        <ele>123.39999999999988</ele>
        <time>2013-02-12T21:20:05.18</time>
      </trkpt>
      <trkpt lat="33.07467833333333" lon="35.167265">
        <ele>122.39999999999988</ele>
        <time>2013-02-12T21:20:06.18</time>
      </trkpt>
      <trkpt lat="33.07466" lon="35.167296666666665">
        <ele>121.29999999999988</ele>
        <time>2013-02-12T21:20:07.19</time>
      </trkpt>
      <trkpt lat="33.07466" lon="35.16733833333333">
        <ele>119.69999999999989</ele>
        <time>2013-02-12T21:20:08.19</time>
      </trkpt>
      <trkpt lat="33.074655" lon="35.16739666666667">
        <ele>119.0999999999999</ele>
        <time>2013-02-12T21:20:09.19</time>
      </trkpt>
      <trkpt lat="33.07465666666667" lon="35.167435">
        <ele>118.2999999999999</ele>
        <time>2013-02-12T21:20:10.19</time>
      </trkpt>
      <trkpt lat="33.074665" lon="35.167476666666666">
        <ele>117.39999999999989</ele>
        <time>2013-02-12T21:20:11.17</time>
      </trkpt>
      <trkpt lat="33.07467666666667" lon="35.16751">
        <ele>116.69999999999989</ele>
        <time>2013-02-12T21:20:12.15</time>
      </trkpt>
      <trkpt lat="33.074668333333335" lon="35.16753666666666">
        <ele>116.69999999999989</ele>
        <time>2013-02-12T21:20:13.15</time>
      </trkpt>
      <trkpt lat="33.07469833333333" lon="35.167561666666664">
        <ele>116.99999999999989</ele>
        <time>2013-02-12T21:20:14.16</time>
      </trkpt>
      <trkpt lat="33.074713333333335" lon="35.167563333333334">
        <ele>116.69999999999989</ele>
        <time>2013-02-12T21:20:15.17</time>
      </trkpt>
      <trkpt lat="33.074708333333334" lon="35.16759">
        <ele>116.89999999999989</ele>
        <time>2013-02-12T21:20:16.16</time>
      </trkpt>
      <trkpt lat="33.074706666666664" lon="35.16762">
        <ele>117.19999999999989</ele>
        <time>2013-02-12T21:20:17.15</time>
      </trkpt>
      <trkpt lat="33.07471" lon="35.167633333333335">
        <ele>116.99999999999989</ele>
        <time>2013-02-12T21:20:18.15</time>
      </trkpt>
      <trkpt lat="33.074713333333335" lon="35.16765">
        <ele>117.09999999999988</ele>
        <time>2013-02-12T21:20:19.15</time>
      </trkpt>
      <trkpt lat="33.07471833333334" lon="35.16768666666667">
        <ele>116.69999999999987</ele>
        <time>2013-02-12T21:20:20.18</time>
      </trkpt>
      <trkpt lat="33.07471833333334" lon="35.16771333333333">
        <ele>116.39999999999988</ele>
        <time>2013-02-12T21:20:21.15</time>
      </trkpt>
      <trkpt lat="33.074705" lon="35.167728333333336">
        <ele>116.99999999999987</ele>
        <time>2013-02-12T21:20:22.15</time>
      </trkpt>
      <trkpt lat="33.074693333333336" lon="35.16775">
        <ele>117.29999999999987</ele>
        <time>2013-02-12T21:20:23.15</time>
      </trkpt>
      <trkpt lat="33.0747" lon="35.167765">
        <ele>117.09999999999987</ele>
        <time>2013-02-12T21:20:24.16</time>
      </trkpt>
      <trkpt lat="33.074706666666664" lon="35.167786666666665">
        <ele>117.09999999999987</ele>
        <time>2013-02-12T21:20:25.22</time>
      </trkpt>
      <trkpt lat="33.074705" lon="35.16780333333333">
        <ele>116.79999999999987</ele>
        <time>2013-02-12T21:20:26.18</time>
      </trkpt>
      <trkpt lat="33.074695" lon="35.167833333333334">
        <ele>116.29999999999987</ele>
        <time>2013-02-12T21:20:27.17</time>
      </trkpt>
      <trkpt lat="33.074686666666665" lon="35.16786">
        <ele>115.49999999999987</ele>
        <time>2013-02-12T21:20:28.17</time>
      </trkpt>
      <trkpt lat="33.07467333333334" lon="35.16788833333333">
        <ele>113.99999999999987</ele>
        <time>2013-02-12T21:20:29.18</time>
      </trkpt>
      <trkpt lat="33.07465333333333" lon="35.16791">
        <ele>112.69999999999987</ele>
        <time>2013-02-12T21:20:30.21</time>
      </trkpt>
      <trkpt lat="33.07466333333333" lon="35.16793">
        <ele>112.29999999999987</ele>
        <time>2013-02-12T21:20:31.18</time>
      </trkpt>
      <trkpt lat="33.074675" lon="35.16795">
        <ele>112.19999999999987</ele>
        <time>2013-02-12T21:20:32.19</time>
      </trkpt>
      <trkpt lat="33.074686666666665" lon="35.16797">
        <ele>111.99999999999987</ele>
        <time>2013-02-12T21:20:33.18</time>
      </trkpt>
      <trkpt lat="33.074693333333336" lon="35.16798166666667">
        <ele>111.69999999999987</ele>
        <time>2013-02-12T21:20:34.18</time>
      </trkpt>
      <trkpt lat="33.07472166666667" lon="35.16800166666667">
        <ele>110.79999999999987</ele>
        <time>2013-02-12T21:20:35.19</time>
      </trkpt>
      <trkpt lat="33.074756666666666" lon="35.16806666666667">
        <ele>109.59999999999987</ele>
        <time>2013-02-12T21:20:36.24</time>
      </trkpt>
      <trkpt lat="33.07477166666666" lon="35.16813">
        <ele>107.59999999999987</ele>
        <time>2013-02-12T21:20:37.24</time>
      </trkpt>
      <trkpt lat="33.07479333333333" lon="35.168155">
        <ele>106.89999999999986</ele>
        <time>2013-02-12T21:20:38.19</time>
      </trkpt>
      <trkpt lat="33.07481166666667" lon="35.16817666666667">
        <ele>106.79999999999987</ele>
        <time>2013-02-12T21:20:39.19</time>
      </trkpt>
      <trkpt lat="33.074828333333336" lon="35.168195">
        <ele>106.39999999999986</ele>
        <time>2013-02-12T21:20:40.18</time>
      </trkpt>
      <trkpt lat="33.07485666666667" lon="35.16822166666667">
        <ele>106.59999999999987</ele>
        <time>2013-02-12T21:20:41.18</time>
      </trkpt>
      <trkpt lat="33.07486333333333" lon="35.168255">
        <ele>106.09999999999987</ele>
        <time>2013-02-12T21:20:42.20</time>
      </trkpt>
      <trkpt lat="33.07489" lon="35.16826666666667">
        <ele>106.39999999999986</ele>
        <time>2013-02-12T21:20:43.18</time>
      </trkpt>
      <trkpt lat="33.074895" lon="35.16829333333333">
        <ele>106.29999999999987</ele>
        <time>2013-02-12T21:20:44.20</time>
      </trkpt>
      <trkpt lat="33.074911666666665" lon="35.1683">
        <ele>105.89999999999986</ele>
        <time>2013-02-12T21:20:45.20</time>
      </trkpt>
      <trkpt lat="33.07492666666667" lon="35.168315">
        <ele>106.09999999999987</ele>
        <time>2013-02-12T21:20:46.20</time>
      </trkpt>
      <trkpt lat="33.074931666666664" lon="35.1683">
        <ele>105.69999999999986</ele>
        <time>2013-02-12T21:20:47.18</time>
      </trkpt>
      <trkpt lat="33.074936666666666" lon="35.16829666666667">
        <ele>105.79999999999986</ele>
        <time>2013-02-12T21:20:48.19</time>
      </trkpt>
      <trkpt lat="33.07494333333333" lon="35.16828833333334">
        <ele>105.09999999999985</ele>
        <time>2013-02-12T21:20:49.18</time>
      </trkpt>
      <trkpt lat="33.07494166666667" lon="35.168305">
        <ele>104.8</ele>
        <time>2013-02-12T21:20:56.19</time>
      </trkpt>
      <trkpt lat="33.074938333333336" lon="35.1683">
        <ele>104.9</ele>
        <time>2013-02-12T21:21:18.18</time>
      </trkpt>
      <trkpt lat="33.074938333333336" lon="35.16829833333333">
        <ele>104.8</ele>
        <time>2013-02-12T21:21:25.25</time>
      </trkpt>
      <trkpt lat="33.07492" lon="35.1683">
        <ele>104.4</ele>
        <time>2013-02-12T21:22:10.18</time>
      </trkpt>
      <trkpt lat="33.07487" lon="35.168328333333335">
        <ele>106.5</ele>
        <time>2013-02-12T21:22:11.20</time>
      </trkpt>
      <trkpt lat="33.07483666666667" lon="35.168353333333336">
        <ele>106.9</ele>
        <time>2013-02-12T21:22:12.18</time>
      </trkpt>
      <trkpt lat="33.07479333333333" lon="35.168351666666666">
        <ele>107.4</ele>
        <time>2013-02-12T21:22:13.25</time>
      </trkpt>
      <trkpt lat="33.074765" lon="35.16836166666667">
        <ele>107.7</ele>
        <time>2013-02-12T21:22:14.20</time>
      </trkpt>
      <trkpt lat="33.07474333333333" lon="35.168365">
        <ele>106.9</ele>
        <time>2013-02-12T21:22:15.18</time>
      </trkpt>
      <trkpt lat="33.07472166666667" lon="35.168375">
        <ele>107.4</ele>
        <time>2013-02-12T21:22:16.18</time>
      </trkpt>
      <trkpt lat="33.07469" lon="35.16838166666667">
        <ele>107.4</ele>
        <time>2013-02-12T21:22:17.18</time>
      </trkpt>
      <trkpt lat="33.07466" lon="35.168398333333336">
        <ele>107.2</ele>
        <time>2013-02-12T21:22:18.18</time>
      </trkpt>
      <trkpt lat="33.07463" lon="35.16840666666667">
        <ele>107.10000000000001</ele>
        <time>2013-02-12T21:22:19.18</time>
      </trkpt>
      <trkpt lat="33.074596666666665" lon="35.16842166666667">
        <ele>106.7</ele>
        <time>2013-02-12T21:22:20.18</time>
      </trkpt>
      <trkpt lat="33.07456166666667" lon="35.168425">
        <ele>106.4</ele>
        <time>2013-02-12T21:22:21.20</time>
      </trkpt>
      <trkpt lat="33.07452333333333" lon="35.16842833333333">
        <ele>106.10000000000001</ele>
        <time>2013-02-12T21:22:22.20</time>
      </trkpt>
      <trkpt lat="33.07448" lon="35.168425">
        <ele>105.4</ele>
        <time>2013-02-12T21:22:23.18</time>
      </trkpt>
      <trkpt lat="33.074448333333336" lon="35.168418333333335">
        <ele>105</ele>
        <time>2013-02-12T21:22:24.18</time>
      </trkpt>
      <trkpt lat="33.07440833333333" lon="35.168411666666664">
        <ele>104.6</ele>
        <time>2013-02-12T21:22:25.18</time>
      </trkpt>
      <trkpt lat="33.074378333333335" lon="35.1684">
        <ele>103.89999999999999</ele>
        <time>2013-02-12T21:22:26.19</time>
      </trkpt>
      <trkpt lat="33.074333333333335" lon="35.16838">
        <ele>103.99999999999999</ele>
        <time>2013-02-12T21:22:27.19</time>
      </trkpt>
      <trkpt lat="33.0743" lon="35.16837833333334">
        <ele>103.79999999999998</ele>
        <time>2013-02-12T21:22:28.18</time>
      </trkpt>
      <trkpt lat="33.07425333333333" lon="35.16837666666667">
        <ele>103.19999999999999</ele>
        <time>2013-02-12T21:22:29.19</time>
      </trkpt>
      <trkpt lat="33.074205" lon="35.16835833333333">
        <ele>102.19999999999999</ele>
        <time>2013-02-12T21:22:30.21</time>
      </trkpt>
      <trkpt lat="33.07416166666667" lon="35.16833333333334">
        <ele>100.99999999999999</ele>
        <time>2013-02-12T21:22:31.25</time>
      </trkpt>
      <trkpt lat="33.07412333333333" lon="35.16831666666667">
        <ele>100.29999999999998</ele>
        <time>2013-02-12T21:22:32.19</time>
      </trkpt>
      <trkpt lat="33.07408" lon="35.168306666666666">
        <ele>99.89999999999998</ele>
        <time>2013-02-12T21:22:33.18</time>
      </trkpt>
      <trkpt lat="33.07403333333333" lon="35.16829333333333">
        <ele>99.19999999999997</ele>
        <time>2013-02-12T21:22:34.19</time>
      </trkpt>
      <trkpt lat="33.07400333333333" lon="35.16827333333333">
        <ele>99.29999999999997</ele>
        <time>2013-02-12T21:22:35.19</time>
      </trkpt>
      <trkpt lat="33.073948333333334" lon="35.168258333333334">
        <ele>98.99999999999997</ele>
        <time>2013-02-12T21:22:36.21</time>
      </trkpt>
      <trkpt lat="33.073901666666664" lon="35.16822666666667">
        <ele>97.39999999999998</ele>
        <time>2013-02-12T21:22:37.19</time>
      </trkpt>
      <trkpt lat="33.07384833333333" lon="35.168205">
        <ele>97.39999999999998</ele>
        <time>2013-02-12T21:22:38.19</time>
      </trkpt>
      <trkpt lat="33.073798333333336" lon="35.16818166666667">
        <ele>97.59999999999998</ele>
        <time>2013-02-12T21:22:39.18</time>
      </trkpt>
      <trkpt lat="33.07375833333333" lon="35.168173333333336">
        <ele>97.09999999999998</ele>
        <time>2013-02-12T21:22:40.19</time>
      </trkpt>
      <trkpt lat="33.07371666666667" lon="35.168153333333336">
        <ele>96.99999999999999</ele>
        <time>2013-02-12T21:22:41.19</time>
      </trkpt>
      <trkpt lat="33.073665" lon="35.16813166666667">
        <ele>97.29999999999998</ele>
        <time>2013-02-12T21:22:42.18</time>
      </trkpt>
      <trkpt lat="33.07362166666667" lon="35.16807333333333">
        <ele>96.39999999999998</ele>
        <time>2013-02-12T21:22:43.18</time>
      </trkpt>
      <trkpt lat="33.07359" lon="35.16805166666666">
        <ele>93.89999999999998</ele>
        <time>2013-02-12T21:22:44.22</time>
      </trkpt>
      <trkpt lat="33.073545" lon="35.16802166666667">
        <ele>93.89999999999998</ele>
        <time>2013-02-12T21:22:45.19</time>
      </trkpt>
      <trkpt lat="33.073515" lon="35.167995">
        <ele>92.19999999999997</ele>
        <time>2013-02-12T21:22:46.18</time>
      </trkpt>
      <trkpt lat="33.073481666666666" lon="35.167955">
        <ele>90.49999999999997</ele>
        <time>2013-02-12T21:22:47.19</time>
      </trkpt>
      <trkpt lat="33.07344833333333" lon="35.167925">
        <ele>90.19999999999997</ele>
        <time>2013-02-12T21:22:48.19</time>
      </trkpt>
      <trkpt lat="33.07341" lon="35.16789166666667">
        <ele>90.59999999999998</ele>
        <time>2013-02-12T21:22:49.18</time>
      </trkpt>
      <trkpt lat="33.07337833333333" lon="35.167865">
        <ele>90.79999999999998</ele>
        <time>2013-02-12T21:22:50.20</time>
      </trkpt>
      <trkpt lat="33.07334" lon="35.167836666666666">
        <ele>90.59999999999998</ele>
        <time>2013-02-12T21:22:51.18</time>
      </trkpt>
      <trkpt lat="33.07331333333333" lon="35.16781666666667">
        <ele>89.89999999999998</ele>
        <time>2013-02-12T21:22:52.18</time>
      </trkpt>
      <trkpt lat="33.07329" lon="35.16779">
        <ele>89.09999999999998</ele>
        <time>2013-02-12T21:22:53.18</time>
      </trkpt>
      <trkpt lat="33.07327" lon="35.16776333333333">
        <ele>88.69999999999997</ele>
        <time>2013-02-12T21:22:54.19</time>
      </trkpt>
      <trkpt lat="33.073255" lon="35.16773833333333">
        <ele>88.49999999999997</ele>
        <time>2013-02-12T21:22:55.18</time>
      </trkpt>
      <trkpt lat="33.073236666666666" lon="35.16773666666667">
        <ele>87.89999999999998</ele>
        <time>2013-02-12T21:22:56.19</time>
      </trkpt>
      <trkpt lat="33.07322166666667" lon="35.167716666666664">
        <ele>87.89999999999998</ele>
        <time>2013-02-12T21:22:57.18</time>
      </trkpt>
      <trkpt lat="33.073225" lon="35.1677">
        <ele>87.59999999999998</ele>
        <time>2013-02-12T21:22:58.18</time>
      </trkpt>
      <trkpt lat="33.073213333333335" lon="35.167685">
        <ele>86.99999999999999</ele>
        <time>2013-02-12T21:22:59.18</time>
      </trkpt>
      <trkpt lat="33.073193333333336" lon="35.16768666666667">
        <ele>85.39999999999999</ele>
        <time>2013-02-12T21:23:00.16</time>
      </trkpt>
      <trkpt lat="33.073188333333334" lon="35.16766833333333">
        <ele>85.39999999999999</ele>
        <time>2013-02-12T21:23:01.18</time>
      </trkpt>
      <trkpt lat="33.073205" lon="35.16765">
        <ele>84.89999999999999</ele>
        <time>2013-02-12T21:23:02.18</time>
      </trkpt>
      <trkpt lat="33.07322" lon="35.16762333333333">
        <ele>84.99999999999999</ele>
        <time>2013-02-12T21:23:03.17</time>
      </trkpt>
      <trkpt lat="33.07321833333334" lon="35.16759666666667">
        <ele>85.59999999999998</ele>
        <time>2013-02-12T21:23:04.17</time>
      </trkpt>
      <trkpt lat="33.07322333333333" lon="35.167568333333335">
        <ele>85.79999999999998</ele>
        <time>2013-02-12T21:23:05.17</time>
      </trkpt>
      <trkpt lat="33.073233333333334" lon="35.167548333333336">
        <ele>86.09999999999998</ele>
        <time>2013-02-12T21:23:06.17</time>
      </trkpt>
      <trkpt lat="33.073238333333336" lon="35.16752833333334">
        <ele>85.59999999999998</ele>
        <time>2013-02-12T21:23:07.18</time>
      </trkpt>
      <trkpt lat="33.07324" lon="35.167505">
        <ele>85.69999999999997</ele>
        <time>2013-02-12T21:23:08.21</time>
      </trkpt>
      <trkpt lat="33.07324166666667" lon="35.167465">
        <ele>85.59999999999998</ele>
        <time>2013-02-12T21:23:09.18</time>
      </trkpt>
      <trkpt lat="33.073225" lon="35.167485">
        <ele>86.39999999999998</ele>
        <time>2013-02-12T21:23:10.17</time>
      </trkpt>
      <trkpt lat="33.073236666666666" lon="35.16746">
        <ele>86.29999999999998</ele>
        <time>2013-02-12T21:23:11.18</time>
      </trkpt>
      <trkpt lat="33.073231666666665" lon="35.16744">
        <ele>86.49999999999999</ele>
        <time>2013-02-12T21:23:12.15</time>
      </trkpt>
      <trkpt lat="33.073236666666666" lon="35.16741833333333">
        <ele>85.99999999999999</ele>
        <time>2013-02-12T21:23:13.15</time>
      </trkpt>
      <trkpt lat="33.07324333333333" lon="35.16739833333333">
        <ele>85.99999999999999</ele>
        <time>2013-02-12T21:23:14.15</time>
      </trkpt>
      <trkpt lat="33.073258333333335" lon="35.167385">
        <ele>86.19999999999999</ele>
        <time>2013-02-12T21:23:15.16</time>
      </trkpt>
      <trkpt lat="33.07327166666666" lon="35.16735666666667">
        <ele>86.6</ele>
        <time>2013-02-12T21:23:16.15</time>
      </trkpt>
      <trkpt lat="33.073275" lon="35.16733166666667">
        <ele>86.6</ele>
        <time>2013-02-12T21:23:17.16</time>
      </trkpt>
      <trkpt lat="33.07328833333333" lon="35.16729333333333">
        <ele>86.69999999999999</ele>
        <time>2013-02-12T21:23:18.16</time>
      </trkpt>
      <trkpt lat="33.07329333333333" lon="35.16726333333333">
        <ele>86.89999999999999</ele>
        <time>2013-02-12T21:23:19.16</time>
      </trkpt>
      <trkpt lat="33.07329" lon="35.167226666666664">
        <ele>85.99999999999999</ele>
        <time>2013-02-12T21:23:20.17</time>
      </trkpt>
      <trkpt lat="33.073285" lon="35.16719666666667">
        <ele>86.19999999999999</ele>
        <time>2013-02-12T21:23:21.18</time>
      </trkpt>
      <trkpt lat="33.073278333333334" lon="35.16718">
        <ele>85.49999999999999</ele>
        <time>2013-02-12T21:23:22.15</time>
      </trkpt>
      <trkpt lat="33.073276666666665" lon="35.16715">
        <ele>85.19999999999999</ele>
        <time>2013-02-12T21:23:23.15</time>
      </trkpt>
      <trkpt lat="33.07326333333334" lon="35.167125">
        <ele>85.99999999999999</ele>
        <time>2013-02-12T21:23:24.15</time>
      </trkpt>
      <trkpt lat="33.07326666666667" lon="35.167105">
        <ele>85.59999999999998</ele>
        <time>2013-02-12T21:23:25.17</time>
      </trkpt>
      <trkpt lat="33.073265" lon="35.167098333333335">
        <ele>85.89999999999998</ele>
        <time>2013-02-12T21:23:26.14</time>
      </trkpt>
      <trkpt lat="33.07326333333334" lon="35.167075">
        <ele>86.09999999999998</ele>
        <time>2013-02-12T21:23:27.15</time>
      </trkpt>
      <trkpt lat="33.07326666666667" lon="35.16706">
        <ele>86.19999999999997</ele>
        <time>2013-02-12T21:23:28.15</time>
      </trkpt>
      <trkpt lat="33.073258333333335" lon="35.16704333333333">
        <ele>86.49999999999997</ele>
        <time>2013-02-12T21:23:29.16</time>
      </trkpt>
      <trkpt lat="33.073251666666664" lon="35.16702333333333">
        <ele>85.99999999999997</ele>
        <time>2013-02-12T21:23:30.17</time>
      </trkpt>
      <trkpt lat="33.07324166666667" lon="35.166995">
        <ele>86.29999999999997</ele>
        <time>2013-02-12T21:23:31.14</time>
      </trkpt>
      <trkpt lat="33.07322666666666" lon="35.166965">
        <ele>86.59999999999997</ele>
        <time>2013-02-12T21:23:32.15</time>
      </trkpt>
      <trkpt lat="33.07322333333333" lon="35.166936666666665">
        <ele>87.49999999999997</ele>
        <time>2013-02-12T21:23:33.15</time>
      </trkpt>
      <trkpt lat="33.07322" lon="35.166911666666664">
        <ele>87.69999999999997</ele>
        <time>2013-02-12T21:23:34.17</time>
      </trkpt>
      <trkpt lat="33.07322" lon="35.166885">
        <ele>88.19999999999997</ele>
        <time>2013-02-12T21:23:35.18</time>
      </trkpt>
      <trkpt lat="33.073225" lon="35.16685666666667">
        <ele>87.49999999999997</ele>
        <time>2013-02-12T21:23:36.18</time>
      </trkpt>
      <trkpt lat="33.07325" lon="35.16684333333333">
        <ele>86.59999999999997</ele>
        <time>2013-02-12T21:23:37.23</time>
      </trkpt>
      <trkpt lat="33.07324" lon="35.16683333333334">
        <ele>86.89999999999996</ele>
        <time>2013-02-12T21:23:38.17</time>
      </trkpt>
      <trkpt lat="33.073235" lon="35.166801666666665">
        <ele>87.59999999999997</ele>
        <time>2013-02-12T21:23:39.18</time>
      </trkpt>
      <trkpt lat="33.07322833333333" lon="35.16676833333333">
        <ele>87.59999999999997</ele>
        <time>2013-02-12T21:23:40.18</time>
      </trkpt>
      <trkpt lat="33.073238333333336" lon="35.16674666666667">
        <ele>87.79999999999997</ele>
        <time>2013-02-12T21:23:41.18</time>
      </trkpt>
      <trkpt lat="33.073211666666666" lon="35.166731666666664">
        <ele>87.59999999999997</ele>
        <time>2013-02-12T21:23:42.19</time>
      </trkpt>
      <trkpt lat="33.0732" lon="35.166711666666664">
        <ele>85.69999999999996</ele>
        <time>2013-02-12T21:23:43.18</time>
      </trkpt>
      <trkpt lat="33.073188333333334" lon="35.166691666666665">
        <ele>85.69999999999996</ele>
        <time>2013-02-12T21:23:44.19</time>
      </trkpt>
      <trkpt lat="33.073186666666665" lon="35.166671666666666">
        <ele>86.19999999999996</ele>
        <time>2013-02-12T21:23:45.19</time>
      </trkpt>
      <trkpt lat="33.073188333333334" lon="35.16665166666667">
        <ele>86.39999999999996</ele>
        <time>2013-02-12T21:23:46.20</time>
      </trkpt>
      <trkpt lat="33.07319" lon="35.16662">
        <ele>86.49999999999996</ele>
        <time>2013-02-12T21:23:47.18</time>
      </trkpt>
      <trkpt lat="33.07318333333333" lon="35.16659833333333">
        <ele>86.69999999999996</ele>
        <time>2013-02-12T21:23:48.19</time>
      </trkpt>
      <trkpt lat="33.073185" lon="35.166583333333335">
        <ele>87.19999999999996</ele>
        <time>2013-02-12T21:23:49.19</time>
      </trkpt>
      <trkpt lat="33.07318166666666" lon="35.16657">
        <ele>87.19999999999996</ele>
        <time>2013-02-12T21:23:50.20</time>
      </trkpt>
      <trkpt lat="33.073185" lon="35.16654833333333">
        <ele>86.99999999999996</ele>
        <time>2013-02-12T21:23:51.19</time>
      </trkpt>
      <trkpt lat="33.07317666666667" lon="35.16652">
        <ele>87.49999999999996</ele>
        <time>2013-02-12T21:23:52.18</time>
      </trkpt>
      <trkpt lat="33.073175" lon="35.16650166666667">
        <ele>87.79999999999995</ele>
        <time>2013-02-12T21:23:53.18</time>
      </trkpt>
      <trkpt lat="33.07317166666667" lon="35.16647833333333">
        <ele>87.79999999999995</ele>
        <time>2013-02-12T21:23:54.19</time>
      </trkpt>
      <trkpt lat="33.07317666666667" lon="35.166446666666666">
        <ele>88.19999999999996</ele>
        <time>2013-02-12T21:23:55.18</time>
      </trkpt>
      <trkpt lat="33.07317666666667" lon="35.16641833333333">
        <ele>88.39999999999996</ele>
        <time>2013-02-12T21:23:56.20</time>
      </trkpt>
      <trkpt lat="33.07318" lon="35.1664">
        <ele>88.79999999999997</ele>
        <time>2013-02-12T21:23:57.19</time>
      </trkpt>
      <trkpt lat="33.07318166666666" lon="35.16638">
        <ele>88.49999999999997</ele>
        <time>2013-02-12T21:23:58.19</time>
      </trkpt>
      <trkpt lat="33.073185" lon="35.16635333333333">
        <ele>88.89999999999998</ele>
        <time>2013-02-12T21:23:59.18</time>
      </trkpt>
      <trkpt lat="33.073168333333335" lon="35.16631">
        <ele>88.89999999999998</ele>
        <time>2013-02-12T21:24:00.16</time>
      </trkpt>
      <trkpt lat="33.07318" lon="35.166288333333334">
        <ele>88.99999999999997</ele>
        <time>2013-02-12T21:24:01.19</time>
      </trkpt>
      <trkpt lat="33.07318166666666" lon="35.16625666666667">
        <ele>91.39999999999998</ele>
        <time>2013-02-12T21:24:02.19</time>
      </trkpt>
      <trkpt lat="33.07317333333334" lon="35.16623">
        <ele>91.49999999999997</ele>
        <time>2013-02-12T21:24:03.20</time>
      </trkpt>
      <trkpt lat="33.073168333333335" lon="35.166201666666666">
        <ele>91.39999999999998</ele>
        <time>2013-02-12T21:24:04.18</time>
      </trkpt>
      <trkpt lat="33.07316" lon="35.166178333333335">
        <ele>91.99999999999997</ele>
        <time>2013-02-12T21:24:05.20</time>
      </trkpt>
      <trkpt lat="33.07315666666667" lon="35.16615">
        <ele>91.79999999999997</ele>
        <time>2013-02-12T21:24:06.19</time>
      </trkpt>
      <trkpt lat="33.07316" lon="35.166135">
        <ele>91.79999999999997</ele>
        <time>2013-02-12T21:24:07.18</time>
      </trkpt>
      <trkpt lat="33.073155" lon="35.166115">
        <ele>91.89999999999996</ele>
        <time>2013-02-12T21:24:08.19</time>
      </trkpt>
      <trkpt lat="33.073146666666666" lon="35.166093333333336">
        <ele>92.19999999999996</ele>
        <time>2013-02-12T21:24:09.18</time>
      </trkpt>
      <trkpt lat="33.073155" lon="35.166068333333335">
        <ele>92.49999999999996</ele>
        <time>2013-02-12T21:24:10.19</time>
      </trkpt>
      <trkpt lat="33.07315666666667" lon="35.16603666666666">
        <ele>91.89999999999996</ele>
        <time>2013-02-12T21:24:11.18</time>
      </trkpt>
      <trkpt lat="33.07315833333333" lon="35.166016666666664">
        <ele>91.29999999999997</ele>
        <time>2013-02-12T21:24:12.19</time>
      </trkpt>
      <trkpt lat="33.07317333333334" lon="35.16599">
        <ele>91.09999999999997</ele>
        <time>2013-02-12T21:24:13.18</time>
      </trkpt>
      <trkpt lat="33.07318333333333" lon="35.16596166666667">
        <ele>91.29999999999997</ele>
        <time>2013-02-12T21:24:14.20</time>
      </trkpt>
      <trkpt lat="33.07317333333334" lon="35.165935">
        <ele>92.59999999999997</ele>
        <time>2013-02-12T21:24:15.18</time>
      </trkpt>
      <trkpt lat="33.073116666666664" lon="35.16588333333333">
        <ele>91.69999999999996</ele>
        <time>2013-02-12T21:24:16.19</time>
      </trkpt>
      <trkpt lat="33.073098333333334" lon="35.16584">
        <ele>90.09999999999997</ele>
        <time>2013-02-12T21:24:17.18</time>
      </trkpt>
      <trkpt lat="33.073075" lon="35.165815">
        <ele>89.79999999999997</ele>
        <time>2013-02-12T21:24:18.19</time>
      </trkpt>
      <trkpt lat="33.073065" lon="35.16579">
        <ele>90.19999999999997</ele>
        <time>2013-02-12T21:24:19.19</time>
      </trkpt>
      <trkpt lat="33.07304833333333" lon="35.16576333333333">
        <ele>89.59999999999998</ele>
        <time>2013-02-12T21:24:20.19</time>
      </trkpt>
      <trkpt lat="33.07304166666667" lon="35.16574333333333">
        <ele>88.79999999999998</ele>
        <time>2013-02-12T21:24:21.20</time>
      </trkpt>
      <trkpt lat="33.07304166666667" lon="35.165713333333336">
        <ele>88.79999999999998</ele>
        <time>2013-02-12T21:24:22.18</time>
      </trkpt>
      <trkpt lat="33.073045" lon="35.16569166666667">
        <ele>88.69999999999999</ele>
        <time>2013-02-12T21:24:23.20</time>
      </trkpt>
      <trkpt lat="33.07304166666667" lon="35.16566">
        <ele>88.79999999999998</ele>
        <time>2013-02-12T21:24:24.19</time>
      </trkpt>
      <trkpt lat="33.07304333333333" lon="35.165636666666664">
        <ele>88.49999999999999</ele>
        <time>2013-02-12T21:24:25.18</time>
      </trkpt>
      <trkpt lat="33.07304666666667" lon="35.16561333333333">
        <ele>88.59999999999998</ele>
        <time>2013-02-12T21:24:26.20</time>
      </trkpt>
      <trkpt lat="33.073056666666666" lon="35.165591666666664">
        <ele>88.59999999999998</ele>
        <time>2013-02-12T21:24:27.19</time>
      </trkpt>
      <trkpt lat="33.073065" lon="35.165578333333336">
        <ele>88.59999999999998</ele>
        <time>2013-02-12T21:24:28.20</time>
      </trkpt>
      <trkpt lat="33.07308" lon="35.16556166666667">
        <ele>88.29999999999998</ele>
        <time>2013-02-12T21:24:29.19</time>
      </trkpt>
      <trkpt lat="33.07308666666667" lon="35.16554166666667">
        <ele>87.79999999999998</ele>
        <time>2013-02-12T21:24:30.20</time>
      </trkpt>
      <trkpt lat="33.07309166666667" lon="35.165533333333336">
        <ele>87.89999999999998</ele>
        <time>2013-02-12T21:24:31.18</time>
      </trkpt>
      <trkpt lat="33.0731" lon="35.16551">
        <ele>88.29999999999998</ele>
        <time>2013-02-12T21:24:32.19</time>
      </trkpt>
      <trkpt lat="33.073103333333336" lon="35.16549333333333">
        <ele>88.59999999999998</ele>
        <time>2013-02-12T21:24:33.20</time>
      </trkpt>
      <trkpt lat="33.073105" lon="35.165485">
        <ele>88.59999999999998</ele>
        <time>2013-02-12T21:24:34.18</time>
      </trkpt>
      <trkpt lat="33.07310666666667" lon="35.165475">
        <ele>88.69999999999997</ele>
        <time>2013-02-12T21:24:35.19</time>
      </trkpt>
      <trkpt lat="33.073116666666664" lon="35.16546833333334">
        <ele>88.89999999999998</ele>
        <time>2013-02-12T21:24:36.18</time>
      </trkpt>
      <trkpt lat="33.07312666666667" lon="35.16546">
        <ele>88.39999999999998</ele>
        <time>2013-02-12T21:24:37.24</time>
      </trkpt>
      <trkpt lat="33.07313333333333" lon="35.16544833333333">
        <ele>88.69999999999997</ele>
        <time>2013-02-12T21:24:38.19</time>
      </trkpt>
      <trkpt lat="33.073146666666666" lon="35.165435">
        <ele>89.19999999999997</ele>
        <time>2013-02-12T21:24:39.18</time>
      </trkpt>
      <trkpt lat="33.07315333333333" lon="35.16542166666667">
        <ele>89.59999999999998</ele>
        <time>2013-02-12T21:24:40.18</time>
      </trkpt>
      <trkpt lat="33.073165" lon="35.16540166666667">
        <ele>89.09999999999998</ele>
        <time>2013-02-12T21:24:41.18</time>
      </trkpt>
      <trkpt lat="33.073191666666666" lon="35.165391666666665">
        <ele>89.99999999999999</ele>
        <time>2013-02-12T21:24:42.19</time>
      </trkpt>
      <trkpt lat="33.073205" lon="35.16538166666667">
        <ele>90.69999999999999</ele>
        <time>2013-02-12T21:24:43.18</time>
      </trkpt>
      <trkpt lat="33.073211666666666" lon="35.16537">
        <ele>90.79999999999998</ele>
        <time>2013-02-12T21:24:44.20</time>
      </trkpt>
      <trkpt lat="33.073225" lon="35.16536">
        <ele>91.09999999999998</ele>
        <time>2013-02-12T21:24:45.18</time>
      </trkpt>
      <trkpt lat="33.073236666666666" lon="35.16535666666667">
        <ele>91.49999999999999</ele>
        <time>2013-02-12T21:24:46.19</time>
      </trkpt>
      <trkpt lat="33.07325" lon="35.165353333333336">
        <ele>91.69999999999999</ele>
        <time>2013-02-12T21:24:47.18</time>
      </trkpt>
      <trkpt lat="33.07326666666667" lon="35.165348333333334">
        <ele>92.1</ele>
        <time>2013-02-12T21:24:48.21</time>
      </trkpt>
      <trkpt lat="33.073275" lon="35.16534333333333">
        <ele>92</ele>
        <time>2013-02-12T21:24:49.18</time>
      </trkpt>
      <trkpt lat="33.07329333333333" lon="35.16534">
        <ele>91.8</ele>
        <time>2013-02-12T21:24:50.19</time>
      </trkpt>
      <trkpt lat="33.073305" lon="35.165335">
        <ele>92</ele>
        <time>2013-02-12T21:24:51.20</time>
      </trkpt>
      <trkpt lat="33.07331333333333" lon="35.165325">
        <ele>92.2</ele>
        <time>2013-02-12T21:24:52.18</time>
      </trkpt>
      <trkpt lat="33.07332" lon="35.165321666666664">
        <ele>92.9</ele>
        <time>2013-02-12T21:24:53.20</time>
      </trkpt>
      <trkpt lat="33.07333166666667" lon="35.165315">
        <ele>93.2</ele>
        <time>2013-02-12T21:24:54.18</time>
      </trkpt>
      <trkpt lat="33.073348333333335" lon="35.165315">
        <ele>93.8</ele>
        <time>2013-02-12T21:24:55.20</time>
      </trkpt>
      <trkpt lat="33.07337" lon="35.165303333333334">
        <ele>93.7</ele>
        <time>2013-02-12T21:24:56.18</time>
      </trkpt>
      <trkpt lat="33.073385" lon="35.165295">
        <ele>93.3</ele>
        <time>2013-02-12T21:24:57.18</time>
      </trkpt>
      <trkpt lat="33.073395" lon="35.16528666666667">
        <ele>93.2</ele>
        <time>2013-02-12T21:24:58.19</time>
      </trkpt>
      <trkpt lat="33.07340833333333" lon="35.16527333333333">
        <ele>93.3</ele>
        <time>2013-02-12T21:24:59.19</time>
      </trkpt>
      <trkpt lat="33.073415" lon="35.165256666666664">
        <ele>93.2</ele>
        <time>2013-02-12T21:25:00.39</time>
      </trkpt>
      <trkpt lat="33.07341" lon="35.16523333333333">
        <ele>93.7</ele>
        <time>2013-02-12T21:25:01.18</time>
      </trkpt>
      <trkpt lat="33.073431666666664" lon="35.165215">
        <ele>94.2</ele>
        <time>2013-02-12T21:25:02.21</time>
      </trkpt>
      <trkpt lat="33.073436666666666" lon="35.16520333333333">
        <ele>94</ele>
        <time>2013-02-12T21:25:03.18</time>
      </trkpt>
      <trkpt lat="33.07344166666667" lon="35.165193333333335">
        <ele>94.1</ele>
        <time>2013-02-12T21:25:04.19</time>
      </trkpt>
      <trkpt lat="33.07345333333333" lon="35.16517833333333">
        <ele>93.69999999999999</ele>
        <time>2013-02-12T21:25:05.17</time>
      </trkpt>
      <trkpt lat="33.073463333333336" lon="35.16515666666667">
        <ele>92.89999999999999</ele>
        <time>2013-02-12T21:25:06.19</time>
      </trkpt>
      <trkpt lat="33.07347166666667" lon="35.16513333333333">
        <ele>92.8</ele>
        <time>2013-02-12T21:25:07.20</time>
      </trkpt>
      <trkpt lat="33.07349" lon="35.165105">
        <ele>92.39999999999999</ele>
        <time>2013-02-12T21:25:08.21</time>
      </trkpt>
      <trkpt lat="33.073485" lon="35.16509666666666">
        <ele>92.6</ele>
        <time>2013-02-12T21:25:09.20</time>
      </trkpt>
      <trkpt lat="33.073495" lon="35.16508666666667">
        <ele>92.89999999999999</ele>
        <time>2013-02-12T21:25:10.18</time>
      </trkpt>
      <trkpt lat="33.073503333333335" lon="35.165078333333334">
        <ele>93.1</ele>
        <time>2013-02-12T21:25:11.21</time>
      </trkpt>
      <trkpt lat="33.07351333333333" lon="35.16506666666667">
        <ele>93.1</ele>
        <time>2013-02-12T21:25:12.19</time>
      </trkpt>
      <trkpt lat="33.073525" lon="35.16505">
        <ele>94</ele>
        <time>2013-02-12T21:25:13.18</time>
      </trkpt>
      <trkpt lat="33.07353166666667" lon="35.165035">
        <ele>94.6</ele>
        <time>2013-02-12T21:25:14.20</time>
      </trkpt>
      <trkpt lat="33.073548333333335" lon="35.165031666666664">
        <ele>95.3</ele>
        <time>2013-02-12T21:25:15.18</time>
      </trkpt>
      <trkpt lat="33.07355833333333" lon="35.16502333333333">
        <ele>96</ele>
        <time>2013-02-12T21:25:16.20</time>
      </trkpt>
      <trkpt lat="33.073565" lon="35.164995">
        <ele>96.2</ele>
        <time>2013-02-12T21:25:17.19</time>
      </trkpt>
      <trkpt lat="33.07357" lon="35.164973333333336">
        <ele>96.3</ele>
        <time>2013-02-12T21:25:18.19</time>
      </trkpt>
      <trkpt lat="33.07357833333333" lon="35.16495666666667">
        <ele>96.1</ele>
        <time>2013-02-12T21:25:19.18</time>
      </trkpt>
      <trkpt lat="33.073593333333335" lon="35.16493333333333">
        <ele>95.89999999999999</ele>
        <time>2013-02-12T21:25:20.19</time>
      </trkpt>
      <trkpt lat="33.073593333333335" lon="35.16491">
        <ele>94.8</ele>
        <time>2013-02-12T21:25:21.20</time>
      </trkpt>
      <trkpt lat="33.07359833333334" lon="35.164885">
        <ele>94.6</ele>
        <time>2013-02-12T21:25:22.20</time>
      </trkpt>
      <trkpt lat="33.07361" lon="35.16486">
        <ele>94.6</ele>
        <time>2013-02-12T21:25:23.18</time>
      </trkpt>
      <trkpt lat="33.073616666666666" lon="35.16484166666667">
        <ele>93.5</ele>
        <time>2013-02-12T21:25:24.18</time>
      </trkpt>
      <trkpt lat="33.07362333333333" lon="35.16482833333333">
        <ele>93.7</ele>
        <time>2013-02-12T21:25:25.25</time>
      </trkpt>
      <trkpt lat="33.07362666666667" lon="35.164811666666665">
        <ele>93.7</ele>
        <time>2013-02-12T21:25:26.21</time>
      </trkpt>
      <trkpt lat="33.073635" lon="35.164805">
        <ele>93.8</ele>
        <time>2013-02-12T21:25:27.21</time>
      </trkpt>
      <trkpt lat="33.07365166666666" lon="35.16479833333333">
        <ele>94</ele>
        <time>2013-02-12T21:25:28.19</time>
      </trkpt>
      <trkpt lat="33.073663333333336" lon="35.164793333333336">
        <ele>93.8</ele>
        <time>2013-02-12T21:25:29.18</time>
      </trkpt>
      <trkpt lat="33.07368833333334" lon="35.16477833333333">
        <ele>93.39999999999999</ele>
        <time>2013-02-12T21:25:30.18</time>
      </trkpt>
      <trkpt lat="33.07368833333334" lon="35.164755">
        <ele>94.1</ele>
        <time>2013-02-12T21:25:31.18</time>
      </trkpt>
      <trkpt lat="33.073706666666666" lon="35.16475833333333">
        <ele>95.3</ele>
        <time>2013-02-12T21:25:32.18</time>
      </trkpt>
      <trkpt lat="33.073723333333334" lon="35.164743333333334">
        <ele>95.6</ele>
        <time>2013-02-12T21:25:33.16</time>
      </trkpt>
      <trkpt lat="33.073735" lon="35.164735">
        <ele>95.89999999999999</ele>
        <time>2013-02-12T21:25:34.17</time>
      </trkpt>
      <trkpt lat="33.073748333333334" lon="35.164728333333336">
        <ele>95.89999999999999</ele>
        <time>2013-02-12T21:25:35.18</time>
      </trkpt>
      <trkpt lat="33.07376" lon="35.164735">
        <ele>96.89999999999999</ele>
        <time>2013-02-12T21:25:36.22</time>
      </trkpt>
      <trkpt lat="33.07377" lon="35.16471833333333">
        <ele>97.6</ele>
        <time>2013-02-12T21:25:37.17</time>
      </trkpt>
      <trkpt lat="33.07377666666667" lon="35.16471833333333">
        <ele>97.8</ele>
        <time>2013-02-12T21:25:38.18</time>
      </trkpt>
      <trkpt lat="33.07378833333333" lon="35.164715">
        <ele>97.5</ele>
        <time>2013-02-12T21:25:39.20</time>
      </trkpt>
      <trkpt lat="33.073795" lon="35.16470833333333">
        <ele>96.6</ele>
        <time>2013-02-12T21:25:40.16</time>
      </trkpt>
      <trkpt lat="33.07379666666667" lon="35.164725">
        <ele>96.1</ele>
        <time>2013-02-12T21:25:43.17</time>
      </trkpt>
      <trkpt lat="33.07378833333333" lon="35.164741666666664">
        <ele>95.6</ele>
        <time>2013-02-12T21:25:44.18</time>
      </trkpt>
      <trkpt lat="33.073793333333334" lon="35.16475166666667">
        <ele>95.69999999999999</ele>
        <time>2013-02-12T21:25:45.19</time>
      </trkpt>
      <trkpt lat="33.073793333333334" lon="35.16477">
        <ele>95.29999999999998</ele>
        <time>2013-02-12T21:25:46.16</time>
      </trkpt>
      <trkpt lat="33.073793333333334" lon="35.16477833333333">
        <ele>95.19999999999999</ele>
        <time>2013-02-12T21:25:47.16</time>
      </trkpt>
      <trkpt lat="33.07379" lon="35.164791666666666">
        <ele>94.6</ele>
        <time>2013-02-12T21:25:48.17</time>
      </trkpt>
      <trkpt lat="33.07378" lon="35.164805">
        <ele>94.69999999999999</ele>
        <time>2013-02-12T21:25:49.17</time>
      </trkpt>
      <trkpt lat="33.073773333333335" lon="35.16481">
        <ele>94.89999999999999</ele>
        <time>2013-02-12T21:25:50.17</time>
      </trkpt>
      <trkpt lat="33.073768333333334" lon="35.16482833333333">
        <ele>95.1</ele>
        <time>2013-02-12T21:25:51.17</time>
      </trkpt>
      <trkpt lat="33.07376333333333" lon="35.16485">
        <ele>95.5</ele>
        <time>2013-02-12T21:25:52.21</time>
      </trkpt>
      <trkpt lat="33.073766666666664" lon="35.164865">
        <ele>96.2</ele>
        <time>2013-02-12T21:25:53.21</time>
      </trkpt>
      <trkpt lat="33.07377666666667" lon="35.16488666666667">
        <ele>96.60000000000001</ele>
        <time>2013-02-12T21:25:54.17</time>
      </trkpt>
      <trkpt lat="33.07378666666666" lon="35.16490666666667">
        <ele>96.50000000000001</ele>
        <time>2013-02-12T21:25:55.25</time>
      </trkpt>
      <trkpt lat="33.073793333333334" lon="35.164923333333334">
        <ele>96.30000000000001</ele>
        <time>2013-02-12T21:25:56.18</time>
      </trkpt>
      <trkpt lat="33.07379666666667" lon="35.164945">
        <ele>95.80000000000001</ele>
        <time>2013-02-12T21:25:57.16</time>
      </trkpt>
      <trkpt lat="33.073805" lon="35.16495333333334">
        <ele>95.60000000000001</ele>
        <time>2013-02-12T21:25:58.19</time>
      </trkpt>
      <trkpt lat="33.073805" lon="35.164968333333334">
        <ele>95.4</ele>
        <time>2013-02-12T21:25:59.17</time>
      </trkpt>
      <trkpt lat="33.07380666666667" lon="35.16498833333333">
        <ele>95.80000000000001</ele>
        <time>2013-02-12T21:26:00.35</time>
      </trkpt>
      <trkpt lat="33.073805" lon="35.16500166666667">
        <ele>95.10000000000001</ele>
        <time>2013-02-12T21:26:01.17</time>
      </trkpt>
      <trkpt lat="33.0738" lon="35.16502333333333">
        <ele>93.80000000000001</ele>
        <time>2013-02-12T21:26:02.18</time>
      </trkpt>
      <trkpt lat="33.073795" lon="35.16502666666667">
        <ele>94.30000000000001</ele>
        <time>2013-02-12T21:26:03.16</time>
      </trkpt>
      <trkpt lat="33.07379" lon="35.16504833333333">
        <ele>94.60000000000001</ele>
        <time>2013-02-12T21:26:04.16</time>
      </trkpt>
      <trkpt lat="33.07380666666667" lon="35.165075">
        <ele>94.7</ele>
        <time>2013-02-12T21:26:05.17</time>
      </trkpt>
      <trkpt lat="33.07380166666667" lon="35.16509833333333">
        <ele>94.7</ele>
        <time>2013-02-12T21:26:06.17</time>
      </trkpt>
      <trkpt lat="33.073785" lon="35.16511666666667">
        <ele>95.7</ele>
        <time>2013-02-12T21:26:07.17</time>
      </trkpt>
      <trkpt lat="33.073785" lon="35.16513333333333">
        <ele>96</ele>
        <time>2013-02-12T21:26:08.19</time>
      </trkpt>
      <trkpt lat="33.073793333333334" lon="35.16515666666667">
        <ele>96.2</ele>
        <time>2013-02-12T21:26:09.19</time>
      </trkpt>
      <trkpt lat="33.073785" lon="35.16518166666667">
        <ele>95.4</ele>
        <time>2013-02-12T21:26:10.17</time>
      </trkpt>
      <trkpt lat="33.07379" lon="35.165191666666665">
        <ele>96.60000000000001</ele>
        <time>2013-02-12T21:26:11.18</time>
      </trkpt>
      <trkpt lat="33.07380166666667" lon="35.16520833333333">
        <ele>96.4</ele>
        <time>2013-02-12T21:26:12.15</time>
      </trkpt>
      <trkpt lat="33.073811666666664" lon="35.16522833333333">
        <ele>96.5</ele>
        <time>2013-02-12T21:26:13.15</time>
      </trkpt>
      <trkpt lat="33.073813333333334" lon="35.16525166666667">
        <ele>95.6</ele>
        <time>2013-02-12T21:26:14.15</time>
      </trkpt>
      <trkpt lat="33.073805" lon="35.165281666666665">
        <ele>96.6</ele>
        <time>2013-02-12T21:26:15.17</time>
      </trkpt>
      <trkpt lat="33.073811666666664" lon="35.165301666666664">
        <ele>96.6</ele>
        <time>2013-02-12T21:26:16.14</time>
      </trkpt>
      <trkpt lat="33.073816666666666" lon="35.165325">
        <ele>96.6</ele>
        <time>2013-02-12T21:26:17.15</time>
      </trkpt>
      <trkpt lat="33.07382166666667" lon="35.165348333333334">
        <ele>97.3</ele>
        <time>2013-02-12T21:26:18.15</time>
      </trkpt>
      <trkpt lat="33.073818333333335" lon="35.16536833333333">
        <ele>97.5</ele>
        <time>2013-02-12T21:26:19.22</time>
      </trkpt>
      <trkpt lat="33.07381" lon="35.16538833333333">
        <ele>97.7</ele>
        <time>2013-02-12T21:26:20.16</time>
      </trkpt>
      <trkpt lat="33.073815" lon="35.16541333333333">
        <ele>98</ele>
        <time>2013-02-12T21:26:21.15</time>
      </trkpt>
      <trkpt lat="33.073825" lon="35.16544666666667">
        <ele>97</ele>
        <time>2013-02-12T21:26:22.17</time>
      </trkpt>
      <trkpt lat="33.07383" lon="35.16546666666667">
        <ele>96.7</ele>
        <time>2013-02-12T21:26:23.16</time>
      </trkpt>
      <trkpt lat="33.073838333333335" lon="35.16549333333333">
        <ele>96.9</ele>
        <time>2013-02-12T21:26:24.15</time>
      </trkpt>
      <trkpt lat="33.073836666666665" lon="35.165508333333335">
        <ele>96.9</ele>
        <time>2013-02-12T21:26:25.15</time>
      </trkpt>
      <trkpt lat="33.07384166666667" lon="35.16552">
        <ele>96.60000000000001</ele>
        <time>2013-02-12T21:26:26.17</time>
      </trkpt>
      <trkpt lat="33.07383" lon="35.16553833333333">
        <ele>97.30000000000001</ele>
        <time>2013-02-12T21:26:27.18</time>
      </trkpt>
      <trkpt lat="33.07384" lon="35.16556666666666">
        <ele>98.4</ele>
        <time>2013-02-12T21:26:28.18</time>
      </trkpt>
      <trkpt lat="33.07383166666666" lon="35.16558833333333">
        <ele>98.60000000000001</ele>
        <time>2013-02-12T21:26:29.18</time>
      </trkpt>
      <trkpt lat="33.07383333333333" lon="35.16560833333333">
        <ele>98.9</ele>
        <time>2013-02-12T21:26:30.16</time>
      </trkpt>
      <trkpt lat="33.073845" lon="35.16563">
        <ele>98.80000000000001</ele>
        <time>2013-02-12T21:26:31.18</time>
      </trkpt>
      <trkpt lat="33.07384" lon="35.16565166666667">
        <ele>99.20000000000002</ele>
        <time>2013-02-12T21:26:32.17</time>
      </trkpt>
      <trkpt lat="33.07386666666667" lon="35.16567833333333">
        <ele>98.70000000000002</ele>
        <time>2013-02-12T21:26:33.19</time>
      </trkpt>
      <trkpt lat="33.07388666666667" lon="35.16570166666666">
        <ele>98.10000000000002</ele>
        <time>2013-02-12T21:26:34.18</time>
      </trkpt>
      <trkpt lat="33.073885" lon="35.16571833333333">
        <ele>98.80000000000003</ele>
        <time>2013-02-12T21:26:35.17</time>
      </trkpt>
      <trkpt lat="33.07388666666667" lon="35.165731666666666">
        <ele>98.50000000000003</ele>
        <time>2013-02-12T21:26:36.19</time>
      </trkpt>
      <trkpt lat="33.07388666666667" lon="35.165746666666664">
        <ele>98.50000000000003</ele>
        <time>2013-02-12T21:26:37.17</time>
      </trkpt>
      <trkpt lat="33.073881666666665" lon="35.16575666666667">
        <ele>99.70000000000003</ele>
        <time>2013-02-12T21:26:38.17</time>
      </trkpt>
      <trkpt lat="33.073885" lon="35.165773333333334">
        <ele>99.60000000000004</ele>
        <time>2013-02-12T21:26:39.17</time>
      </trkpt>
      <trkpt lat="33.073905" lon="35.165805">
        <ele>100.10000000000004</ele>
        <time>2013-02-12T21:26:40.16</time>
      </trkpt>
      <trkpt lat="33.0739" lon="35.165818333333334">
        <ele>101.10000000000004</ele>
        <time>2013-02-12T21:26:41.17</time>
      </trkpt>
      <trkpt lat="33.073903333333334" lon="35.16583333333333">
        <ele>100.40000000000003</ele>
        <time>2013-02-12T21:26:42.19</time>
      </trkpt>
      <trkpt lat="33.073905" lon="35.16585">
        <ele>100.60000000000004</ele>
        <time>2013-02-12T21:26:43.25</time>
      </trkpt>
      <trkpt lat="33.073905" lon="35.165861666666665">
        <ele>100.70000000000003</ele>
        <time>2013-02-12T21:26:44.17</time>
      </trkpt>
      <trkpt lat="33.073903333333334" lon="35.16588">
        <ele>101.00000000000003</ele>
        <time>2013-02-12T21:26:45.18</time>
      </trkpt>
      <trkpt lat="33.07389666666667" lon="35.165895">
        <ele>101.00000000000003</ele>
        <time>2013-02-12T21:26:47.17</time>
      </trkpt>
      <trkpt lat="33.0739" lon="35.16591666666667">
        <ele>101.40000000000003</ele>
        <time>2013-02-12T21:26:48.18</time>
      </trkpt>
      <trkpt lat="33.073951666666666" lon="35.16596166666667">
        <ele>101.70000000000003</ele>
        <time>2013-02-12T21:26:49.17</time>
      </trkpt>
      <trkpt lat="33.073966666666664" lon="35.165978333333335">
        <ele>102.10000000000004</ele>
        <time>2013-02-12T21:26:50.19</time>
      </trkpt>
      <trkpt lat="33.07397666666667" lon="35.166001666666666">
        <ele>102.10000000000004</ele>
        <time>2013-02-12T21:26:51.18</time>
      </trkpt>
      <trkpt lat="33.073978333333336" lon="35.166015">
        <ele>102.10000000000004</ele>
        <time>2013-02-12T21:26:52.19</time>
      </trkpt>
      <trkpt lat="33.07397666666667" lon="35.16603166666667">
        <ele>102.60000000000004</ele>
        <time>2013-02-12T21:26:53.16</time>
      </trkpt>
      <trkpt lat="33.07397666666667" lon="35.166048333333336">
        <ele>102.80000000000004</ele>
        <time>2013-02-12T21:26:54.17</time>
      </trkpt>
      <trkpt lat="33.07397666666667" lon="35.166066666666666">
        <ele>102.90000000000003</ele>
        <time>2013-02-12T21:26:55.16</time>
      </trkpt>
      <trkpt lat="33.07398666666667" lon="35.16608">
        <ele>103.20000000000003</ele>
        <time>2013-02-12T21:26:56.22</time>
      </trkpt>
      <trkpt lat="33.073995" lon="35.16609666666667">
        <ele>103.80000000000003</ele>
        <time>2013-02-12T21:26:57.17</time>
      </trkpt>
      <trkpt lat="33.07400166666667" lon="35.16612166666667">
        <ele>104.00000000000003</ele>
        <time>2013-02-12T21:26:58.17</time>
      </trkpt>
      <trkpt lat="33.07400333333333" lon="35.166135">
        <ele>103.90000000000003</ele>
        <time>2013-02-12T21:26:59.20</time>
      </trkpt>
      <trkpt lat="33.074015" lon="35.166155">
        <ele>103.50000000000003</ele>
        <time>2013-02-12T21:27:00.14</time>
      </trkpt>
      <trkpt lat="33.074011666666664" lon="35.16616833333333">
        <ele>102.70000000000003</ele>
        <time>2013-02-12T21:27:01.18</time>
      </trkpt>
      <trkpt lat="33.073998333333336" lon="35.166183333333336">
        <ele>102.90000000000003</ele>
        <time>2013-02-12T21:27:02.18</time>
      </trkpt>
      <trkpt lat="33.07400166666667" lon="35.166201666666666">
        <ele>103.40000000000003</ele>
        <time>2013-02-12T21:27:03.17</time>
      </trkpt>
      <trkpt lat="33.074015" lon="35.166225">
        <ele>104.40000000000003</ele>
        <time>2013-02-12T21:27:04.17</time>
      </trkpt>
      <trkpt lat="33.07402" lon="35.16623833333333">
        <ele>105.30000000000004</ele>
        <time>2013-02-12T21:27:05.19</time>
      </trkpt>
      <trkpt lat="33.07402666666667" lon="35.16625166666667">
        <ele>105.40000000000003</ele>
        <time>2013-02-12T21:27:06.18</time>
      </trkpt>
      <trkpt lat="33.074023333333336" lon="35.16628">
        <ele>106.30000000000004</ele>
        <time>2013-02-12T21:27:07.16</time>
      </trkpt>
      <trkpt lat="33.07402" lon="35.16629">
        <ele>106.60000000000004</ele>
        <time>2013-02-12T21:27:08.18</time>
      </trkpt>
      <trkpt lat="33.07403333333333" lon="35.166311666666665">
        <ele>106.60000000000004</ele>
        <time>2013-02-12T21:27:09.17</time>
      </trkpt>
      <trkpt lat="33.074045" lon="35.16632166666667">
        <ele>106.30000000000004</ele>
        <time>2013-02-12T21:27:10.17</time>
      </trkpt>
      <trkpt lat="33.074063333333335" lon="35.166345">
        <ele>106.70000000000005</ele>
        <time>2013-02-12T21:27:11.18</time>
      </trkpt>
      <trkpt lat="33.07407833333333" lon="35.16636">
        <ele>106.60000000000005</ele>
        <time>2013-02-12T21:27:12.21</time>
      </trkpt>
      <trkpt lat="33.074086666666666" lon="35.166381666666666">
        <ele>106.80000000000005</ele>
        <time>2013-02-12T21:27:13.18</time>
      </trkpt>
      <trkpt lat="33.074095" lon="35.1664">
        <ele>106.90000000000005</ele>
        <time>2013-02-12T21:27:14.17</time>
      </trkpt>
      <trkpt lat="33.07411333333334" lon="35.166421666666665">
        <ele>107.00000000000004</ele>
        <time>2013-02-12T21:27:15.19</time>
      </trkpt>
      <trkpt lat="33.07413" lon="35.166428333333336">
        <ele>107.00000000000004</ele>
        <time>2013-02-12T21:27:16.17</time>
      </trkpt>
      <trkpt lat="33.07413833333333" lon="35.16645333333334">
        <ele>107.80000000000004</ele>
        <time>2013-02-12T21:27:17.18</time>
      </trkpt>
      <trkpt lat="33.074145" lon="35.16648">
        <ele>107.30000000000004</ele>
        <time>2013-02-12T21:27:18.21</time>
      </trkpt>
      <trkpt lat="33.074151666666666" lon="35.16649666666667">
        <ele>106.90000000000003</ele>
        <time>2013-02-12T21:27:19.25</time>
      </trkpt>
      <trkpt lat="33.07416" lon="35.166505">
        <ele>107.50000000000003</ele>
        <time>2013-02-12T21:27:20.20</time>
      </trkpt>
      <trkpt lat="33.07417" lon="35.166525">
        <ele>107.20000000000003</ele>
        <time>2013-02-12T21:27:21.19</time>
      </trkpt>
      <trkpt lat="33.074178333333336" lon="35.16655166666666">
        <ele>107.10000000000004</ele>
        <time>2013-02-12T21:27:22.19</time>
      </trkpt>
      <trkpt lat="33.07418666666667" lon="35.16656833333333">
        <ele>106.90000000000003</ele>
        <time>2013-02-12T21:27:23.17</time>
      </trkpt>
      <trkpt lat="33.074198333333335" lon="35.166578333333334">
        <ele>107.20000000000003</ele>
        <time>2013-02-12T21:27:24.17</time>
      </trkpt>
      <trkpt lat="33.07420166666667" lon="35.16659166666667">
        <ele>107.40000000000003</ele>
        <time>2013-02-12T21:27:25.18</time>
      </trkpt>
      <trkpt lat="33.07420833333333" lon="35.166601666666665">
        <ele>107.40000000000003</ele>
        <time>2013-02-12T21:27:26.20</time>
      </trkpt>
      <trkpt lat="33.074205" lon="35.166608333333336">
        <ele>106.40000000000003</ele>
        <time>2013-02-12T21:27:27.18</time>
      </trkpt>
      <trkpt lat="33.074215" lon="35.16662">
        <ele>105.60000000000004</ele>
        <time>2013-02-12T21:27:28.19</time>
      </trkpt>
      <trkpt lat="33.07422666666667" lon="35.16661833333333">
        <ele>105.70000000000003</ele>
        <time>2013-02-12T21:27:29.19</time>
      </trkpt>
      <trkpt lat="33.074243333333335" lon="35.16663">
        <ele>105.70000000000003</ele>
        <time>2013-02-12T21:27:30.20</time>
      </trkpt>
      <trkpt lat="33.07426666666667" lon="35.16663333333333">
        <ele>106.00000000000003</ele>
        <time>2013-02-12T21:27:31.19</time>
      </trkpt>
      <trkpt lat="33.07429833333333" lon="35.16664">
        <ele>106.10000000000002</ele>
        <time>2013-02-12T21:27:32.19</time>
      </trkpt>
      <trkpt lat="33.074325" lon="35.16664333333333">
        <ele>106.70000000000002</ele>
        <time>2013-02-12T21:27:33.19</time>
      </trkpt>
      <trkpt lat="33.07434833333333" lon="35.166655">
        <ele>107.20000000000002</ele>
        <time>2013-02-12T21:27:34.19</time>
      </trkpt>
      <trkpt lat="33.07436" lon="35.166646666666665">
        <ele>108.20000000000002</ele>
        <time>2013-02-12T21:27:35.19</time>
      </trkpt>
      <trkpt lat="33.074355" lon="35.16664166666666">
        <ele>108.10000000000002</ele>
        <time>2013-02-12T21:27:36.18</time>
      </trkpt>
      <trkpt lat="33.07436" lon="35.16663333333333">
        <ele>108.70000000000002</ele>
        <time>2013-02-12T21:27:37.18</time>
      </trkpt>
      <trkpt lat="33.074373333333334" lon="35.16660666666667">
        <ele>108.40000000000002</ele>
        <time>2013-02-12T21:27:38.20</time>
      </trkpt>
      <trkpt lat="33.074385" lon="35.16658833333334">
        <ele>108.70000000000002</ele>
        <time>2013-02-12T21:27:39.19</time>
      </trkpt>
      <trkpt lat="33.07438666666667" lon="35.166576666666664">
        <ele>108.90000000000002</ele>
        <time>2013-02-12T21:27:40.18</time>
      </trkpt>
      <trkpt lat="33.074395" lon="35.16656166666667">
        <ele>109.50000000000001</ele>
        <time>2013-02-12T21:27:41.18</time>
      </trkpt>
      <trkpt lat="33.074395" lon="35.166545">
        <ele>110.20000000000002</ele>
        <time>2013-02-12T21:27:42.19</time>
      </trkpt>
      <trkpt lat="33.07440833333333" lon="35.166545">
        <ele>111.30000000000001</ele>
        <time>2013-02-12T21:27:43.17</time>
      </trkpt>
      <trkpt lat="33.0744" lon="35.16652333333333">
        <ele>111.80000000000001</ele>
        <time>2013-02-12T21:27:45.19</time>
      </trkpt>
      <trkpt lat="33.07439166666666" lon="35.16650166666667">
        <ele>111.50000000000001</ele>
        <time>2013-02-12T21:27:46.18</time>
      </trkpt>
      <trkpt lat="33.07438666666667" lon="35.166473333333336">
        <ele>111.10000000000001</ele>
        <time>2013-02-12T21:27:47.19</time>
      </trkpt>
      <trkpt lat="33.074395" lon="35.16645333333334">
        <ele>111.30000000000001</ele>
        <time>2013-02-12T21:27:48.20</time>
      </trkpt>
      <trkpt lat="33.07441166666667" lon="35.166445">
        <ele>112.60000000000001</ele>
        <time>2013-02-12T21:27:50.22</time>
      </trkpt>
      <trkpt lat="33.07442" lon="35.16643">
        <ele>112.7</ele>
        <time>2013-02-12T21:27:51.21</time>
      </trkpt>
      <trkpt lat="33.07442833333333" lon="35.166425">
        <ele>112.4</ele>
        <time>2013-02-12T21:27:52.18</time>
      </trkpt>
      <trkpt lat="33.07442" lon="35.166383333333336">
        <ele>112.10000000000001</ele>
        <time>2013-02-12T21:27:53.19</time>
      </trkpt>
      <trkpt lat="33.074425" lon="35.16636333333334">
        <ele>112.00000000000001</ele>
        <time>2013-02-12T21:27:54.19</time>
      </trkpt>
      <trkpt lat="33.074436666666664" lon="35.16636">
        <ele>112.60000000000001</ele>
        <time>2013-02-12T21:27:55.19</time>
      </trkpt>
      <trkpt lat="33.07444" lon="35.16634833333333">
        <ele>113.00000000000001</ele>
        <time>2013-02-12T21:27:56.20</time>
      </trkpt>
      <trkpt lat="33.07443833333333" lon="35.16633">
        <ele>114.10000000000001</ele>
        <time>2013-02-12T21:27:57.19</time>
      </trkpt>
      <trkpt lat="33.07443166666667" lon="35.16631833333334">
        <ele>113.7</ele>
        <time>2013-02-12T21:27:58.21</time>
      </trkpt>
      <trkpt lat="33.074441666666665" lon="35.166306666666664">
        <ele>114.10000000000001</ele>
        <time>2013-02-12T21:27:59.19</time>
      </trkpt>
      <trkpt lat="33.074441666666665" lon="35.166295">
        <ele>114.2</ele>
        <time>2013-02-12T21:28:00.17</time>
      </trkpt>
      <trkpt lat="33.07443333333333" lon="35.16627166666667">
        <ele>114.2</ele>
        <time>2013-02-12T21:28:01.19</time>
      </trkpt>
      <trkpt lat="33.07443333333333" lon="35.16625166666667">
        <ele>117.2</ele>
        <time>2013-02-12T21:28:03.20</time>
      </trkpt>
      <trkpt lat="33.07444" lon="35.16622666666667">
        <ele>117.7</ele>
        <time>2013-02-12T21:28:04.18</time>
      </trkpt>
      <trkpt lat="33.07445333333333" lon="35.16621333333333">
        <ele>118.4</ele>
        <time>2013-02-12T21:28:06.18</time>
      </trkpt>
      <trkpt lat="33.07445833333333" lon="35.166203333333335">
        <ele>119.10000000000001</ele>
        <time>2013-02-12T21:28:07.21</time>
      </trkpt>
      <trkpt lat="33.074465000000004" lon="35.16618">
        <ele>119.9</ele>
        <time>2013-02-12T21:28:08.20</time>
      </trkpt>
      <trkpt lat="33.07447166666667" lon="35.16616166666667">
        <ele>120.5</ele>
        <time>2013-02-12T21:28:09.19</time>
      </trkpt>
      <trkpt lat="33.07448333333333" lon="35.166145">
        <ele>122</ele>
        <time>2013-02-12T21:28:10.19</time>
      </trkpt>
      <trkpt lat="33.074495" lon="35.16613666666667">
        <ele>122.8</ele>
        <time>2013-02-12T21:28:11.18</time>
      </trkpt>
      <trkpt lat="33.074493333333336" lon="35.16612833333333">
        <ele>123</ele>
        <time>2013-02-12T21:28:12.19</time>
      </trkpt>
      <trkpt lat="33.07449666666667" lon="35.16612333333333">
        <ele>122.8</ele>
        <time>2013-02-12T21:28:13.18</time>
      </trkpt>
      <trkpt lat="33.074511666666666" lon="35.166105">
        <ele>123.3</ele>
        <time>2013-02-12T21:28:14.20</time>
      </trkpt>
      <trkpt lat="33.074525" lon="35.166095">
        <ele>123.6</ele>
        <time>2013-02-12T21:28:15.19</time>
      </trkpt>
      <trkpt lat="33.074533333333335" lon="35.16608">
        <ele>123.5</ele>
        <time>2013-02-12T21:28:16.19</time>
      </trkpt>
      <trkpt lat="33.074545" lon="35.166066666666666">
        <ele>123.2</ele>
        <time>2013-02-12T21:28:17.19</time>
      </trkpt>
      <trkpt lat="33.074555" lon="35.16604666666667">
        <ele>122.9</ele>
        <time>2013-02-12T21:28:18.18</time>
      </trkpt>
      <trkpt lat="33.074551666666665" lon="35.16603333333333">
        <ele>123</ele>
        <time>2013-02-12T21:28:19.18</time>
      </trkpt>
      <trkpt lat="33.07457" lon="35.16603166666667">
        <ele>123</ele>
        <time>2013-02-12T21:28:20.19</time>
      </trkpt>
      <trkpt lat="33.07457" lon="35.16600833333333">
        <ele>123.9</ele>
        <time>2013-02-12T21:28:21.20</time>
      </trkpt>
      <trkpt lat="33.074571666666664" lon="35.166001666666666">
        <ele>124.5</ele>
        <time>2013-02-12T21:28:22.19</time>
      </trkpt>
      <trkpt lat="33.07456666666667" lon="35.165975">
        <ele>124.5</ele>
        <time>2013-02-12T21:28:24.18</time>
      </trkpt>
      <trkpt lat="33.07456333333333" lon="35.16595">
        <ele>124.3</ele>
        <time>2013-02-12T21:28:25.18</time>
      </trkpt>
      <trkpt lat="33.07456666666667" lon="35.165926666666664">
        <ele>124.2</ele>
        <time>2013-02-12T21:28:26.20</time>
      </trkpt>
      <trkpt lat="33.07456166666667" lon="35.16591">
        <ele>124.8</ele>
        <time>2013-02-12T21:28:27.19</time>
      </trkpt>
      <trkpt lat="33.07456166666667" lon="35.16590333333333">
        <ele>125.2</ele>
        <time>2013-02-12T21:28:28.20</time>
      </trkpt>
      <trkpt lat="33.07457" lon="35.165895">
        <ele>125.3</ele>
        <time>2013-02-12T21:28:29.18</time>
      </trkpt>
      <trkpt lat="33.07458333333334" lon="35.165886666666665">
        <ele>124.6</ele>
        <time>2013-02-12T21:28:30.20</time>
      </trkpt>
      <trkpt lat="33.07459166666667" lon="35.165866666666666">
        <ele>123.89999999999999</ele>
        <time>2013-02-12T21:28:31.19</time>
      </trkpt>
      <trkpt lat="33.074601666666666" lon="35.16584833333334">
        <ele>122.8</ele>
        <time>2013-02-12T21:28:32.19</time>
      </trkpt>
      <trkpt lat="33.07460666666667" lon="35.16582833333333">
        <ele>123.3</ele>
        <time>2013-02-12T21:28:33.18</time>
      </trkpt>
      <trkpt lat="33.07460833333333" lon="35.16580833333333">
        <ele>123</ele>
        <time>2013-02-12T21:28:34.17</time>
      </trkpt>
      <trkpt lat="33.07461333333333" lon="35.165798333333335">
        <ele>122.8</ele>
        <time>2013-02-12T21:28:35.17</time>
      </trkpt>
      <trkpt lat="33.07461" lon="35.16578333333333">
        <ele>122.6</ele>
        <time>2013-02-12T21:28:36.17</time>
      </trkpt>
      <trkpt lat="33.07463" lon="35.16576666666667">
        <ele>123.19999999999999</ele>
        <time>2013-02-12T21:28:37.18</time>
      </trkpt>
      <trkpt lat="33.07467666666667" lon="35.16574333333333">
        <ele>123.49999999999999</ele>
        <time>2013-02-12T21:28:38.16</time>
      </trkpt>
      <trkpt lat="33.074685" lon="35.16571">
        <ele>124.6</ele>
        <time>2013-02-12T21:28:41.15</time>
      </trkpt>
      <trkpt lat="33.074695" lon="35.16567166666667">
        <ele>124.1</ele>
        <time>2013-02-12T21:28:42.17</time>
      </trkpt>
      <trkpt lat="33.074711666666666" lon="35.16565333333333">
        <ele>123.8</ele>
        <time>2013-02-12T21:28:43.17</time>
      </trkpt>
      <trkpt lat="33.07471666666667" lon="35.16562666666667">
        <ele>123.39999999999999</ele>
        <time>2013-02-12T21:28:44.16</time>
      </trkpt>
      <trkpt lat="33.074731666666665" lon="35.165605">
        <ele>123.99999999999999</ele>
        <time>2013-02-12T21:28:45.15</time>
      </trkpt>
      <trkpt lat="33.07473" lon="35.16558833333333">
        <ele>124.09999999999998</ele>
        <time>2013-02-12T21:28:46.17</time>
      </trkpt>
      <trkpt lat="33.074745" lon="35.165578333333336">
        <ele>124.09999999999998</ele>
        <time>2013-02-12T21:28:47.18</time>
      </trkpt>
      <trkpt lat="33.074755" lon="35.16556166666667">
        <ele>124.09999999999998</ele>
        <time>2013-02-12T21:28:48.15</time>
      </trkpt>
      <trkpt lat="33.074765" lon="35.16554">
        <ele>123.99999999999999</ele>
        <time>2013-02-12T21:28:49.15</time>
      </trkpt>
      <trkpt lat="33.074756666666666" lon="35.16551666666667">
        <ele>124.29999999999998</ele>
        <time>2013-02-12T21:28:50.15</time>
      </trkpt>
      <trkpt lat="33.074778333333335" lon="35.16549666666667">
        <ele>124.49999999999999</ele>
        <time>2013-02-12T21:28:51.15</time>
      </trkpt>
      <trkpt lat="33.07478833333333" lon="35.16547833333333">
        <ele>124.99999999999999</ele>
        <time>2013-02-12T21:28:52.17</time>
      </trkpt>
      <trkpt lat="33.074798333333334" lon="35.16547">
        <ele>124.79999999999998</ele>
        <time>2013-02-12T21:28:53.15</time>
      </trkpt>
      <trkpt lat="33.0748" lon="35.16545">
        <ele>125.49999999999999</ele>
        <time>2013-02-12T21:28:54.18</time>
      </trkpt>
      <trkpt lat="33.074798333333334" lon="35.165436666666665">
        <ele>125.39999999999999</ele>
        <time>2013-02-12T21:28:55.22</time>
      </trkpt>
      <trkpt lat="33.07479" lon="35.165416666666665">
        <ele>125.89999999999999</ele>
        <time>2013-02-12T21:28:56.16</time>
      </trkpt>
      <trkpt lat="33.07478666666667" lon="35.165393333333334">
        <ele>125.49999999999999</ele>
        <time>2013-02-12T21:28:57.20</time>
      </trkpt>
      <trkpt lat="33.074785" lon="35.165345">
        <ele>125.49999999999999</ele>
        <time>2013-02-12T21:28:58.18</time>
      </trkpt>
      <trkpt lat="33.074796666666664" lon="35.16534">
        <ele>125.19999999999999</ele>
        <time>2013-02-12T21:28:59.17</time>
      </trkpt>
      <trkpt lat="33.074803333333335" lon="35.16532">
        <ele>125.19999999999999</ele>
        <time>2013-02-12T21:29:00.17</time>
      </trkpt>
      <trkpt lat="33.07481166666667" lon="35.165306666666666">
        <ele>125.19999999999999</ele>
        <time>2013-02-12T21:29:01.23</time>
      </trkpt>
      <trkpt lat="33.074821666666665" lon="35.165281666666665">
        <ele>126.49999999999999</ele>
        <time>2013-02-12T21:29:02.20</time>
      </trkpt>
      <trkpt lat="33.07483666666667" lon="35.16524833333333">
        <ele>127.09999999999998</ele>
        <time>2013-02-12T21:29:03.19</time>
      </trkpt>
      <trkpt lat="33.074846666666666" lon="35.165243333333336">
        <ele>126.89999999999998</ele>
        <time>2013-02-12T21:29:04.18</time>
      </trkpt>
      <trkpt lat="33.074843333333334" lon="35.16523333333333">
        <ele>127.39999999999998</ele>
        <time>2013-02-12T21:29:05.18</time>
      </trkpt>
      <trkpt lat="33.07485833333333" lon="35.165225">
        <ele>126.89999999999998</ele>
        <time>2013-02-12T21:29:06.20</time>
      </trkpt>
      <trkpt lat="33.07486" lon="35.16521">
        <ele>127.29999999999998</ele>
        <time>2013-02-12T21:29:07.19</time>
      </trkpt>
      <trkpt lat="33.074875" lon="35.16519666666667">
        <ele>126.79999999999998</ele>
        <time>2013-02-12T21:29:08.19</time>
      </trkpt>
      <trkpt lat="33.07487833333333" lon="35.165175">
        <ele>126.79999999999998</ele>
        <time>2013-02-12T21:29:09.20</time>
      </trkpt>
      <trkpt lat="33.07489" lon="35.165168333333334">
        <ele>126.99999999999999</ele>
        <time>2013-02-12T21:29:10.18</time>
      </trkpt>
      <trkpt lat="33.07491666666667" lon="35.16517">
        <ele>127.69999999999999</ele>
        <time>2013-02-12T21:29:11.18</time>
      </trkpt>
      <trkpt lat="33.07492166666667" lon="35.165145">
        <ele>127.89999999999999</ele>
        <time>2013-02-12T21:29:12.18</time>
      </trkpt>
      <trkpt lat="33.074936666666666" lon="35.16512">
        <ele>128.1</ele>
        <time>2013-02-12T21:29:13.18</time>
      </trkpt>
      <trkpt lat="33.07496166666667" lon="35.165115">
        <ele>128.79999999999998</ele>
        <time>2013-02-12T21:29:14.18</time>
      </trkpt>
      <trkpt lat="33.07496833333333" lon="35.165101666666665">
        <ele>128.2</ele>
        <time>2013-02-12T21:29:15.18</time>
      </trkpt>
      <trkpt lat="33.074983333333336" lon="35.165083333333335">
        <ele>129</ele>
        <time>2013-02-12T21:29:16.18</time>
      </trkpt>
      <trkpt lat="33.074996666666664" lon="35.16506833333333">
        <ele>129.3</ele>
        <time>2013-02-12T21:29:17.17</time>
      </trkpt>
      <trkpt lat="33.07501166666667" lon="35.165061666666666">
        <ele>129</ele>
        <time>2013-02-12T21:29:18.15</time>
      </trkpt>
      <trkpt lat="33.075026666666666" lon="35.165063333333336">
        <ele>129.2</ele>
        <time>2013-02-12T21:29:19.15</time>
      </trkpt>
      <trkpt lat="33.07503833333333" lon="35.16509166666667">
        <ele>130.2</ele>
        <time>2013-02-12T21:29:20.15</time>
      </trkpt>
      <trkpt lat="33.07505833333333" lon="35.1651">
        <ele>129.29999999999998</ele>
        <time>2013-02-12T21:29:22.15</time>
      </trkpt>
      <trkpt lat="33.075046666666665" lon="35.165105">
        <ele>130.29999999999998</ele>
        <time>2013-02-12T21:29:23.15</time>
      </trkpt>
      <trkpt lat="33.07503333333333" lon="35.165125">
        <ele>129.99999999999997</ele>
        <time>2013-02-12T21:29:24.15</time>
      </trkpt>
      <trkpt lat="33.075048333333335" lon="35.16513333333333">
        <ele>129.79999999999998</ele>
        <time>2013-02-12T21:29:25.15</time>
      </trkpt>
      <trkpt lat="33.07505666666667" lon="35.16514">
        <ele>129.39999999999998</ele>
        <time>2013-02-12T21:29:26.18</time>
      </trkpt>
      <trkpt lat="33.075055" lon="35.165146666666665">
        <ele>129.39999999999998</ele>
        <time>2013-02-12T21:29:27.18</time>
      </trkpt>
      <trkpt lat="33.075066666666665" lon="35.16515833333333">
        <ele>129.59999999999997</ele>
        <time>2013-02-12T21:29:28.15</time>
      </trkpt>
      <trkpt lat="33.07507833333333" lon="35.165168333333334">
        <ele>130.09999999999997</ele>
        <time>2013-02-12T21:29:29.15</time>
      </trkpt>
      <trkpt lat="33.075073333333336" lon="35.165191666666665">
        <ele>130</ele>
        <time>2013-02-12T21:29:32.18</time>
      </trkpt>
      <trkpt lat="33.075073333333336" lon="35.16520666666667">
        <ele>130.9</ele>
        <time>2013-02-12T21:29:33.17</time>
      </trkpt>
      <trkpt lat="33.075071666666666" lon="35.16522">
        <ele>130.70000000000002</ele>
        <time>2013-02-12T21:29:34.18</time>
      </trkpt>
      <trkpt lat="33.075071666666666" lon="35.16524166666667">
        <ele>131.70000000000002</ele>
        <time>2013-02-12T21:29:35.19</time>
      </trkpt>
      <trkpt lat="33.075066666666665" lon="35.165263333333336">
        <ele>132.50000000000003</ele>
        <time>2013-02-12T21:29:36.17</time>
      </trkpt>
      <trkpt lat="33.07505833333333" lon="35.16528">
        <ele>132.90000000000003</ele>
        <time>2013-02-12T21:29:37.16</time>
      </trkpt>
      <trkpt lat="33.075048333333335" lon="35.165295">
        <ele>133.10000000000002</ele>
        <time>2013-02-12T21:29:38.17</time>
      </trkpt>
      <trkpt lat="33.07505166666667" lon="35.165308333333336">
        <ele>133.3</ele>
        <time>2013-02-12T21:29:39.17</time>
      </trkpt>
      <trkpt lat="33.075046666666665" lon="35.165335">
        <ele>133.5</ele>
        <time>2013-02-12T21:29:40.18</time>
      </trkpt>
      <trkpt lat="33.07505" lon="35.16535666666667">
        <ele>134.6</ele>
        <time>2013-02-12T21:29:41.17</time>
      </trkpt>
      <trkpt lat="33.075055" lon="35.16537666666667">
        <ele>134.6</ele>
        <time>2013-02-12T21:29:42.18</time>
      </trkpt>
      <trkpt lat="33.075065" lon="35.165396666666666">
        <ele>134.4</ele>
        <time>2013-02-12T21:29:43.19</time>
      </trkpt>
      <trkpt lat="33.07506166666667" lon="35.16540166666667">
        <ele>134.8</ele>
        <time>2013-02-12T21:29:44.19</time>
      </trkpt>
      <trkpt lat="33.07507666666667" lon="35.16541333333333">
        <ele>134.4</ele>
        <time>2013-02-12T21:29:45.17</time>
      </trkpt>
      <trkpt lat="33.07508333333333" lon="35.16543333333333">
        <ele>134.4</ele>
        <time>2013-02-12T21:29:46.19</time>
      </trkpt>
      <trkpt lat="33.07508166666667" lon="35.165438333333334">
        <ele>134</ele>
        <time>2013-02-12T21:29:47.21</time>
      </trkpt>
      <trkpt lat="33.075086666666664" lon="35.16545833333333">
        <ele>134.5</ele>
        <time>2013-02-12T21:29:48.20</time>
      </trkpt>
      <trkpt lat="33.075085" lon="35.16549">
        <ele>135</ele>
        <time>2013-02-12T21:29:49.18</time>
      </trkpt>
      <trkpt lat="33.075085" lon="35.165501666666664">
        <ele>134.6</ele>
        <time>2013-02-12T21:29:50.20</time>
      </trkpt>
      <trkpt lat="33.07510333333333" lon="35.16552">
        <ele>134.6</ele>
        <time>2013-02-12T21:29:51.18</time>
      </trkpt>
      <trkpt lat="33.07507833333333" lon="35.16552333333333">
        <ele>136</ele>
        <time>2013-02-12T21:29:52.20</time>
      </trkpt>
      <trkpt lat="33.07509" lon="35.16554333333333">
        <ele>135.7</ele>
        <time>2013-02-12T21:29:53.19</time>
      </trkpt>
      <trkpt lat="33.07509" lon="35.165555">
        <ele>135.5</ele>
        <time>2013-02-12T21:29:54.17</time>
      </trkpt>
      <trkpt lat="33.075093333333335" lon="35.16556">
        <ele>135</ele>
        <time>2013-02-12T21:29:55.19</time>
      </trkpt>
      <trkpt lat="33.07509666666667" lon="35.16556833333333">
        <ele>134.3</ele>
        <time>2013-02-12T21:29:56.20</time>
      </trkpt>
      <trkpt lat="33.07512" lon="35.16558333333333">
        <ele>134.4</ele>
        <time>2013-02-12T21:29:57.18</time>
      </trkpt>
      <trkpt lat="33.07514833333333" lon="35.16560333333334">
        <ele>133.9</ele>
        <time>2013-02-12T21:29:58.18</time>
      </trkpt>
      <trkpt lat="33.07515333333333" lon="35.16560833333333">
        <ele>134.20000000000002</ele>
        <time>2013-02-12T21:29:59.18</time>
      </trkpt>
      <trkpt lat="33.075163333333336" lon="35.16560666666667">
        <ele>133.9</ele>
        <time>2013-02-12T21:30:00.16</time>
      </trkpt>
      <trkpt lat="33.075176666666664" lon="35.16562666666667">
        <ele>134</ele>
        <time>2013-02-12T21:30:01.18</time>
      </trkpt>
      <trkpt lat="33.07519333333333" lon="35.16563333333333">
        <ele>134.7</ele>
        <time>2013-02-12T21:30:02.20</time>
      </trkpt>
      <trkpt lat="33.07521333333333" lon="35.165645">
        <ele>135</ele>
        <time>2013-02-12T21:30:03.19</time>
      </trkpt>
      <trkpt lat="33.075225" lon="35.165643333333335">
        <ele>135.2</ele>
        <time>2013-02-12T21:30:04.20</time>
      </trkpt>
      <trkpt lat="33.07524166666666" lon="35.16565166666667">
        <ele>135.6</ele>
        <time>2013-02-12T21:30:05.19</time>
      </trkpt>
      <trkpt lat="33.075265" lon="35.165663333333335">
        <ele>137.6</ele>
        <time>2013-02-12T21:30:06.19</time>
      </trkpt>
      <trkpt lat="33.07527833333333" lon="35.16567333333333">
        <ele>138.1</ele>
        <time>2013-02-12T21:30:07.19</time>
      </trkpt>
      <trkpt lat="33.075295" lon="35.165665">
        <ele>138</ele>
        <time>2013-02-12T21:30:08.19</time>
      </trkpt>
      <trkpt lat="33.075316666666666" lon="35.16565166666667">
        <ele>137.9</ele>
        <time>2013-02-12T21:30:09.19</time>
      </trkpt>
      <trkpt lat="33.075318333333335" lon="35.165661666666665">
        <ele>138.9</ele>
        <time>2013-02-12T21:30:10.19</time>
      </trkpt>
      <trkpt lat="33.07533" lon="35.16564833333333">
        <ele>138.70000000000002</ele>
        <time>2013-02-12T21:30:11.18</time>
      </trkpt>
      <trkpt lat="33.075361666666666" lon="35.165655">
        <ele>139.9</ele>
        <time>2013-02-12T21:30:14.20</time>
      </trkpt>
      <trkpt lat="33.07536833333333" lon="35.16564666666667">
        <ele>140.3</ele>
        <time>2013-02-12T21:30:15.18</time>
      </trkpt>
      <trkpt lat="33.075385" lon="35.165645">
        <ele>141</ele>
        <time>2013-02-12T21:30:16.18</time>
      </trkpt>
      <trkpt lat="33.07539833333333" lon="35.165635">
        <ele>141.5</ele>
        <time>2013-02-12T21:30:17.18</time>
      </trkpt>
      <trkpt lat="33.075415" lon="35.16562833333333">
        <ele>142.1</ele>
        <time>2013-02-12T21:30:18.19</time>
      </trkpt>
      <trkpt lat="33.075428333333335" lon="35.165625">
        <ele>143.29999999999998</ele>
        <time>2013-02-12T21:30:19.18</time>
      </trkpt>
      <trkpt lat="33.07544" lon="35.16560166666667">
        <ele>143.39999999999998</ele>
        <time>2013-02-12T21:30:20.19</time>
      </trkpt>
      <trkpt lat="33.075448333333334" lon="35.16559">
        <ele>143.59999999999997</ele>
        <time>2013-02-12T21:30:21.18</time>
      </trkpt>
      <trkpt lat="33.075466666666664" lon="35.165565">
        <ele>142.99999999999997</ele>
        <time>2013-02-12T21:30:22.19</time>
      </trkpt>
      <trkpt lat="33.07548166666667" lon="35.165553333333335">
        <ele>143.19999999999996</ele>
        <time>2013-02-12T21:30:23.18</time>
      </trkpt>
      <trkpt lat="33.07551333333333" lon="35.165546666666664">
        <ele>143.79999999999995</ele>
        <time>2013-02-12T21:30:24.18</time>
      </trkpt>
      <trkpt lat="33.07552333333334" lon="35.16554333333333">
        <ele>143.89999999999995</ele>
        <time>2013-02-12T21:30:25.18</time>
      </trkpt>
      <trkpt lat="33.07555833333333" lon="35.165525">
        <ele>143.89999999999995</ele>
        <time>2013-02-12T21:30:26.19</time>
      </trkpt>
      <trkpt lat="33.075565" lon="35.16551333333334">
        <ele>144.29999999999995</ele>
        <time>2013-02-12T21:30:27.19</time>
      </trkpt>
      <trkpt lat="33.075583333333334" lon="35.165506666666666">
        <ele>144.19999999999996</ele>
        <time>2013-02-12T21:30:28.19</time>
      </trkpt>
      <trkpt lat="33.07559666666667" lon="35.165505">
        <ele>145.19999999999996</ele>
        <time>2013-02-12T21:30:29.19</time>
      </trkpt>
      <trkpt lat="33.07561333333334" lon="35.165505">
        <ele>145.29999999999995</ele>
        <time>2013-02-12T21:30:30.22</time>
      </trkpt>
      <trkpt lat="33.07562333333333" lon="35.165501666666664">
        <ele>145.69999999999996</ele>
        <time>2013-02-12T21:30:31.25</time>
      </trkpt>
      <trkpt lat="33.07564166666667" lon="35.165503333333334">
        <ele>145.49999999999997</ele>
        <time>2013-02-12T21:30:32.20</time>
      </trkpt>
      <trkpt lat="33.075655" lon="35.165495">
        <ele>144.99999999999997</ele>
        <time>2013-02-12T21:30:33.19</time>
      </trkpt>
      <trkpt lat="33.075665" lon="35.165481666666665">
        <ele>145.09999999999997</ele>
        <time>2013-02-12T21:30:34.19</time>
      </trkpt>
      <trkpt lat="33.07568333333333" lon="35.16548">
        <ele>145.29999999999995</ele>
        <time>2013-02-12T21:30:35.19</time>
      </trkpt>
      <trkpt lat="33.075696666666666" lon="35.165475">
        <ele>145.39999999999995</ele>
        <time>2013-02-12T21:30:36.19</time>
      </trkpt>
      <trkpt lat="33.075715" lon="35.16549">
        <ele>145.19999999999996</ele>
        <time>2013-02-12T21:30:37.19</time>
      </trkpt>
      <trkpt lat="33.075745" lon="35.16548">
        <ele>144.09999999999997</ele>
        <time>2013-02-12T21:30:38.22</time>
      </trkpt>
      <trkpt lat="33.075768333333336" lon="35.16547333333333">
        <ele>143.89999999999998</ele>
        <time>2013-02-12T21:30:39.19</time>
      </trkpt>
      <trkpt lat="33.075775" lon="35.165456666666664">
        <ele>144.99999999999997</ele>
        <time>2013-02-12T21:30:40.20</time>
      </trkpt>
      <trkpt lat="33.0758" lon="35.16546">
        <ele>145.49999999999997</ele>
        <time>2013-02-12T21:30:41.19</time>
      </trkpt>
      <trkpt lat="33.075808333333335" lon="35.165455">
        <ele>145.79999999999998</ele>
        <time>2013-02-12T21:30:42.18</time>
      </trkpt>
      <trkpt lat="33.07582333333333" lon="35.165445">
        <ele>146.1</ele>
        <time>2013-02-12T21:30:43.19</time>
      </trkpt>
      <trkpt lat="33.07584" lon="35.165436666666665">
        <ele>146.1</ele>
        <time>2013-02-12T21:30:44.20</time>
      </trkpt>
      <trkpt lat="33.075853333333335" lon="35.165436666666665">
        <ele>145.9</ele>
        <time>2013-02-12T21:30:45.19</time>
      </trkpt>
      <trkpt lat="33.07588333333333" lon="35.16543166666667">
        <ele>145.9</ele>
        <time>2013-02-12T21:30:46.18</time>
      </trkpt>
      <trkpt lat="33.075895" lon="35.165425">
        <ele>146</ele>
        <time>2013-02-12T21:30:47.19</time>
      </trkpt>
      <trkpt lat="33.075915" lon="35.165425">
        <ele>146</ele>
        <time>2013-02-12T21:30:48.20</time>
      </trkpt>
      <trkpt lat="33.07593833333333" lon="35.16542">
        <ele>145.3</ele>
        <time>2013-02-12T21:30:49.19</time>
      </trkpt>
      <trkpt lat="33.07595333333333" lon="35.16542166666667">
        <ele>145.70000000000002</ele>
        <time>2013-02-12T21:30:50.20</time>
      </trkpt>
      <trkpt lat="33.075965" lon="35.165416666666665">
        <ele>145.9</ele>
        <time>2013-02-12T21:30:51.17</time>
      </trkpt>
      <trkpt lat="33.07597333333333" lon="35.16541">
        <ele>145.9</ele>
        <time>2013-02-12T21:30:53.20</time>
      </trkpt>
      <trkpt lat="33.07597666666667" lon="35.165393333333334">
        <ele>146.20000000000002</ele>
        <time>2013-02-12T21:30:54.20</time>
      </trkpt>
      <trkpt lat="33.076" lon="35.16538833333333">
        <ele>146.20000000000002</ele>
        <time>2013-02-12T21:30:55.18</time>
      </trkpt>
      <trkpt lat="33.07601666666667" lon="35.165393333333334">
        <ele>146.00000000000003</ele>
        <time>2013-02-12T21:30:56.20</time>
      </trkpt>
      <trkpt lat="33.07604" lon="35.1654">
        <ele>146.20000000000002</ele>
        <time>2013-02-12T21:30:57.20</time>
      </trkpt>
      <trkpt lat="33.076075" lon="35.165411666666664">
        <ele>146.8</ele>
        <time>2013-02-12T21:30:58.17</time>
      </trkpt>
      <trkpt lat="33.076075" lon="35.165418333333335">
        <ele>147.3</ele>
        <time>2013-02-12T21:30:59.17</time>
      </trkpt>
      <trkpt lat="33.07608166666667" lon="35.165418333333335">
        <ele>147.60000000000002</ele>
        <time>2013-02-12T21:31:00.15</time>
      </trkpt>
      <trkpt lat="33.07608833333333" lon="35.16541">
        <ele>147.8</ele>
        <time>2013-02-12T21:31:01.19</time>
      </trkpt>
      <trkpt lat="33.076101666666666" lon="35.165396666666666">
        <ele>147.9</ele>
        <time>2013-02-12T21:31:02.19</time>
      </trkpt>
      <trkpt lat="33.07612" lon="35.165393333333334">
        <ele>148.1</ele>
        <time>2013-02-12T21:31:03.19</time>
      </trkpt>
      <trkpt lat="33.07615" lon="35.165395">
        <ele>148.5</ele>
        <time>2013-02-12T21:31:04.18</time>
      </trkpt>
      <trkpt lat="33.07617833333333" lon="35.16538833333333">
        <ele>148.9</ele>
        <time>2013-02-12T21:31:05.18</time>
      </trkpt>
      <trkpt lat="33.076205" lon="35.16540166666667">
        <ele>149.1</ele>
        <time>2013-02-12T21:31:06.19</time>
      </trkpt>
      <trkpt lat="33.07622333333333" lon="35.165398333333336">
        <ele>149.4</ele>
        <time>2013-02-12T21:31:07.19</time>
      </trkpt>
      <trkpt lat="33.07622666666666" lon="35.165411666666664">
        <ele>150.3</ele>
        <time>2013-02-12T21:31:08.20</time>
      </trkpt>
      <trkpt lat="33.076231666666665" lon="35.16540166666667">
        <ele>150.3</ele>
        <time>2013-02-12T21:31:09.20</time>
      </trkpt>
      <trkpt lat="33.076235" lon="35.165393333333334">
        <ele>150</ele>
        <time>2013-02-12T21:31:10.19</time>
      </trkpt>
      <trkpt lat="33.07624166666667" lon="35.16538833333333">
        <ele>149.8</ele>
        <time>2013-02-12T21:31:11.18</time>
      </trkpt>
      <trkpt lat="33.07624166666667" lon="35.165395">
        <ele>149.8</ele>
        <time>2013-02-12T21:31:12.18</time>
      </trkpt>
      <trkpt lat="33.076253333333334" lon="35.165393333333334">
        <ele>151.10000000000002</ele>
        <time>2013-02-12T21:31:14.20</time>
      </trkpt>
      <trkpt lat="33.07626666666667" lon="35.16539">
        <ele>151.10000000000002</ele>
        <time>2013-02-12T21:31:16.18</time>
      </trkpt>
      <trkpt lat="33.07629166666667" lon="35.16537666666667">
        <ele>151.10000000000002</ele>
        <time>2013-02-12T21:31:17.19</time>
      </trkpt>
      <trkpt lat="33.07631" lon="35.16538">
        <ele>150.70000000000002</ele>
        <time>2013-02-12T21:31:18.21</time>
      </trkpt>
      <trkpt lat="33.07633166666667" lon="35.16538333333333">
        <ele>151.20000000000002</ele>
        <time>2013-02-12T21:31:19.24</time>
      </trkpt>
      <trkpt lat="33.076386666666664" lon="35.165375">
        <ele>151.8</ele>
        <time>2013-02-12T21:31:20.20</time>
      </trkpt>
      <trkpt lat="33.07641666666667" lon="35.165393333333334">
        <ele>152.3</ele>
        <time>2013-02-12T21:31:21.18</time>
      </trkpt>
      <trkpt lat="33.076431666666664" lon="35.165405">
        <ele>153.10000000000002</ele>
        <time>2013-02-12T21:31:22.19</time>
      </trkpt>
      <trkpt lat="33.07644333333333" lon="35.165416666666665">
        <ele>152.8</ele>
        <time>2013-02-12T21:31:23.19</time>
      </trkpt>
      <trkpt lat="33.076456666666665" lon="35.16540333333333">
        <ele>152.70000000000002</ele>
        <time>2013-02-12T21:31:24.19</time>
      </trkpt>
      <trkpt lat="33.07648" lon="35.165405">
        <ele>152.4</ele>
        <time>2013-02-12T21:31:25.25</time>
      </trkpt>
      <trkpt lat="33.07649833333333" lon="35.165396666666666">
        <ele>152.9</ele>
        <time>2013-02-12T21:31:26.19</time>
      </trkpt>
      <trkpt lat="33.07652" lon="35.165385">
        <ele>153.1</ele>
        <time>2013-02-12T21:31:27.18</time>
      </trkpt>
      <trkpt lat="33.07655666666667" lon="35.16537">
        <ele>154</ele>
        <time>2013-02-12T21:31:28.18</time>
      </trkpt>
      <trkpt lat="33.076573333333336" lon="35.16536333333333">
        <ele>154.3</ele>
        <time>2013-02-12T21:31:29.18</time>
      </trkpt>
      <trkpt lat="33.076595" lon="35.16536833333333">
        <ele>154.3</ele>
        <time>2013-02-12T21:31:30.19</time>
      </trkpt>
      <trkpt lat="33.076613333333334" lon="35.16536833333333">
        <ele>154.10000000000002</ele>
        <time>2013-02-12T21:31:31.19</time>
      </trkpt>
      <trkpt lat="33.07662" lon="35.16536">
        <ele>153.40000000000003</ele>
        <time>2013-02-12T21:31:32.19</time>
      </trkpt>
      <trkpt lat="33.07664333333334" lon="35.165355">
        <ele>153.50000000000003</ele>
        <time>2013-02-12T21:31:33.19</time>
      </trkpt>
      <trkpt lat="33.076655" lon="35.16536333333333">
        <ele>154.20000000000002</ele>
        <time>2013-02-12T21:31:34.18</time>
      </trkpt>
      <trkpt lat="33.076676666666664" lon="35.165355">
        <ele>153.70000000000002</ele>
        <time>2013-02-12T21:31:36.18</time>
      </trkpt>
      <trkpt lat="33.076705" lon="35.16535666666667">
        <ele>153.8</ele>
        <time>2013-02-12T21:31:37.18</time>
      </trkpt>
      <trkpt lat="33.076723333333334" lon="35.16536166666667">
        <ele>154.3</ele>
        <time>2013-02-12T21:31:38.19</time>
      </trkpt>
      <trkpt lat="33.07674166666666" lon="35.16537666666667">
        <ele>154.5</ele>
        <time>2013-02-12T21:31:39.19</time>
      </trkpt>
      <trkpt lat="33.076765" lon="35.165391666666665">
        <ele>154.9</ele>
        <time>2013-02-12T21:31:40.25</time>
      </trkpt>
      <trkpt lat="33.07678666666666" lon="35.165371666666665">
        <ele>155.1</ele>
        <time>2013-02-12T21:31:41.19</time>
      </trkpt>
      <trkpt lat="33.076813333333334" lon="35.16537">
        <ele>154.9</ele>
        <time>2013-02-12T21:31:42.20</time>
      </trkpt>
      <trkpt lat="33.076836666666665" lon="35.16536">
        <ele>154.3</ele>
        <time>2013-02-12T21:31:43.18</time>
      </trkpt>
      <trkpt lat="33.07685333333333" lon="35.165346666666665">
        <ele>154</ele>
        <time>2013-02-12T21:31:44.18</time>
      </trkpt>
      <trkpt lat="33.07687333333333" lon="35.16533833333333">
        <ele>153.6</ele>
        <time>2013-02-12T21:31:45.18</time>
      </trkpt>
      <trkpt lat="33.076881666666665" lon="35.16534166666667">
        <ele>153.79999999999998</ele>
        <time>2013-02-12T21:31:46.18</time>
      </trkpt>
      <trkpt lat="33.07689666666667" lon="35.165333333333336">
        <ele>153.29999999999998</ele>
        <time>2013-02-12T21:31:47.19</time>
      </trkpt>
      <trkpt lat="33.076928333333335" lon="35.16534166666667">
        <ele>152.79999999999998</ele>
        <time>2013-02-12T21:31:48.18</time>
      </trkpt>
      <trkpt lat="33.07694166666667" lon="35.165333333333336">
        <ele>152.99999999999997</ele>
        <time>2013-02-12T21:31:49.20</time>
      </trkpt>
      <trkpt lat="33.07697" lon="35.16534166666667">
        <ele>154.19999999999996</ele>
        <time>2013-02-12T21:31:50.22</time>
      </trkpt>
      <trkpt lat="33.07698166666667" lon="35.16533666666667">
        <ele>154.19999999999996</ele>
        <time>2013-02-12T21:31:51.19</time>
      </trkpt>
      <trkpt lat="33.076993333333334" lon="35.165325">
        <ele>154.49999999999997</ele>
        <time>2013-02-12T21:31:52.18</time>
      </trkpt>
      <trkpt lat="33.07700333333333" lon="35.165325">
        <ele>153.99999999999997</ele>
        <time>2013-02-12T21:31:53.20</time>
      </trkpt>
      <trkpt lat="33.07701" lon="35.16534333333333">
        <ele>154.19999999999996</ele>
        <time>2013-02-12T21:31:54.19</time>
      </trkpt>
      <trkpt lat="33.077016666666665" lon="35.165333333333336">
        <ele>153.69999999999996</ele>
        <time>2013-02-12T21:31:55.18</time>
      </trkpt>
      <trkpt lat="33.077038333333334" lon="35.165345">
        <ele>153.99999999999997</ele>
        <time>2013-02-12T21:31:56.19</time>
      </trkpt>
      <trkpt lat="33.07705166666667" lon="35.16533833333333">
        <ele>154.19999999999996</ele>
        <time>2013-02-12T21:31:57.19</time>
      </trkpt>
      <trkpt lat="33.07708" lon="35.16534166666667">
        <ele>154.09999999999997</ele>
        <time>2013-02-12T21:31:58.19</time>
      </trkpt>
      <trkpt lat="33.07707666666666" lon="35.165346666666665">
        <ele>154.29999999999995</ele>
        <time>2013-02-12T21:31:59.18</time>
      </trkpt>
      <trkpt lat="33.07710333333333" lon="35.16535">
        <ele>154.59999999999997</ele>
        <time>2013-02-12T21:32:00.17</time>
      </trkpt>
      <trkpt lat="33.07711" lon="35.165348333333334">
        <ele>155.09999999999997</ele>
        <time>2013-02-12T21:32:01.18</time>
      </trkpt>
      <trkpt lat="33.077128333333334" lon="35.165346666666665">
        <ele>154.79999999999995</ele>
        <time>2013-02-12T21:32:02.19</time>
      </trkpt>
      <trkpt lat="33.077145" lon="35.165348333333334">
        <ele>155.19999999999996</ele>
        <time>2013-02-12T21:32:03.20</time>
      </trkpt>
      <trkpt lat="33.07716" lon="35.165351666666666">
        <ele>155.69999999999996</ele>
        <time>2013-02-12T21:32:04.18</time>
      </trkpt>
      <trkpt lat="33.077173333333334" lon="35.16535">
        <ele>155.49999999999997</ele>
        <time>2013-02-12T21:32:05.16</time>
      </trkpt>
      <trkpt lat="33.077196666666666" lon="35.165333333333336">
        <ele>155.49999999999997</ele>
        <time>2013-02-12T21:32:06.17</time>
      </trkpt>
      <trkpt lat="33.077216666666665" lon="35.165328333333335">
        <ele>154.29999999999998</ele>
        <time>2013-02-12T21:32:08.19</time>
      </trkpt>
      <trkpt lat="33.07722166666667" lon="35.16533166666667">
        <ele>153.89999999999998</ele>
        <time>2013-02-12T21:32:09.18</time>
      </trkpt>
      <trkpt lat="33.077223333333336" lon="35.165321666666664">
        <ele>153.89999999999998</ele>
        <time>2013-02-12T21:32:10.21</time>
      </trkpt>
      <trkpt lat="33.077218333333334" lon="35.16532333333333">
        <ele>153.99999999999997</ele>
        <time>2013-02-12T21:32:11.15</time>
      </trkpt>
      <trkpt lat="33.07723166666667" lon="35.165326666666665">
        <ele>155.79999999999998</ele>
        <time>2013-02-12T21:32:12.15</time>
      </trkpt>
      <trkpt lat="33.07725166666667" lon="35.165333333333336">
        <ele>156.1</ele>
        <time>2013-02-12T21:32:13.15</time>
      </trkpt>
      <trkpt lat="33.077265" lon="35.165325">
        <ele>156.7</ele>
        <time>2013-02-12T21:32:14.15</time>
      </trkpt>
      <trkpt lat="33.077268333333336" lon="35.1653">
        <ele>157.29999999999998</ele>
        <time>2013-02-12T21:32:15.17</time>
      </trkpt>
      <trkpt lat="33.07727333333333" lon="35.165275">
        <ele>157.89999999999998</ele>
        <time>2013-02-12T21:32:16.15</time>
      </trkpt>
      <trkpt lat="33.07728" lon="35.165256666666664">
        <ele>158.2</ele>
        <time>2013-02-12T21:32:17.15</time>
      </trkpt>
      <trkpt lat="33.07729166666667" lon="35.16524">
        <ele>159</ele>
        <time>2013-02-12T21:32:18.15</time>
      </trkpt>
      <trkpt lat="33.07729" lon="35.16522">
        <ele>159.3</ele>
        <time>2013-02-12T21:32:19.18</time>
      </trkpt>
      <trkpt lat="33.077285" lon="35.16519666666667">
        <ele>159.20000000000002</ele>
        <time>2013-02-12T21:32:20.18</time>
      </trkpt>
      <trkpt lat="33.077295" lon="35.16517666666667">
        <ele>159.50000000000003</ele>
        <time>2013-02-12T21:32:21.15</time>
      </trkpt>
      <trkpt lat="33.07729166666667" lon="35.16517">
        <ele>159.50000000000003</ele>
        <time>2013-02-12T21:32:22.15</time>
      </trkpt>
      <trkpt lat="33.077295" lon="35.165148333333335">
        <ele>159.30000000000004</ele>
        <time>2013-02-12T21:32:23.15</time>
      </trkpt>
      <trkpt lat="33.077306666666665" lon="35.165128333333335">
        <ele>159.40000000000003</ele>
        <time>2013-02-12T21:32:24.17</time>
      </trkpt>
      <trkpt lat="33.07731666666667" lon="35.165108333333336">
        <ele>159.60000000000002</ele>
        <time>2013-02-12T21:32:25.18</time>
      </trkpt>
      <trkpt lat="33.077325" lon="35.165083333333335">
        <ele>160.20000000000002</ele>
        <time>2013-02-12T21:32:26.18</time>
      </trkpt>
      <trkpt lat="33.07732166666667" lon="35.16506">
        <ele>161.00000000000003</ele>
        <time>2013-02-12T21:32:27.17</time>
      </trkpt>
      <trkpt lat="33.077335" lon="35.165031666666664">
        <ele>160.90000000000003</ele>
        <time>2013-02-12T21:32:28.23</time>
      </trkpt>
      <trkpt lat="33.07734" lon="35.164993333333335">
        <ele>160.60000000000002</ele>
        <time>2013-02-12T21:32:29.19</time>
      </trkpt>
      <trkpt lat="33.07734" lon="35.16497833333333">
        <ele>162.00000000000003</ele>
        <time>2013-02-12T21:32:30.18</time>
      </trkpt>
      <trkpt lat="33.077346666666664" lon="35.164945">
        <ele>161.10000000000002</ele>
        <time>2013-02-12T21:32:31.18</time>
      </trkpt>
      <trkpt lat="33.077371666666664" lon="35.164915">
        <ele>161.90000000000003</ele>
        <time>2013-02-12T21:32:32.20</time>
      </trkpt>
      <trkpt lat="33.077378333333336" lon="35.164878333333334">
        <ele>161.10000000000002</ele>
        <time>2013-02-12T21:32:33.19</time>
      </trkpt>
      <trkpt lat="33.077358333333336" lon="35.164836666666666">
        <ele>160.70000000000002</ele>
        <time>2013-02-12T21:32:34.20</time>
      </trkpt>
      <trkpt lat="33.07736166666667" lon="35.1648">
        <ele>160.20000000000002</ele>
        <time>2013-02-12T21:32:35.20</time>
      </trkpt>
      <trkpt lat="33.077371666666664" lon="35.164766666666665">
        <ele>159.70000000000002</ele>
        <time>2013-02-12T21:32:36.19</time>
      </trkpt>
      <trkpt lat="33.077373333333334" lon="35.164746666666666">
        <ele>159.8</ele>
        <time>2013-02-12T21:32:37.20</time>
      </trkpt>
      <trkpt lat="33.07739" lon="35.164698333333334">
        <ele>160.9</ele>
        <time>2013-02-12T21:32:38.19</time>
      </trkpt>
      <trkpt lat="33.07742" lon="35.164675">
        <ele>161.4</ele>
        <time>2013-02-12T21:32:39.18</time>
      </trkpt>
      <trkpt lat="33.07743" lon="35.164613333333335">
        <ele>161.5</ele>
        <time>2013-02-12T21:32:40.18</time>
      </trkpt>
      <trkpt lat="33.077445" lon="35.164563333333334">
        <ele>161.7</ele>
        <time>2013-02-12T21:32:41.19</time>
      </trkpt>
      <trkpt lat="33.077455" lon="35.16451833333333">
        <ele>162</ele>
        <time>2013-02-12T21:32:42.18</time>
      </trkpt>
      <trkpt lat="33.077465" lon="35.16446333333333">
        <ele>162.6</ele>
        <time>2013-02-12T21:32:43.18</time>
      </trkpt>
      <trkpt lat="33.077468333333336" lon="35.164411666666666">
        <ele>163.29999999999998</ele>
        <time>2013-02-12T21:32:44.18</time>
      </trkpt>
      <trkpt lat="33.077465" lon="35.16436">
        <ele>163.1</ele>
        <time>2013-02-12T21:32:45.18</time>
      </trkpt>
      <trkpt lat="33.077468333333336" lon="35.16428">
        <ele>160.2</ele>
        <time>2013-02-12T21:32:46.19</time>
      </trkpt>
      <trkpt lat="33.07745833333333" lon="35.164235">
        <ele>160.79999999999998</ele>
        <time>2013-02-12T21:32:47.20</time>
      </trkpt>
      <trkpt lat="33.07745166666667" lon="35.16420166666666">
        <ele>161.1</ele>
        <time>2013-02-12T21:32:48.20</time>
      </trkpt>
      <trkpt lat="33.07745666666667" lon="35.16416">
        <ele>161.4</ele>
        <time>2013-02-12T21:32:49.19</time>
      </trkpt>
      <trkpt lat="33.077455" lon="35.16414">
        <ele>161.4</ele>
        <time>2013-02-12T21:32:50.18</time>
      </trkpt>
      <trkpt lat="33.07747166666667" lon="35.164093333333334">
        <ele>161.4</ele>
        <time>2013-02-12T21:32:51.17</time>
      </trkpt>
      <trkpt lat="33.077486666666665" lon="35.164055">
        <ele>162.4</ele>
        <time>2013-02-12T21:32:52.17</time>
      </trkpt>
      <trkpt lat="33.07749833333333" lon="35.16400333333333">
        <ele>161.9</ele>
        <time>2013-02-12T21:32:53.18</time>
      </trkpt>
      <trkpt lat="33.07750333333333" lon="35.163943333333336">
        <ele>161.9</ele>
        <time>2013-02-12T21:32:54.17</time>
      </trkpt>
      <trkpt lat="33.07750166666667" lon="35.1639">
        <ele>161.9</ele>
        <time>2013-02-12T21:32:55.19</time>
      </trkpt>
      <trkpt lat="33.077508333333334" lon="35.16383">
        <ele>161.9</ele>
        <time>2013-02-12T21:32:56.19</time>
      </trkpt>
      <trkpt lat="33.07751833333333" lon="35.16376833333333">
        <ele>161</ele>
        <time>2013-02-12T21:32:57.19</time>
      </trkpt>
      <trkpt lat="33.077526666666664" lon="35.16370666666667">
        <ele>160.9</ele>
        <time>2013-02-12T21:32:58.17</time>
      </trkpt>
      <trkpt lat="33.077533333333335" lon="35.163673333333335">
        <ele>161.20000000000002</ele>
        <time>2013-02-12T21:32:59.18</time>
      </trkpt>
      <trkpt lat="33.077558333333336" lon="35.1636">
        <ele>161.20000000000002</ele>
        <time>2013-02-12T21:33:00.15</time>
      </trkpt>
      <trkpt lat="33.07754833333333" lon="35.16354">
        <ele>161.70000000000002</ele>
        <time>2013-02-12T21:33:01.19</time>
      </trkpt>
      <trkpt lat="33.077578333333335" lon="35.163465">
        <ele>162.4</ele>
        <time>2013-02-12T21:33:02.17</time>
      </trkpt>
      <trkpt lat="33.077615" lon="35.163396666666664">
        <ele>162.1</ele>
        <time>2013-02-12T21:33:03.17</time>
      </trkpt>
      <trkpt lat="33.07764" lon="35.16332166666667">
        <ele>161.6</ele>
        <time>2013-02-12T21:33:04.17</time>
      </trkpt>
      <trkpt lat="33.077643333333334" lon="35.16321">
        <ele>161.5</ele>
        <time>2013-02-12T21:33:05.18</time>
      </trkpt>
      <trkpt lat="33.077668333333335" lon="35.16317333333333">
        <ele>161.1</ele>
        <time>2013-02-12T21:33:06.17</time>
      </trkpt>
      <trkpt lat="33.07767" lon="35.163106666666664">
        <ele>161.6</ele>
        <time>2013-02-12T21:33:07.17</time>
      </trkpt>
      <trkpt lat="33.07772333333333" lon="35.163065">
        <ele>161.4</ele>
        <time>2013-02-12T21:33:08.17</time>
      </trkpt>
      <trkpt lat="33.077715" lon="35.163003333333336">
        <ele>161.4</ele>
        <time>2013-02-12T21:33:09.17</time>
      </trkpt>
      <trkpt lat="33.07771666666667" lon="35.16294">
        <ele>160.70000000000002</ele>
        <time>2013-02-12T21:33:10.18</time>
      </trkpt>
      <trkpt lat="33.077725" lon="35.16287833333333">
        <ele>159.4</ele>
        <time>2013-02-12T21:33:11.19</time>
      </trkpt>
      <trkpt lat="33.077725" lon="35.162823333333336">
        <ele>158.4</ele>
        <time>2013-02-12T21:33:12.18</time>
      </trkpt>
      <trkpt lat="33.077731666666665" lon="35.16276833333333">
        <ele>158.70000000000002</ele>
        <time>2013-02-12T21:33:13.17</time>
      </trkpt>
      <trkpt lat="33.077758333333335" lon="35.16272333333333">
        <ele>158.60000000000002</ele>
        <time>2013-02-12T21:33:14.18</time>
      </trkpt>
      <trkpt lat="33.07778166666667" lon="35.16267">
        <ele>158.00000000000003</ele>
        <time>2013-02-12T21:33:15.18</time>
      </trkpt>
      <trkpt lat="33.07781" lon="35.16261">
        <ele>158.10000000000002</ele>
        <time>2013-02-12T21:33:16.18</time>
      </trkpt>
      <trkpt lat="33.077803333333335" lon="35.16258">
        <ele>158.10000000000002</ele>
        <time>2013-02-12T21:33:17.17</time>
      </trkpt>
      <trkpt lat="33.07783666666667" lon="35.16254">
        <ele>157.70000000000002</ele>
        <time>2013-02-12T21:33:18.17</time>
      </trkpt>
      <trkpt lat="33.077861666666664" lon="35.16246666666667">
        <ele>157.9</ele>
        <time>2013-02-12T21:33:19.18</time>
      </trkpt>
      <trkpt lat="33.077918333333336" lon="35.16234333333333">
        <ele>157.9</ele>
        <time>2013-02-12T21:33:20.23</time>
      </trkpt>
      <trkpt lat="33.077905" lon="35.162245">
        <ele>155.5</ele>
        <time>2013-02-12T21:33:21.17</time>
      </trkpt>
      <trkpt lat="33.07788333333333" lon="35.16213166666667">
        <ele>151.6</ele>
        <time>2013-02-12T21:33:22.17</time>
      </trkpt>
      <trkpt lat="33.07781166666667" lon="35.16209666666666">
        <ele>148</ele>
        <time>2013-02-12T21:33:23.20</time>
      </trkpt>
      <trkpt lat="33.07778" lon="35.16204833333333">
        <ele>145.2</ele>
        <time>2013-02-12T21:33:24.16</time>
      </trkpt>
      <trkpt lat="33.07774833333333" lon="35.16202666666667">
        <ele>144.39999999999998</ele>
        <time>2013-02-12T21:33:25.17</time>
      </trkpt>
      <trkpt lat="33.077731666666665" lon="35.16200833333333">
        <ele>144.09999999999997</ele>
        <time>2013-02-12T21:33:26.17</time>
      </trkpt>
      <trkpt lat="33.077706666666664" lon="35.16199666666667">
        <ele>143.99999999999997</ele>
        <time>2013-02-12T21:33:27.17</time>
      </trkpt>
      <trkpt lat="33.077688333333334" lon="35.16198833333333">
        <ele>143.59999999999997</ele>
        <time>2013-02-12T21:33:28.19</time>
      </trkpt>
      <trkpt lat="33.077646666666666" lon="35.161975">
        <ele>142.49999999999997</ele>
        <time>2013-02-12T21:33:29.20</time>
      </trkpt>
      <trkpt lat="33.07763" lon="35.161965">
        <ele>142.49999999999997</ele>
        <time>2013-02-12T21:33:30.18</time>
      </trkpt>
      <trkpt lat="33.07762666666667" lon="35.16195166666667">
        <ele>142.39999999999998</ele>
        <time>2013-02-12T21:33:31.17</time>
      </trkpt>
      <trkpt lat="33.07761" lon="35.161941666666664">
        <ele>141.89999999999998</ele>
        <time>2013-02-12T21:33:32.17</time>
      </trkpt>
      <trkpt lat="33.077595" lon="35.16193333333333">
        <ele>141.59999999999997</ele>
        <time>2013-02-12T21:33:33.17</time>
      </trkpt>
      <trkpt lat="33.077585" lon="35.16191833333333">
        <ele>141.69999999999996</ele>
        <time>2013-02-12T21:33:34.17</time>
      </trkpt>
      <trkpt lat="33.07757" lon="35.16191333333333">
        <ele>141.39999999999995</ele>
        <time>2013-02-12T21:33:35.18</time>
      </trkpt>
      <trkpt lat="33.077545" lon="35.161921666666665">
        <ele>140.29999999999995</ele>
        <time>2013-02-12T21:33:36.18</time>
      </trkpt>
      <trkpt lat="33.07752833333333" lon="35.16191">
        <ele>139.89999999999995</ele>
        <time>2013-02-12T21:33:37.17</time>
      </trkpt>
      <trkpt lat="33.077513333333336" lon="35.161905">
        <ele>139.09999999999994</ele>
        <time>2013-02-12T21:33:38.17</time>
      </trkpt>
      <trkpt lat="33.077505" lon="35.16189833333333">
        <ele>138.89999999999995</ele>
        <time>2013-02-12T21:33:39.17</time>
      </trkpt>
      <trkpt lat="33.07749333333334" lon="35.161908333333336">
        <ele>139.49999999999994</ele>
        <time>2013-02-12T21:33:40.17</time>
      </trkpt>
      <trkpt lat="33.077488333333335" lon="35.16189833333333">
        <ele>139.99999999999994</ele>
        <time>2013-02-12T21:33:41.18</time>
      </trkpt>
      <trkpt lat="33.077468333333336" lon="35.161895">
        <ele>140.49999999999994</ele>
        <time>2013-02-12T21:33:42.17</time>
      </trkpt>
      <trkpt lat="33.077465" lon="35.161881666666666">
        <ele>140.49999999999994</ele>
        <time>2013-02-12T21:33:43.17</time>
      </trkpt>
      <trkpt lat="33.07745166666667" lon="35.161875">
        <ele>140.29999999999995</ele>
        <time>2013-02-12T21:33:45.14</time>
      </trkpt>
      <trkpt lat="33.07744" lon="35.161858333333335">
        <ele>140.09999999999997</ele>
        <time>2013-02-12T21:33:46.14</time>
      </trkpt>
      <trkpt lat="33.07742666666667" lon="35.16184666666667">
        <ele>139.29999999999995</ele>
        <time>2013-02-12T21:33:47.15</time>
      </trkpt>
      <trkpt lat="33.07741166666667" lon="35.16182333333333">
        <ele>138.79999999999995</ele>
        <time>2013-02-12T21:33:48.16</time>
      </trkpt>
      <trkpt lat="33.07741" lon="35.16180833333333">
        <ele>138.09999999999997</ele>
        <time>2013-02-12T21:33:49.16</time>
      </trkpt>
      <trkpt lat="33.0774" lon="35.16179">
        <ele>137.79999999999995</ele>
        <time>2013-02-12T21:33:50.14</time>
      </trkpt>
      <trkpt lat="33.07738833333333" lon="35.16178">
        <ele>137.79999999999995</ele>
        <time>2013-02-12T21:33:51.14</time>
      </trkpt>
      <trkpt lat="33.07736666666667" lon="35.16176333333333">
        <ele>137.79999999999995</ele>
        <time>2013-02-12T21:33:52.14</time>
      </trkpt>
      <trkpt lat="33.07734333333333" lon="35.16176333333333">
        <ele>137.79999999999995</ele>
        <time>2013-02-12T21:33:53.14</time>
      </trkpt>
      <trkpt lat="33.077326666666664" lon="35.161748333333335">
        <ele>137.79999999999995</ele>
        <time>2013-02-12T21:33:54.14</time>
      </trkpt>
      <trkpt lat="33.077313333333336" lon="35.16174">
        <ele>137.79999999999995</ele>
        <time>2013-02-12T21:33:55.15</time>
      </trkpt>
      <trkpt lat="33.07731" lon="35.161728333333336">
        <ele>137.79999999999995</ele>
        <time>2013-02-12T21:33:56.15</time>
      </trkpt>
      <trkpt lat="33.07729" lon="35.161728333333336">
        <ele>136.69999999999996</ele>
        <time>2013-02-12T21:33:58.14</time>
      </trkpt>
      <trkpt lat="33.077281666666664" lon="35.16170833333334">
        <ele>137.19999999999996</ele>
        <time>2013-02-12T21:33:59.17</time>
      </trkpt>
      <trkpt lat="33.07729166666667" lon="35.161698333333334">
        <ele>136.99999999999997</ele>
        <time>2013-02-12T21:34:00.14</time>
      </trkpt>
      <trkpt lat="33.07727" lon="35.16169333333333">
        <ele>137.09999999999997</ele>
        <time>2013-02-12T21:34:01.16</time>
      </trkpt>
      <trkpt lat="33.07727166666667" lon="35.161685">
        <ele>137.19999999999996</ele>
        <time>2013-02-12T21:34:02.15</time>
      </trkpt>
      <trkpt lat="33.077261666666665" lon="35.16167166666666">
        <ele>137.09999999999997</ele>
        <time>2013-02-12T21:34:03.15</time>
      </trkpt>
      <trkpt lat="33.07723333333333" lon="35.161658333333335">
        <ele>137.19999999999996</ele>
        <time>2013-02-12T21:34:04.14</time>
      </trkpt>
      <trkpt lat="33.077218333333334" lon="35.16164333333333">
        <ele>136.99999999999997</ele>
        <time>2013-02-12T21:34:05.15</time>
      </trkpt>
      <trkpt lat="33.077205" lon="35.16161833333334">
        <ele>136.79999999999998</ele>
        <time>2013-02-12T21:34:06.15</time>
      </trkpt>
      <trkpt lat="33.07716833333333" lon="35.161606666666664">
        <ele>136.79999999999998</ele>
        <time>2013-02-12T21:34:07.15</time>
      </trkpt>
      <trkpt lat="33.077151666666666" lon="35.161606666666664">
        <ele>136.2</ele>
        <time>2013-02-12T21:34:08.15</time>
      </trkpt>
      <trkpt lat="33.077133333333336" lon="35.161586666666665">
        <ele>136.79999999999998</ele>
        <time>2013-02-12T21:34:09.14</time>
      </trkpt>
      <trkpt lat="33.077108333333335" lon="35.16157666666667">
        <ele>137.1</ele>
        <time>2013-02-12T21:34:10.14</time>
      </trkpt>
      <trkpt lat="33.077095" lon="35.16155">
        <ele>136.7</ele>
        <time>2013-02-12T21:34:11.14</time>
      </trkpt>
      <trkpt lat="33.077063333333335" lon="35.16154">
        <ele>136.39999999999998</ele>
        <time>2013-02-12T21:34:12.14</time>
      </trkpt>
      <trkpt lat="33.077041666666666" lon="35.161525">
        <ele>136.29999999999998</ele>
        <time>2013-02-12T21:34:13.19</time>
      </trkpt>
      <trkpt lat="33.077025" lon="35.16151">
        <ele>136.29999999999998</ele>
        <time>2013-02-12T21:34:14.17</time>
      </trkpt>
      <trkpt lat="33.07700333333333" lon="35.161505">
        <ele>137.1</ele>
        <time>2013-02-12T21:34:15.17</time>
      </trkpt>
      <trkpt lat="33.076991666666665" lon="35.1615">
        <ele>137.4</ele>
        <time>2013-02-12T21:34:16.15</time>
      </trkpt>
      <trkpt lat="33.07697833333334" lon="35.16148333333334">
        <ele>136.9</ele>
        <time>2013-02-12T21:34:17.15</time>
      </trkpt>
      <trkpt lat="33.07696333333333" lon="35.161458333333336">
        <ele>136.3</ele>
        <time>2013-02-12T21:34:18.15</time>
      </trkpt>
      <trkpt lat="33.07695833333333" lon="35.16144833333333">
        <ele>135.9</ele>
        <time>2013-02-12T21:34:19.16</time>
      </trkpt>
      <trkpt lat="33.07694166666667" lon="35.16143666666667">
        <ele>135</ele>
        <time>2013-02-12T21:34:20.19</time>
      </trkpt>
      <trkpt lat="33.07692" lon="35.16142333333333">
        <ele>134.7</ele>
        <time>2013-02-12T21:34:21.18</time>
      </trkpt>
      <trkpt lat="33.076905" lon="35.161408333333334">
        <ele>134.6</ele>
        <time>2013-02-12T21:34:22.15</time>
      </trkpt>
      <trkpt lat="33.07687" lon="35.16139666666667">
        <ele>134.6</ele>
        <time>2013-02-12T21:34:23.15</time>
      </trkpt>
      <trkpt lat="33.076863333333336" lon="35.16137833333333">
        <ele>134.7</ele>
        <time>2013-02-12T21:34:24.15</time>
      </trkpt>
      <trkpt lat="33.076836666666665" lon="35.16135666666667">
        <ele>134.1</ele>
        <time>2013-02-12T21:34:25.16</time>
      </trkpt>
      <trkpt lat="33.076825" lon="35.161336666666664">
        <ele>133.79999999999998</ele>
        <time>2013-02-12T21:34:26.17</time>
      </trkpt>
      <trkpt lat="33.076813333333334" lon="35.161323333333335">
        <ele>133.39999999999998</ele>
        <time>2013-02-12T21:34:27.17</time>
      </trkpt>
      <trkpt lat="33.0768" lon="35.161305">
        <ele>133.49999999999997</ele>
        <time>2013-02-12T21:34:28.17</time>
      </trkpt>
      <trkpt lat="33.07678166666667" lon="35.16128">
        <ele>132.99999999999997</ele>
        <time>2013-02-12T21:34:29.15</time>
      </trkpt>
      <trkpt lat="33.076765" lon="35.161255">
        <ele>132.49999999999997</ele>
        <time>2013-02-12T21:34:30.22</time>
      </trkpt>
      <trkpt lat="33.07675" lon="35.161231666666666">
        <ele>133.09999999999997</ele>
        <time>2013-02-12T21:34:31.18</time>
      </trkpt>
      <trkpt lat="33.076726666666666" lon="35.161233333333335">
        <ele>133.19999999999996</ele>
        <time>2013-02-12T21:34:32.17</time>
      </trkpt>
      <trkpt lat="33.076683333333335" lon="35.161228333333334">
        <ele>132.99999999999997</ele>
        <time>2013-02-12T21:34:33.17</time>
      </trkpt>
      <trkpt lat="33.076658333333334" lon="35.161206666666665">
        <ele>132.79999999999998</ele>
        <time>2013-02-12T21:34:34.17</time>
      </trkpt>
      <trkpt lat="33.076633333333334" lon="35.16121">
        <ele>131.99999999999997</ele>
        <time>2013-02-12T21:34:35.17</time>
      </trkpt>
      <trkpt lat="33.07660666666666" lon="35.16120166666666">
        <ele>131.99999999999997</ele>
        <time>2013-02-12T21:34:36.17</time>
      </trkpt>
      <trkpt lat="33.076586666666664" lon="35.161186666666666">
        <ele>130.89999999999998</ele>
        <time>2013-02-12T21:34:37.18</time>
      </trkpt>
      <trkpt lat="33.076566666666665" lon="35.161181666666664">
        <ele>130.29999999999998</ele>
        <time>2013-02-12T21:34:38.18</time>
      </trkpt>
      <trkpt lat="33.07656166666667" lon="35.161168333333336">
        <ele>130.49999999999997</ele>
        <time>2013-02-12T21:34:39.17</time>
      </trkpt>
      <trkpt lat="33.07655166666667" lon="35.16115833333333">
        <ele>130.59999999999997</ele>
        <time>2013-02-12T21:34:40.16</time>
      </trkpt>
      <trkpt lat="33.076545" lon="35.161141666666666">
        <ele>130.49999999999997</ele>
        <time>2013-02-12T21:34:41.15</time>
      </trkpt>
      <trkpt lat="33.07653" lon="35.16113333333333">
        <ele>131.39999999999998</ele>
        <time>2013-02-12T21:34:42.15</time>
      </trkpt>
      <trkpt lat="33.07651166666667" lon="35.16112666666667">
        <ele>131.59999999999997</ele>
        <time>2013-02-12T21:34:43.15</time>
      </trkpt>
      <trkpt lat="33.0765" lon="35.161135">
        <ele>131.39999999999998</ele>
        <time>2013-02-12T21:34:44.17</time>
      </trkpt>
      <trkpt lat="33.07647166666667" lon="35.161123333333336">
        <ele>131.7</ele>
        <time>2013-02-12T21:34:45.15</time>
      </trkpt>
      <trkpt lat="33.076463333333336" lon="35.161118333333334">
        <ele>131.7</ele>
        <time>2013-02-12T21:34:46.15</time>
      </trkpt>
      <trkpt lat="33.076438333333336" lon="35.161118333333334">
        <ele>132.2</ele>
        <time>2013-02-12T21:34:47.15</time>
      </trkpt>
      <trkpt lat="33.076393333333336" lon="35.16112833333333">
        <ele>132.1</ele>
        <time>2013-02-12T21:34:48.15</time>
      </trkpt>
      <trkpt lat="33.07636333333333" lon="35.161121666666666">
        <ele>131.79999999999998</ele>
        <time>2013-02-12T21:34:49.15</time>
      </trkpt>
      <trkpt lat="33.07634" lon="35.161116666666665">
        <ele>131.6</ele>
        <time>2013-02-12T21:34:50.17</time>
      </trkpt>
      <trkpt lat="33.076325" lon="35.16112666666667">
        <ele>131.2</ele>
        <time>2013-02-12T21:34:51.17</time>
      </trkpt>
      <trkpt lat="33.07630666666667" lon="35.16113">
        <ele>131.1</ele>
        <time>2013-02-12T21:34:52.15</time>
      </trkpt>
      <trkpt lat="33.076285" lon="35.16112833333333">
        <ele>130.9</ele>
        <time>2013-02-12T21:34:53.15</time>
      </trkpt>
      <trkpt lat="33.076275" lon="35.16113">
        <ele>130.6</ele>
        <time>2013-02-12T21:34:54.17</time>
      </trkpt>
      <trkpt lat="33.07626166666667" lon="35.161141666666666">
        <ele>130.29999999999998</ele>
        <time>2013-02-12T21:34:55.17</time>
      </trkpt>
      <trkpt lat="33.07624833333333" lon="35.161145">
        <ele>130.6</ele>
        <time>2013-02-12T21:34:56.18</time>
      </trkpt>
      <trkpt lat="33.076238333333336" lon="35.16113166666667">
        <ele>130.7</ele>
        <time>2013-02-12T21:34:57.20</time>
      </trkpt>
      <trkpt lat="33.076231666666665" lon="35.16114666666667">
        <ele>130.39999999999998</ele>
        <time>2013-02-12T21:34:58.18</time>
      </trkpt>
      <trkpt lat="33.07621666666667" lon="35.161118333333334">
        <ele>130.39999999999998</ele>
        <time>2013-02-12T21:34:59.18</time>
      </trkpt>
      <trkpt lat="33.07621" lon="35.161095">
        <ele>129.79999999999998</ele>
        <time>2013-02-12T21:35:00.15</time>
      </trkpt>
      <trkpt lat="33.0762" lon="35.161055">
        <ele>127.89999999999998</ele>
        <time>2013-02-12T21:35:01.18</time>
      </trkpt>
      <trkpt lat="33.07620333333333" lon="35.16099666666667">
        <ele>127.09999999999998</ele>
        <time>2013-02-12T21:35:02.17</time>
      </trkpt>
      <trkpt lat="33.076208333333334" lon="35.16097666666667">
        <ele>127.29999999999998</ele>
        <time>2013-02-12T21:35:03.17</time>
      </trkpt>
      <trkpt lat="33.07621" lon="35.160941666666666">
        <ele>126.99999999999999</ele>
        <time>2013-02-12T21:35:04.17</time>
      </trkpt>
      <trkpt lat="33.07619" lon="35.160915">
        <ele>127.19999999999999</ele>
        <time>2013-02-12T21:35:05.17</time>
      </trkpt>
      <trkpt lat="33.07618333333333" lon="35.1609">
        <ele>126.79999999999998</ele>
        <time>2013-02-12T21:35:06.17</time>
      </trkpt>
      <trkpt lat="33.07618" lon="35.16088333333333">
        <ele>126.49999999999999</ele>
        <time>2013-02-12T21:35:07.18</time>
      </trkpt>
      <trkpt lat="33.07617333333334" lon="35.16086333333333">
        <ele>126.39999999999999</ele>
        <time>2013-02-12T21:35:08.17</time>
      </trkpt>
      <trkpt lat="33.07616" lon="35.160826666666665">
        <ele>126.39999999999999</ele>
        <time>2013-02-12T21:35:09.17</time>
      </trkpt>
      <trkpt lat="33.07616" lon="35.16081166666667">
        <ele>126.3</ele>
        <time>2013-02-12T21:35:10.17</time>
      </trkpt>
      <trkpt lat="33.076168333333335" lon="35.160801666666664">
        <ele>126.39999999999999</ele>
        <time>2013-02-12T21:35:11.17</time>
      </trkpt>
      <trkpt lat="33.07615" lon="35.16079333333333">
        <ele>126.1</ele>
        <time>2013-02-12T21:35:12.17</time>
      </trkpt>
      <trkpt lat="33.076141666666665" lon="35.16077833333333">
        <ele>126.3</ele>
        <time>2013-02-12T21:35:13.18</time>
      </trkpt>
      <trkpt lat="33.07613166666667" lon="35.16077">
        <ele>126.7</ele>
        <time>2013-02-12T21:35:14.17</time>
      </trkpt>
      <trkpt lat="33.07610833333333" lon="35.16076666666667">
        <ele>127.10000000000001</ele>
        <time>2013-02-12T21:35:15.17</time>
      </trkpt>
      <trkpt lat="33.0761" lon="35.160761666666666">
        <ele>127.2</ele>
        <time>2013-02-12T21:35:16.17</time>
      </trkpt>
      <trkpt lat="33.07611166666667" lon="35.160763333333335">
        <ele>126.8</ele>
        <time>2013-02-12T21:35:17.17</time>
      </trkpt>
      <trkpt lat="33.07611166666667" lon="35.16074833333333">
        <ele>126.39999999999999</ele>
        <time>2013-02-12T21:35:18.18</time>
      </trkpt>
      <trkpt lat="33.07611" lon="35.160735">
        <ele>126.49999999999999</ele>
        <time>2013-02-12T21:35:19.18</time>
      </trkpt>
      <trkpt lat="33.076121666666666" lon="35.160711666666664">
        <ele>125.99999999999999</ele>
        <time>2013-02-12T21:35:20.18</time>
      </trkpt>
      <trkpt lat="33.07614" lon="35.160698333333336">
        <ele>125.99999999999999</ele>
        <time>2013-02-12T21:35:21.17</time>
      </trkpt>
      <trkpt lat="33.076145" lon="35.1606">
        <ele>124.29999999999998</ele>
        <time>2013-02-12T21:35:22.19</time>
      </trkpt>
      <trkpt lat="33.07615166666667" lon="35.16054666666667">
        <ele>124.39999999999998</ele>
        <time>2013-02-12T21:35:23.19</time>
      </trkpt>
      <trkpt lat="33.076155" lon="35.160518333333336">
        <ele>123.79999999999998</ele>
        <time>2013-02-12T21:35:24.16</time>
      </trkpt>
      <trkpt lat="33.07612666666667" lon="35.16049833333334">
        <ele>122.79999999999998</ele>
        <time>2013-02-12T21:35:25.18</time>
      </trkpt>
      <trkpt lat="33.07610666666667" lon="35.160493333333335">
        <ele>122.09999999999998</ele>
        <time>2013-02-12T21:35:26.17</time>
      </trkpt>
      <trkpt lat="33.076101666666666" lon="35.16047666666667">
        <ele>121.99999999999999</ele>
        <time>2013-02-12T21:35:27.17</time>
      </trkpt>
      <trkpt lat="33.07610833333333" lon="35.160455">
        <ele>121.79999999999998</ele>
        <time>2013-02-12T21:35:28.17</time>
      </trkpt>
      <trkpt lat="33.07611166666667" lon="35.160423333333334">
        <ele>121.99999999999999</ele>
        <time>2013-02-12T21:35:29.17</time>
      </trkpt>
      <trkpt lat="33.076101666666666" lon="35.160408333333336">
        <ele>122.19999999999999</ele>
        <time>2013-02-12T21:35:30.17</time>
      </trkpt>
      <trkpt lat="33.076101666666666" lon="35.160385">
        <ele>121.99999999999999</ele>
        <time>2013-02-12T21:35:31.18</time>
      </trkpt>
      <trkpt lat="33.07609" lon="35.16036">
        <ele>121.79999999999998</ele>
        <time>2013-02-12T21:35:32.17</time>
      </trkpt>
      <trkpt lat="33.076078333333335" lon="35.16032833333333">
        <ele>121.49999999999999</ele>
        <time>2013-02-12T21:35:33.17</time>
      </trkpt>
      <trkpt lat="33.07606166666667" lon="35.1603">
        <ele>121.59999999999998</ele>
        <time>2013-02-12T21:35:34.18</time>
      </trkpt>
      <trkpt lat="33.076055" lon="35.160275">
        <ele>121.59999999999998</ele>
        <time>2013-02-12T21:35:35.17</time>
      </trkpt>
      <trkpt lat="33.07604833333333" lon="35.16023333333333">
        <ele>120.99999999999999</ele>
        <time>2013-02-12T21:35:36.17</time>
      </trkpt>
      <trkpt lat="33.076045" lon="35.160201666666666">
        <ele>120.99999999999999</ele>
        <time>2013-02-12T21:35:37.18</time>
      </trkpt>
      <trkpt lat="33.076035" lon="35.160158333333335">
        <ele>120.29999999999998</ele>
        <time>2013-02-12T21:35:38.17</time>
      </trkpt>
      <trkpt lat="33.07602166666667" lon="35.160145">
        <ele>119.99999999999999</ele>
        <time>2013-02-12T21:35:39.17</time>
      </trkpt>
      <trkpt lat="33.076015" lon="35.16013">
        <ele>119.79999999999998</ele>
        <time>2013-02-12T21:35:41.17</time>
      </trkpt>
      <trkpt lat="33.076011666666666" lon="35.16009833333333">
        <ele>119.29999999999998</ele>
        <time>2013-02-12T21:35:42.18</time>
      </trkpt>
      <trkpt lat="33.076015" lon="35.160088333333334">
        <ele>119.19999999999999</ele>
        <time>2013-02-12T21:35:43.18</time>
      </trkpt>
      <trkpt lat="33.076008333333334" lon="35.160068333333335">
        <ele>119.49999999999999</ele>
        <time>2013-02-12T21:35:44.18</time>
      </trkpt>
      <trkpt lat="33.07599833333333" lon="35.160048333333336">
        <ele>119.29999999999998</ele>
        <time>2013-02-12T21:35:45.18</time>
      </trkpt>
      <trkpt lat="33.075981666666664" lon="35.160041666666665">
        <ele>119.29999999999998</ele>
        <time>2013-02-12T21:35:46.20</time>
      </trkpt>
      <trkpt lat="33.075966666666666" lon="35.16002833333334">
        <ele>118.59999999999998</ele>
        <time>2013-02-12T21:35:47.18</time>
      </trkpt>
      <trkpt lat="33.07596" lon="35.16">
        <ele>118.59999999999998</ele>
        <time>2013-02-12T21:35:48.17</time>
      </trkpt>
      <trkpt lat="33.07598333333333" lon="35.159978333333335">
        <ele>118.59999999999998</ele>
        <time>2013-02-12T21:35:49.16</time>
      </trkpt>
      <trkpt lat="33.07598333333333" lon="35.15994">
        <ele>118.69999999999997</ele>
        <time>2013-02-12T21:35:50.15</time>
      </trkpt>
      <trkpt lat="33.075988333333335" lon="35.15994666666667">
        <ele>118.79999999999997</ele>
        <time>2013-02-12T21:35:51.15</time>
      </trkpt>
      <trkpt lat="33.07599833333333" lon="35.159938333333336">
        <ele>118.09999999999997</ele>
        <time>2013-02-12T21:35:52.15</time>
      </trkpt>
      <trkpt lat="33.076005" lon="35.15993">
        <ele>117.69999999999996</ele>
        <time>2013-02-12T21:35:53.17</time>
      </trkpt>
      <trkpt lat="33.076013333333336" lon="35.159925">
        <ele>117.49999999999996</ele>
        <time>2013-02-12T21:35:54.15</time>
      </trkpt>
      <trkpt lat="33.07602166666667" lon="35.159915">
        <ele>117.09999999999995</ele>
        <time>2013-02-12T21:35:55.15</time>
      </trkpt>
      <trkpt lat="33.07602166666667" lon="35.15989666666667">
        <ele>116.69999999999995</ele>
        <time>2013-02-12T21:35:56.15</time>
      </trkpt>
      <trkpt lat="33.07600166666667" lon="35.15987166666667">
        <ele>116.7</ele>
        <time>2013-02-12T21:36:00.15</time>
      </trkpt>
      <trkpt lat="33.07601" lon="35.159866666666666">
        <ele>117.3</ele>
        <time>2013-02-12T21:36:01.15</time>
      </trkpt>
      <trkpt lat="33.07602" lon="35.15984666666667">
        <ele>116.5</ele>
        <time>2013-02-12T21:36:03.15</time>
      </trkpt>
      <trkpt lat="33.07602333333333" lon="35.159835">
        <ele>114.8</ele>
        <time>2013-02-12T21:36:04.17</time>
      </trkpt>
      <trkpt lat="33.076008333333334" lon="35.159823333333335">
        <ele>114</ele>
        <time>2013-02-12T21:36:05.15</time>
      </trkpt>
      <trkpt lat="33.076" lon="35.159796666666665">
        <ele>112.5</ele>
        <time>2013-02-12T21:36:12.15</time>
      </trkpt>
      <trkpt lat="33.07600166666667" lon="35.15979">
        <ele>112.5</ele>
        <time>2013-02-12T21:36:20.15</time>
      </trkpt>
      <trkpt lat="33.07600166666667" lon="35.159795">
        <ele>112.3</ele>
        <time>2013-02-12T21:36:27.15</time>
      </trkpt>
      <trkpt lat="33.076011666666666" lon="35.159803333333336">
        <ele>112.8</ele>
        <time>2013-02-12T21:40:36.17</time>
      </trkpt>
      <trkpt lat="33.07604666666667" lon="35.159795">
        <ele>112</ele>
        <time>2013-02-12T21:40:37.22</time>
      </trkpt>
      <trkpt lat="33.07608666666667" lon="35.159771666666664">
        <ele>111.4</ele>
        <time>2013-02-12T21:40:38.16</time>
      </trkpt>
      <trkpt lat="33.076116666666664" lon="35.15976">
        <ele>111.60000000000001</ele>
        <time>2013-02-12T21:40:39.16</time>
      </trkpt>
      <trkpt lat="33.076163333333334" lon="35.15976666666667">
        <ele>111.60000000000001</ele>
        <time>2013-02-12T21:40:40.18</time>
      </trkpt>
      <trkpt lat="33.07622166666667" lon="35.159776666666666">
        <ele>110.4</ele>
        <time>2013-02-12T21:40:41.24</time>
      </trkpt>
      <trkpt lat="33.076285" lon="35.15974333333333">
        <ele>110</ele>
        <time>2013-02-12T21:40:42.20</time>
      </trkpt>
      <trkpt lat="33.076341666666664" lon="35.15976">
        <ele>109.2</ele>
        <time>2013-02-12T21:40:43.16</time>
      </trkpt>
      <trkpt lat="33.076406666666664" lon="35.15976">
        <ele>108.9</ele>
        <time>2013-02-12T21:40:44.17</time>
      </trkpt>
      <trkpt lat="33.07644833333333" lon="35.159773333333334">
        <ele>108.60000000000001</ele>
        <time>2013-02-12T21:40:45.16</time>
      </trkpt>
      <trkpt lat="33.076503333333335" lon="35.159773333333334">
        <ele>109.30000000000001</ele>
        <time>2013-02-12T21:40:46.18</time>
      </trkpt>
      <trkpt lat="33.076573333333336" lon="35.15978833333333">
        <ele>110.00000000000001</ele>
        <time>2013-02-12T21:40:47.17</time>
      </trkpt>
      <trkpt lat="33.07662833333333" lon="35.15979166666666">
        <ele>110.50000000000001</ele>
        <time>2013-02-12T21:40:48.17</time>
      </trkpt>
      <trkpt lat="33.07668" lon="35.159796666666665">
        <ele>110.30000000000001</ele>
        <time>2013-02-12T21:40:49.16</time>
      </trkpt>
      <trkpt lat="33.07671833333333" lon="35.15981333333333">
        <ele>110.00000000000001</ele>
        <time>2013-02-12T21:40:50.16</time>
      </trkpt>
      <trkpt lat="33.076768333333334" lon="35.15982666666667">
        <ele>110.90000000000002</ele>
        <time>2013-02-12T21:40:51.17</time>
      </trkpt>
      <trkpt lat="33.07680166666667" lon="35.15982">
        <ele>111.30000000000003</ele>
        <time>2013-02-12T21:40:52.19</time>
      </trkpt>
      <trkpt lat="33.076838333333335" lon="35.159816666666664">
        <ele>110.60000000000002</ele>
        <time>2013-02-12T21:40:53.21</time>
      </trkpt>
      <trkpt lat="33.07687" lon="35.159823333333335">
        <ele>110.40000000000002</ele>
        <time>2013-02-12T21:40:54.15</time>
      </trkpt>
      <trkpt lat="33.076905" lon="35.15979333333333">
        <ele>109.70000000000002</ele>
        <time>2013-02-12T21:40:55.15</time>
      </trkpt>
      <trkpt lat="33.076926666666665" lon="35.15980833333333">
        <ele>109.50000000000001</ele>
        <time>2013-02-12T21:40:56.15</time>
      </trkpt>
      <trkpt lat="33.07695666666667" lon="35.159825">
        <ele>108.20000000000002</ele>
        <time>2013-02-12T21:40:57.18</time>
      </trkpt>
      <trkpt lat="33.076973333333335" lon="35.15984666666667">
        <ele>107.60000000000002</ele>
        <time>2013-02-12T21:40:58.16</time>
      </trkpt>
      <trkpt lat="33.077005" lon="35.159845">
        <ele>108.60000000000002</ele>
        <time>2013-02-12T21:40:59.15</time>
      </trkpt>
      <trkpt lat="33.077035" lon="35.15985166666667">
        <ele>108.90000000000002</ele>
        <time>2013-02-12T21:41:00.15</time>
      </trkpt>
      <trkpt lat="33.07706" lon="35.159843333333335">
        <ele>107.50000000000001</ele>
        <time>2013-02-12T21:41:01.15</time>
      </trkpt>
      <trkpt lat="33.07707833333333" lon="35.15984666666667">
        <ele>107.40000000000002</ele>
        <time>2013-02-12T21:41:02.18</time>
      </trkpt>
      <trkpt lat="33.07709166666667" lon="35.159845">
        <ele>107.90000000000002</ele>
        <time>2013-02-12T21:41:03.15</time>
      </trkpt>
      <trkpt lat="33.07711333333334" lon="35.159863333333334">
        <ele>106.90000000000002</ele>
        <time>2013-02-12T21:41:04.15</time>
      </trkpt>
      <trkpt lat="33.07714166666667" lon="35.159865">
        <ele>106.80000000000003</ele>
        <time>2013-02-12T21:41:05.15</time>
      </trkpt>
      <trkpt lat="33.07716666666666" lon="35.159866666666666">
        <ele>106.70000000000003</ele>
        <time>2013-02-12T21:41:06.17</time>
      </trkpt>
      <trkpt lat="33.07718666666667" lon="35.15987166666667">
        <ele>107.00000000000003</ele>
        <time>2013-02-12T21:41:07.18</time>
      </trkpt>
      <trkpt lat="33.077215" lon="35.159868333333335">
        <ele>108.00000000000003</ele>
        <time>2013-02-12T21:41:08.17</time>
      </trkpt>
      <trkpt lat="33.07723333333333" lon="35.15986">
        <ele>108.30000000000003</ele>
        <time>2013-02-12T21:41:09.22</time>
      </trkpt>
      <trkpt lat="33.077245" lon="35.15986">
        <ele>108.50000000000003</ele>
        <time>2013-02-12T21:41:10.19</time>
      </trkpt>
      <trkpt lat="33.077265" lon="35.159835">
        <ele>108.20000000000003</ele>
        <time>2013-02-12T21:41:11.19</time>
      </trkpt>
      <trkpt lat="33.077286666666666" lon="35.15985666666667">
        <ele>108.40000000000003</ele>
        <time>2013-02-12T21:41:12.17</time>
      </trkpt>
      <trkpt lat="33.07731" lon="35.15983833333333">
        <ele>109.60000000000004</ele>
        <time>2013-02-12T21:41:13.19</time>
      </trkpt>
      <trkpt lat="33.07733" lon="35.15983">
        <ele>109.50000000000004</ele>
        <time>2013-02-12T21:41:14.20</time>
      </trkpt>
      <trkpt lat="33.07735" lon="35.159795">
        <ele>110.30000000000004</ele>
        <time>2013-02-12T21:41:15.19</time>
      </trkpt>
      <trkpt lat="33.07734333333333" lon="35.159775">
        <ele>110.10000000000004</ele>
        <time>2013-02-12T21:41:16.19</time>
      </trkpt>
      <trkpt lat="33.07737" lon="35.159755">
        <ele>109.20000000000003</ele>
        <time>2013-02-12T21:41:17.18</time>
      </trkpt>
      <trkpt lat="33.077378333333336" lon="35.159733333333335">
        <ele>108.90000000000003</ele>
        <time>2013-02-12T21:41:18.19</time>
      </trkpt>
      <trkpt lat="33.077403333333336" lon="35.159725">
        <ele>108.70000000000003</ele>
        <time>2013-02-12T21:41:19.18</time>
      </trkpt>
      <trkpt lat="33.077436666666664" lon="35.159735">
        <ele>108.40000000000003</ele>
        <time>2013-02-12T21:41:20.18</time>
      </trkpt>
      <trkpt lat="33.07745666666667" lon="35.159753333333335">
        <ele>108.40000000000003</ele>
        <time>2013-02-12T21:41:21.19</time>
      </trkpt>
      <trkpt lat="33.07748" lon="35.15973666666667">
        <ele>107.30000000000004</ele>
        <time>2013-02-12T21:41:22.18</time>
      </trkpt>
      <trkpt lat="33.07749166666667" lon="35.15973">
        <ele>107.40000000000003</ele>
        <time>2013-02-12T21:41:23.18</time>
      </trkpt>
      <trkpt lat="33.0775" lon="35.15972333333333">
        <ele>107.40000000000003</ele>
        <time>2013-02-12T21:41:24.18</time>
      </trkpt>
      <trkpt lat="33.077511666666666" lon="35.15971">
        <ele>107.40000000000003</ele>
        <time>2013-02-12T21:41:25.19</time>
      </trkpt>
      <trkpt lat="33.07754166666667" lon="35.15970333333333">
        <ele>107.50000000000003</ele>
        <time>2013-02-12T21:41:26.23</time>
      </trkpt>
      <trkpt lat="33.077575" lon="35.15969666666667">
        <ele>108.40000000000003</ele>
        <time>2013-02-12T21:41:27.22</time>
      </trkpt>
      <trkpt lat="33.077596666666665" lon="35.15967833333333">
        <ele>108.00000000000003</ele>
        <time>2013-02-12T21:41:28.19</time>
      </trkpt>
      <trkpt lat="33.077601666666666" lon="35.159668333333336">
        <ele>107.90000000000003</ele>
        <time>2013-02-12T21:41:29.19</time>
      </trkpt>
      <trkpt lat="33.07761" lon="35.15965666666666">
        <ele>108.00000000000003</ele>
        <time>2013-02-12T21:41:30.19</time>
      </trkpt>
      <trkpt lat="33.077623333333335" lon="35.15963">
        <ele>107.60000000000002</ele>
        <time>2013-02-12T21:41:31.18</time>
      </trkpt>
      <trkpt lat="33.077645" lon="35.15960833333333">
        <ele>107.50000000000003</ele>
        <time>2013-02-12T21:41:32.17</time>
      </trkpt>
      <trkpt lat="33.07766" lon="35.15961166666666">
        <ele>107.60000000000002</ele>
        <time>2013-02-12T21:41:33.19</time>
      </trkpt>
      <trkpt lat="33.07768333333333" lon="35.159618333333334">
        <ele>106.40000000000002</ele>
        <time>2013-02-12T21:41:34.18</time>
      </trkpt>
      <trkpt lat="33.07772833333333" lon="35.1596">
        <ele>107.30000000000003</ele>
        <time>2013-02-12T21:41:35.18</time>
      </trkpt>
      <trkpt lat="33.07775" lon="35.15961">
        <ele>107.60000000000002</ele>
        <time>2013-02-12T21:41:36.17</time>
      </trkpt>
      <trkpt lat="33.07776833333333" lon="35.15961333333333">
        <ele>107.60000000000002</ele>
        <time>2013-02-12T21:41:37.15</time>
      </trkpt>
      <trkpt lat="33.07779333333333" lon="35.159621666666666">
        <ele>108.20000000000002</ele>
        <time>2013-02-12T21:41:38.15</time>
      </trkpt>
      <trkpt lat="33.07781" lon="35.15961166666666">
        <ele>108.20000000000002</ele>
        <time>2013-02-12T21:41:39.15</time>
      </trkpt>
      <trkpt lat="33.07783333333333" lon="35.15958">
        <ele>106.50000000000001</ele>
        <time>2013-02-12T21:41:40.15</time>
      </trkpt>
      <trkpt lat="33.07787" lon="35.15958833333333">
        <ele>106.30000000000001</ele>
        <time>2013-02-12T21:41:41.15</time>
      </trkpt>
      <trkpt lat="33.07789" lon="35.15958666666667">
        <ele>105.9</ele>
        <time>2013-02-12T21:41:42.18</time>
      </trkpt>
      <trkpt lat="33.077918333333336" lon="35.159575">
        <ele>104.80000000000001</ele>
        <time>2013-02-12T21:41:43.18</time>
      </trkpt>
      <trkpt lat="33.07792833333333" lon="35.159573333333334">
        <ele>105.00000000000001</ele>
        <time>2013-02-12T21:41:44.15</time>
      </trkpt>
      <trkpt lat="33.07796166666667" lon="35.159555">
        <ele>104.50000000000001</ele>
        <time>2013-02-12T21:41:45.15</time>
      </trkpt>
      <trkpt lat="33.077975" lon="35.15956">
        <ele>104.70000000000002</ele>
        <time>2013-02-12T21:41:46.18</time>
      </trkpt>
      <trkpt lat="33.07799" lon="35.15955666666667">
        <ele>104.80000000000001</ele>
        <time>2013-02-12T21:41:47.18</time>
      </trkpt>
      <trkpt lat="33.07801666666667" lon="35.159551666666665">
        <ele>105.20000000000002</ele>
        <time>2013-02-12T21:41:48.18</time>
      </trkpt>
      <trkpt lat="33.07803166666667" lon="35.159571666666665">
        <ele>105.50000000000001</ele>
        <time>2013-02-12T21:41:49.17</time>
      </trkpt>
      <trkpt lat="33.078048333333335" lon="35.159553333333335">
        <ele>105.50000000000001</ele>
        <time>2013-02-12T21:41:50.18</time>
      </trkpt>
      <trkpt lat="33.078068333333334" lon="35.15955666666667">
        <ele>105.40000000000002</ele>
        <time>2013-02-12T21:41:51.18</time>
      </trkpt>
      <trkpt lat="33.078071666666666" lon="35.159525">
        <ele>105.50000000000001</ele>
        <time>2013-02-12T21:41:52.18</time>
      </trkpt>
      <trkpt lat="33.0781" lon="35.15950333333333">
        <ele>105.70000000000002</ele>
        <time>2013-02-12T21:41:53.17</time>
      </trkpt>
      <trkpt lat="33.078136666666666" lon="35.15949333333333">
        <ele>105.70000000000002</ele>
        <time>2013-02-12T21:41:54.17</time>
      </trkpt>
      <trkpt lat="33.07817" lon="35.159486666666666">
        <ele>105.30000000000001</ele>
        <time>2013-02-12T21:41:55.17</time>
      </trkpt>
      <trkpt lat="33.07819166666667" lon="35.15950333333333">
        <ele>105.80000000000001</ele>
        <time>2013-02-12T21:41:56.18</time>
      </trkpt>
      <trkpt lat="33.078225" lon="35.159483333333334">
        <ele>104.30000000000001</ele>
        <time>2013-02-12T21:41:57.17</time>
      </trkpt>
      <trkpt lat="33.078246666666665" lon="35.159488333333336">
        <ele>104.00000000000001</ele>
        <time>2013-02-12T21:41:58.18</time>
      </trkpt>
      <trkpt lat="33.078266666666664" lon="35.159495">
        <ele>103.60000000000001</ele>
        <time>2013-02-12T21:41:59.19</time>
      </trkpt>
      <trkpt lat="33.078295" lon="35.159481666666665">
        <ele>103.80000000000001</ele>
        <time>2013-02-12T21:42:00.16</time>
      </trkpt>
      <trkpt lat="33.078293333333335" lon="35.15949333333333">
        <ele>103.80000000000001</ele>
        <time>2013-02-12T21:42:01.18</time>
      </trkpt>
      <trkpt lat="33.078313333333334" lon="35.15949666666667">
        <ele>104.00000000000001</ele>
        <time>2013-02-12T21:42:02.18</time>
      </trkpt>
      <trkpt lat="33.078325" lon="35.159495">
        <ele>104.40000000000002</ele>
        <time>2013-02-12T21:42:03.18</time>
      </trkpt>
      <trkpt lat="33.07834166666667" lon="35.159495">
        <ele>104.50000000000001</ele>
        <time>2013-02-12T21:42:04.17</time>
      </trkpt>
      <trkpt lat="33.07835333333333" lon="35.15951333333334">
        <ele>104.50000000000001</ele>
        <time>2013-02-12T21:42:05.17</time>
      </trkpt>
      <trkpt lat="33.07837833333333" lon="35.15951166666667">
        <ele>104.70000000000002</ele>
        <time>2013-02-12T21:42:06.19</time>
      </trkpt>
      <trkpt lat="33.07839" lon="35.15953">
        <ele>105.60000000000002</ele>
        <time>2013-02-12T21:42:07.18</time>
      </trkpt>
      <trkpt lat="33.078405" lon="35.159533333333336">
        <ele>105.60000000000002</ele>
        <time>2013-02-12T21:42:08.18</time>
      </trkpt>
      <trkpt lat="33.078435" lon="35.15951666666667">
        <ele>105.00000000000003</ele>
        <time>2013-02-12T21:42:09.18</time>
      </trkpt>
      <trkpt lat="33.07848666666667" lon="35.15948">
        <ele>104.80000000000003</ele>
        <time>2013-02-12T21:42:10.17</time>
      </trkpt>
      <trkpt lat="33.078496666666666" lon="35.15946666666667">
        <ele>104.50000000000003</ele>
        <time>2013-02-12T21:42:11.16</time>
      </trkpt>
      <trkpt lat="33.07851" lon="35.15947166666667">
        <ele>104.70000000000003</ele>
        <time>2013-02-12T21:42:12.18</time>
      </trkpt>
      <trkpt lat="33.078515" lon="35.159483333333334">
        <ele>104.60000000000004</ele>
        <time>2013-02-12T21:42:13.16</time>
      </trkpt>
      <trkpt lat="33.07853166666666" lon="35.159501666666664">
        <ele>103.80000000000004</ele>
        <time>2013-02-12T21:42:14.17</time>
      </trkpt>
      <trkpt lat="33.078538333333334" lon="35.15951">
        <ele>103.50000000000004</ele>
        <time>2013-02-12T21:42:15.17</time>
      </trkpt>
      <trkpt lat="33.078545" lon="35.1595">
        <ele>103.50000000000004</ele>
        <time>2013-02-12T21:42:16.17</time>
      </trkpt>
      <trkpt lat="33.078565" lon="35.15951166666667">
        <ele>103.50000000000004</ele>
        <time>2013-02-12T21:42:17.17</time>
      </trkpt>
      <trkpt lat="33.07857" lon="35.15952166666667">
        <ele>103.70000000000005</ele>
        <time>2013-02-12T21:42:18.20</time>
      </trkpt>
      <trkpt lat="33.07859" lon="35.15951">
        <ele>103.60000000000005</ele>
        <time>2013-02-12T21:42:19.18</time>
      </trkpt>
      <trkpt lat="33.078606666666666" lon="35.15949666666667">
        <ele>104.20000000000005</ele>
        <time>2013-02-12T21:42:20.22</time>
      </trkpt>
      <trkpt lat="33.078628333333334" lon="35.15951">
        <ele>104.10000000000005</ele>
        <time>2013-02-12T21:42:21.18</time>
      </trkpt>
      <trkpt lat="33.07866" lon="35.15952">
        <ele>105.30000000000005</ele>
        <time>2013-02-12T21:42:22.17</time>
      </trkpt>
      <trkpt lat="33.078693333333334" lon="35.159506666666665">
        <ele>105.80000000000005</ele>
        <time>2013-02-12T21:42:23.17</time>
      </trkpt>
      <trkpt lat="33.07870333333333" lon="35.159501666666664">
        <ele>105.90000000000005</ele>
        <time>2013-02-12T21:42:24.17</time>
      </trkpt>
      <trkpt lat="33.07873166666667" lon="35.1595">
        <ele>105.50000000000004</ele>
        <time>2013-02-12T21:42:25.17</time>
      </trkpt>
      <trkpt lat="33.07874666666667" lon="35.15950333333333">
        <ele>105.80000000000004</ele>
        <time>2013-02-12T21:42:26.17</time>
      </trkpt>
      <trkpt lat="33.078763333333335" lon="35.15949333333333">
        <ele>104.30000000000004</ele>
        <time>2013-02-12T21:42:27.18</time>
      </trkpt>
      <trkpt lat="33.07878" lon="35.159488333333336">
        <ele>103.50000000000004</ele>
        <time>2013-02-12T21:42:28.18</time>
      </trkpt>
      <trkpt lat="33.07881" lon="35.15951166666667">
        <ele>104.10000000000004</ele>
        <time>2013-02-12T21:42:29.19</time>
      </trkpt>
      <trkpt lat="33.078846666666664" lon="35.15950333333333">
        <ele>104.70000000000003</ele>
        <time>2013-02-12T21:42:30.18</time>
      </trkpt>
      <trkpt lat="33.07888166666667" lon="35.159501666666664">
        <ele>104.60000000000004</ele>
        <time>2013-02-12T21:42:31.17</time>
      </trkpt>
      <trkpt lat="33.07892666666667" lon="35.159486666666666">
        <ele>104.80000000000004</ele>
        <time>2013-02-12T21:42:32.17</time>
      </trkpt>
      <trkpt lat="33.07895333333333" lon="35.15948">
        <ele>104.70000000000005</ele>
        <time>2013-02-12T21:42:33.18</time>
      </trkpt>
      <trkpt lat="33.078966666666666" lon="35.159495">
        <ele>104.80000000000004</ele>
        <time>2013-02-12T21:42:34.16</time>
      </trkpt>
      <trkpt lat="33.07898333333333" lon="35.15952333333333">
        <ele>104.90000000000003</ele>
        <time>2013-02-12T21:42:35.19</time>
      </trkpt>
      <trkpt lat="33.079005" lon="35.15954166666667">
        <ele>105.30000000000004</ele>
        <time>2013-02-12T21:42:36.21</time>
      </trkpt>
      <trkpt lat="33.079026666666664" lon="35.15953">
        <ele>105.70000000000005</ele>
        <time>2013-02-12T21:42:37.17</time>
      </trkpt>
      <trkpt lat="33.07906" lon="35.15951166666667">
        <ele>105.80000000000004</ele>
        <time>2013-02-12T21:42:38.16</time>
      </trkpt>
      <trkpt lat="33.079095" lon="35.159501666666664">
        <ele>105.50000000000004</ele>
        <time>2013-02-12T21:42:39.17</time>
      </trkpt>
      <trkpt lat="33.079123333333335" lon="35.159506666666665">
        <ele>105.10000000000004</ele>
        <time>2013-02-12T21:42:40.17</time>
      </trkpt>
      <trkpt lat="33.07914" lon="35.15953833333333">
        <ele>105.00000000000004</ele>
        <time>2013-02-12T21:42:41.16</time>
      </trkpt>
      <trkpt lat="33.07917333333334" lon="35.15954">
        <ele>104.80000000000004</ele>
        <time>2013-02-12T21:42:42.15</time>
      </trkpt>
      <trkpt lat="33.07917833333333" lon="35.15956166666667">
        <ele>104.80000000000004</ele>
        <time>2013-02-12T21:42:43.16</time>
      </trkpt>
      <trkpt lat="33.079185" lon="35.159565">
        <ele>104.80000000000004</ele>
        <time>2013-02-12T21:42:44.18</time>
      </trkpt>
      <trkpt lat="33.07920166666667" lon="35.1596">
        <ele>106.20000000000005</ele>
        <time>2013-02-12T21:42:45.15</time>
      </trkpt>
      <trkpt lat="33.07922333333333" lon="35.15962">
        <ele>105.60000000000005</ele>
        <time>2013-02-12T21:42:46.15</time>
      </trkpt>
      <trkpt lat="33.07924333333333" lon="35.159623333333336">
        <ele>105.90000000000005</ele>
        <time>2013-02-12T21:42:47.15</time>
      </trkpt>
      <trkpt lat="33.079256666666666" lon="35.15964">
        <ele>106.10000000000005</ele>
        <time>2013-02-12T21:42:48.17</time>
      </trkpt>
      <trkpt lat="33.079278333333335" lon="35.159663333333334">
        <ele>106.40000000000005</ele>
        <time>2013-02-12T21:42:49.17</time>
      </trkpt>
      <trkpt lat="33.07929333333333" lon="35.159708333333334">
        <ele>106.50000000000004</ele>
        <time>2013-02-12T21:42:50.19</time>
      </trkpt>
      <trkpt lat="33.079323333333335" lon="35.15972166666667">
        <ele>106.50000000000004</ele>
        <time>2013-02-12T21:42:51.18</time>
      </trkpt>
      <trkpt lat="33.079346666666666" lon="35.15973666666667">
        <ele>106.30000000000004</ele>
        <time>2013-02-12T21:42:52.20</time>
      </trkpt>
      <trkpt lat="33.07935833333333" lon="35.159745">
        <ele>105.80000000000004</ele>
        <time>2013-02-12T21:42:53.18</time>
      </trkpt>
      <trkpt lat="33.079345" lon="35.159815">
        <ele>106.60000000000004</ele>
        <time>2013-02-12T21:42:54.19</time>
      </trkpt>
      <trkpt lat="33.079348333333336" lon="35.15982">
        <ele>108.10000000000004</ele>
        <time>2013-02-12T21:42:55.19</time>
      </trkpt>
      <trkpt lat="33.079345" lon="35.15981166666667">
        <ele>110.60000000000004</ele>
        <time>2013-02-12T21:42:56.20</time>
      </trkpt>
      <trkpt lat="33.079455" lon="35.15977">
        <ele>108.30000000000004</ele>
        <time>2013-02-12T21:42:58.18</time>
      </trkpt>
      <trkpt lat="33.079485" lon="35.15978">
        <ele>106.40000000000003</ele>
        <time>2013-02-12T21:42:59.18</time>
      </trkpt>
      <trkpt lat="33.07954" lon="35.15975">
        <ele>105.70000000000003</ele>
        <time>2013-02-12T21:43:00.16</time>
      </trkpt>
      <trkpt lat="33.07953833333333" lon="35.159771666666664">
        <ele>106.00000000000003</ele>
        <time>2013-02-12T21:43:01.19</time>
      </trkpt>
      <trkpt lat="33.07953333333333" lon="35.15981">
        <ele>106.40000000000003</ele>
        <time>2013-02-12T21:43:02.19</time>
      </trkpt>
      <trkpt lat="33.07956333333333" lon="35.15982">
        <ele>106.70000000000003</ele>
        <time>2013-02-12T21:43:03.18</time>
      </trkpt>
      <trkpt lat="33.07958333333333" lon="35.15983166666667">
        <ele>106.70000000000003</ele>
        <time>2013-02-12T21:43:04.20</time>
      </trkpt>
      <trkpt lat="33.07959666666667" lon="35.159868333333335">
        <ele>106.90000000000003</ele>
        <time>2013-02-12T21:43:05.20</time>
      </trkpt>
      <trkpt lat="33.07962" lon="35.15987">
        <ele>107.40000000000003</ele>
        <time>2013-02-12T21:43:06.19</time>
      </trkpt>
      <trkpt lat="33.07963" lon="35.159893333333336">
        <ele>107.50000000000003</ele>
        <time>2013-02-12T21:43:07.17</time>
      </trkpt>
      <trkpt lat="33.07964166666667" lon="35.159911666666666">
        <ele>107.30000000000003</ele>
        <time>2013-02-12T21:43:08.19</time>
      </trkpt>
      <trkpt lat="33.079645" lon="35.159945">
        <ele>107.50000000000003</ele>
        <time>2013-02-12T21:43:09.18</time>
      </trkpt>
      <trkpt lat="33.07965333333333" lon="35.15996333333333">
        <ele>107.80000000000003</ele>
        <time>2013-02-12T21:43:10.19</time>
      </trkpt>
      <trkpt lat="33.07966666666667" lon="35.159978333333335">
        <ele>107.70000000000003</ele>
        <time>2013-02-12T21:43:11.18</time>
      </trkpt>
      <trkpt lat="33.07969333333333" lon="35.16">
        <ele>107.40000000000003</ele>
        <time>2013-02-12T21:43:12.17</time>
      </trkpt>
      <trkpt lat="33.079708333333336" lon="35.160023333333335">
        <ele>107.20000000000003</ele>
        <time>2013-02-12T21:43:13.18</time>
      </trkpt>
      <trkpt lat="33.07971666666667" lon="35.160015">
        <ele>106.50000000000003</ele>
        <time>2013-02-12T21:43:14.17</time>
      </trkpt>
      <trkpt lat="33.079723333333334" lon="35.160043333333334">
        <ele>106.60000000000002</ele>
        <time>2013-02-12T21:43:15.15</time>
      </trkpt>
      <trkpt lat="33.079746666666665" lon="35.16009">
        <ele>106.50000000000003</ele>
        <time>2013-02-12T21:43:16.15</time>
      </trkpt>
      <trkpt lat="33.07976166666667" lon="35.16009666666667">
        <ele>106.40000000000003</ele>
        <time>2013-02-12T21:43:17.15</time>
      </trkpt>
      <trkpt lat="33.079786666666664" lon="35.160111666666666">
        <ele>108.00000000000003</ele>
        <time>2013-02-12T21:43:18.15</time>
      </trkpt>
      <trkpt lat="33.079811666666664" lon="35.160151666666664">
        <ele>107.40000000000003</ele>
        <time>2013-02-12T21:43:19.16</time>
      </trkpt>
      <trkpt lat="33.07983333333333" lon="35.16016666666667">
        <ele>107.30000000000004</ele>
        <time>2013-02-12T21:43:20.15</time>
      </trkpt>
      <trkpt lat="33.07985333333333" lon="35.160185">
        <ele>107.70000000000005</ele>
        <time>2013-02-12T21:43:21.15</time>
      </trkpt>
      <trkpt lat="33.07986666666667" lon="35.160183333333336">
        <ele>107.70000000000005</ele>
        <time>2013-02-12T21:43:22.15</time>
      </trkpt>
      <trkpt lat="33.07989" lon="35.16018833333333">
        <ele>107.90000000000005</ele>
        <time>2013-02-12T21:43:23.17</time>
      </trkpt>
      <trkpt lat="33.079905" lon="35.16019333333333">
        <ele>108.30000000000005</ele>
        <time>2013-02-12T21:43:24.16</time>
      </trkpt>
      <trkpt lat="33.07993" lon="35.160201666666666">
        <ele>108.60000000000005</ele>
        <time>2013-02-12T21:43:25.15</time>
      </trkpt>
      <trkpt lat="33.079948333333334" lon="35.160223333333334">
        <ele>108.60000000000005</ele>
        <time>2013-02-12T21:43:26.15</time>
      </trkpt>
      <trkpt lat="33.07997" lon="35.160243333333334">
        <ele>108.70000000000005</ele>
        <time>2013-02-12T21:43:27.15</time>
      </trkpt>
      <trkpt lat="33.079998333333336" lon="35.160235">
        <ele>109.10000000000005</ele>
        <time>2013-02-12T21:43:28.15</time>
      </trkpt>
      <trkpt lat="33.080018333333335" lon="35.16023333333333">
        <ele>109.50000000000006</ele>
        <time>2013-02-12T21:43:29.17</time>
      </trkpt>
      <trkpt lat="33.080045" lon="35.160248333333335">
        <ele>110.40000000000006</ele>
        <time>2013-02-12T21:43:30.15</time>
      </trkpt>
      <trkpt lat="33.08007" lon="35.160245">
        <ele>110.60000000000007</ele>
        <time>2013-02-12T21:43:31.19</time>
      </trkpt>
      <trkpt lat="33.08007166666667" lon="35.160266666666665">
        <ele>111.00000000000007</ele>
        <time>2013-02-12T21:43:32.15</time>
      </trkpt>
      <trkpt lat="33.08009" lon="35.160245">
        <ele>111.20000000000007</ele>
        <time>2013-02-12T21:43:33.16</time>
      </trkpt>
      <trkpt lat="33.08011166666667" lon="35.16025666666667">
        <ele>111.20000000000007</ele>
        <time>2013-02-12T21:43:34.18</time>
      </trkpt>
      <trkpt lat="33.080135" lon="35.160255">
        <ele>111.70000000000007</ele>
        <time>2013-02-12T21:43:35.17</time>
      </trkpt>
      <trkpt lat="33.08017" lon="35.160268333333335">
        <ele>112.10000000000008</ele>
        <time>2013-02-12T21:43:36.17</time>
      </trkpt>
      <trkpt lat="33.080195" lon="35.16027666666667">
        <ele>112.30000000000008</ele>
        <time>2013-02-12T21:43:37.20</time>
      </trkpt>
      <trkpt lat="33.08022833333333" lon="35.16030166666667">
        <ele>111.70000000000009</ele>
        <time>2013-02-12T21:43:38.19</time>
      </trkpt>
      <trkpt lat="33.080261666666665" lon="35.160311666666665">
        <ele>111.50000000000009</ele>
        <time>2013-02-12T21:43:39.18</time>
      </trkpt>
      <trkpt lat="33.080288333333336" lon="35.160358333333335">
        <ele>111.90000000000009</ele>
        <time>2013-02-12T21:43:40.19</time>
      </trkpt>
      <trkpt lat="33.08035" lon="35.16032833333333">
        <ele>112.6000000000001</ele>
        <time>2013-02-12T21:43:41.18</time>
      </trkpt>
      <trkpt lat="33.08034333333333" lon="35.160356666666665">
        <ele>113.8000000000001</ele>
        <time>2013-02-12T21:43:42.18</time>
      </trkpt>
      <trkpt lat="33.080365" lon="35.160355">
        <ele>113.1000000000001</ele>
        <time>2013-02-12T21:43:43.20</time>
      </trkpt>
      <trkpt lat="33.08038333333333" lon="35.160345">
        <ele>113.0000000000001</ele>
        <time>2013-02-12T21:43:44.19</time>
      </trkpt>
      <trkpt lat="33.08040166666667" lon="35.160358333333335">
        <ele>112.6000000000001</ele>
        <time>2013-02-12T21:43:45.19</time>
      </trkpt>
      <trkpt lat="33.08043833333333" lon="35.16039">
        <ele>112.8000000000001</ele>
        <time>2013-02-12T21:43:46.17</time>
      </trkpt>
      <trkpt lat="33.08045833333333" lon="35.16042">
        <ele>112.90000000000009</ele>
        <time>2013-02-12T21:43:47.17</time>
      </trkpt>
      <trkpt lat="33.080468333333336" lon="35.160401666666665">
        <ele>113.50000000000009</ele>
        <time>2013-02-12T21:43:48.16</time>
      </trkpt>
      <trkpt lat="33.08049166666667" lon="35.16040666666667">
        <ele>114.4</ele>
        <time>2013-02-12T21:43:51.17</time>
      </trkpt>
      <trkpt lat="33.08049666666667" lon="35.160425">
        <ele>115.2</ele>
        <time>2013-02-12T21:43:52.17</time>
      </trkpt>
      <trkpt lat="33.08051" lon="35.16043166666667">
        <ele>115.60000000000001</ele>
        <time>2013-02-12T21:43:53.17</time>
      </trkpt>
      <trkpt lat="33.08053833333334" lon="35.16045833333333">
        <ele>113.4</ele>
        <time>2013-02-12T21:43:54.16</time>
      </trkpt>
      <trkpt lat="33.08055" lon="35.160465">
        <ele>113.60000000000001</ele>
        <time>2013-02-12T21:43:55.26</time>
      </trkpt>
      <trkpt lat="33.08056666666667" lon="35.160473333333336">
        <ele>114.10000000000001</ele>
        <time>2013-02-12T21:43:56.33</time>
      </trkpt>
      <trkpt lat="33.080576666666666" lon="35.16046166666667">
        <ele>114.4</ele>
        <time>2013-02-12T21:43:57.22</time>
      </trkpt>
      <trkpt lat="33.08061333333333" lon="35.160475">
        <ele>114.30000000000001</ele>
        <time>2013-02-12T21:43:58.17</time>
      </trkpt>
      <trkpt lat="33.08063" lon="35.16047833333333">
        <ele>114.60000000000001</ele>
        <time>2013-02-12T21:43:59.18</time>
      </trkpt>
      <trkpt lat="33.080648333333336" lon="35.160471666666666">
        <ele>114.50000000000001</ele>
        <time>2013-02-12T21:44:00.14</time>
      </trkpt>
      <trkpt lat="33.08067" lon="35.16047833333333">
        <ele>114.40000000000002</ele>
        <time>2013-02-12T21:44:01.17</time>
      </trkpt>
      <trkpt lat="33.080693333333336" lon="35.16051">
        <ele>115.10000000000002</ele>
        <time>2013-02-12T21:44:02.20</time>
      </trkpt>
      <trkpt lat="33.08072" lon="35.160515">
        <ele>115.30000000000003</ele>
        <time>2013-02-12T21:44:03.21</time>
      </trkpt>
      <trkpt lat="33.080735" lon="35.16052166666667">
        <ele>115.40000000000002</ele>
        <time>2013-02-12T21:44:04.16</time>
      </trkpt>
      <trkpt lat="33.08075" lon="35.160511666666665">
        <ele>115.50000000000001</ele>
        <time>2013-02-12T21:44:05.18</time>
      </trkpt>
      <trkpt lat="33.080775" lon="35.16052166666667">
        <ele>115.20000000000002</ele>
        <time>2013-02-12T21:44:06.20</time>
      </trkpt>
      <trkpt lat="33.08079333333333" lon="35.16052833333333">
        <ele>115.50000000000001</ele>
        <time>2013-02-12T21:44:07.16</time>
      </trkpt>
      <trkpt lat="33.08080666666667" lon="35.160538333333335">
        <ele>115.50000000000001</ele>
        <time>2013-02-12T21:44:08.17</time>
      </trkpt>
      <trkpt lat="33.080828333333336" lon="35.16055333333333">
        <ele>115.10000000000001</ele>
        <time>2013-02-12T21:44:09.17</time>
      </trkpt>
      <trkpt lat="33.080861666666664" lon="35.16056666666667">
        <ele>115.60000000000001</ele>
        <time>2013-02-12T21:44:10.25</time>
      </trkpt>
      <trkpt lat="33.080885" lon="35.160581666666666">
        <ele>115.50000000000001</ele>
        <time>2013-02-12T21:44:11.15</time>
      </trkpt>
      <trkpt lat="33.08092666666667" lon="35.160621666666664">
        <ele>115.50000000000001</ele>
        <time>2013-02-12T21:44:12.15</time>
      </trkpt>
      <trkpt lat="33.080945" lon="35.16067666666667">
        <ele>115.20000000000002</ele>
        <time>2013-02-12T21:44:13.15</time>
      </trkpt>
      <trkpt lat="33.08097333333333" lon="35.16068333333333">
        <ele>115.60000000000002</ele>
        <time>2013-02-12T21:44:14.15</time>
      </trkpt>
      <trkpt lat="33.080976666666665" lon="35.16068666666666">
        <ele>115.70000000000002</ele>
        <time>2013-02-12T21:44:15.17</time>
      </trkpt>
      <trkpt lat="33.081001666666666" lon="35.16068333333333">
        <ele>116.00000000000001</ele>
        <time>2013-02-12T21:44:16.15</time>
      </trkpt>
      <trkpt lat="33.08101666666666" lon="35.160698333333336">
        <ele>116.00000000000001</ele>
        <time>2013-02-12T21:44:17.15</time>
      </trkpt>
      <trkpt lat="33.08105" lon="35.160693333333334">
        <ele>116.10000000000001</ele>
        <time>2013-02-12T21:44:18.15</time>
      </trkpt>
      <trkpt lat="33.081066666666665" lon="35.160736666666665">
        <ele>117.10000000000001</ele>
        <time>2013-02-12T21:44:19.19</time>
      </trkpt>
      <trkpt lat="33.081093333333335" lon="35.16074666666667">
        <ele>117.10000000000001</ele>
        <time>2013-02-12T21:44:20.18</time>
      </trkpt>
      <trkpt lat="33.08110166666667" lon="35.16077166666667">
        <ele>117.2</ele>
        <time>2013-02-12T21:44:21.15</time>
      </trkpt>
      <trkpt lat="33.08111" lon="35.16076833333333">
        <ele>117.5</ele>
        <time>2013-02-12T21:44:22.15</time>
      </trkpt>
      <trkpt lat="33.081125" lon="35.16076">
        <ele>117</ele>
        <time>2013-02-12T21:44:23.18</time>
      </trkpt>
      <trkpt lat="33.08112166666667" lon="35.160781666666665">
        <ele>117.9</ele>
        <time>2013-02-12T21:44:24.19</time>
      </trkpt>
      <trkpt lat="33.08114666666667" lon="35.16079833333333">
        <ele>118.10000000000001</ele>
        <time>2013-02-12T21:44:25.14</time>
      </trkpt>
      <trkpt lat="33.08114833333333" lon="35.160806666666666">
        <ele>118.00000000000001</ele>
        <time>2013-02-12T21:44:26.16</time>
      </trkpt>
      <trkpt lat="33.08116" lon="35.160801666666664">
        <ele>118.10000000000001</ele>
        <time>2013-02-12T21:44:27.16</time>
      </trkpt>
      <trkpt lat="33.08118666666667" lon="35.16079333333333">
        <ele>117.9</ele>
        <time>2013-02-12T21:44:28.17</time>
      </trkpt>
      <trkpt lat="33.08121666666667" lon="35.160805">
        <ele>118.60000000000001</ele>
        <time>2013-02-12T21:44:29.15</time>
      </trkpt>
      <trkpt lat="33.081221666666664" lon="35.16082166666666">
        <ele>118.4</ele>
        <time>2013-02-12T21:44:30.15</time>
      </trkpt>
      <trkpt lat="33.081248333333335" lon="35.160815">
        <ele>119.2</ele>
        <time>2013-02-12T21:44:31.15</time>
      </trkpt>
      <trkpt lat="33.08125666666667" lon="35.160805">
        <ele>119.8</ele>
        <time>2013-02-12T21:44:32.15</time>
      </trkpt>
      <trkpt lat="33.08127666666667" lon="35.160788333333336">
        <ele>120.1</ele>
        <time>2013-02-12T21:44:33.17</time>
      </trkpt>
      <trkpt lat="33.081295" lon="35.16077833333333">
        <ele>120.69999999999999</ele>
        <time>2013-02-12T21:44:34.17</time>
      </trkpt>
      <trkpt lat="33.081316666666666" lon="35.16079333333333">
        <ele>120.79999999999998</ele>
        <time>2013-02-12T21:44:35.15</time>
      </trkpt>
      <trkpt lat="33.08134" lon="35.160801666666664">
        <ele>120.89999999999998</ele>
        <time>2013-02-12T21:44:36.15</time>
      </trkpt>
      <trkpt lat="33.08136" lon="35.16079333333333">
        <ele>121.19999999999997</ele>
        <time>2013-02-12T21:44:37.15</time>
      </trkpt>
      <trkpt lat="33.08139" lon="35.16081">
        <ele>120.99999999999997</ele>
        <time>2013-02-12T21:44:38.16</time>
      </trkpt>
      <trkpt lat="33.081425" lon="35.160825">
        <ele>121.79999999999997</ele>
        <time>2013-02-12T21:44:39.17</time>
      </trkpt>
      <trkpt lat="33.08145666666667" lon="35.16081333333333">
        <ele>121.49999999999997</ele>
        <time>2013-02-12T21:44:40.15</time>
      </trkpt>
      <trkpt lat="33.081473333333335" lon="35.16083166666667">
        <ele>121.59999999999997</ele>
        <time>2013-02-12T21:44:41.15</time>
      </trkpt>
      <trkpt lat="33.081495" lon="35.160806666666666">
        <ele>120.69999999999996</ele>
        <time>2013-02-12T21:44:42.16</time>
      </trkpt>
      <trkpt lat="33.081518333333335" lon="35.160801666666664">
        <ele>120.19999999999996</ele>
        <time>2013-02-12T21:44:43.16</time>
      </trkpt>
      <trkpt lat="33.081536666666665" lon="35.16079166666667">
        <ele>119.79999999999995</ele>
        <time>2013-02-12T21:44:44.18</time>
      </trkpt>
      <trkpt lat="33.081565" lon="35.16078666666667">
        <ele>119.49999999999996</ele>
        <time>2013-02-12T21:44:45.17</time>
      </trkpt>
      <trkpt lat="33.08158" lon="35.160803333333334">
        <ele>119.19999999999996</ele>
        <time>2013-02-12T21:44:46.18</time>
      </trkpt>
      <trkpt lat="33.081595" lon="35.160825">
        <ele>119.29999999999995</ele>
        <time>2013-02-12T21:44:48.21</time>
      </trkpt>
      <trkpt lat="33.081633333333336" lon="35.160826666666665">
        <ele>119.99999999999996</ele>
        <time>2013-02-12T21:44:49.24</time>
      </trkpt>
      <trkpt lat="33.081653333333335" lon="35.16081333333333">
        <ele>119.29999999999995</ele>
        <time>2013-02-12T21:44:50.21</time>
      </trkpt>
      <trkpt lat="33.08168666666667" lon="35.16081833333333">
        <ele>118.79999999999995</ele>
        <time>2013-02-12T21:44:51.20</time>
      </trkpt>
      <trkpt lat="33.08167666666667" lon="35.160835">
        <ele>119.29999999999995</ele>
        <time>2013-02-12T21:44:52.18</time>
      </trkpt>
      <trkpt lat="33.08172" lon="35.16081833333333">
        <ele>119.99999999999996</ele>
        <time>2013-02-12T21:44:53.22</time>
      </trkpt>
      <trkpt lat="33.08175333333333" lon="35.160826666666665">
        <ele>119.89999999999996</ele>
        <time>2013-02-12T21:44:54.19</time>
      </trkpt>
      <trkpt lat="33.081775" lon="35.16083">
        <ele>120.89999999999996</ele>
        <time>2013-02-12T21:44:55.18</time>
      </trkpt>
      <trkpt lat="33.08179166666667" lon="35.16083666666667">
        <ele>121.49999999999996</ele>
        <time>2013-02-12T21:44:56.20</time>
      </trkpt>
      <trkpt lat="33.08182" lon="35.160833333333336">
        <ele>122.49999999999996</ele>
        <time>2013-02-12T21:44:57.21</time>
      </trkpt>
      <trkpt lat="33.08184166666667" lon="35.16085666666667">
        <ele>122.19999999999996</ele>
        <time>2013-02-12T21:44:58.19</time>
      </trkpt>
      <trkpt lat="33.08185" lon="35.16086">
        <ele>122.19999999999996</ele>
        <time>2013-02-12T21:44:59.17</time>
      </trkpt>
      <trkpt lat="33.08185" lon="35.160891666666664">
        <ele>121.79999999999995</ele>
        <time>2013-02-12T21:45:00.18</time>
      </trkpt>
      <trkpt lat="33.081871666666665" lon="35.16092">
        <ele>121.79999999999995</ele>
        <time>2013-02-12T21:45:01.18</time>
      </trkpt>
      <trkpt lat="33.0819" lon="35.16093">
        <ele>122.29999999999995</ele>
        <time>2013-02-12T21:45:02.20</time>
      </trkpt>
      <trkpt lat="33.08193" lon="35.16092833333333">
        <ele>122.39999999999995</ele>
        <time>2013-02-12T21:45:03.20</time>
      </trkpt>
      <trkpt lat="33.08193833333333" lon="35.160925">
        <ele>122.49999999999994</ele>
        <time>2013-02-12T21:45:04.19</time>
      </trkpt>
      <trkpt lat="33.08195166666667" lon="35.160925">
        <ele>122.49999999999994</ele>
        <time>2013-02-12T21:45:05.18</time>
      </trkpt>
      <trkpt lat="33.08197166666667" lon="35.160918333333335">
        <ele>122.69999999999995</ele>
        <time>2013-02-12T21:45:06.19</time>
      </trkpt>
      <trkpt lat="33.081981666666664" lon="35.16093333333333">
        <ele>122.99999999999994</ele>
        <time>2013-02-12T21:45:07.19</time>
      </trkpt>
      <trkpt lat="33.08199333333334" lon="35.160956666666664">
        <ele>123.39999999999995</ele>
        <time>2013-02-12T21:45:09.19</time>
      </trkpt>
      <trkpt lat="33.08201" lon="35.160963333333335">
        <ele>123.69999999999995</ele>
        <time>2013-02-12T21:45:10.18</time>
      </trkpt>
      <trkpt lat="33.082025" lon="35.160955">
        <ele>124.19999999999995</ele>
        <time>2013-02-12T21:45:11.19</time>
      </trkpt>
      <trkpt lat="33.082055" lon="35.16093166666667">
        <ele>124.09999999999995</ele>
        <time>2013-02-12T21:45:12.19</time>
      </trkpt>
      <trkpt lat="33.082073333333334" lon="35.16096666666667">
        <ele>124.69999999999995</ele>
        <time>2013-02-12T21:45:13.24</time>
      </trkpt>
      <trkpt lat="33.082095" lon="35.16096833333334">
        <ele>123.99999999999994</ele>
        <time>2013-02-12T21:45:14.20</time>
      </trkpt>
      <trkpt lat="33.08211333333333" lon="35.16097166666667">
        <ele>124.09999999999994</ele>
        <time>2013-02-12T21:45:15.18</time>
      </trkpt>
      <trkpt lat="33.082121666666666" lon="35.16095833333333">
        <ele>125.19999999999993</ele>
        <time>2013-02-12T21:45:16.19</time>
      </trkpt>
      <trkpt lat="33.082135" lon="35.16095">
        <ele>125.19999999999993</ele>
        <time>2013-02-12T21:45:17.18</time>
      </trkpt>
      <trkpt lat="33.082141666666665" lon="35.160956666666664">
        <ele>126.79999999999993</ele>
        <time>2013-02-12T21:45:18.18</time>
      </trkpt>
      <trkpt lat="33.08215333333333" lon="35.16096">
        <ele>126.79999999999993</ele>
        <time>2013-02-12T21:45:19.18</time>
      </trkpt>
      <trkpt lat="33.082166666666666" lon="35.160965">
        <ele>126.59999999999992</ele>
        <time>2013-02-12T21:45:20.20</time>
      </trkpt>
      <trkpt lat="33.082186666666665" lon="35.16098">
        <ele>126.89999999999992</ele>
        <time>2013-02-12T21:45:21.20</time>
      </trkpt>
      <trkpt lat="33.08219166666667" lon="35.16099">
        <ele>127.29999999999993</ele>
        <time>2013-02-12T21:45:22.20</time>
      </trkpt>
      <trkpt lat="33.082225" lon="35.160988333333336">
        <ele>127.49999999999993</ele>
        <time>2013-02-12T21:45:23.19</time>
      </trkpt>
      <trkpt lat="33.08224166666667" lon="35.16099166666667">
        <ele>127.59999999999992</ele>
        <time>2013-02-12T21:45:24.18</time>
      </trkpt>
      <trkpt lat="33.082256666666666" lon="35.161005">
        <ele>127.49999999999993</ele>
        <time>2013-02-12T21:45:25.18</time>
      </trkpt>
      <trkpt lat="33.08228" lon="35.16101333333334">
        <ele>127.59999999999992</ele>
        <time>2013-02-12T21:45:26.19</time>
      </trkpt>
      <trkpt lat="33.08229166666667" lon="35.16102">
        <ele>127.69999999999992</ele>
        <time>2013-02-12T21:45:27.19</time>
      </trkpt>
      <trkpt lat="33.08231833333333" lon="35.161025">
        <ele>128.39999999999992</ele>
        <time>2013-02-12T21:45:28.19</time>
      </trkpt>
      <trkpt lat="33.08233833333333" lon="35.161015">
        <ele>128.0999999999999</ele>
        <time>2013-02-12T21:45:29.20</time>
      </trkpt>
      <trkpt lat="33.082361666666664" lon="35.161025">
        <ele>128.2999999999999</ele>
        <time>2013-02-12T21:45:30.21</time>
      </trkpt>
      <trkpt lat="33.082368333333335" lon="35.161026666666665">
        <ele>128.7999999999999</ele>
        <time>2013-02-12T21:45:31.18</time>
      </trkpt>
      <trkpt lat="33.08237666666667" lon="35.16104833333333">
        <ele>129.4999999999999</ele>
        <time>2013-02-12T21:45:32.19</time>
      </trkpt>
      <trkpt lat="33.08240333333333" lon="35.16103">
        <ele>129.4999999999999</ele>
        <time>2013-02-12T21:45:33.18</time>
      </trkpt>
      <trkpt lat="33.082435" lon="35.161035">
        <ele>129.4999999999999</ele>
        <time>2013-02-12T21:45:34.19</time>
      </trkpt>
      <trkpt lat="33.082455" lon="35.161053333333335">
        <ele>129.2999999999999</ele>
        <time>2013-02-12T21:45:35.18</time>
      </trkpt>
      <trkpt lat="33.08249" lon="35.161073333333334">
        <ele>128.9999999999999</ele>
        <time>2013-02-12T21:45:36.20</time>
      </trkpt>
      <trkpt lat="33.082501666666666" lon="35.16108166666667">
        <ele>129.4999999999999</ele>
        <time>2013-02-12T21:45:37.18</time>
      </trkpt>
      <trkpt lat="33.082528333333336" lon="35.16108833333333">
        <ele>129.2999999999999</ele>
        <time>2013-02-12T21:45:38.20</time>
      </trkpt>
      <trkpt lat="33.08255166666667" lon="35.16108166666667">
        <ele>129.1999999999999</ele>
        <time>2013-02-12T21:45:39.18</time>
      </trkpt>
      <trkpt lat="33.082573333333336" lon="35.161096666666666">
        <ele>129.3999999999999</ele>
        <time>2013-02-12T21:45:40.18</time>
      </trkpt>
      <trkpt lat="33.082585" lon="35.161115">
        <ele>130.2999999999999</ele>
        <time>2013-02-12T21:45:41.19</time>
      </trkpt>
      <trkpt lat="33.08260666666666" lon="35.161116666666665">
        <ele>129.5999999999999</ele>
        <time>2013-02-12T21:45:42.19</time>
      </trkpt>
      <trkpt lat="33.082593333333335" lon="35.16113333333333">
        <ele>129.49999999999991</ele>
        <time>2013-02-12T21:45:43.18</time>
      </trkpt>
      <trkpt lat="33.082591666666666" lon="35.161118333333334">
        <ele>127.39999999999992</ele>
        <time>2013-02-12T21:45:44.20</time>
      </trkpt>
      <trkpt lat="33.08259666666667" lon="35.16112833333333">
        <ele>127.49999999999991</ele>
        <time>2013-02-12T21:45:45.19</time>
      </trkpt>
      <trkpt lat="33.08260666666666" lon="35.16114666666667">
        <ele>126.39999999999992</ele>
        <time>2013-02-12T21:45:46.19</time>
      </trkpt>
      <trkpt lat="33.08260333333333" lon="35.16115166666667">
        <ele>126.99999999999991</ele>
        <time>2013-02-12T21:45:47.18</time>
      </trkpt>
      <trkpt lat="33.08260666666666" lon="35.161161666666665">
        <ele>126.79999999999991</ele>
        <time>2013-02-12T21:45:48.19</time>
      </trkpt>
      <trkpt lat="33.08260166666667" lon="35.16115833333333">
        <ele>126.3999999999999</ele>
        <time>2013-02-12T21:45:49.18</time>
      </trkpt>
      <trkpt lat="33.0826" lon="35.16115">
        <ele>127.6999999999999</ele>
        <time>2013-02-12T21:45:50.19</time>
      </trkpt>
      <trkpt lat="33.082611666666665" lon="35.161155">
        <ele>126.8999999999999</ele>
        <time>2013-02-12T21:45:51.18</time>
      </trkpt>
      <trkpt lat="33.082611666666665" lon="35.16117333333333">
        <ele>127.1999999999999</ele>
        <time>2013-02-12T21:45:52.18</time>
      </trkpt>
      <trkpt lat="33.08261" lon="35.16118">
        <ele>126.59999999999991</ele>
        <time>2013-02-12T21:45:53.19</time>
      </trkpt>
      <trkpt lat="33.082595" lon="35.16122166666667">
        <ele>127.29999999999991</ele>
        <time>2013-02-12T21:45:54.19</time>
      </trkpt>
      <trkpt lat="33.08259666666667" lon="35.16125666666667">
        <ele>129.0999999999999</ele>
        <time>2013-02-12T21:45:55.19</time>
      </trkpt>
      <trkpt lat="33.08259666666667" lon="35.161273333333334">
        <ele>128.1999999999999</ele>
        <time>2013-02-12T21:45:56.19</time>
      </trkpt>
      <trkpt lat="33.08261666666667" lon="35.161298333333335">
        <ele>129.1999999999999</ele>
        <time>2013-02-12T21:45:58.18</time>
      </trkpt>
      <trkpt lat="33.08263" lon="35.161323333333335">
        <ele>128.8999999999999</ele>
        <time>2013-02-12T21:45:59.19</time>
      </trkpt>
      <trkpt lat="33.08262333333333" lon="35.16134">
        <ele>129.59999999999988</ele>
        <time>2013-02-12T21:46:00.17</time>
      </trkpt>
      <trkpt lat="33.08263" lon="35.16137">
        <ele>129.29999999999987</ele>
        <time>2013-02-12T21:46:01.20</time>
      </trkpt>
      <trkpt lat="33.08263" lon="35.161381666666664">
        <ele>129.19999999999987</ele>
        <time>2013-02-12T21:46:02.20</time>
      </trkpt>
      <trkpt lat="33.08261666666667" lon="35.161385">
        <ele>130.29999999999987</ele>
        <time>2013-02-12T21:46:03.19</time>
      </trkpt>
      <trkpt lat="33.082595" lon="35.16139166666667">
        <ele>130.99999999999986</ele>
        <time>2013-02-12T21:46:04.25</time>
      </trkpt>
      <trkpt lat="33.08258166666667" lon="35.16139">
        <ele>131.49999999999986</ele>
        <time>2013-02-12T21:46:05.18</time>
      </trkpt>
      <trkpt lat="33.082573333333336" lon="35.161411666666666">
        <ele>130.89999999999986</ele>
        <time>2013-02-12T21:46:06.20</time>
      </trkpt>
      <trkpt lat="33.08255333333334" lon="35.16142833333333">
        <ele>131.79999999999987</ele>
        <time>2013-02-12T21:46:07.19</time>
      </trkpt>
      <trkpt lat="33.082546666666666" lon="35.161445">
        <ele>132.09999999999988</ele>
        <time>2013-02-12T21:46:08.22</time>
      </trkpt>
      <trkpt lat="33.082523333333334" lon="35.16145">
        <ele>133.4999999999999</ele>
        <time>2013-02-12T21:46:09.19</time>
      </trkpt>
      <trkpt lat="33.08251833333333" lon="35.16147333333333">
        <ele>134.4999999999999</ele>
        <time>2013-02-12T21:46:11.19</time>
      </trkpt>
      <trkpt lat="33.08251666666666" lon="35.16146333333333">
        <ele>135.4999999999999</ele>
        <time>2013-02-12T21:46:12.18</time>
      </trkpt>
      <trkpt lat="33.082503333333335" lon="35.16148666666667">
        <ele>135.69999999999987</ele>
        <time>2013-02-12T21:46:13.19</time>
      </trkpt>
      <trkpt lat="33.08249333333333" lon="35.1615">
        <ele>135.29999999999987</ele>
        <time>2013-02-12T21:46:14.20</time>
      </trkpt>
      <trkpt lat="33.08248666666667" lon="35.16151">
        <ele>135.29999999999987</ele>
        <time>2013-02-12T21:46:15.22</time>
      </trkpt>
      <trkpt lat="33.08248" lon="35.16152833333334">
        <ele>135.79999999999987</ele>
        <time>2013-02-12T21:46:16.20</time>
      </trkpt>
      <trkpt lat="33.082476666666665" lon="35.161535">
        <ele>136.09999999999988</ele>
        <time>2013-02-12T21:46:17.19</time>
      </trkpt>
      <trkpt lat="33.082465" lon="35.161535">
        <ele>135.79999999999987</ele>
        <time>2013-02-12T21:46:18.20</time>
      </trkpt>
      <trkpt lat="33.08244833333333" lon="35.16155166666667">
        <ele>134.99999999999986</ele>
        <time>2013-02-12T21:46:20.21</time>
      </trkpt>
      <trkpt lat="33.082445" lon="35.16156333333333">
        <ele>135.29999999999987</ele>
        <time>2013-02-12T21:46:21.18</time>
      </trkpt>
      <trkpt lat="33.082435" lon="35.161568333333335">
        <ele>134.89999999999986</ele>
        <time>2013-02-12T21:46:22.18</time>
      </trkpt>
      <trkpt lat="33.08242833333333" lon="35.16157833333333">
        <ele>134.99999999999986</ele>
        <time>2013-02-12T21:46:24.20</time>
      </trkpt>
      <trkpt lat="33.08241833333334" lon="35.161586666666665">
        <ele>135.19999999999985</ele>
        <time>2013-02-12T21:46:25.20</time>
      </trkpt>
      <trkpt lat="33.082406666666664" lon="35.1616">
        <ele>134.89999999999984</ele>
        <time>2013-02-12T21:46:26.19</time>
      </trkpt>
      <trkpt lat="33.082391666666666" lon="35.16160333333333">
        <ele>135.79999999999984</ele>
        <time>2013-02-12T21:46:27.18</time>
      </trkpt>
      <trkpt lat="33.08237833333333" lon="35.161605">
        <ele>136.49999999999983</ele>
        <time>2013-02-12T21:46:28.18</time>
      </trkpt>
      <trkpt lat="33.082366666666665" lon="35.16161">
        <ele>136.59999999999982</ele>
        <time>2013-02-12T21:46:29.19</time>
      </trkpt>
      <trkpt lat="33.08236" lon="35.161611666666666">
        <ele>136.69999999999982</ele>
        <time>2013-02-12T21:46:30.18</time>
      </trkpt>
      <trkpt lat="33.082365" lon="35.16162166666667">
        <ele>136.09999999999982</ele>
        <time>2013-02-12T21:46:31.18</time>
      </trkpt>
      <trkpt lat="33.08237" lon="35.161611666666666">
        <ele>136.49999999999983</ele>
        <time>2013-02-12T21:46:32.20</time>
      </trkpt>
      <trkpt lat="33.08237666666667" lon="35.16161833333334">
        <ele>136.49999999999983</ele>
        <time>2013-02-12T21:46:33.19</time>
      </trkpt>
      <trkpt lat="33.08236333333333" lon="35.16164166666667">
        <ele>136.4</ele>
        <time>2013-02-12T21:46:40.20</time>
      </trkpt>
      <trkpt lat="33.08235833333333" lon="35.16164666666667">
        <ele>136.1</ele>
        <time>2013-02-12T21:46:43.20</time>
      </trkpt>
      <trkpt lat="33.08232" lon="35.16167166666666">
        <ele>137.2</ele>
        <time>2013-02-12T21:46:46.19</time>
      </trkpt>
      <trkpt lat="33.08230833333333" lon="35.16169166666667">
        <ele>137.7</ele>
        <time>2013-02-12T21:46:47.19</time>
      </trkpt>
      <trkpt lat="33.082283333333336" lon="35.16170833333334">
        <ele>137.1</ele>
        <time>2013-02-12T21:46:48.20</time>
      </trkpt>
      <trkpt lat="33.08226" lon="35.16171666666666">
        <ele>137.1</ele>
        <time>2013-02-12T21:46:49.18</time>
      </trkpt>
      <trkpt lat="33.082245" lon="35.161723333333335">
        <ele>137.6</ele>
        <time>2013-02-12T21:46:50.20</time>
      </trkpt>
      <trkpt lat="33.08222833333333" lon="35.161725">
        <ele>137.9</ele>
        <time>2013-02-12T21:46:51.18</time>
      </trkpt>
      <trkpt lat="33.082205" lon="35.16173333333333">
        <ele>138.5</ele>
        <time>2013-02-12T21:46:52.19</time>
      </trkpt>
      <trkpt lat="33.08219666666667" lon="35.161745">
        <ele>138.3</ele>
        <time>2013-02-12T21:46:53.19</time>
      </trkpt>
      <trkpt lat="33.08218166666666" lon="35.161755">
        <ele>138.5</ele>
        <time>2013-02-12T21:46:54.18</time>
      </trkpt>
      <trkpt lat="33.08212833333333" lon="35.161791666666666">
        <ele>138.3</ele>
        <time>2013-02-12T21:46:55.19</time>
      </trkpt>
      <trkpt lat="33.082121666666666" lon="35.161825">
        <ele>138.10000000000002</ele>
        <time>2013-02-12T21:46:56.20</time>
      </trkpt>
      <trkpt lat="33.08210166666667" lon="35.16183">
        <ele>137.70000000000002</ele>
        <time>2013-02-12T21:46:57.19</time>
      </trkpt>
      <trkpt lat="33.08209" lon="35.161831666666664">
        <ele>138.60000000000002</ele>
        <time>2013-02-12T21:46:58.19</time>
      </trkpt>
      <trkpt lat="33.08207" lon="35.161818333333336">
        <ele>139.00000000000003</ele>
        <time>2013-02-12T21:46:59.18</time>
      </trkpt>
      <trkpt lat="33.08205" lon="35.16182166666667">
        <ele>139.60000000000002</ele>
        <time>2013-02-12T21:47:00.16</time>
      </trkpt>
      <trkpt lat="33.082045" lon="35.16183">
        <ele>139.60000000000002</ele>
        <time>2013-02-12T21:47:01.19</time>
      </trkpt>
      <trkpt lat="33.08203666666667" lon="35.16184666666667">
        <ele>139.90000000000003</ele>
        <time>2013-02-12T21:47:03.19</time>
      </trkpt>
      <trkpt lat="33.08202166666667" lon="35.161856666666665">
        <ele>139.60000000000002</ele>
        <time>2013-02-12T21:47:04.19</time>
      </trkpt>
      <trkpt lat="33.08200166666666" lon="35.161881666666666">
        <ele>139.20000000000002</ele>
        <time>2013-02-12T21:47:05.21</time>
      </trkpt>
      <trkpt lat="33.08197666666667" lon="35.16189833333333">
        <ele>139.60000000000002</ele>
        <time>2013-02-12T21:47:06.19</time>
      </trkpt>
      <trkpt lat="33.08195333333333" lon="35.161948333333335">
        <ele>140.40000000000003</ele>
        <time>2013-02-12T21:47:07.19</time>
      </trkpt>
      <trkpt lat="33.08193833333333" lon="35.16195833333333">
        <ele>141.6</ele>
        <time>2013-02-12T21:47:14.15</time>
      </trkpt>
      <trkpt lat="33.08193333333333" lon="35.16196333333333">
        <ele>141.2</ele>
        <time>2013-02-12T21:47:17.15</time>
      </trkpt>
      <trkpt lat="33.08192666666667" lon="35.161965">
        <ele>141.1</ele>
        <time>2013-02-12T21:47:18.15</time>
      </trkpt>
      <trkpt lat="33.08189333333333" lon="35.16199833333334">
        <ele>141.8</ele>
        <time>2013-02-12T21:47:23.15</time>
      </trkpt>
      <trkpt lat="33.081855" lon="35.162005">
        <ele>142.9</ele>
        <time>2013-02-12T21:47:24.15</time>
      </trkpt>
      <trkpt lat="33.08182" lon="35.162016666666666">
        <ele>142.6</ele>
        <time>2013-02-12T21:47:25.18</time>
      </trkpt>
      <trkpt lat="33.08178" lon="35.162045">
        <ele>142.9</ele>
        <time>2013-02-12T21:47:27.18</time>
      </trkpt>
      <trkpt lat="33.081741666666666" lon="35.162095">
        <ele>140.8</ele>
        <time>2013-02-12T21:47:28.17</time>
      </trkpt>
      <trkpt lat="33.081741666666666" lon="35.162101666666665">
        <ele>140.60000000000002</ele>
        <time>2013-02-12T21:47:29.18</time>
      </trkpt>
      <trkpt lat="33.081741666666666" lon="35.1621">
        <ele>141.3</ele>
        <time>2013-02-12T21:47:36.19</time>
      </trkpt>
      <trkpt lat="33.081736666666664" lon="35.16209666666666">
        <ele>142.8</ele>
        <time>2013-02-12T21:47:39.18</time>
      </trkpt>
      <trkpt lat="33.08173166666667" lon="35.16209666666666">
        <ele>143.2</ele>
        <time>2013-02-12T21:47:46.19</time>
      </trkpt>
      <trkpt lat="33.081715" lon="35.16209333333333">
        <ele>143.39999999999998</ele>
        <time>2013-02-12T21:47:47.18</time>
      </trkpt>
      <trkpt lat="33.08171" lon="35.162095">
        <ele>143.79999999999998</ele>
        <time>2013-02-12T21:47:48.19</time>
      </trkpt>
      <trkpt lat="33.081693333333334" lon="35.1621">
        <ele>143.49999999999997</ele>
        <time>2013-02-12T21:47:49.19</time>
      </trkpt>
      <trkpt lat="33.081671666666665" lon="35.1621">
        <ele>143.19999999999996</ele>
        <time>2013-02-12T21:47:50.19</time>
      </trkpt>
      <trkpt lat="33.081651666666666" lon="35.16208666666667">
        <ele>142.99999999999997</ele>
        <time>2013-02-12T21:47:51.19</time>
      </trkpt>
      <trkpt lat="33.08165" lon="35.162101666666665">
        <ele>143.09999999999997</ele>
        <time>2013-02-12T21:47:52.18</time>
      </trkpt>
      <trkpt lat="33.08164" lon="35.16209333333333">
        <ele>143.39999999999998</ele>
        <time>2013-02-12T21:47:53.15</time>
      </trkpt>
      <trkpt lat="33.08162" lon="35.16211333333333">
        <ele>142.89999999999998</ele>
        <time>2013-02-12T21:47:54.15</time>
      </trkpt>
      <trkpt lat="33.081601666666664" lon="35.16214166666666">
        <ele>142.39999999999998</ele>
        <time>2013-02-12T21:47:55.15</time>
      </trkpt>
      <trkpt lat="33.081595" lon="35.162148333333334">
        <ele>141.89999999999998</ele>
        <time>2013-02-12T21:47:56.15</time>
      </trkpt>
      <trkpt lat="33.081581666666665" lon="35.162155">
        <ele>141.59999999999997</ele>
        <time>2013-02-12T21:47:57.15</time>
      </trkpt>
      <trkpt lat="33.08156833333334" lon="35.162153333333336">
        <ele>141.19999999999996</ele>
        <time>2013-02-12T21:47:58.14</time>
      </trkpt>
      <trkpt lat="33.081556666666664" lon="35.16215166666667">
        <ele>141.19999999999996</ele>
        <time>2013-02-12T21:47:59.15</time>
      </trkpt>
      <trkpt lat="33.081541666666666" lon="35.162153333333336">
        <ele>141.39999999999995</ele>
        <time>2013-02-12T21:48:00.15</time>
      </trkpt>
      <trkpt lat="33.08152166666667" lon="35.16216166666667">
        <ele>141.29999999999995</ele>
        <time>2013-02-12T21:48:01.15</time>
      </trkpt>
      <trkpt lat="33.08150333333333" lon="35.162155">
        <ele>141.69999999999996</ele>
        <time>2013-02-12T21:48:02.15</time>
      </trkpt>
      <trkpt lat="33.08148833333333" lon="35.162153333333336">
        <ele>142.29999999999995</ele>
        <time>2013-02-12T21:48:03.18</time>
      </trkpt>
      <trkpt lat="33.08148166666667" lon="35.16215166666667">
        <ele>141.99999999999994</ele>
        <time>2013-02-12T21:48:04.19</time>
      </trkpt>
      <trkpt lat="33.08147" lon="35.162165">
        <ele>142.79999999999995</ele>
        <time>2013-02-12T21:48:05.18</time>
      </trkpt>
      <trkpt lat="33.08145833333333" lon="35.16215833333333">
        <ele>141.69999999999996</ele>
        <time>2013-02-12T21:48:06.15</time>
      </trkpt>
      <trkpt lat="33.081455" lon="35.162171666666666">
        <ele>141.09999999999997</ele>
        <time>2013-02-12T21:48:08.15</time>
      </trkpt>
      <trkpt lat="33.08143333333334" lon="35.16217666666667">
        <ele>142.7</ele>
        <time>2013-02-12T21:48:15.18</time>
      </trkpt>
      <trkpt lat="33.081425" lon="35.162173333333335">
        <ele>142.79999999999998</ele>
        <time>2013-02-12T21:48:17.18</time>
      </trkpt>
      <trkpt lat="33.0814" lon="35.162166666666664">
        <ele>142.6</ele>
        <time>2013-02-12T21:48:18.18</time>
      </trkpt>
      <trkpt lat="33.081383333333335" lon="35.16217666666667">
        <ele>142.6</ele>
        <time>2013-02-12T21:48:19.19</time>
      </trkpt>
      <trkpt lat="33.08135333333333" lon="35.16218666666666">
        <ele>142.9</ele>
        <time>2013-02-12T21:48:20.18</time>
      </trkpt>
      <trkpt lat="33.081335" lon="35.16219">
        <ele>142.70000000000002</ele>
        <time>2013-02-12T21:48:21.19</time>
      </trkpt>
      <trkpt lat="33.081318333333336" lon="35.16222">
        <ele>143.10000000000002</ele>
        <time>2013-02-12T21:48:22.18</time>
      </trkpt>
      <trkpt lat="33.08127666666667" lon="35.162225">
        <ele>143.50000000000003</ele>
        <time>2013-02-12T21:48:23.19</time>
      </trkpt>
      <trkpt lat="33.081265" lon="35.16223333333333">
        <ele>143.10000000000002</ele>
        <time>2013-02-12T21:48:24.21</time>
      </trkpt>
      <trkpt lat="33.08123666666667" lon="35.16226">
        <ele>143.70000000000002</ele>
        <time>2013-02-12T21:48:25.21</time>
      </trkpt>
      <trkpt lat="33.081203333333335" lon="35.16225166666667">
        <ele>144.00000000000003</ele>
        <time>2013-02-12T21:48:26.20</time>
      </trkpt>
      <trkpt lat="33.081181666666666" lon="35.16226">
        <ele>144.40000000000003</ele>
        <time>2013-02-12T21:48:27.18</time>
      </trkpt>
      <trkpt lat="33.081163333333336" lon="35.162261666666666">
        <ele>145.10000000000002</ele>
        <time>2013-02-12T21:48:29.18</time>
      </trkpt>
      <trkpt lat="33.081136666666666" lon="35.162245">
        <ele>145.60000000000002</ele>
        <time>2013-02-12T21:48:30.21</time>
      </trkpt>
      <trkpt lat="33.08112" lon="35.16224666666667">
        <ele>145.60000000000002</ele>
        <time>2013-02-12T21:48:31.19</time>
      </trkpt>
      <trkpt lat="33.08111" lon="35.162238333333335">
        <ele>146.3</ele>
        <time>2013-02-12T21:48:33.18</time>
      </trkpt>
      <trkpt lat="33.08109" lon="35.162256666666664">
        <ele>146.60000000000002</ele>
        <time>2013-02-12T21:48:34.18</time>
      </trkpt>
      <trkpt lat="33.081075" lon="35.16225166666667">
        <ele>146.50000000000003</ele>
        <time>2013-02-12T21:48:35.22</time>
      </trkpt>
      <trkpt lat="33.08105833333333" lon="35.162245">
        <ele>146.90000000000003</ele>
        <time>2013-02-12T21:48:36.19</time>
      </trkpt>
      <trkpt lat="33.081055" lon="35.16227666666666">
        <ele>146.50000000000003</ele>
        <time>2013-02-12T21:48:37.18</time>
      </trkpt>
      <trkpt lat="33.08103333333333" lon="35.162281666666665">
        <ele>147.70000000000002</ele>
        <time>2013-02-12T21:48:38.18</time>
      </trkpt>
      <trkpt lat="33.08101333333333" lon="35.162305">
        <ele>148.3</ele>
        <time>2013-02-12T21:48:39.19</time>
      </trkpt>
      <trkpt lat="33.081023333333334" lon="35.162305">
        <ele>150.8</ele>
        <time>2013-02-12T21:48:40.21</time>
      </trkpt>
      <trkpt lat="33.081003333333335" lon="35.162308333333335">
        <ele>151.70000000000002</ele>
        <time>2013-02-12T21:48:41.25</time>
      </trkpt>
      <trkpt lat="33.080985" lon="35.162308333333335">
        <ele>152.4</ele>
        <time>2013-02-12T21:48:42.19</time>
      </trkpt>
      <trkpt lat="33.080975" lon="35.16231333333333">
        <ele>153.5</ele>
        <time>2013-02-12T21:48:43.18</time>
      </trkpt>
      <trkpt lat="33.08096666666667" lon="35.162315">
        <ele>153.3</ele>
        <time>2013-02-12T21:48:44.19</time>
      </trkpt>
      <trkpt lat="33.08095" lon="35.16232">
        <ele>153.4</ele>
        <time>2013-02-12T21:48:45.18</time>
      </trkpt>
      <trkpt lat="33.08094166666667" lon="35.162315">
        <ele>154</ele>
        <time>2013-02-12T21:48:46.20</time>
      </trkpt>
      <trkpt lat="33.08092833333333" lon="35.16231166666667">
        <ele>154.1</ele>
        <time>2013-02-12T21:48:47.18</time>
      </trkpt>
      <trkpt lat="33.080915" lon="35.162315">
        <ele>154.5</ele>
        <time>2013-02-12T21:48:48.19</time>
      </trkpt>
      <trkpt lat="33.08091" lon="35.16233">
        <ele>154.4</ele>
        <time>2013-02-12T21:48:49.19</time>
      </trkpt>
      <trkpt lat="33.080895" lon="35.16233833333333">
        <ele>154.5</ele>
        <time>2013-02-12T21:48:50.20</time>
      </trkpt>
      <trkpt lat="33.080875" lon="35.162355">
        <ele>153.7</ele>
        <time>2013-02-12T21:48:51.19</time>
      </trkpt>
      <trkpt lat="33.08086333333333" lon="35.16237">
        <ele>153.5</ele>
        <time>2013-02-12T21:48:52.17</time>
      </trkpt>
      <trkpt lat="33.080861666666664" lon="35.1624">
        <ele>152.7</ele>
        <time>2013-02-12T21:48:53.24</time>
      </trkpt>
      <trkpt lat="33.08086" lon="35.162416666666665">
        <ele>152.89999999999998</ele>
        <time>2013-02-12T21:48:54.19</time>
      </trkpt>
      <trkpt lat="33.08086" lon="35.16242833333333">
        <ele>153.7</ele>
        <time>2013-02-12T21:48:55.19</time>
      </trkpt>
      <trkpt lat="33.08087166666667" lon="35.16245333333333">
        <ele>153.39999999999998</ele>
        <time>2013-02-12T21:48:56.19</time>
      </trkpt>
      <trkpt lat="33.080865" lon="35.16248">
        <ele>152.79999999999998</ele>
        <time>2013-02-12T21:48:57.20</time>
      </trkpt>
      <trkpt lat="33.08087" lon="35.162463333333335">
        <ele>152.49999999999997</ele>
        <time>2013-02-12T21:48:58.18</time>
      </trkpt>
      <trkpt lat="33.08088" lon="35.16247333333333">
        <ele>152.19999999999996</ele>
        <time>2013-02-12T21:48:59.18</time>
      </trkpt>
      <trkpt lat="33.080886666666665" lon="35.16249833333333">
        <ele>151.99999999999997</ele>
        <time>2013-02-12T21:49:00.19</time>
      </trkpt>
      <trkpt lat="33.08092333333333" lon="35.16254166666667">
        <ele>151.5</ele>
        <time>2013-02-12T21:49:03.19</time>
      </trkpt>
      <trkpt lat="33.080945" lon="35.16256166666667">
        <ele>152</ele>
        <time>2013-02-12T21:49:04.21</time>
      </trkpt>
      <trkpt lat="33.08096166666667" lon="35.162576666666666">
        <ele>150.9</ele>
        <time>2013-02-12T21:49:05.17</time>
      </trkpt>
      <trkpt lat="33.080976666666665" lon="35.16259">
        <ele>150.4</ele>
        <time>2013-02-12T21:49:06.18</time>
      </trkpt>
      <trkpt lat="33.080996666666664" lon="35.162595">
        <ele>150.5</ele>
        <time>2013-02-12T21:49:07.21</time>
      </trkpt>
      <trkpt lat="33.08101666666666" lon="35.16259">
        <ele>150.7</ele>
        <time>2013-02-12T21:49:08.18</time>
      </trkpt>
      <trkpt lat="33.08101166666667" lon="35.162618333333334">
        <ele>149.1</ele>
        <time>2013-02-12T21:49:09.19</time>
      </trkpt>
      <trkpt lat="33.08101333333333" lon="35.162625">
        <ele>149.5</ele>
        <time>2013-02-12T21:49:10.23</time>
      </trkpt>
      <trkpt lat="33.08100833333334" lon="35.16264">
        <ele>149.2</ele>
        <time>2013-02-12T21:49:11.20</time>
      </trkpt>
      <trkpt lat="33.08098833333333" lon="35.16264">
        <ele>149.2</ele>
        <time>2013-02-12T21:49:12.19</time>
      </trkpt>
      <trkpt lat="33.081" lon="35.16264833333334">
        <ele>149.1</ele>
        <time>2013-02-12T21:49:13.20</time>
      </trkpt>
      <trkpt lat="33.08101" lon="35.16267166666667">
        <ele>148.9</ele>
        <time>2013-02-12T21:49:14.19</time>
      </trkpt>
      <trkpt lat="33.08101333333333" lon="35.16267833333333">
        <ele>148.4</ele>
        <time>2013-02-12T21:49:15.18</time>
      </trkpt>
      <trkpt lat="33.08101666666666" lon="35.162686666666666">
        <ele>148.5</ele>
        <time>2013-02-12T21:49:16.21</time>
      </trkpt>
      <trkpt lat="33.081043333333334" lon="35.16269166666667">
        <ele>148.8</ele>
        <time>2013-02-12T21:49:17.19</time>
      </trkpt>
      <trkpt lat="33.08106" lon="35.16267666666667">
        <ele>149.9</ele>
        <time>2013-02-12T21:49:18.18</time>
      </trkpt>
      <trkpt lat="33.08107" lon="35.16267">
        <ele>150.4</ele>
        <time>2013-02-12T21:49:19.17</time>
      </trkpt>
      <trkpt lat="33.081086666666664" lon="35.16269833333333">
        <ele>151</ele>
        <time>2013-02-12T21:49:20.17</time>
      </trkpt>
      <trkpt lat="33.08107833333333" lon="35.16271833333333">
        <ele>151.6</ele>
        <time>2013-02-12T21:49:21.17</time>
      </trkpt>
      <trkpt lat="33.08108333333333" lon="35.16272333333333">
        <ele>152.4</ele>
        <time>2013-02-12T21:49:22.17</time>
      </trkpt>
      <trkpt lat="33.081085" lon="35.16271166666667">
        <ele>152.70000000000002</ele>
        <time>2013-02-12T21:49:23.18</time>
      </trkpt>
      <trkpt lat="33.081135" lon="35.162733333333335">
        <ele>152.8</ele>
        <time>2013-02-12T21:49:29.21</time>
      </trkpt>
      <trkpt lat="33.08114833333333" lon="35.162753333333335">
        <ele>152.60000000000002</ele>
        <time>2013-02-12T21:49:30.20</time>
      </trkpt>
      <trkpt lat="33.081163333333336" lon="35.16276333333333">
        <ele>153.00000000000003</ele>
        <time>2013-02-12T21:49:31.19</time>
      </trkpt>
      <trkpt lat="33.081195" lon="35.16276">
        <ele>153.40000000000003</ele>
        <time>2013-02-12T21:49:32.19</time>
      </trkpt>
      <trkpt lat="33.081215" lon="35.162785">
        <ele>152.70000000000005</ele>
        <time>2013-02-12T21:49:33.18</time>
      </trkpt>
      <trkpt lat="33.081215" lon="35.1628">
        <ele>153.90000000000003</ele>
        <time>2013-02-12T21:49:34.21</time>
      </trkpt>
      <trkpt lat="33.081226666666666" lon="35.162805">
        <ele>153.70000000000005</ele>
        <time>2013-02-12T21:49:35.20</time>
      </trkpt>
      <trkpt lat="33.081228333333335" lon="35.16282">
        <ele>154.00000000000006</ele>
        <time>2013-02-12T21:49:36.19</time>
      </trkpt>
      <trkpt lat="33.08124166666666" lon="35.16282833333333">
        <ele>154.20000000000005</ele>
        <time>2013-02-12T21:49:37.20</time>
      </trkpt>
      <trkpt lat="33.08126166666667" lon="35.16284666666667">
        <ele>154.00000000000006</ele>
        <time>2013-02-12T21:49:39.20</time>
      </trkpt>
      <trkpt lat="33.08126333333333" lon="35.16285833333333">
        <ele>154.10000000000005</ele>
        <time>2013-02-12T21:49:40.19</time>
      </trkpt>
      <trkpt lat="33.081271666666666" lon="35.16287833333333">
        <ele>154.20000000000005</ele>
        <time>2013-02-12T21:49:41.17</time>
      </trkpt>
      <trkpt lat="33.08127666666667" lon="35.16287333333333">
        <ele>153.90000000000003</ele>
        <time>2013-02-12T21:49:42.18</time>
      </trkpt>
      <trkpt lat="33.081286666666664" lon="35.162895">
        <ele>153.60000000000002</ele>
        <time>2013-02-12T21:49:43.16</time>
      </trkpt>
      <trkpt lat="33.08129" lon="35.162906666666665">
        <ele>153.70000000000002</ele>
        <time>2013-02-12T21:49:44.18</time>
      </trkpt>
      <trkpt lat="33.08130166666667" lon="35.16292166666667">
        <ele>154.10000000000002</ele>
        <time>2013-02-12T21:49:45.17</time>
      </trkpt>
      <trkpt lat="33.081313333333334" lon="35.162935">
        <ele>154.40000000000003</ele>
        <time>2013-02-12T21:49:46.15</time>
      </trkpt>
      <trkpt lat="33.081335" lon="35.162945">
        <ele>154.30000000000004</ele>
        <time>2013-02-12T21:49:47.15</time>
      </trkpt>
      <trkpt lat="33.08134833333333" lon="35.16294833333333">
        <ele>154.40000000000003</ele>
        <time>2013-02-12T21:49:48.15</time>
      </trkpt>
      <trkpt lat="33.08136833333333" lon="35.162978333333335">
        <ele>154.70000000000005</ele>
        <time>2013-02-12T21:49:49.18</time>
      </trkpt>
      <trkpt lat="33.08138" lon="35.16299">
        <ele>154.90000000000003</ele>
        <time>2013-02-12T21:49:50.16</time>
      </trkpt>
      <trkpt lat="33.081381666666665" lon="35.163005">
        <ele>154.90000000000003</ele>
        <time>2013-02-12T21:49:51.21</time>
      </trkpt>
      <trkpt lat="33.08139166666667" lon="35.163">
        <ele>155.70000000000005</ele>
        <time>2013-02-12T21:49:52.18</time>
      </trkpt>
      <trkpt lat="33.08141666666667" lon="35.16302666666667">
        <ele>155.80000000000004</ele>
        <time>2013-02-12T21:49:53.17</time>
      </trkpt>
      <trkpt lat="33.081426666666665" lon="35.16303">
        <ele>156.30000000000004</ele>
        <time>2013-02-12T21:49:54.17</time>
      </trkpt>
      <trkpt lat="33.08143" lon="35.16303833333333">
        <ele>156.30000000000004</ele>
        <time>2013-02-12T21:49:55.18</time>
      </trkpt>
      <trkpt lat="33.08143333333334" lon="35.163045">
        <ele>156.20000000000005</ele>
        <time>2013-02-12T21:49:56.15</time>
      </trkpt>
      <trkpt lat="33.08144" lon="35.163045">
        <ele>156.30000000000004</ele>
        <time>2013-02-12T21:49:57.15</time>
      </trkpt>
      <trkpt lat="33.081465" lon="35.16303666666666">
        <ele>157.00000000000003</ele>
        <time>2013-02-12T21:49:58.15</time>
      </trkpt>
      <trkpt lat="33.081493333333334" lon="35.16303">
        <ele>157.50000000000003</ele>
        <time>2013-02-12T21:49:59.17</time>
      </trkpt>
      <trkpt lat="33.081515" lon="35.16302666666667">
        <ele>158</ele>
        <time>2013-02-12T21:50:02.15</time>
      </trkpt>
      <trkpt lat="33.081525" lon="35.163061666666664">
        <ele>158.2</ele>
        <time>2013-02-12T21:50:03.23</time>
      </trkpt>
      <trkpt lat="33.08154833333333" lon="35.163045">
        <ele>159.1</ele>
        <time>2013-02-12T21:50:04.18</time>
      </trkpt>
      <trkpt lat="33.08155166666667" lon="35.163061666666664">
        <ele>158.5</ele>
        <time>2013-02-12T21:50:05.18</time>
      </trkpt>
      <trkpt lat="33.08156" lon="35.16307666666667">
        <ele>158.8</ele>
        <time>2013-02-12T21:50:06.20</time>
      </trkpt>
      <trkpt lat="33.08155333333333" lon="35.163105">
        <ele>160.10000000000002</ele>
        <time>2013-02-12T21:50:07.18</time>
      </trkpt>
      <trkpt lat="33.08157333333333" lon="35.16312333333333">
        <ele>160.10000000000002</ele>
        <time>2013-02-12T21:50:08.20</time>
      </trkpt>
      <trkpt lat="33.081561666666666" lon="35.16314">
        <ele>160.50000000000003</ele>
        <time>2013-02-12T21:50:09.19</time>
      </trkpt>
      <trkpt lat="33.08157833333333" lon="35.16314166666667">
        <ele>159.70000000000002</ele>
        <time>2013-02-12T21:50:10.19</time>
      </trkpt>
      <trkpt lat="33.081581666666665" lon="35.163158333333335">
        <ele>158.9</ele>
        <time>2013-02-12T21:50:11.16</time>
      </trkpt>
      <trkpt lat="33.08159166666667" lon="35.16316">
        <ele>159.3</ele>
        <time>2013-02-12T21:50:12.15</time>
      </trkpt>
      <trkpt lat="33.08161166666667" lon="35.163175">
        <ele>159.8</ele>
        <time>2013-02-12T21:50:14.15</time>
      </trkpt>
      <trkpt lat="33.08161" lon="35.16318666666667">
        <ele>160.4</ele>
        <time>2013-02-12T21:50:16.17</time>
      </trkpt>
      <trkpt lat="33.081628333333335" lon="35.163195">
        <ele>161.3</ele>
        <time>2013-02-12T21:50:17.15</time>
      </trkpt>
      <trkpt lat="33.081648333333334" lon="35.16319">
        <ele>161.60000000000002</ele>
        <time>2013-02-12T21:50:18.16</time>
      </trkpt>
      <trkpt lat="33.08167" lon="35.16320833333333">
        <ele>161.70000000000002</ele>
        <time>2013-02-12T21:50:19.15</time>
      </trkpt>
      <trkpt lat="33.08168333333333" lon="35.16320666666667">
        <ele>161.9</ele>
        <time>2013-02-12T21:50:20.15</time>
      </trkpt>
      <trkpt lat="33.08168666666667" lon="35.163215">
        <ele>162.1</ele>
        <time>2013-02-12T21:50:21.15</time>
      </trkpt>
      <trkpt lat="33.08171166666666" lon="35.16323">
        <ele>162.9</ele>
        <time>2013-02-12T21:50:22.18</time>
      </trkpt>
      <trkpt lat="33.081725" lon="35.16323333333333">
        <ele>163</ele>
        <time>2013-02-12T21:50:23.18</time>
      </trkpt>
      <trkpt lat="33.081735" lon="35.163235">
        <ele>163.2</ele>
        <time>2013-02-12T21:50:24.15</time>
      </trkpt>
      <trkpt lat="33.081741666666666" lon="35.16325166666667">
        <ele>162.79999999999998</ele>
        <time>2013-02-12T21:50:25.15</time>
      </trkpt>
      <trkpt lat="33.081736666666664" lon="35.16325833333333">
        <ele>162.49999999999997</ele>
        <time>2013-02-12T21:50:26.15</time>
      </trkpt>
      <trkpt lat="33.08174666666667" lon="35.16327166666667">
        <ele>162.69999999999996</ele>
        <time>2013-02-12T21:50:28.18</time>
      </trkpt>
      <trkpt lat="33.08176" lon="35.163291666666666">
        <ele>161.89999999999995</ele>
        <time>2013-02-12T21:50:29.15</time>
      </trkpt>
      <trkpt lat="33.08177" lon="35.163295">
        <ele>162.19999999999996</ele>
        <time>2013-02-12T21:50:30.15</time>
      </trkpt>
      <trkpt lat="33.08177" lon="35.16330166666667">
        <ele>162.19999999999996</ele>
        <time>2013-02-12T21:50:31.15</time>
      </trkpt>
      <trkpt lat="33.081765" lon="35.16330166666667">
        <ele>162.59999999999997</ele>
        <time>2013-02-12T21:50:32.17</time>
      </trkpt>
      <trkpt lat="33.081781666666664" lon="35.163313333333335">
        <ele>162.99999999999997</ele>
        <time>2013-02-12T21:50:33.22</time>
      </trkpt>
      <trkpt lat="33.08179166666667" lon="35.163315">
        <ele>163.29999999999998</ele>
        <time>2013-02-12T21:50:34.18</time>
      </trkpt>
      <trkpt lat="33.08181" lon="35.16332333333333">
        <ele>163.39999999999998</ele>
        <time>2013-02-12T21:50:35.18</time>
      </trkpt>
      <trkpt lat="33.081828333333334" lon="35.16333">
        <ele>163.89999999999998</ele>
        <time>2013-02-12T21:50:36.16</time>
      </trkpt>
      <trkpt lat="33.081835" lon="35.163338333333336">
        <ele>163.89999999999998</ele>
        <time>2013-02-12T21:50:37.18</time>
      </trkpt>
      <trkpt lat="33.08183666666667" lon="35.163356666666665">
        <ele>163.49999999999997</ele>
        <time>2013-02-12T21:50:38.21</time>
      </trkpt>
      <trkpt lat="33.08184166666667" lon="35.16339166666667">
        <ele>163.69999999999996</ele>
        <time>2013-02-12T21:50:39.19</time>
      </trkpt>
      <trkpt lat="33.08183666666667" lon="35.16341333333333">
        <ele>163.89999999999995</ele>
        <time>2013-02-12T21:50:40.18</time>
      </trkpt>
      <trkpt lat="33.08182166666667" lon="35.163421666666665">
        <ele>162.19999999999996</ele>
        <time>2013-02-12T21:50:41.18</time>
      </trkpt>
      <trkpt lat="33.08181166666667" lon="35.16343333333333">
        <ele>162.29999999999995</ele>
        <time>2013-02-12T21:50:42.16</time>
      </trkpt>
      <trkpt lat="33.08181" lon="35.163426666666666">
        <ele>161.49999999999994</ele>
        <time>2013-02-12T21:50:43.22</time>
      </trkpt>
      <trkpt lat="33.08181" lon="35.16343666666667">
        <ele>161.69999999999993</ele>
        <time>2013-02-12T21:50:44.24</time>
      </trkpt>
      <trkpt lat="33.081801666666664" lon="35.163448333333335">
        <ele>162.19999999999993</ele>
        <time>2013-02-12T21:50:45.24</time>
      </trkpt>
      <trkpt lat="33.08179" lon="35.163455">
        <ele>161.19999999999993</ele>
        <time>2013-02-12T21:50:47.18</time>
      </trkpt>
      <trkpt lat="33.08177833333333" lon="35.163471666666666">
        <ele>161.59999999999994</ele>
        <time>2013-02-12T21:50:48.19</time>
      </trkpt>
      <trkpt lat="33.08177166666667" lon="35.163486666666664">
        <ele>161.69999999999993</ele>
        <time>2013-02-12T21:50:49.17</time>
      </trkpt>
      <trkpt lat="33.081755" lon="35.16348166666667">
        <ele>162.49999999999994</ele>
        <time>2013-02-12T21:50:50.16</time>
      </trkpt>
      <trkpt lat="33.08174666666667" lon="35.16347666666667">
        <ele>162.59999999999994</ele>
        <time>2013-02-12T21:50:51.17</time>
      </trkpt>
      <trkpt lat="33.081755" lon="35.16348">
        <ele>162.99999999999994</ele>
        <time>2013-02-12T21:50:52.19</time>
      </trkpt>
      <trkpt lat="33.081745" lon="35.163466666666665">
        <ele>162.89999999999995</ele>
        <time>2013-02-12T21:50:53.17</time>
      </trkpt>
      <trkpt lat="33.08174" lon="35.16346">
        <ele>162.69999999999996</ele>
        <time>2013-02-12T21:50:54.17</time>
      </trkpt>
      <trkpt lat="33.08173" lon="35.16345333333334">
        <ele>162.09999999999997</ele>
        <time>2013-02-12T21:50:55.18</time>
      </trkpt>
      <trkpt lat="33.081735" lon="35.163446666666665">
        <ele>161.89999999999998</ele>
        <time>2013-02-12T21:50:56.16</time>
      </trkpt>
      <trkpt lat="33.081735" lon="35.163455">
        <ele>162.59999999999997</ele>
        <time>2013-02-12T21:50:57.17</time>
      </trkpt>
      <trkpt lat="33.08175166666667" lon="35.16345666666667">
        <ele>163.09999999999997</ele>
        <time>2013-02-12T21:50:58.17</time>
      </trkpt>
      <trkpt lat="33.081741666666666" lon="35.16346166666667">
        <ele>163.09999999999997</ele>
        <time>2013-02-12T21:50:59.16</time>
      </trkpt>
      <trkpt lat="33.08173333333333" lon="35.16345333333334">
        <ele>163.39999999999998</ele>
        <time>2013-02-12T21:51:00.14</time>
      </trkpt>
      <trkpt lat="33.081715" lon="35.16345166666667">
        <ele>163.09999999999997</ele>
        <time>2013-02-12T21:51:01.17</time>
      </trkpt>
      <trkpt lat="33.08169" lon="35.16344333333333">
        <ele>163.29999999999995</ele>
        <time>2013-02-12T21:51:02.19</time>
      </trkpt>
      <trkpt lat="33.08166333333333" lon="35.16345166666667">
        <ele>163.49999999999994</ele>
        <time>2013-02-12T21:51:03.16</time>
      </trkpt>
      <trkpt lat="33.08165" lon="35.163426666666666">
        <ele>165.09999999999994</ele>
        <time>2013-02-12T21:51:05.15</time>
      </trkpt>
      <trkpt lat="33.08161833333333" lon="35.16344">
        <ele>165.5</ele>
        <time>2013-02-12T21:51:08.20</time>
      </trkpt>
      <trkpt lat="33.081603333333334" lon="35.163448333333335">
        <ele>165.6</ele>
        <time>2013-02-12T21:51:09.17</time>
      </trkpt>
      <trkpt lat="33.08159666666667" lon="35.163445">
        <ele>165.9</ele>
        <time>2013-02-12T21:51:10.18</time>
      </trkpt>
      <trkpt lat="33.081588333333336" lon="35.16345333333334">
        <ele>165.8</ele>
        <time>2013-02-12T21:51:11.17</time>
      </trkpt>
      <trkpt lat="33.081561666666666" lon="35.16346166666667">
        <ele>165.60000000000002</ele>
        <time>2013-02-12T21:51:12.18</time>
      </trkpt>
      <trkpt lat="33.08154833333333" lon="35.16347666666667">
        <ele>165.90000000000003</ele>
        <time>2013-02-12T21:51:13.16</time>
      </trkpt>
      <trkpt lat="33.08153333333333" lon="35.16347833333333">
        <ele>166.30000000000004</ele>
        <time>2013-02-12T21:51:14.19</time>
      </trkpt>
      <trkpt lat="33.08150833333333" lon="35.16349">
        <ele>166.20000000000005</ele>
        <time>2013-02-12T21:51:15.25</time>
      </trkpt>
      <trkpt lat="33.08150166666667" lon="35.16348333333333">
        <ele>166.00000000000006</ele>
        <time>2013-02-12T21:51:16.22</time>
      </trkpt>
      <trkpt lat="33.08148333333333" lon="35.16348166666667">
        <ele>165.80000000000007</ele>
        <time>2013-02-12T21:51:17.18</time>
      </trkpt>
      <trkpt lat="33.081455" lon="35.16348166666667">
        <ele>165.70000000000007</ele>
        <time>2013-02-12T21:51:18.20</time>
      </trkpt>
      <trkpt lat="33.08144" lon="35.163493333333335">
        <ele>164.90000000000006</ele>
        <time>2013-02-12T21:51:19.17</time>
      </trkpt>
      <trkpt lat="33.08143" lon="35.163485">
        <ele>164.70000000000007</ele>
        <time>2013-02-12T21:51:20.17</time>
      </trkpt>
      <trkpt lat="33.081408333333336" lon="35.16347666666667">
        <ele>164.80000000000007</ele>
        <time>2013-02-12T21:51:21.17</time>
      </trkpt>
      <trkpt lat="33.0814" lon="35.163485">
        <ele>164.50000000000006</ele>
        <time>2013-02-12T21:51:22.18</time>
      </trkpt>
      <trkpt lat="33.081381666666665" lon="35.16348166666667">
        <ele>164.60000000000005</ele>
        <time>2013-02-12T21:51:23.19</time>
      </trkpt>
      <trkpt lat="33.08137" lon="35.163466666666665">
        <ele>165.30000000000004</ele>
        <time>2013-02-12T21:51:24.19</time>
      </trkpt>
      <trkpt lat="33.081355" lon="35.163465">
        <ele>165.20000000000005</ele>
        <time>2013-02-12T21:51:25.17</time>
      </trkpt>
      <trkpt lat="33.08134" lon="35.16345833333333">
        <ele>165.60000000000005</ele>
        <time>2013-02-12T21:51:26.17</time>
      </trkpt>
      <trkpt lat="33.081331666666664" lon="35.16346">
        <ele>166.60000000000005</ele>
        <time>2013-02-12T21:51:27.17</time>
      </trkpt>
      <trkpt lat="33.08132333333333" lon="35.16345666666667">
        <ele>166.70000000000005</ele>
        <time>2013-02-12T21:51:28.18</time>
      </trkpt>
      <trkpt lat="33.08132" lon="35.16345166666667">
        <ele>166.70000000000005</ele>
        <time>2013-02-12T21:51:29.17</time>
      </trkpt>
      <trkpt lat="33.081315" lon="35.163448333333335">
        <ele>167.60000000000005</ele>
        <time>2013-02-12T21:51:30.17</time>
      </trkpt>
      <trkpt lat="33.08132" lon="35.163445">
        <ele>167.40000000000006</ele>
        <time>2013-02-12T21:51:31.16</time>
      </trkpt>
      <trkpt lat="33.081305" lon="35.16344333333333">
        <ele>168.10000000000005</ele>
        <time>2013-02-12T21:51:32.17</time>
      </trkpt>
      <trkpt lat="33.08129666666667" lon="35.16345166666667">
        <ele>167.50000000000006</ele>
        <time>2013-02-12T21:51:33.26</time>
      </trkpt>
      <trkpt lat="33.08128166666667" lon="35.16341833333333">
        <ele>166.80000000000007</ele>
        <time>2013-02-12T21:51:34.19</time>
      </trkpt>
      <trkpt lat="33.08126" lon="35.163415">
        <ele>168.20000000000007</ele>
        <time>2013-02-12T21:51:36.19</time>
      </trkpt>
      <trkpt lat="33.081253333333336" lon="35.16340833333334">
        <ele>168.10000000000008</ele>
        <time>2013-02-12T21:51:37.21</time>
      </trkpt>
      <trkpt lat="33.081226666666666" lon="35.16341">
        <ele>168.70000000000007</ele>
        <time>2013-02-12T21:51:38.65</time>
      </trkpt>
      <trkpt lat="33.0812" lon="35.163405">
        <ele>168.30000000000007</ele>
        <time>2013-02-12T21:51:39.16</time>
      </trkpt>
      <trkpt lat="33.08119" lon="35.16341333333333">
        <ele>168.60000000000008</ele>
        <time>2013-02-12T21:51:40.17</time>
      </trkpt>
      <trkpt lat="33.08117166666667" lon="35.163421666666665">
        <ele>169.20000000000007</ele>
        <time>2013-02-12T21:51:41.19</time>
      </trkpt>
      <trkpt lat="33.081163333333336" lon="35.16342">
        <ele>168.50000000000009</ele>
        <time>2013-02-12T21:51:42.19</time>
      </trkpt>
      <trkpt lat="33.081155" lon="35.163425">
        <ele>168.70000000000007</ele>
        <time>2013-02-12T21:51:43.16</time>
      </trkpt>
      <trkpt lat="33.08114" lon="35.16343">
        <ele>168.70000000000007</ele>
        <time>2013-02-12T21:51:44.19</time>
      </trkpt>
      <trkpt lat="33.081118333333336" lon="35.163426666666666">
        <ele>169.30000000000007</ele>
        <time>2013-02-12T21:51:45.24</time>
      </trkpt>
      <trkpt lat="33.08109666666667" lon="35.16343166666667">
        <ele>169.60000000000008</ele>
        <time>2013-02-12T21:51:46.19</time>
      </trkpt>
      <trkpt lat="33.08108333333333" lon="35.163446666666665">
        <ele>169.60000000000008</ele>
        <time>2013-02-12T21:51:47.20</time>
      </trkpt>
      <trkpt lat="33.08107666666667" lon="35.163455">
        <ele>169.30000000000007</ele>
        <time>2013-02-12T21:51:48.18</time>
      </trkpt>
      <trkpt lat="33.081065" lon="35.16345666666667">
        <ele>169.90000000000006</ele>
        <time>2013-02-12T21:51:49.19</time>
      </trkpt>
      <trkpt lat="33.081068333333334" lon="35.16345166666667">
        <ele>170.10000000000005</ele>
        <time>2013-02-12T21:51:50.19</time>
      </trkpt>
      <trkpt lat="33.08105333333334" lon="35.163446666666665">
        <ele>170.50000000000006</ele>
        <time>2013-02-12T21:51:51.20</time>
      </trkpt>
      <trkpt lat="33.081025" lon="35.16345166666667">
        <ele>170.00000000000006</ele>
        <time>2013-02-12T21:51:52.19</time>
      </trkpt>
      <trkpt lat="33.08101833333333" lon="35.163471666666666">
        <ele>170.10000000000005</ele>
        <time>2013-02-12T21:51:53.18</time>
      </trkpt>
      <trkpt lat="33.08099333333333" lon="35.163473333333336">
        <ele>170.20000000000005</ele>
        <time>2013-02-12T21:51:54.19</time>
      </trkpt>
      <trkpt lat="33.08097333333333" lon="35.16347666666667">
        <ele>170.30000000000004</ele>
        <time>2013-02-12T21:51:55.18</time>
      </trkpt>
      <trkpt lat="33.08097166666667" lon="35.163466666666665">
        <ele>170.20000000000005</ele>
        <time>2013-02-12T21:51:56.20</time>
      </trkpt>
      <trkpt lat="33.080955" lon="35.163473333333336">
        <ele>170.20000000000005</ele>
        <time>2013-02-12T21:51:57.18</time>
      </trkpt>
      <trkpt lat="33.08092166666667" lon="35.163486666666664">
        <ele>169.90000000000003</ele>
        <time>2013-02-12T21:51:58.20</time>
      </trkpt>
      <trkpt lat="33.08091" lon="35.163486666666664">
        <ele>169.80000000000004</ele>
        <time>2013-02-12T21:51:59.19</time>
      </trkpt>
      <trkpt lat="33.080886666666665" lon="35.16348">
        <ele>169.80000000000004</ele>
        <time>2013-02-12T21:52:00.17</time>
      </trkpt>
      <trkpt lat="33.08087833333333" lon="35.16346333333333">
        <ele>169.50000000000003</ele>
        <time>2013-02-12T21:52:01.19</time>
      </trkpt>
      <trkpt lat="33.08085666666667" lon="35.163428333333336">
        <ele>169.90000000000003</ele>
        <time>2013-02-12T21:52:02.20</time>
      </trkpt>
      <trkpt lat="33.08083" lon="35.163435">
        <ele>170.10000000000002</ele>
        <time>2013-02-12T21:52:03.19</time>
      </trkpt>
      <trkpt lat="33.08081333333333" lon="35.16345333333334">
        <ele>169.60000000000002</ele>
        <time>2013-02-12T21:52:04.19</time>
      </trkpt>
      <trkpt lat="33.080803333333336" lon="35.16345166666667">
        <ele>169.90000000000003</ele>
        <time>2013-02-12T21:52:05.20</time>
      </trkpt>
      <trkpt lat="33.080783333333336" lon="35.163441666666664">
        <ele>170.40000000000003</ele>
        <time>2013-02-12T21:52:06.19</time>
      </trkpt>
      <trkpt lat="33.080771666666664" lon="35.16343666666667">
        <ele>170.30000000000004</ele>
        <time>2013-02-12T21:52:07.20</time>
      </trkpt>
      <trkpt lat="33.080758333333335" lon="35.163428333333336">
        <ele>170.30000000000004</ele>
        <time>2013-02-12T21:52:08.19</time>
      </trkpt>
      <trkpt lat="33.080738333333336" lon="35.163425">
        <ele>170.00000000000003</ele>
        <time>2013-02-12T21:52:09.26</time>
      </trkpt>
      <trkpt lat="33.08072666666666" lon="35.163441666666664">
        <ele>169.60000000000002</ele>
        <time>2013-02-12T21:52:10.20</time>
      </trkpt>
      <trkpt lat="33.08071666666667" lon="35.16343833333333">
        <ele>170.20000000000002</ele>
        <time>2013-02-12T21:52:11.19</time>
      </trkpt>
      <trkpt lat="33.080685" lon="35.163441666666664">
        <ele>170.3</ele>
        <time>2013-02-12T21:52:13.19</time>
      </trkpt>
      <trkpt lat="33.08068166666666" lon="35.16343666666667">
        <ele>169.70000000000002</ele>
        <time>2013-02-12T21:52:14.22</time>
      </trkpt>
      <trkpt lat="33.080675" lon="35.16343833333333">
        <ele>169.4</ele>
        <time>2013-02-12T21:52:15.19</time>
      </trkpt>
      <trkpt lat="33.08066" lon="35.16343666666667">
        <ele>169.9</ele>
        <time>2013-02-12T21:52:16.19</time>
      </trkpt>
      <trkpt lat="33.080645" lon="35.163426666666666">
        <ele>170.4</ele>
        <time>2013-02-12T21:52:17.17</time>
      </trkpt>
      <trkpt lat="33.080643333333335" lon="35.163415">
        <ele>170</ele>
        <time>2013-02-12T21:52:18.19</time>
      </trkpt>
      <trkpt lat="33.080625" lon="35.16341666666667">
        <ele>170.2</ele>
        <time>2013-02-12T21:52:19.19</time>
      </trkpt>
      <trkpt lat="33.08061166666667" lon="35.163415">
        <ele>170.39999999999998</ele>
        <time>2013-02-12T21:52:20.22</time>
      </trkpt>
      <trkpt lat="33.08058833333333" lon="35.163415">
        <ele>170.7</ele>
        <time>2013-02-12T21:52:21.19</time>
      </trkpt>
      <trkpt lat="33.08056166666667" lon="35.16339166666667">
        <ele>171.2</ele>
        <time>2013-02-12T21:52:24.18</time>
      </trkpt>
      <trkpt lat="33.08053666666667" lon="35.16338">
        <ele>170.79999999999998</ele>
        <time>2013-02-12T21:52:25.22</time>
      </trkpt>
      <trkpt lat="33.08052333333333" lon="35.16337333333333">
        <ele>170.7</ele>
        <time>2013-02-12T21:52:26.20</time>
      </trkpt>
      <trkpt lat="33.080513333333336" lon="35.16337166666667">
        <ele>171.1</ele>
        <time>2013-02-12T21:52:27.26</time>
      </trkpt>
      <trkpt lat="33.08049" lon="35.16336">
        <ele>171.29999999999998</ele>
        <time>2013-02-12T21:52:28.19</time>
      </trkpt>
      <trkpt lat="33.08047666666667" lon="35.163363333333336">
        <ele>170.89999999999998</ele>
        <time>2013-02-12T21:52:29.19</time>
      </trkpt>
      <trkpt lat="33.080445" lon="35.16337">
        <ele>170.79999999999998</ele>
        <time>2013-02-12T21:52:30.20</time>
      </trkpt>
      <trkpt lat="33.08042833333333" lon="35.16338">
        <ele>170.1</ele>
        <time>2013-02-12T21:52:31.20</time>
      </trkpt>
      <trkpt lat="33.080405" lon="35.163383333333336">
        <ele>169.9</ele>
        <time>2013-02-12T21:52:32.21</time>
      </trkpt>
      <trkpt lat="33.08038666666667" lon="35.16339">
        <ele>169.70000000000002</ele>
        <time>2013-02-12T21:52:33.24</time>
      </trkpt>
      <trkpt lat="33.08037" lon="35.163395">
        <ele>169.70000000000002</ele>
        <time>2013-02-12T21:52:34.19</time>
      </trkpt>
      <trkpt lat="33.08034833333333" lon="35.163403333333335">
        <ele>169.4</ele>
        <time>2013-02-12T21:52:35.20</time>
      </trkpt>
      <trkpt lat="33.080325" lon="35.163403333333335">
        <ele>169.6</ele>
        <time>2013-02-12T21:52:36.19</time>
      </trkpt>
      <trkpt lat="33.08029666666667" lon="35.16341166666667">
        <ele>170.1</ele>
        <time>2013-02-12T21:52:37.21</time>
      </trkpt>
      <trkpt lat="33.08026666666667" lon="35.16342">
        <ele>170.7</ele>
        <time>2013-02-12T21:52:38.18</time>
      </trkpt>
      <trkpt lat="33.080241666666666" lon="35.16344">
        <ele>171.2</ele>
        <time>2013-02-12T21:52:39.23</time>
      </trkpt>
      <trkpt lat="33.080225" lon="35.16346">
        <ele>170.5</ele>
        <time>2013-02-12T21:52:40.18</time>
      </trkpt>
      <trkpt lat="33.080198333333335" lon="35.16345333333334">
        <ele>170.7</ele>
        <time>2013-02-12T21:52:41.17</time>
      </trkpt>
      <trkpt lat="33.08018666666667" lon="35.163468333333334">
        <ele>169.79999999999998</ele>
        <time>2013-02-12T21:52:42.17</time>
      </trkpt>
      <trkpt lat="33.08018" lon="35.16347">
        <ele>170.29999999999998</ele>
        <time>2013-02-12T21:52:43.17</time>
      </trkpt>
      <trkpt lat="33.08017" lon="35.16348833333333">
        <ele>170.7</ele>
        <time>2013-02-12T21:52:44.17</time>
      </trkpt>
      <trkpt lat="33.080151666666666" lon="35.16350166666667">
        <ele>171.79999999999998</ele>
        <time>2013-02-12T21:52:45.17</time>
      </trkpt>
      <trkpt lat="33.080133333333336" lon="35.163515">
        <ele>171.6</ele>
        <time>2013-02-12T21:52:46.20</time>
      </trkpt>
      <trkpt lat="33.08012166666666" lon="35.16354166666667">
        <ele>171.4</ele>
        <time>2013-02-12T21:52:47.20</time>
      </trkpt>
      <trkpt lat="33.08012166666666" lon="35.16355">
        <ele>172</ele>
        <time>2013-02-12T21:52:48.21</time>
      </trkpt>
      <trkpt lat="33.080133333333336" lon="35.16357">
        <ele>172</ele>
        <time>2013-02-12T21:52:49.15</time>
      </trkpt>
      <trkpt lat="33.080125" lon="35.163585">
        <ele>172.3</ele>
        <time>2013-02-12T21:52:50.15</time>
      </trkpt>
      <trkpt lat="33.08011166666667" lon="35.16361">
        <ele>172.3</ele>
        <time>2013-02-12T21:52:51.15</time>
      </trkpt>
      <trkpt lat="33.08011" lon="35.163621666666664">
        <ele>172.70000000000002</ele>
        <time>2013-02-12T21:52:52.17</time>
      </trkpt>
      <trkpt lat="33.08011333333334" lon="35.163665">
        <ele>172.60000000000002</ele>
        <time>2013-02-12T21:52:53.16</time>
      </trkpt>
      <trkpt lat="33.08011333333334" lon="35.16368666666666">
        <ele>172.50000000000003</ele>
        <time>2013-02-12T21:52:54.15</time>
      </trkpt>
      <trkpt lat="33.080103333333334" lon="35.163705">
        <ele>172.50000000000003</ele>
        <time>2013-02-12T21:52:55.15</time>
      </trkpt>
      <trkpt lat="33.080105" lon="35.16372166666667">
        <ele>172.60000000000002</ele>
        <time>2013-02-12T21:52:56.14</time>
      </trkpt>
      <trkpt lat="33.08011333333334" lon="35.163738333333335">
        <ele>172.00000000000003</ele>
        <time>2013-02-12T21:52:57.15</time>
      </trkpt>
      <trkpt lat="33.080105" lon="35.16373">
        <ele>172.30000000000004</ele>
        <time>2013-02-12T21:52:58.17</time>
      </trkpt>
      <trkpt lat="33.08009" lon="35.16373">
        <ele>173.00000000000003</ele>
        <time>2013-02-12T21:52:59.17</time>
      </trkpt>
      <trkpt lat="33.08007333333333" lon="35.163736666666665">
        <ele>173.40000000000003</ele>
        <time>2013-02-12T21:53:00.15</time>
      </trkpt>
      <trkpt lat="33.080083333333334" lon="35.163735">
        <ele>173.1</ele>
        <time>2013-02-12T21:53:07.15</time>
      </trkpt>
      <trkpt lat="33.08007166666667" lon="35.163738333333335">
        <ele>172.79999999999998</ele>
        <time>2013-02-12T21:53:08.16</time>
      </trkpt>
      <trkpt lat="33.08006833333334" lon="35.163738333333335">
        <ele>172.9</ele>
        <time>2013-02-12T21:53:15.14</time>
      </trkpt>
      <trkpt lat="33.08006" lon="35.16374833333333">
        <ele>172.7</ele>
        <time>2013-02-12T21:53:19.15</time>
      </trkpt>
      <trkpt lat="33.08006666666667" lon="35.163765">
        <ele>173</ele>
        <time>2013-02-12T21:53:20.15</time>
      </trkpt>
      <trkpt lat="33.08005" lon="35.163776666666664">
        <ele>172.8</ele>
        <time>2013-02-12T21:53:21.19</time>
      </trkpt>
      <trkpt lat="33.080036666666665" lon="35.163788333333336">
        <ele>173</ele>
        <time>2013-02-12T21:53:22.18</time>
      </trkpt>
      <trkpt lat="33.08002333333334" lon="35.16381166666667">
        <ele>172.5</ele>
        <time>2013-02-12T21:53:23.18</time>
      </trkpt>
      <trkpt lat="33.08003" lon="35.16384333333333">
        <ele>173.2</ele>
        <time>2013-02-12T21:53:28.20</time>
      </trkpt>
      <trkpt lat="33.08003166666666" lon="35.16387666666667">
        <ele>172.7</ele>
        <time>2013-02-12T21:53:29.19</time>
      </trkpt>
      <trkpt lat="33.08002333333334" lon="35.16388833333333">
        <ele>171.89999999999998</ele>
        <time>2013-02-12T21:53:30.18</time>
      </trkpt>
      <trkpt lat="33.080016666666666" lon="35.163896666666666">
        <ele>172.29999999999998</ele>
        <time>2013-02-12T21:53:31.21</time>
      </trkpt>
      <trkpt lat="33.080015" lon="35.16388833333333">
        <ele>172.39999999999998</ele>
        <time>2013-02-12T21:53:32.18</time>
      </trkpt>
      <trkpt lat="33.080016666666666" lon="35.16390666666667">
        <ele>172.2</ele>
        <time>2013-02-12T21:53:33.17</time>
      </trkpt>
      <trkpt lat="33.08002166666667" lon="35.163918333333335">
        <ele>171.5</ele>
        <time>2013-02-12T21:53:34.19</time>
      </trkpt>
      <trkpt lat="33.08002833333333" lon="35.16392833333333">
        <ele>171.4</ele>
        <time>2013-02-12T21:53:35.21</time>
      </trkpt>
      <trkpt lat="33.08002166666667" lon="35.16395166666667">
        <ele>172.20000000000002</ele>
        <time>2013-02-12T21:53:36.18</time>
      </trkpt>
      <trkpt lat="33.080015" lon="35.16395833333333">
        <ele>172.3</ele>
        <time>2013-02-12T21:53:37.17</time>
      </trkpt>
      <trkpt lat="33.080018333333335" lon="35.16396833333334">
        <ele>173.10000000000002</ele>
        <time>2013-02-12T21:53:38.21</time>
      </trkpt>
      <trkpt lat="33.08002" lon="35.16398">
        <ele>173.00000000000003</ele>
        <time>2013-02-12T21:53:39.18</time>
      </trkpt>
      <trkpt lat="33.08002" lon="35.16399833333333">
        <ele>172.90000000000003</ele>
        <time>2013-02-12T21:53:40.19</time>
      </trkpt>
      <trkpt lat="33.08" lon="35.163995">
        <ele>172.90000000000003</ele>
        <time>2013-02-12T21:53:41.21</time>
      </trkpt>
      <trkpt lat="33.079998333333336" lon="35.163983333333334">
        <ele>172.40000000000003</ele>
        <time>2013-02-12T21:53:42.18</time>
      </trkpt>
      <trkpt lat="33.08002166666667" lon="35.16398">
        <ele>172.4</ele>
        <time>2013-02-12T21:53:45.25</time>
      </trkpt>
      <trkpt lat="33.08002666666667" lon="35.16399333333333">
        <ele>172.5</ele>
        <time>2013-02-12T21:53:47.18</time>
      </trkpt>
      <trkpt lat="33.08003" lon="35.164001666666664">
        <ele>172.3</ele>
        <time>2013-02-12T21:53:48.19</time>
      </trkpt>
      <trkpt lat="33.080041666666666" lon="35.164015">
        <ele>173.6</ele>
        <time>2013-02-12T21:53:55.18</time>
      </trkpt>
      <trkpt lat="33.08006833333334" lon="35.16402166666666">
        <ele>174.4</ele>
        <time>2013-02-12T21:53:57.21</time>
      </trkpt>
      <trkpt lat="33.08008" lon="35.16400333333333">
        <ele>173.9</ele>
        <time>2013-02-12T21:53:58.20</time>
      </trkpt>
      <trkpt lat="33.08009" lon="35.16396833333334">
        <ele>173.9</ele>
        <time>2013-02-12T21:53:59.19</time>
      </trkpt>
      <trkpt lat="33.08009333333333" lon="35.16399666666667">
        <ele>175.4</ele>
        <time>2013-02-12T21:54:06.26</time>
      </trkpt>
      <trkpt lat="33.08009" lon="35.164001666666664">
        <ele>176.5</ele>
        <time>2013-02-12T21:54:07.27</time>
      </trkpt>
      <trkpt lat="33.08009" lon="35.164001666666664">
        <ele>176.5</ele>
        <time>2013-02-12T21:54:07.66</time>
      </trkpt>
    </trkseg>
  </trk>
</gpx>